<?xml version="1.0" encoding="UTF-8" standalone="no" ?>
<gpx xmlns="http://www.topografix.com/GPX/1/1" xmlns:xsi="http://www.w3.org/2001/XMLSchema-instance" xsi:schemaLocation="http://www.topografix.com/GPX/1/1 http://www.topografix.com/GPX/1/1/gpx.xsd" version="1.1" creator="VisuGPX - https://www.visugpx.com">
  <metadata>
    <name>12ème Mensus forum VTT44.com a La Paquelais-Vigneux</name>
    <desc><![CDATA[12ème Mensus forum VTT44.com a La Paquelais-Vigneux]]></desc>
  </metadata>
  <trk>
    <name><![CDATA[12ème Mensus forum VTT44.com a La Paquelais-Vigneux_1]]></name>
    <trkseg>
      <trkpt lat="47.33132" lon="-1.69606">
        <ele>116</ele>
        <time>2013-10-20T06:31:16.000Z</time>
      </trkpt>
      <trkpt lat="47.33118" lon="-1.69614">
        <ele>115</ele>
        <time>2013-10-20T06:31:57.000Z</time>
      </trkpt>
      <trkpt lat="47.33115" lon="-1.69627">
        <ele>115</ele>
        <time>2013-10-20T06:31:59.000Z</time>
      </trkpt>
      <trkpt lat="47.33116" lon="-1.69644">
        <ele>115</ele>
        <time>2013-10-20T06:32:01.000Z</time>
      </trkpt>
      <trkpt lat="47.33119" lon="-1.69659">
        <ele>115</ele>
        <time>2013-10-20T06:32:03.000Z</time>
      </trkpt>
      <trkpt lat="47.33116" lon="-1.69677">
        <ele>115</ele>
        <time>2013-10-20T06:32:07.000Z</time>
      </trkpt>
      <trkpt lat="47.33116" lon="-1.69677">
        <ele>115</ele>
        <time>2013-10-20T06:32:10.000Z</time>
      </trkpt>
      <trkpt lat="47.33116" lon="-1.69677">
        <ele>115</ele>
        <time>2013-10-20T06:32:14.000Z</time>
      </trkpt>
      <trkpt lat="47.33103" lon="-1.69702">
        <ele>115</ele>
        <time>2013-10-20T06:32:19.000Z</time>
      </trkpt>
      <trkpt lat="47.33101" lon="-1.69719">
        <ele>114</ele>
        <time>2013-10-20T06:32:23.000Z</time>
      </trkpt>
      <trkpt lat="47.33098" lon="-1.69741">
        <ele>114</ele>
        <time>2013-10-20T06:32:27.000Z</time>
      </trkpt>
      <trkpt lat="47.33098" lon="-1.69767">
        <ele>113</ele>
        <time>2013-10-20T06:32:31.000Z</time>
      </trkpt>
      <trkpt lat="47.33098" lon="-1.69782">
        <ele>112</ele>
        <time>2013-10-20T06:32:33.000Z</time>
      </trkpt>
      <trkpt lat="47.33096" lon="-1.69807">
        <ele>112</ele>
        <time>2013-10-20T06:32:37.000Z</time>
      </trkpt>
      <trkpt lat="47.33096" lon="-1.69807">
        <ele>112</ele>
        <time>2013-10-20T06:32:39.000Z</time>
      </trkpt>
      <trkpt lat="47.33092" lon="-1.69837">
        <ele>111</ele>
        <time>2013-10-20T06:32:49.000Z</time>
      </trkpt>
      <trkpt lat="47.33089" lon="-1.69868">
        <ele>111</ele>
        <time>2013-10-20T06:32:53.000Z</time>
      </trkpt>
      <trkpt lat="47.33087" lon="-1.69885">
        <ele>111</ele>
        <time>2013-10-20T06:32:55.000Z</time>
      </trkpt>
      <trkpt lat="47.33084" lon="-1.69904">
        <ele>111</ele>
        <time>2013-10-20T06:32:57.000Z</time>
      </trkpt>
      <trkpt lat="47.33082" lon="-1.69923">
        <ele>111</ele>
        <time>2013-10-20T06:32:59.000Z</time>
      </trkpt>
      <trkpt lat="47.33079" lon="-1.69943">
        <ele>111</ele>
        <time>2013-10-20T06:33:01.000Z</time>
      </trkpt>
      <trkpt lat="47.33074" lon="-1.69962">
        <ele>110</ele>
        <time>2013-10-20T06:33:03.000Z</time>
      </trkpt>
      <trkpt lat="47.33069" lon="-1.69981">
        <ele>110</ele>
        <time>2013-10-20T06:33:05.000Z</time>
      </trkpt>
      <trkpt lat="47.33066" lon="-1.70003">
        <ele>110</ele>
        <time>2013-10-20T06:33:07.000Z</time>
      </trkpt>
      <trkpt lat="47.33065" lon="-1.70026">
        <ele>110</ele>
        <time>2013-10-20T06:33:09.000Z</time>
      </trkpt>
      <trkpt lat="47.33065" lon="-1.70046">
        <ele>109</ele>
        <time>2013-10-20T06:33:11.000Z</time>
      </trkpt>
      <trkpt lat="47.33066" lon="-1.70065">
        <ele>108</ele>
        <time>2013-10-20T06:33:13.000Z</time>
      </trkpt>
      <trkpt lat="47.33065" lon="-1.70082">
        <ele>106</ele>
        <time>2013-10-20T06:33:15.000Z</time>
      </trkpt>
      <trkpt lat="47.33064" lon="-1.70099">
        <ele>105</ele>
        <time>2013-10-20T06:33:17.000Z</time>
      </trkpt>
      <trkpt lat="47.33059" lon="-1.70119">
        <ele>104</ele>
        <time>2013-10-20T06:33:19.000Z</time>
      </trkpt>
      <trkpt lat="47.33056" lon="-1.70131">
        <ele>103</ele>
        <time>2013-10-20T06:33:21.000Z</time>
      </trkpt>
      <trkpt lat="47.33053" lon="-1.70144">
        <ele>103</ele>
        <time>2013-10-20T06:33:23.000Z</time>
      </trkpt>
      <trkpt lat="47.33053" lon="-1.70144">
        <ele>103</ele>
        <time>2013-10-20T06:33:25.000Z</time>
      </trkpt>
      <trkpt lat="47.33047" lon="-1.70167">
        <ele>102</ele>
        <time>2013-10-20T06:33:27.000Z</time>
      </trkpt>
      <trkpt lat="47.33047" lon="-1.70167">
        <ele>102</ele>
        <time>2013-10-20T06:33:29.000Z</time>
      </trkpt>
      <trkpt lat="47.33041" lon="-1.7019">
        <ele>101</ele>
        <time>2013-10-20T06:33:31.000Z</time>
      </trkpt>
      <trkpt lat="47.33041" lon="-1.7019">
        <ele>101</ele>
        <time>2013-10-20T06:33:33.000Z</time>
      </trkpt>
      <trkpt lat="47.33036" lon="-1.70213">
        <ele>100</ele>
        <time>2013-10-20T06:33:35.000Z</time>
      </trkpt>
      <trkpt lat="47.32983" lon="-1.70198">
        <ele>100</ele>
        <time>2013-10-20T06:33:37.000Z</time>
      </trkpt>
      <trkpt lat="47.32972" lon="-1.70198">
        <ele>100</ele>
        <time>2013-10-20T06:33:39.000Z</time>
      </trkpt>
      <trkpt lat="47.32972" lon="-1.70198">
        <ele>100</ele>
        <time>2013-10-20T06:33:41.000Z</time>
      </trkpt>
      <trkpt lat="47.32972" lon="-1.70198">
        <ele>100</ele>
        <time>2013-10-20T06:33:43.000Z</time>
      </trkpt>
      <trkpt lat="47.32972" lon="-1.70198">
        <ele>100</ele>
        <time>2013-10-20T06:33:45.000Z</time>
      </trkpt>
      <trkpt lat="47.32972" lon="-1.70198">
        <ele>100</ele>
        <time>2013-10-20T06:33:47.000Z</time>
      </trkpt>
      <trkpt lat="47.32972" lon="-1.70198">
        <ele>100</ele>
        <time>2013-10-20T06:33:49.000Z</time>
      </trkpt>
      <trkpt lat="47.32972" lon="-1.70198">
        <ele>100</ele>
        <time>2013-10-20T06:33:51.000Z</time>
      </trkpt>
      <trkpt lat="47.32972" lon="-1.70198">
        <ele>100</ele>
        <time>2013-10-20T06:33:53.000Z</time>
      </trkpt>
      <trkpt lat="47.3289" lon="-1.70189">
        <ele>99</ele>
        <time>2013-10-20T06:33:59.000Z</time>
      </trkpt>
      <trkpt lat="47.32881" lon="-1.70188">
        <ele>99</ele>
        <time>2013-10-20T06:34:03.000Z</time>
      </trkpt>
      <trkpt lat="47.32873" lon="-1.70188">
        <ele>99</ele>
        <time>2013-10-20T06:34:05.000Z</time>
      </trkpt>
      <trkpt lat="47.32864" lon="-1.70186">
        <ele>99</ele>
        <time>2013-10-20T06:34:07.000Z</time>
      </trkpt>
      <trkpt lat="47.32854" lon="-1.70185">
        <ele>99</ele>
        <time>2013-10-20T06:34:09.000Z</time>
      </trkpt>
      <trkpt lat="47.32849" lon="-1.70184">
        <ele>99</ele>
        <time>2013-10-20T06:34:12.000Z</time>
      </trkpt>
      <trkpt lat="47.32849" lon="-1.70184">
        <ele>99</ele>
        <time>2013-10-20T06:34:17.000Z</time>
      </trkpt>
      <trkpt lat="47.32844" lon="-1.70365">
        <ele>95</ele>
        <time>2013-10-20T06:36:47.000Z</time>
      </trkpt>
      <trkpt lat="47.32844" lon="-1.70365">
        <ele>95</ele>
        <time>2013-10-20T06:36:53.000Z</time>
      </trkpt>
      <trkpt lat="47.32858" lon="-1.70425">
        <ele>95</ele>
        <time>2013-10-20T06:37:03.000Z</time>
      </trkpt>
      <trkpt lat="47.32861" lon="-1.70453">
        <ele>95</ele>
        <time>2013-10-20T06:37:07.000Z</time>
      </trkpt>
      <trkpt lat="47.32861" lon="-1.70453">
        <ele>95</ele>
        <time>2013-10-20T06:37:09.000Z</time>
      </trkpt>
      <trkpt lat="47.32863" lon="-1.70468">
        <ele>95</ele>
        <time>2013-10-20T06:37:11.000Z</time>
      </trkpt>
      <trkpt lat="47.32863" lon="-1.70468">
        <ele>95</ele>
        <time>2013-10-20T06:37:13.000Z</time>
      </trkpt>
      <trkpt lat="47.32865" lon="-1.70482">
        <ele>95</ele>
        <time>2013-10-20T06:37:15.000Z</time>
      </trkpt>
      <trkpt lat="47.32865" lon="-1.70482">
        <ele>95</ele>
        <time>2013-10-20T06:37:17.000Z</time>
      </trkpt>
      <trkpt lat="47.32865" lon="-1.70482">
        <ele>95</ele>
        <time>2013-10-20T06:37:19.000Z</time>
      </trkpt>
      <trkpt lat="47.32867" lon="-1.70497">
        <ele>95</ele>
        <time>2013-10-20T06:37:21.000Z</time>
      </trkpt>
      <trkpt lat="47.32867" lon="-1.70497">
        <ele>95</ele>
        <time>2013-10-20T06:37:23.000Z</time>
      </trkpt>
      <trkpt lat="47.32867" lon="-1.70497">
        <ele>95</ele>
        <time>2013-10-20T06:37:25.000Z</time>
      </trkpt>
      <trkpt lat="47.32867" lon="-1.70497">
        <ele>95</ele>
        <time>2013-10-20T06:37:27.000Z</time>
      </trkpt>
      <trkpt lat="47.3287" lon="-1.70521">
        <ele>94</ele>
        <time>2013-10-20T06:37:29.000Z</time>
      </trkpt>
      <trkpt lat="47.32876" lon="-1.70537">
        <ele>94</ele>
        <time>2013-10-20T06:37:35.000Z</time>
      </trkpt>
      <trkpt lat="47.32879" lon="-1.70552">
        <ele>94</ele>
        <time>2013-10-20T06:37:41.000Z</time>
      </trkpt>
      <trkpt lat="47.32879" lon="-1.70552">
        <ele>94</ele>
        <time>2013-10-20T06:37:43.000Z</time>
      </trkpt>
      <trkpt lat="47.32879" lon="-1.70552">
        <ele>94</ele>
        <time>2013-10-20T06:37:45.000Z</time>
      </trkpt>
      <trkpt lat="47.32879" lon="-1.70552">
        <ele>94</ele>
        <time>2013-10-20T06:37:47.000Z</time>
      </trkpt>
      <trkpt lat="47.32882" lon="-1.70566">
        <ele>94</ele>
        <time>2013-10-20T06:37:49.000Z</time>
      </trkpt>
      <trkpt lat="47.32882" lon="-1.70566">
        <ele>94</ele>
        <time>2013-10-20T06:37:51.000Z</time>
      </trkpt>
      <trkpt lat="47.32883" lon="-1.70573">
        <ele>94</ele>
        <time>2013-10-20T06:37:55.000Z</time>
      </trkpt>
      <trkpt lat="47.32893" lon="-1.70575">
        <ele>94</ele>
        <time>2013-10-20T06:37:57.000Z</time>
      </trkpt>
      <trkpt lat="47.32898" lon="-1.7058">
        <ele>94</ele>
        <time>2013-10-20T06:37:59.000Z</time>
      </trkpt>
      <trkpt lat="47.32902" lon="-1.70584">
        <ele>94</ele>
        <time>2013-10-20T06:38:01.000Z</time>
      </trkpt>
      <trkpt lat="47.32906" lon="-1.70591">
        <ele>94</ele>
        <time>2013-10-20T06:38:05.000Z</time>
      </trkpt>
      <trkpt lat="47.32909" lon="-1.70599">
        <ele>94</ele>
        <time>2013-10-20T06:38:09.000Z</time>
      </trkpt>
      <trkpt lat="47.32909" lon="-1.70599">
        <ele>94</ele>
        <time>2013-10-20T06:38:11.000Z</time>
      </trkpt>
      <trkpt lat="47.32909" lon="-1.70599">
        <ele>94</ele>
        <time>2013-10-20T06:38:13.000Z</time>
      </trkpt>
      <trkpt lat="47.32909" lon="-1.70599">
        <ele>94</ele>
        <time>2013-10-20T06:38:15.000Z</time>
      </trkpt>
      <trkpt lat="47.32909" lon="-1.70599">
        <ele>94</ele>
        <time>2013-10-20T06:38:17.000Z</time>
      </trkpt>
      <trkpt lat="47.32909" lon="-1.70599">
        <ele>94</ele>
        <time>2013-10-20T06:38:19.000Z</time>
      </trkpt>
      <trkpt lat="47.32909" lon="-1.70599">
        <ele>94</ele>
        <time>2013-10-20T06:38:21.000Z</time>
      </trkpt>
      <trkpt lat="47.32909" lon="-1.70599">
        <ele>94</ele>
        <time>2013-10-20T06:38:23.000Z</time>
      </trkpt>
      <trkpt lat="47.32909" lon="-1.70599">
        <ele>94</ele>
        <time>2013-10-20T06:38:25.000Z</time>
      </trkpt>
      <trkpt lat="47.32909" lon="-1.70599">
        <ele>94</ele>
        <time>2013-10-20T06:38:27.000Z</time>
      </trkpt>
      <trkpt lat="47.32909" lon="-1.70599">
        <ele>94</ele>
        <time>2013-10-20T06:38:29.000Z</time>
      </trkpt>
      <trkpt lat="47.32924" lon="-1.70632">
        <ele>94</ele>
        <time>2013-10-20T06:38:31.000Z</time>
      </trkpt>
      <trkpt lat="47.32932" lon="-1.70653">
        <ele>94</ele>
        <time>2013-10-20T06:38:33.000Z</time>
      </trkpt>
      <trkpt lat="47.32939" lon="-1.70669">
        <ele>94</ele>
        <time>2013-10-20T06:38:35.000Z</time>
      </trkpt>
      <trkpt lat="47.32944" lon="-1.70686">
        <ele>94</ele>
        <time>2013-10-20T06:38:37.000Z</time>
      </trkpt>
      <trkpt lat="47.32948" lon="-1.70704">
        <ele>95</ele>
        <time>2013-10-20T06:38:39.000Z</time>
      </trkpt>
      <trkpt lat="47.32956" lon="-1.70743">
        <ele>95</ele>
        <time>2013-10-20T06:38:41.000Z</time>
      </trkpt>
      <trkpt lat="47.32959" lon="-1.70762">
        <ele>96</ele>
        <time>2013-10-20T06:38:43.000Z</time>
      </trkpt>
      <trkpt lat="47.32961" lon="-1.70782">
        <ele>97</ele>
        <time>2013-10-20T06:38:45.000Z</time>
      </trkpt>
      <trkpt lat="47.32962" lon="-1.70803">
        <ele>98</ele>
        <time>2013-10-20T06:38:47.000Z</time>
      </trkpt>
      <trkpt lat="47.32964" lon="-1.70825">
        <ele>98</ele>
        <time>2013-10-20T06:38:49.000Z</time>
      </trkpt>
      <trkpt lat="47.32971" lon="-1.70842">
        <ele>98</ele>
        <time>2013-10-20T06:38:51.000Z</time>
      </trkpt>
      <trkpt lat="47.32981" lon="-1.70859">
        <ele>99</ele>
        <time>2013-10-20T06:38:53.000Z</time>
      </trkpt>
      <trkpt lat="47.32991" lon="-1.7087">
        <ele>100</ele>
        <time>2013-10-20T06:38:55.000Z</time>
      </trkpt>
      <trkpt lat="47.32998" lon="-1.70878">
        <ele>101</ele>
        <time>2013-10-20T06:38:57.000Z</time>
      </trkpt>
      <trkpt lat="47.32998" lon="-1.70878">
        <ele>101</ele>
        <time>2013-10-20T06:38:59.000Z</time>
      </trkpt>
      <trkpt lat="47.3301" lon="-1.70891">
        <ele>101</ele>
        <time>2013-10-20T06:39:01.000Z</time>
      </trkpt>
      <trkpt lat="47.3301" lon="-1.70891">
        <ele>101</ele>
        <time>2013-10-20T06:39:03.000Z</time>
      </trkpt>
      <trkpt lat="47.3301" lon="-1.70891">
        <ele>101</ele>
        <time>2013-10-20T06:39:05.000Z</time>
      </trkpt>
      <trkpt lat="47.3301" lon="-1.70891">
        <ele>101</ele>
        <time>2013-10-20T06:39:07.000Z</time>
      </trkpt>
      <trkpt lat="47.3301" lon="-1.70891">
        <ele>101</ele>
        <time>2013-10-20T06:39:09.000Z</time>
      </trkpt>
      <trkpt lat="47.3301" lon="-1.70891">
        <ele>101</ele>
        <time>2013-10-20T06:39:14.000Z</time>
      </trkpt>
      <trkpt lat="47.32946" lon="-1.70893">
        <ele>95</ele>
        <time>2013-10-20T06:40:09.000Z</time>
      </trkpt>
      <trkpt lat="47.32936" lon="-1.70887">
        <ele>95</ele>
        <time>2013-10-20T06:40:13.000Z</time>
      </trkpt>
      <trkpt lat="47.32924" lon="-1.7088">
        <ele>94</ele>
        <time>2013-10-20T06:40:17.000Z</time>
      </trkpt>
      <trkpt lat="47.32909" lon="-1.70872">
        <ele>93</ele>
        <time>2013-10-20T06:40:21.000Z</time>
      </trkpt>
      <trkpt lat="47.32899" lon="-1.70872">
        <ele>93</ele>
        <time>2013-10-20T06:40:23.000Z</time>
      </trkpt>
      <trkpt lat="47.3289" lon="-1.70874">
        <ele>93</ele>
        <time>2013-10-20T06:40:25.000Z</time>
      </trkpt>
      <trkpt lat="47.32878" lon="-1.70874">
        <ele>93</ele>
        <time>2013-10-20T06:40:27.000Z</time>
      </trkpt>
      <trkpt lat="47.32867" lon="-1.70876">
        <ele>92</ele>
        <time>2013-10-20T06:40:29.000Z</time>
      </trkpt>
      <trkpt lat="47.32856" lon="-1.70874">
        <ele>92</ele>
        <time>2013-10-20T06:40:31.000Z</time>
      </trkpt>
      <trkpt lat="47.32845" lon="-1.70874">
        <ele>92</ele>
        <time>2013-10-20T06:40:33.000Z</time>
      </trkpt>
      <trkpt lat="47.32835" lon="-1.70876">
        <ele>91</ele>
        <time>2013-10-20T06:40:35.000Z</time>
      </trkpt>
      <trkpt lat="47.32835" lon="-1.70876">
        <ele>91</ele>
        <time>2013-10-20T06:40:39.000Z</time>
      </trkpt>
      <trkpt lat="47.32835" lon="-1.70876">
        <ele>91</ele>
        <time>2013-10-20T06:40:41.000Z</time>
      </trkpt>
      <trkpt lat="47.32835" lon="-1.70876">
        <ele>91</ele>
        <time>2013-10-20T06:40:43.000Z</time>
      </trkpt>
      <trkpt lat="47.32835" lon="-1.70876">
        <ele>91</ele>
        <time>2013-10-20T06:40:45.000Z</time>
      </trkpt>
      <trkpt lat="47.32835" lon="-1.70876">
        <ele>91</ele>
        <time>2013-10-20T06:40:47.000Z</time>
      </trkpt>
      <trkpt lat="47.32835" lon="-1.70876">
        <ele>91</ele>
        <time>2013-10-20T06:40:56.000Z</time>
      </trkpt>
      <trkpt lat="47.32763" lon="-1.70782">
        <ele>88</ele>
        <time>2013-10-20T06:41:24.000Z</time>
      </trkpt>
      <trkpt lat="47.32751" lon="-1.70775">
        <ele>88</ele>
        <time>2013-10-20T06:41:28.000Z</time>
      </trkpt>
      <trkpt lat="47.3274" lon="-1.70773">
        <ele>88</ele>
        <time>2013-10-20T06:41:32.000Z</time>
      </trkpt>
      <trkpt lat="47.32735" lon="-1.70775">
        <ele>88</ele>
        <time>2013-10-20T06:41:36.000Z</time>
      </trkpt>
      <trkpt lat="47.32731" lon="-1.70778">
        <ele>88</ele>
        <time>2013-10-20T06:41:38.000Z</time>
      </trkpt>
      <trkpt lat="47.32727" lon="-1.70783">
        <ele>88</ele>
        <time>2013-10-20T06:41:40.000Z</time>
      </trkpt>
      <trkpt lat="47.32722" lon="-1.70788">
        <ele>88</ele>
        <time>2013-10-20T06:41:42.000Z</time>
      </trkpt>
      <trkpt lat="47.32718" lon="-1.70793">
        <ele>88</ele>
        <time>2013-10-20T06:41:44.000Z</time>
      </trkpt>
      <trkpt lat="47.3271" lon="-1.70802">
        <ele>88</ele>
        <time>2013-10-20T06:41:46.000Z</time>
      </trkpt>
      <trkpt lat="47.3271" lon="-1.70802">
        <ele>88</ele>
        <time>2013-10-20T06:41:48.000Z</time>
      </trkpt>
      <trkpt lat="47.327" lon="-1.70814">
        <ele>88</ele>
        <time>2013-10-20T06:41:50.000Z</time>
      </trkpt>
      <trkpt lat="47.32692" lon="-1.70823">
        <ele>88</ele>
        <time>2013-10-20T06:41:54.000Z</time>
      </trkpt>
      <trkpt lat="47.32692" lon="-1.70823">
        <ele>88</ele>
        <time>2013-10-20T06:41:58.000Z</time>
      </trkpt>
      <trkpt lat="47.32673" lon="-1.70897">
        <ele>89</ele>
        <time>2013-10-20T06:42:12.000Z</time>
      </trkpt>
      <trkpt lat="47.32664" lon="-1.70904">
        <ele>89</ele>
        <time>2013-10-20T06:42:14.000Z</time>
      </trkpt>
      <trkpt lat="47.32656" lon="-1.70908">
        <ele>89</ele>
        <time>2013-10-20T06:42:16.000Z</time>
      </trkpt>
      <trkpt lat="47.32641" lon="-1.70908">
        <ele>89</ele>
        <time>2013-10-20T06:42:20.000Z</time>
      </trkpt>
      <trkpt lat="47.32641" lon="-1.70908">
        <ele>89</ele>
        <time>2013-10-20T06:42:24.000Z</time>
      </trkpt>
      <trkpt lat="47.32536" lon="-1.7088">
        <ele>95</ele>
        <time>2013-10-20T06:43:44.000Z</time>
      </trkpt>
      <trkpt lat="47.32525" lon="-1.70882">
        <ele>95</ele>
        <time>2013-10-20T06:43:52.000Z</time>
      </trkpt>
      <trkpt lat="47.32525" lon="-1.70882">
        <ele>95</ele>
        <time>2013-10-20T06:43:54.000Z</time>
      </trkpt>
      <trkpt lat="47.32525" lon="-1.70882">
        <ele>95</ele>
        <time>2013-10-20T06:43:56.000Z</time>
      </trkpt>
      <trkpt lat="47.32525" lon="-1.70882">
        <ele>95</ele>
        <time>2013-10-20T06:43:58.000Z</time>
      </trkpt>
      <trkpt lat="47.32525" lon="-1.70882">
        <ele>95</ele>
        <time>2013-10-20T06:44:00.000Z</time>
      </trkpt>
      <trkpt lat="47.32525" lon="-1.70882">
        <ele>95</ele>
        <time>2013-10-20T06:44:02.000Z</time>
      </trkpt>
      <trkpt lat="47.32525" lon="-1.70882">
        <ele>95</ele>
        <time>2013-10-20T06:44:04.000Z</time>
      </trkpt>
      <trkpt lat="47.32525" lon="-1.70882">
        <ele>95</ele>
        <time>2013-10-20T06:44:06.000Z</time>
      </trkpt>
      <trkpt lat="47.32525" lon="-1.70882">
        <ele>95</ele>
        <time>2013-10-20T06:44:08.000Z</time>
      </trkpt>
      <trkpt lat="47.32525" lon="-1.70882">
        <ele>95</ele>
        <time>2013-10-20T06:44:13.000Z</time>
      </trkpt>
      <trkpt lat="47.32513" lon="-1.70889">
        <ele>97</ele>
        <time>2013-10-20T06:44:31.000Z</time>
      </trkpt>
      <trkpt lat="47.32506" lon="-1.70894">
        <ele>98</ele>
        <time>2013-10-20T06:44:33.000Z</time>
      </trkpt>
      <trkpt lat="47.32501" lon="-1.709">
        <ele>98</ele>
        <time>2013-10-20T06:44:35.000Z</time>
      </trkpt>
      <trkpt lat="47.32497" lon="-1.70906">
        <ele>98</ele>
        <time>2013-10-20T06:44:37.000Z</time>
      </trkpt>
      <trkpt lat="47.32495" lon="-1.70913">
        <ele>98</ele>
        <time>2013-10-20T06:44:39.000Z</time>
      </trkpt>
      <trkpt lat="47.32491" lon="-1.70928">
        <ele>98</ele>
        <time>2013-10-20T06:44:41.000Z</time>
      </trkpt>
      <trkpt lat="47.32487" lon="-1.70943">
        <ele>99</ele>
        <time>2013-10-20T06:44:45.000Z</time>
      </trkpt>
      <trkpt lat="47.32483" lon="-1.70958">
        <ele>99</ele>
        <time>2013-10-20T06:44:49.000Z</time>
      </trkpt>
      <trkpt lat="47.32479" lon="-1.7097">
        <ele>100</ele>
        <time>2013-10-20T06:44:53.000Z</time>
      </trkpt>
      <trkpt lat="47.32479" lon="-1.7097">
        <ele>100</ele>
        <time>2013-10-20T06:44:55.000Z</time>
      </trkpt>
      <trkpt lat="47.32479" lon="-1.7097">
        <ele>100</ele>
        <time>2013-10-20T06:44:57.000Z</time>
      </trkpt>
      <trkpt lat="47.32479" lon="-1.7097">
        <ele>100</ele>
        <time>2013-10-20T06:44:59.000Z</time>
      </trkpt>
      <trkpt lat="47.32479" lon="-1.7097">
        <ele>100</ele>
        <time>2013-10-20T06:45:01.000Z</time>
      </trkpt>
      <trkpt lat="47.32479" lon="-1.7097">
        <ele>100</ele>
        <time>2013-10-20T06:45:03.000Z</time>
      </trkpt>
      <trkpt lat="47.32479" lon="-1.7097">
        <ele>100</ele>
        <time>2013-10-20T06:45:05.000Z</time>
      </trkpt>
      <trkpt lat="47.32479" lon="-1.7097">
        <ele>100</ele>
        <time>2013-10-20T06:45:07.000Z</time>
      </trkpt>
      <trkpt lat="47.32479" lon="-1.7097">
        <ele>100</ele>
        <time>2013-10-20T06:45:09.000Z</time>
      </trkpt>
      <trkpt lat="47.32479" lon="-1.7097">
        <ele>100</ele>
        <time>2013-10-20T06:45:11.000Z</time>
      </trkpt>
      <trkpt lat="47.32479" lon="-1.7097">
        <ele>100</ele>
        <time>2013-10-20T06:45:13.000Z</time>
      </trkpt>
      <trkpt lat="47.32487" lon="-1.71033">
        <ele>103</ele>
        <time>2013-10-20T06:45:19.000Z</time>
      </trkpt>
      <trkpt lat="47.32487" lon="-1.7105">
        <ele>103</ele>
        <time>2013-10-20T06:45:23.000Z</time>
      </trkpt>
      <trkpt lat="47.32486" lon="-1.71069">
        <ele>104</ele>
        <time>2013-10-20T06:45:27.000Z</time>
      </trkpt>
      <trkpt lat="47.32484" lon="-1.71088">
        <ele>104</ele>
        <time>2013-10-20T06:45:31.000Z</time>
      </trkpt>
      <trkpt lat="47.32481" lon="-1.7111">
        <ele>105</ele>
        <time>2013-10-20T06:45:35.000Z</time>
      </trkpt>
      <trkpt lat="47.32479" lon="-1.71127">
        <ele>106</ele>
        <time>2013-10-20T06:45:37.000Z</time>
      </trkpt>
      <trkpt lat="47.32477" lon="-1.71149">
        <ele>106</ele>
        <time>2013-10-20T06:45:39.000Z</time>
      </trkpt>
      <trkpt lat="47.32476" lon="-1.71168">
        <ele>106</ele>
        <time>2013-10-20T06:45:41.000Z</time>
      </trkpt>
      <trkpt lat="47.32473" lon="-1.71183">
        <ele>106</ele>
        <time>2013-10-20T06:45:43.000Z</time>
      </trkpt>
      <trkpt lat="47.32473" lon="-1.71183">
        <ele>106</ele>
        <time>2013-10-20T06:45:45.000Z</time>
      </trkpt>
      <trkpt lat="47.32475" lon="-1.71211">
        <ele>105</ele>
        <time>2013-10-20T06:45:47.000Z</time>
      </trkpt>
      <trkpt lat="47.32475" lon="-1.71211">
        <ele>105</ele>
        <time>2013-10-20T06:45:49.000Z</time>
      </trkpt>
      <trkpt lat="47.32476" lon="-1.71235">
        <ele>106</ele>
        <time>2013-10-20T06:45:51.000Z</time>
      </trkpt>
      <trkpt lat="47.32476" lon="-1.71235">
        <ele>106</ele>
        <time>2013-10-20T06:45:53.000Z</time>
      </trkpt>
      <trkpt lat="47.32476" lon="-1.71254">
        <ele>106</ele>
        <time>2013-10-20T06:45:55.000Z</time>
      </trkpt>
      <trkpt lat="47.32476" lon="-1.71254">
        <ele>106</ele>
        <time>2013-10-20T06:45:57.000Z</time>
      </trkpt>
      <trkpt lat="47.32477" lon="-1.71273">
        <ele>106</ele>
        <time>2013-10-20T06:45:59.000Z</time>
      </trkpt>
      <trkpt lat="47.32477" lon="-1.71273">
        <ele>106</ele>
        <time>2013-10-20T06:46:01.000Z</time>
      </trkpt>
      <trkpt lat="47.32478" lon="-1.71293">
        <ele>106</ele>
        <time>2013-10-20T06:46:03.000Z</time>
      </trkpt>
      <trkpt lat="47.32478" lon="-1.71293">
        <ele>106</ele>
        <time>2013-10-20T06:46:05.000Z</time>
      </trkpt>
      <trkpt lat="47.32479" lon="-1.71319">
        <ele>106</ele>
        <time>2013-10-20T06:46:07.000Z</time>
      </trkpt>
      <trkpt lat="47.32479" lon="-1.71319">
        <ele>106</ele>
        <time>2013-10-20T06:46:09.000Z</time>
      </trkpt>
      <trkpt lat="47.3248" lon="-1.71347">
        <ele>106</ele>
        <time>2013-10-20T06:46:11.000Z</time>
      </trkpt>
      <trkpt lat="47.3248" lon="-1.71347">
        <ele>106</ele>
        <time>2013-10-20T06:46:13.000Z</time>
      </trkpt>
      <trkpt lat="47.32481" lon="-1.71375">
        <ele>105</ele>
        <time>2013-10-20T06:46:15.000Z</time>
      </trkpt>
      <trkpt lat="47.32481" lon="-1.71375">
        <ele>105</ele>
        <time>2013-10-20T06:46:17.000Z</time>
      </trkpt>
      <trkpt lat="47.32482" lon="-1.71396">
        <ele>105</ele>
        <time>2013-10-20T06:46:19.000Z</time>
      </trkpt>
      <trkpt lat="47.32482" lon="-1.71396">
        <ele>105</ele>
        <time>2013-10-20T06:46:21.000Z</time>
      </trkpt>
      <trkpt lat="47.32483" lon="-1.71416">
        <ele>105</ele>
        <time>2013-10-20T06:46:23.000Z</time>
      </trkpt>
      <trkpt lat="47.32483" lon="-1.71416">
        <ele>105</ele>
        <time>2013-10-20T06:46:25.000Z</time>
      </trkpt>
      <trkpt lat="47.32483" lon="-1.71423">
        <ele>105</ele>
        <time>2013-10-20T06:46:27.000Z</time>
      </trkpt>
      <trkpt lat="47.32483" lon="-1.7143">
        <ele>105</ele>
        <time>2013-10-20T06:46:29.000Z</time>
      </trkpt>
      <trkpt lat="47.32483" lon="-1.7143">
        <ele>105</ele>
        <time>2013-10-20T06:46:31.000Z</time>
      </trkpt>
      <trkpt lat="47.32483" lon="-1.7143">
        <ele>105</ele>
        <time>2013-10-20T06:46:51.000Z</time>
      </trkpt>
      <trkpt lat="47.32483" lon="-1.7143">
        <ele>105</ele>
        <time>2013-10-20T06:46:52.000Z</time>
      </trkpt>
      <trkpt lat="47.32493" lon="-1.71472">
        <ele>104</ele>
        <time>2013-10-20T06:47:42.000Z</time>
      </trkpt>
      <trkpt lat="47.32498" lon="-1.71498">
        <ele>104</ele>
        <time>2013-10-20T06:47:44.000Z</time>
      </trkpt>
      <trkpt lat="47.32501" lon="-1.71515">
        <ele>104</ele>
        <time>2013-10-20T06:47:46.000Z</time>
      </trkpt>
      <trkpt lat="47.32503" lon="-1.71527">
        <ele>104</ele>
        <time>2013-10-20T06:47:48.000Z</time>
      </trkpt>
      <trkpt lat="47.32504" lon="-1.71538">
        <ele>104</ele>
        <time>2013-10-20T06:47:50.000Z</time>
      </trkpt>
      <trkpt lat="47.32507" lon="-1.71558">
        <ele>104</ele>
        <time>2013-10-20T06:47:52.000Z</time>
      </trkpt>
      <trkpt lat="47.32507" lon="-1.71558">
        <ele>104</ele>
        <time>2013-10-20T06:47:54.000Z</time>
      </trkpt>
      <trkpt lat="47.32507" lon="-1.71558">
        <ele>104</ele>
        <time>2013-10-20T06:47:59.000Z</time>
      </trkpt>
      <trkpt lat="47.32525" lon="-1.71655">
        <ele>106</ele>
        <time>2013-10-20T06:48:22.000Z</time>
      </trkpt>
      <trkpt lat="47.32538" lon="-1.71672">
        <ele>106</ele>
        <time>2013-10-20T06:48:26.000Z</time>
      </trkpt>
      <trkpt lat="47.32547" lon="-1.71685">
        <ele>106</ele>
        <time>2013-10-20T06:48:30.000Z</time>
      </trkpt>
      <trkpt lat="47.32556" lon="-1.71698">
        <ele>107</ele>
        <time>2013-10-20T06:48:34.000Z</time>
      </trkpt>
      <trkpt lat="47.32556" lon="-1.71698">
        <ele>107</ele>
        <time>2013-10-20T06:48:36.000Z</time>
      </trkpt>
      <trkpt lat="47.32564" lon="-1.71719">
        <ele>107</ele>
        <time>2013-10-20T06:48:38.000Z</time>
      </trkpt>
      <trkpt lat="47.32569" lon="-1.71745">
        <ele>107</ele>
        <time>2013-10-20T06:48:42.000Z</time>
      </trkpt>
      <trkpt lat="47.32571" lon="-1.71764">
        <ele>107</ele>
        <time>2013-10-20T06:48:46.000Z</time>
      </trkpt>
      <trkpt lat="47.32572" lon="-1.71782">
        <ele>107</ele>
        <time>2013-10-20T06:48:50.000Z</time>
      </trkpt>
      <trkpt lat="47.32572" lon="-1.71782">
        <ele>107</ele>
        <time>2013-10-20T06:48:52.000Z</time>
      </trkpt>
      <trkpt lat="47.32572" lon="-1.71782">
        <ele>107</ele>
        <time>2013-10-20T06:48:54.000Z</time>
      </trkpt>
      <trkpt lat="47.32574" lon="-1.71805">
        <ele>106</ele>
        <time>2013-10-20T06:48:56.000Z</time>
      </trkpt>
      <trkpt lat="47.32574" lon="-1.71805">
        <ele>106</ele>
        <time>2013-10-20T06:48:58.000Z</time>
      </trkpt>
      <trkpt lat="47.32574" lon="-1.71805">
        <ele>106</ele>
        <time>2013-10-20T06:49:00.000Z</time>
      </trkpt>
      <trkpt lat="47.32575" lon="-1.71824">
        <ele>106</ele>
        <time>2013-10-20T06:49:02.000Z</time>
      </trkpt>
      <trkpt lat="47.32575" lon="-1.71824">
        <ele>106</ele>
        <time>2013-10-20T06:49:04.000Z</time>
      </trkpt>
      <trkpt lat="47.32575" lon="-1.71824">
        <ele>106</ele>
        <time>2013-10-20T06:49:06.000Z</time>
      </trkpt>
      <trkpt lat="47.32575" lon="-1.71824">
        <ele>106</ele>
        <time>2013-10-20T06:49:08.000Z</time>
      </trkpt>
      <trkpt lat="47.32576" lon="-1.71848">
        <ele>105</ele>
        <time>2013-10-20T06:49:10.000Z</time>
      </trkpt>
      <trkpt lat="47.32576" lon="-1.71848">
        <ele>105</ele>
        <time>2013-10-20T06:49:12.000Z</time>
      </trkpt>
      <trkpt lat="47.32576" lon="-1.71848">
        <ele>105</ele>
        <time>2013-10-20T06:49:14.000Z</time>
      </trkpt>
      <trkpt lat="47.32576" lon="-1.71848">
        <ele>105</ele>
        <time>2013-10-20T06:49:16.000Z</time>
      </trkpt>
      <trkpt lat="47.32576" lon="-1.71848">
        <ele>105</ele>
        <time>2013-10-20T06:49:18.000Z</time>
      </trkpt>
      <trkpt lat="47.32578" lon="-1.71871">
        <ele>104</ele>
        <time>2013-10-20T06:49:20.000Z</time>
      </trkpt>
      <trkpt lat="47.32578" lon="-1.71871">
        <ele>104</ele>
        <time>2013-10-20T06:49:22.000Z</time>
      </trkpt>
      <trkpt lat="47.32578" lon="-1.71871">
        <ele>104</ele>
        <time>2013-10-20T06:49:24.000Z</time>
      </trkpt>
      <trkpt lat="47.32578" lon="-1.71871">
        <ele>104</ele>
        <time>2013-10-20T06:49:26.000Z</time>
      </trkpt>
      <trkpt lat="47.32578" lon="-1.71871">
        <ele>104</ele>
        <time>2013-10-20T06:49:28.000Z</time>
      </trkpt>
      <trkpt lat="47.32578" lon="-1.71871">
        <ele>104</ele>
        <time>2013-10-20T06:49:30.000Z</time>
      </trkpt>
      <trkpt lat="47.32578" lon="-1.71879">
        <ele>101</ele>
        <time>2013-10-20T06:49:32.000Z</time>
      </trkpt>
      <trkpt lat="47.32578" lon="-1.71879">
        <ele>101</ele>
        <time>2013-10-20T06:49:34.000Z</time>
      </trkpt>
      <trkpt lat="47.32579" lon="-1.71887">
        <ele>101</ele>
        <time>2013-10-20T06:49:36.000Z</time>
      </trkpt>
      <trkpt lat="47.32579" lon="-1.71894">
        <ele>100</ele>
        <time>2013-10-20T06:49:38.000Z</time>
      </trkpt>
      <trkpt lat="47.32579" lon="-1.71894">
        <ele>100</ele>
        <time>2013-10-20T06:49:40.000Z</time>
      </trkpt>
      <trkpt lat="47.3258" lon="-1.71903">
        <ele>100</ele>
        <time>2013-10-20T06:49:42.000Z</time>
      </trkpt>
      <trkpt lat="47.3258" lon="-1.7191">
        <ele>100</ele>
        <time>2013-10-20T06:49:44.000Z</time>
      </trkpt>
      <trkpt lat="47.3257" lon="-1.71918">
        <ele>99</ele>
        <time>2013-10-20T06:49:46.000Z</time>
      </trkpt>
      <trkpt lat="47.32568" lon="-1.71927">
        <ele>99</ele>
        <time>2013-10-20T06:49:50.000Z</time>
      </trkpt>
      <trkpt lat="47.32566" lon="-1.71934">
        <ele>98</ele>
        <time>2013-10-20T06:49:52.000Z</time>
      </trkpt>
      <trkpt lat="47.32568" lon="-1.71942">
        <ele>98</ele>
        <time>2013-10-20T06:49:56.000Z</time>
      </trkpt>
      <trkpt lat="47.32569" lon="-1.7195">
        <ele>98</ele>
        <time>2013-10-20T06:49:58.000Z</time>
      </trkpt>
      <trkpt lat="47.32571" lon="-1.71959">
        <ele>97</ele>
        <time>2013-10-20T06:50:02.000Z</time>
      </trkpt>
      <trkpt lat="47.32571" lon="-1.71966">
        <ele>97</ele>
        <time>2013-10-20T06:50:04.000Z</time>
      </trkpt>
      <trkpt lat="47.32572" lon="-1.71972">
        <ele>97</ele>
        <time>2013-10-20T06:50:06.000Z</time>
      </trkpt>
      <trkpt lat="47.32574" lon="-1.71981">
        <ele>97</ele>
        <time>2013-10-20T06:50:10.000Z</time>
      </trkpt>
      <trkpt lat="47.32575" lon="-1.7199">
        <ele>96</ele>
        <time>2013-10-20T06:50:14.000Z</time>
      </trkpt>
      <trkpt lat="47.32576" lon="-1.71997">
        <ele>96</ele>
        <time>2013-10-20T06:50:16.000Z</time>
      </trkpt>
      <trkpt lat="47.32578" lon="-1.72005">
        <ele>96</ele>
        <time>2013-10-20T06:50:20.000Z</time>
      </trkpt>
      <trkpt lat="47.32579" lon="-1.72012">
        <ele>96</ele>
        <time>2013-10-20T06:50:22.000Z</time>
      </trkpt>
      <trkpt lat="47.3258" lon="-1.7202">
        <ele>96</ele>
        <time>2013-10-20T06:50:24.000Z</time>
      </trkpt>
      <trkpt lat="47.32583" lon="-1.72029">
        <ele>96</ele>
        <time>2013-10-20T06:50:26.000Z</time>
      </trkpt>
      <trkpt lat="47.32586" lon="-1.72037">
        <ele>96</ele>
        <time>2013-10-20T06:50:28.000Z</time>
      </trkpt>
      <trkpt lat="47.32592" lon="-1.72054">
        <ele>97</ele>
        <time>2013-10-20T06:50:30.000Z</time>
      </trkpt>
      <trkpt lat="47.32598" lon="-1.72071">
        <ele>97</ele>
        <time>2013-10-20T06:50:34.000Z</time>
      </trkpt>
      <trkpt lat="47.32603" lon="-1.72088">
        <ele>97</ele>
        <time>2013-10-20T06:50:38.000Z</time>
      </trkpt>
      <trkpt lat="47.32608" lon="-1.7211">
        <ele>98</ele>
        <time>2013-10-20T06:50:42.000Z</time>
      </trkpt>
      <trkpt lat="47.32609" lon="-1.72131">
        <ele>98</ele>
        <time>2013-10-20T06:50:46.000Z</time>
      </trkpt>
      <trkpt lat="47.32609" lon="-1.72153">
        <ele>98</ele>
        <time>2013-10-20T06:50:50.000Z</time>
      </trkpt>
      <trkpt lat="47.3261" lon="-1.72172">
        <ele>98</ele>
        <time>2013-10-20T06:50:54.000Z</time>
      </trkpt>
      <trkpt lat="47.32611" lon="-1.72189">
        <ele>98</ele>
        <time>2013-10-20T06:50:58.000Z</time>
      </trkpt>
      <trkpt lat="47.32611" lon="-1.72189">
        <ele>98</ele>
        <time>2013-10-20T06:51:02.000Z</time>
      </trkpt>
      <trkpt lat="47.32611" lon="-1.72189">
        <ele>98</ele>
        <time>2013-10-20T06:51:04.000Z</time>
      </trkpt>
      <trkpt lat="47.32611" lon="-1.72189">
        <ele>98</ele>
        <time>2013-10-20T06:51:06.000Z</time>
      </trkpt>
      <trkpt lat="47.32611" lon="-1.72189">
        <ele>98</ele>
        <time>2013-10-20T06:51:08.000Z</time>
      </trkpt>
      <trkpt lat="47.32611" lon="-1.72189">
        <ele>98</ele>
        <time>2013-10-20T06:51:10.000Z</time>
      </trkpt>
      <trkpt lat="47.32611" lon="-1.72189">
        <ele>98</ele>
        <time>2013-10-20T06:51:12.000Z</time>
      </trkpt>
      <trkpt lat="47.32611" lon="-1.72189">
        <ele>98</ele>
        <time>2013-10-20T06:51:14.000Z</time>
      </trkpt>
      <trkpt lat="47.32611" lon="-1.72189">
        <ele>98</ele>
        <time>2013-10-20T06:51:16.000Z</time>
      </trkpt>
      <trkpt lat="47.32611" lon="-1.72189">
        <ele>98</ele>
        <time>2013-10-20T06:51:18.000Z</time>
      </trkpt>
      <trkpt lat="47.32611" lon="-1.72189">
        <ele>98</ele>
        <time>2013-10-20T06:51:20.000Z</time>
      </trkpt>
      <trkpt lat="47.32611" lon="-1.72189">
        <ele>98</ele>
        <time>2013-10-20T06:51:22.000Z</time>
      </trkpt>
      <trkpt lat="47.32611" lon="-1.72189">
        <ele>98</ele>
        <time>2013-10-20T06:51:24.000Z</time>
      </trkpt>
      <trkpt lat="47.32611" lon="-1.72189">
        <ele>98</ele>
        <time>2013-10-20T06:51:26.000Z</time>
      </trkpt>
      <trkpt lat="47.32611" lon="-1.72189">
        <ele>98</ele>
        <time>2013-10-20T06:51:28.000Z</time>
      </trkpt>
      <trkpt lat="47.32611" lon="-1.72189">
        <ele>98</ele>
        <time>2013-10-20T06:51:30.000Z</time>
      </trkpt>
      <trkpt lat="47.32611" lon="-1.72189">
        <ele>98</ele>
        <time>2013-10-20T06:51:32.000Z</time>
      </trkpt>
      <trkpt lat="47.32611" lon="-1.72189">
        <ele>98</ele>
        <time>2013-10-20T06:51:34.000Z</time>
      </trkpt>
      <trkpt lat="47.32611" lon="-1.72189">
        <ele>98</ele>
        <time>2013-10-20T06:51:36.000Z</time>
      </trkpt>
      <trkpt lat="47.32611" lon="-1.72189">
        <ele>98</ele>
        <time>2013-10-20T06:51:38.000Z</time>
      </trkpt>
      <trkpt lat="47.32611" lon="-1.72189">
        <ele>98</ele>
        <time>2013-10-20T06:51:40.000Z</time>
      </trkpt>
      <trkpt lat="47.32611" lon="-1.72189">
        <ele>98</ele>
        <time>2013-10-20T06:51:42.000Z</time>
      </trkpt>
      <trkpt lat="47.32611" lon="-1.72189">
        <ele>98</ele>
        <time>2013-10-20T06:51:44.000Z</time>
      </trkpt>
      <trkpt lat="47.32611" lon="-1.72189">
        <ele>98</ele>
        <time>2013-10-20T06:51:46.000Z</time>
      </trkpt>
      <trkpt lat="47.32611" lon="-1.72189">
        <ele>98</ele>
        <time>2013-10-20T06:51:48.000Z</time>
      </trkpt>
      <trkpt lat="47.32611" lon="-1.72189">
        <ele>98</ele>
        <time>2013-10-20T06:51:50.000Z</time>
      </trkpt>
      <trkpt lat="47.32611" lon="-1.72189">
        <ele>98</ele>
        <time>2013-10-20T06:51:52.000Z</time>
      </trkpt>
      <trkpt lat="47.32611" lon="-1.72189">
        <ele>98</ele>
        <time>2013-10-20T06:51:54.000Z</time>
      </trkpt>
      <trkpt lat="47.32611" lon="-1.72189">
        <ele>98</ele>
        <time>2013-10-20T06:51:56.000Z</time>
      </trkpt>
      <trkpt lat="47.32611" lon="-1.72189">
        <ele>98</ele>
        <time>2013-10-20T06:51:58.000Z</time>
      </trkpt>
      <trkpt lat="47.32611" lon="-1.72189">
        <ele>98</ele>
        <time>2013-10-20T06:52:00.000Z</time>
      </trkpt>
      <trkpt lat="47.32611" lon="-1.72189">
        <ele>98</ele>
        <time>2013-10-20T06:52:02.000Z</time>
      </trkpt>
      <trkpt lat="47.32611" lon="-1.72189">
        <ele>98</ele>
        <time>2013-10-20T06:52:04.000Z</time>
      </trkpt>
      <trkpt lat="47.32611" lon="-1.72189">
        <ele>98</ele>
        <time>2013-10-20T06:52:06.000Z</time>
      </trkpt>
      <trkpt lat="47.32611" lon="-1.72189">
        <ele>98</ele>
        <time>2013-10-20T06:52:08.000Z</time>
      </trkpt>
      <trkpt lat="47.32611" lon="-1.72189">
        <ele>98</ele>
        <time>2013-10-20T06:52:10.000Z</time>
      </trkpt>
      <trkpt lat="47.32611" lon="-1.72189">
        <ele>98</ele>
        <time>2013-10-20T06:52:12.000Z</time>
      </trkpt>
      <trkpt lat="47.32611" lon="-1.72189">
        <ele>98</ele>
        <time>2013-10-20T06:52:14.000Z</time>
      </trkpt>
      <trkpt lat="47.32611" lon="-1.72189">
        <ele>98</ele>
        <time>2013-10-20T06:52:16.000Z</time>
      </trkpt>
      <trkpt lat="47.32611" lon="-1.72189">
        <ele>98</ele>
        <time>2013-10-20T06:52:18.000Z</time>
      </trkpt>
      <trkpt lat="47.32611" lon="-1.72189">
        <ele>98</ele>
        <time>2013-10-20T06:52:20.000Z</time>
      </trkpt>
      <trkpt lat="47.32611" lon="-1.72189">
        <ele>98</ele>
        <time>2013-10-20T06:52:22.000Z</time>
      </trkpt>
      <trkpt lat="47.32611" lon="-1.72189">
        <ele>98</ele>
        <time>2013-10-20T06:52:24.000Z</time>
      </trkpt>
      <trkpt lat="47.32611" lon="-1.72189">
        <ele>98</ele>
        <time>2013-10-20T06:52:26.000Z</time>
      </trkpt>
      <trkpt lat="47.32611" lon="-1.72189">
        <ele>98</ele>
        <time>2013-10-20T06:52:28.000Z</time>
      </trkpt>
      <trkpt lat="47.32611" lon="-1.72189">
        <ele>98</ele>
        <time>2013-10-20T06:52:30.000Z</time>
      </trkpt>
      <trkpt lat="47.32637" lon="-1.72341">
        <ele>101</ele>
        <time>2013-10-20T06:52:32.000Z</time>
      </trkpt>
      <trkpt lat="47.32649" lon="-1.72422">
        <ele>101</ele>
        <time>2013-10-20T06:52:34.000Z</time>
      </trkpt>
      <trkpt lat="47.32655" lon="-1.72467">
        <ele>101</ele>
        <time>2013-10-20T06:52:36.000Z</time>
      </trkpt>
      <trkpt lat="47.32656" lon="-1.72496">
        <ele>101</ele>
        <time>2013-10-20T06:52:38.000Z</time>
      </trkpt>
      <trkpt lat="47.32656" lon="-1.72515">
        <ele>101</ele>
        <time>2013-10-20T06:52:40.000Z</time>
      </trkpt>
      <trkpt lat="47.32654" lon="-1.72545">
        <ele>101</ele>
        <time>2013-10-20T06:52:42.000Z</time>
      </trkpt>
      <trkpt lat="47.32648" lon="-1.72567">
        <ele>101</ele>
        <time>2013-10-20T06:52:46.000Z</time>
      </trkpt>
      <trkpt lat="47.32645" lon="-1.7259">
        <ele>101</ele>
        <time>2013-10-20T06:52:50.000Z</time>
      </trkpt>
      <trkpt lat="47.32642" lon="-1.72614">
        <ele>100</ele>
        <time>2013-10-20T06:52:54.000Z</time>
      </trkpt>
      <trkpt lat="47.32641" lon="-1.7264">
        <ele>98</ele>
        <time>2013-10-20T06:52:58.000Z</time>
      </trkpt>
      <trkpt lat="47.3264" lon="-1.72666">
        <ele>97</ele>
        <time>2013-10-20T06:53:02.000Z</time>
      </trkpt>
      <trkpt lat="47.3264" lon="-1.72666">
        <ele>97</ele>
        <time>2013-10-20T06:53:05.000Z</time>
      </trkpt>
      <trkpt lat="47.3264" lon="-1.72666">
        <ele>97</ele>
        <time>2013-10-20T06:53:08.000Z</time>
      </trkpt>
      <trkpt lat="47.3264" lon="-1.72666">
        <ele>97</ele>
        <time>2013-10-20T06:53:11.000Z</time>
      </trkpt>
      <trkpt lat="47.32534" lon="-1.72652">
        <ele>110</ele>
        <time>2013-10-20T06:55:54.000Z</time>
      </trkpt>
      <trkpt lat="47.32479" lon="-1.72644">
        <ele>110</ele>
        <time>2013-10-20T06:55:56.000Z</time>
      </trkpt>
      <trkpt lat="47.32448" lon="-1.72639">
        <ele>110</ele>
        <time>2013-10-20T06:55:58.000Z</time>
      </trkpt>
      <trkpt lat="47.3243" lon="-1.72634">
        <ele>110</ele>
        <time>2013-10-20T06:56:00.000Z</time>
      </trkpt>
      <trkpt lat="47.32418" lon="-1.72629">
        <ele>111</ele>
        <time>2013-10-20T06:56:02.000Z</time>
      </trkpt>
      <trkpt lat="47.32401" lon="-1.72621">
        <ele>111</ele>
        <time>2013-10-20T06:56:04.000Z</time>
      </trkpt>
      <trkpt lat="47.32386" lon="-1.72616">
        <ele>111</ele>
        <time>2013-10-20T06:56:08.000Z</time>
      </trkpt>
      <trkpt lat="47.32372" lon="-1.72612">
        <ele>112</ele>
        <time>2013-10-20T06:56:12.000Z</time>
      </trkpt>
      <trkpt lat="47.32362" lon="-1.72614">
        <ele>112</ele>
        <time>2013-10-20T06:56:14.000Z</time>
      </trkpt>
      <trkpt lat="47.32345" lon="-1.72618">
        <ele>115</ele>
        <time>2013-10-20T06:56:18.000Z</time>
      </trkpt>
      <trkpt lat="47.32329" lon="-1.72621">
        <ele>116</ele>
        <time>2013-10-20T06:56:22.000Z</time>
      </trkpt>
      <trkpt lat="47.32329" lon="-1.72621">
        <ele>116</ele>
        <time>2013-10-20T06:56:26.000Z</time>
      </trkpt>
      <trkpt lat="47.32329" lon="-1.72621">
        <ele>116</ele>
        <time>2013-10-20T06:56:28.000Z</time>
      </trkpt>
      <trkpt lat="47.32329" lon="-1.72621">
        <ele>116</ele>
        <time>2013-10-20T06:56:30.000Z</time>
      </trkpt>
      <trkpt lat="47.32329" lon="-1.72621">
        <ele>116</ele>
        <time>2013-10-20T06:56:32.000Z</time>
      </trkpt>
      <trkpt lat="47.32329" lon="-1.72621">
        <ele>116</ele>
        <time>2013-10-20T06:56:34.000Z</time>
      </trkpt>
      <trkpt lat="47.32329" lon="-1.72621">
        <ele>116</ele>
        <time>2013-10-20T06:56:36.000Z</time>
      </trkpt>
      <trkpt lat="47.32329" lon="-1.72621">
        <ele>116</ele>
        <time>2013-10-20T06:56:38.000Z</time>
      </trkpt>
      <trkpt lat="47.32329" lon="-1.72621">
        <ele>116</ele>
        <time>2013-10-20T06:56:40.000Z</time>
      </trkpt>
      <trkpt lat="47.32329" lon="-1.72621">
        <ele>116</ele>
        <time>2013-10-20T06:56:42.000Z</time>
      </trkpt>
      <trkpt lat="47.32329" lon="-1.72621">
        <ele>116</ele>
        <time>2013-10-20T06:56:44.000Z</time>
      </trkpt>
      <trkpt lat="47.32329" lon="-1.72621">
        <ele>116</ele>
        <time>2013-10-20T06:56:46.000Z</time>
      </trkpt>
      <trkpt lat="47.32329" lon="-1.72621">
        <ele>116</ele>
        <time>2013-10-20T06:56:48.000Z</time>
      </trkpt>
      <trkpt lat="47.32329" lon="-1.72621">
        <ele>116</ele>
        <time>2013-10-20T06:56:50.000Z</time>
      </trkpt>
      <trkpt lat="47.32329" lon="-1.72621">
        <ele>116</ele>
        <time>2013-10-20T06:56:52.000Z</time>
      </trkpt>
      <trkpt lat="47.32329" lon="-1.72621">
        <ele>116</ele>
        <time>2013-10-20T06:56:54.000Z</time>
      </trkpt>
      <trkpt lat="47.32329" lon="-1.72621">
        <ele>116</ele>
        <time>2013-10-20T06:56:56.000Z</time>
      </trkpt>
      <trkpt lat="47.32329" lon="-1.72621">
        <ele>116</ele>
        <time>2013-10-20T06:56:58.000Z</time>
      </trkpt>
      <trkpt lat="47.32329" lon="-1.72621">
        <ele>116</ele>
        <time>2013-10-20T06:57:00.000Z</time>
      </trkpt>
      <trkpt lat="47.32329" lon="-1.72621">
        <ele>116</ele>
        <time>2013-10-20T06:57:02.000Z</time>
      </trkpt>
      <trkpt lat="47.32211" lon="-1.72709">
        <ele>116</ele>
        <time>2013-10-20T06:57:04.000Z</time>
      </trkpt>
      <trkpt lat="47.32204" lon="-1.72719">
        <ele>116</ele>
        <time>2013-10-20T06:57:06.000Z</time>
      </trkpt>
      <trkpt lat="47.32198" lon="-1.7273">
        <ele>116</ele>
        <time>2013-10-20T06:57:08.000Z</time>
      </trkpt>
      <trkpt lat="47.32189" lon="-1.72751">
        <ele>116</ele>
        <time>2013-10-20T06:57:12.000Z</time>
      </trkpt>
      <trkpt lat="47.3218" lon="-1.72764">
        <ele>116</ele>
        <time>2013-10-20T06:57:16.000Z</time>
      </trkpt>
      <trkpt lat="47.32172" lon="-1.72779">
        <ele>116</ele>
        <time>2013-10-20T06:57:20.000Z</time>
      </trkpt>
      <trkpt lat="47.32162" lon="-1.72796">
        <ele>116</ele>
        <time>2013-10-20T06:57:24.000Z</time>
      </trkpt>
      <trkpt lat="47.32156" lon="-1.72806">
        <ele>116</ele>
        <time>2013-10-20T06:57:30.000Z</time>
      </trkpt>
      <trkpt lat="47.32151" lon="-1.72814">
        <ele>116</ele>
        <time>2013-10-20T06:57:32.000Z</time>
      </trkpt>
      <trkpt lat="47.32147" lon="-1.72821">
        <ele>117</ele>
        <time>2013-10-20T06:57:34.000Z</time>
      </trkpt>
      <trkpt lat="47.32147" lon="-1.72821">
        <ele>117</ele>
        <time>2013-10-20T06:57:36.000Z</time>
      </trkpt>
      <trkpt lat="47.32141" lon="-1.72831">
        <ele>117</ele>
        <time>2013-10-20T06:57:38.000Z</time>
      </trkpt>
      <trkpt lat="47.32135" lon="-1.72839">
        <ele>117</ele>
        <time>2013-10-20T06:57:40.000Z</time>
      </trkpt>
      <trkpt lat="47.3213" lon="-1.72847">
        <ele>117</ele>
        <time>2013-10-20T06:57:42.000Z</time>
      </trkpt>
      <trkpt lat="47.32126" lon="-1.72854">
        <ele>117</ele>
        <time>2013-10-20T06:57:44.000Z</time>
      </trkpt>
      <trkpt lat="47.32121" lon="-1.72861">
        <ele>117</ele>
        <time>2013-10-20T06:57:46.000Z</time>
      </trkpt>
      <trkpt lat="47.32119" lon="-1.72887">
        <ele>117</ele>
        <time>2013-10-20T06:57:48.000Z</time>
      </trkpt>
      <trkpt lat="47.3211" lon="-1.72902">
        <ele>117</ele>
        <time>2013-10-20T06:57:52.000Z</time>
      </trkpt>
      <trkpt lat="47.32102" lon="-1.72917">
        <ele>118</ele>
        <time>2013-10-20T06:57:56.000Z</time>
      </trkpt>
      <trkpt lat="47.32094" lon="-1.7293">
        <ele>118</ele>
        <time>2013-10-20T06:58:00.000Z</time>
      </trkpt>
      <trkpt lat="47.32094" lon="-1.7293">
        <ele>118</ele>
        <time>2013-10-20T06:58:04.000Z</time>
      </trkpt>
      <trkpt lat="47.32094" lon="-1.7293">
        <ele>118</ele>
        <time>2013-10-20T06:58:06.000Z</time>
      </trkpt>
      <trkpt lat="47.32094" lon="-1.7293">
        <ele>118</ele>
        <time>2013-10-20T06:58:08.000Z</time>
      </trkpt>
      <trkpt lat="47.32094" lon="-1.7293">
        <ele>118</ele>
        <time>2013-10-20T06:58:10.000Z</time>
      </trkpt>
      <trkpt lat="47.32094" lon="-1.7293">
        <ele>118</ele>
        <time>2013-10-20T06:58:12.000Z</time>
      </trkpt>
      <trkpt lat="47.32094" lon="-1.7293">
        <ele>118</ele>
        <time>2013-10-20T06:58:14.000Z</time>
      </trkpt>
      <trkpt lat="47.32094" lon="-1.7293">
        <ele>118</ele>
        <time>2013-10-20T06:58:16.000Z</time>
      </trkpt>
      <trkpt lat="47.32094" lon="-1.7293">
        <ele>118</ele>
        <time>2013-10-20T06:58:18.000Z</time>
      </trkpt>
      <trkpt lat="47.3205" lon="-1.7302">
        <ele>119</ele>
        <time>2013-10-20T06:58:22.000Z</time>
      </trkpt>
      <trkpt lat="47.3205" lon="-1.7302">
        <ele>119</ele>
        <time>2013-10-20T06:58:27.000Z</time>
      </trkpt>
      <trkpt lat="47.3205" lon="-1.7302">
        <ele>119</ele>
        <time>2013-10-20T06:58:29.000Z</time>
      </trkpt>
      <trkpt lat="47.3205" lon="-1.7302">
        <ele>119</ele>
        <time>2013-10-20T06:58:31.000Z</time>
      </trkpt>
      <trkpt lat="47.3205" lon="-1.73067">
        <ele>120</ele>
        <time>2013-10-20T06:58:33.000Z</time>
      </trkpt>
      <trkpt lat="47.32039" lon="-1.73078">
        <ele>120</ele>
        <time>2013-10-20T06:58:37.000Z</time>
      </trkpt>
      <trkpt lat="47.32029" lon="-1.73088">
        <ele>121</ele>
        <time>2013-10-20T06:58:41.000Z</time>
      </trkpt>
      <trkpt lat="47.32021" lon="-1.73101">
        <ele>121</ele>
        <time>2013-10-20T06:58:45.000Z</time>
      </trkpt>
      <trkpt lat="47.3201" lon="-1.73112">
        <ele>121</ele>
        <time>2013-10-20T06:58:49.000Z</time>
      </trkpt>
      <trkpt lat="47.31999" lon="-1.73123">
        <ele>121</ele>
        <time>2013-10-20T06:58:53.000Z</time>
      </trkpt>
      <trkpt lat="47.31999" lon="-1.73123">
        <ele>121</ele>
        <time>2013-10-20T06:58:55.000Z</time>
      </trkpt>
      <trkpt lat="47.3199" lon="-1.73131">
        <ele>121</ele>
        <time>2013-10-20T06:58:57.000Z</time>
      </trkpt>
      <trkpt lat="47.31978" lon="-1.7314">
        <ele>121</ele>
        <time>2013-10-20T06:59:01.000Z</time>
      </trkpt>
      <trkpt lat="47.31965" lon="-1.73146">
        <ele>122</ele>
        <time>2013-10-20T06:59:05.000Z</time>
      </trkpt>
      <trkpt lat="47.31952" lon="-1.73153">
        <ele>122</ele>
        <time>2013-10-20T06:59:09.000Z</time>
      </trkpt>
      <trkpt lat="47.31939" lon="-1.73159">
        <ele>122</ele>
        <time>2013-10-20T06:59:13.000Z</time>
      </trkpt>
      <trkpt lat="47.31923" lon="-1.73168">
        <ele>122</ele>
        <time>2013-10-20T06:59:17.000Z</time>
      </trkpt>
      <trkpt lat="47.31913" lon="-1.73174">
        <ele>122</ele>
        <time>2013-10-20T06:59:19.000Z</time>
      </trkpt>
      <trkpt lat="47.31895" lon="-1.73189">
        <ele>121</ele>
        <time>2013-10-20T06:59:23.000Z</time>
      </trkpt>
      <trkpt lat="47.31895" lon="-1.73189">
        <ele>121</ele>
        <time>2013-10-20T06:59:25.000Z</time>
      </trkpt>
      <trkpt lat="47.31888" lon="-1.73197">
        <ele>119</ele>
        <time>2013-10-20T06:59:27.000Z</time>
      </trkpt>
      <trkpt lat="47.3188" lon="-1.73204">
        <ele>119</ele>
        <time>2013-10-20T06:59:29.000Z</time>
      </trkpt>
      <trkpt lat="47.31873" lon="-1.73212">
        <ele>118</ele>
        <time>2013-10-20T06:59:31.000Z</time>
      </trkpt>
      <trkpt lat="47.31865" lon="-1.73219">
        <ele>118</ele>
        <time>2013-10-20T06:59:33.000Z</time>
      </trkpt>
      <trkpt lat="47.31858" lon="-1.73226">
        <ele>118</ele>
        <time>2013-10-20T06:59:35.000Z</time>
      </trkpt>
      <trkpt lat="47.31843" lon="-1.73241">
        <ele>118</ele>
        <time>2013-10-20T06:59:37.000Z</time>
      </trkpt>
      <trkpt lat="47.31843" lon="-1.73241">
        <ele>118</ele>
        <time>2013-10-20T06:59:39.000Z</time>
      </trkpt>
      <trkpt lat="47.3183" lon="-1.73255">
        <ele>117</ele>
        <time>2013-10-20T06:59:41.000Z</time>
      </trkpt>
      <trkpt lat="47.3183" lon="-1.73255">
        <ele>117</ele>
        <time>2013-10-20T06:59:43.000Z</time>
      </trkpt>
      <trkpt lat="47.31817" lon="-1.73267">
        <ele>117</ele>
        <time>2013-10-20T06:59:45.000Z</time>
      </trkpt>
      <trkpt lat="47.31817" lon="-1.73267">
        <ele>117</ele>
        <time>2013-10-20T06:59:47.000Z</time>
      </trkpt>
      <trkpt lat="47.31803" lon="-1.73282">
        <ele>117</ele>
        <time>2013-10-20T06:59:49.000Z</time>
      </trkpt>
      <trkpt lat="47.31795" lon="-1.73289">
        <ele>117</ele>
        <time>2013-10-20T06:59:51.000Z</time>
      </trkpt>
      <trkpt lat="47.31787" lon="-1.73297">
        <ele>116</ele>
        <time>2013-10-20T06:59:53.000Z</time>
      </trkpt>
      <trkpt lat="47.31787" lon="-1.73297">
        <ele>116</ele>
        <time>2013-10-20T06:59:55.000Z</time>
      </trkpt>
      <trkpt lat="47.31771" lon="-1.73313">
        <ele>116</ele>
        <time>2013-10-20T06:59:57.000Z</time>
      </trkpt>
      <trkpt lat="47.31764" lon="-1.73321">
        <ele>116</ele>
        <time>2013-10-20T06:59:59.000Z</time>
      </trkpt>
      <trkpt lat="47.31756" lon="-1.73328">
        <ele>117</ele>
        <time>2013-10-20T07:00:01.000Z</time>
      </trkpt>
      <trkpt lat="47.31773" lon="-1.73387">
        <ele>117</ele>
        <time>2013-10-20T07:00:03.000Z</time>
      </trkpt>
      <trkpt lat="47.31764" lon="-1.73408">
        <ele>117</ele>
        <time>2013-10-20T07:00:07.000Z</time>
      </trkpt>
      <trkpt lat="47.31761" lon="-1.73421">
        <ele>117</ele>
        <time>2013-10-20T07:00:09.000Z</time>
      </trkpt>
      <trkpt lat="47.31755" lon="-1.73442">
        <ele>118</ele>
        <time>2013-10-20T07:00:13.000Z</time>
      </trkpt>
      <trkpt lat="47.31749" lon="-1.73462">
        <ele>118</ele>
        <time>2013-10-20T07:00:17.000Z</time>
      </trkpt>
      <trkpt lat="47.31743" lon="-1.73481">
        <ele>118</ele>
        <time>2013-10-20T07:00:21.000Z</time>
      </trkpt>
      <trkpt lat="47.31734" lon="-1.73498">
        <ele>119</ele>
        <time>2013-10-20T07:00:25.000Z</time>
      </trkpt>
      <trkpt lat="47.31726" lon="-1.73517">
        <ele>121</ele>
        <time>2013-10-20T07:00:29.000Z</time>
      </trkpt>
      <trkpt lat="47.31716" lon="-1.73535">
        <ele>123</ele>
        <time>2013-10-20T07:00:33.000Z</time>
      </trkpt>
      <trkpt lat="47.31709" lon="-1.73556">
        <ele>124</ele>
        <time>2013-10-20T07:00:37.000Z</time>
      </trkpt>
      <trkpt lat="47.31702" lon="-1.73578">
        <ele>123</ele>
        <time>2013-10-20T07:00:41.000Z</time>
      </trkpt>
      <trkpt lat="47.31702" lon="-1.73578">
        <ele>123</ele>
        <time>2013-10-20T07:00:45.000Z</time>
      </trkpt>
      <trkpt lat="47.31702" lon="-1.73578">
        <ele>123</ele>
        <time>2013-10-20T07:00:47.000Z</time>
      </trkpt>
      <trkpt lat="47.31702" lon="-1.73578">
        <ele>123</ele>
        <time>2013-10-20T07:00:49.000Z</time>
      </trkpt>
      <trkpt lat="47.31702" lon="-1.73578">
        <ele>123</ele>
        <time>2013-10-20T07:00:51.000Z</time>
      </trkpt>
      <trkpt lat="47.31702" lon="-1.73578">
        <ele>123</ele>
        <time>2013-10-20T07:00:53.000Z</time>
      </trkpt>
      <trkpt lat="47.31702" lon="-1.73578">
        <ele>123</ele>
        <time>2013-10-20T07:00:55.000Z</time>
      </trkpt>
      <trkpt lat="47.31702" lon="-1.73578">
        <ele>123</ele>
        <time>2013-10-20T07:00:57.000Z</time>
      </trkpt>
      <trkpt lat="47.31668" lon="-1.73666">
        <ele>122</ele>
        <time>2013-10-20T07:01:01.000Z</time>
      </trkpt>
      <trkpt lat="47.3166" lon="-1.73681">
        <ele>122</ele>
        <time>2013-10-20T07:01:05.000Z</time>
      </trkpt>
      <trkpt lat="47.31651" lon="-1.737">
        <ele>122</ele>
        <time>2013-10-20T07:01:09.000Z</time>
      </trkpt>
      <trkpt lat="47.31639" lon="-1.73717">
        <ele>122</ele>
        <time>2013-10-20T07:01:13.000Z</time>
      </trkpt>
      <trkpt lat="47.31627" lon="-1.73734">
        <ele>122</ele>
        <time>2013-10-20T07:01:17.000Z</time>
      </trkpt>
      <trkpt lat="47.31615" lon="-1.73751">
        <ele>122</ele>
        <time>2013-10-20T07:01:21.000Z</time>
      </trkpt>
      <trkpt lat="47.31615" lon="-1.73751">
        <ele>122</ele>
        <time>2013-10-20T07:01:23.000Z</time>
      </trkpt>
      <trkpt lat="47.31615" lon="-1.73751">
        <ele>122</ele>
        <time>2013-10-20T07:01:25.000Z</time>
      </trkpt>
      <trkpt lat="47.31615" lon="-1.73751">
        <ele>122</ele>
        <time>2013-10-20T07:01:27.000Z</time>
      </trkpt>
      <trkpt lat="47.316" lon="-1.73777">
        <ele>121</ele>
        <time>2013-10-20T07:01:31.000Z</time>
      </trkpt>
      <trkpt lat="47.3159" lon="-1.73795">
        <ele>121</ele>
        <time>2013-10-20T07:01:33.000Z</time>
      </trkpt>
      <trkpt lat="47.31582" lon="-1.73811">
        <ele>120</ele>
        <time>2013-10-20T07:01:35.000Z</time>
      </trkpt>
      <trkpt lat="47.31576" lon="-1.73825">
        <ele>120</ele>
        <time>2013-10-20T07:01:37.000Z</time>
      </trkpt>
      <trkpt lat="47.31571" lon="-1.73838">
        <ele>120</ele>
        <time>2013-10-20T07:01:39.000Z</time>
      </trkpt>
      <trkpt lat="47.31562" lon="-1.73863">
        <ele>121</ele>
        <time>2013-10-20T07:01:41.000Z</time>
      </trkpt>
      <trkpt lat="47.31553" lon="-1.73882">
        <ele>121</ele>
        <time>2013-10-20T07:01:45.000Z</time>
      </trkpt>
      <trkpt lat="47.31553" lon="-1.73882">
        <ele>121</ele>
        <time>2013-10-20T07:01:47.000Z</time>
      </trkpt>
      <trkpt lat="47.31553" lon="-1.73882">
        <ele>121</ele>
        <time>2013-10-20T07:01:49.000Z</time>
      </trkpt>
      <trkpt lat="47.31553" lon="-1.73882">
        <ele>121</ele>
        <time>2013-10-20T07:01:51.000Z</time>
      </trkpt>
      <trkpt lat="47.31553" lon="-1.73882">
        <ele>121</ele>
        <time>2013-10-20T07:01:53.000Z</time>
      </trkpt>
      <trkpt lat="47.31553" lon="-1.73882">
        <ele>121</ele>
        <time>2013-10-20T07:01:55.000Z</time>
      </trkpt>
      <trkpt lat="47.31553" lon="-1.73882">
        <ele>121</ele>
        <time>2013-10-20T07:01:57.000Z</time>
      </trkpt>
      <trkpt lat="47.31553" lon="-1.73882">
        <ele>121</ele>
        <time>2013-10-20T07:01:59.000Z</time>
      </trkpt>
      <trkpt lat="47.31553" lon="-1.73882">
        <ele>121</ele>
        <time>2013-10-20T07:02:01.000Z</time>
      </trkpt>
      <trkpt lat="47.31553" lon="-1.73882">
        <ele>121</ele>
        <time>2013-10-20T07:02:03.000Z</time>
      </trkpt>
      <trkpt lat="47.31553" lon="-1.73882">
        <ele>121</ele>
        <time>2013-10-20T07:02:05.000Z</time>
      </trkpt>
      <trkpt lat="47.31553" lon="-1.73882">
        <ele>121</ele>
        <time>2013-10-20T07:02:07.000Z</time>
      </trkpt>
      <trkpt lat="47.31553" lon="-1.73882">
        <ele>121</ele>
        <time>2013-10-20T07:02:09.000Z</time>
      </trkpt>
      <trkpt lat="47.31553" lon="-1.73882">
        <ele>121</ele>
        <time>2013-10-20T07:02:11.000Z</time>
      </trkpt>
      <trkpt lat="47.31553" lon="-1.73882">
        <ele>121</ele>
        <time>2013-10-20T07:02:13.000Z</time>
      </trkpt>
      <trkpt lat="47.31553" lon="-1.73882">
        <ele>121</ele>
        <time>2013-10-20T07:02:16.000Z</time>
      </trkpt>
      <trkpt lat="47.31553" lon="-1.73882">
        <ele>121</ele>
        <time>2013-10-20T07:02:18.000Z</time>
      </trkpt>
      <trkpt lat="47.31553" lon="-1.73882">
        <ele>121</ele>
        <time>2013-10-20T07:02:20.000Z</time>
      </trkpt>
      <trkpt lat="47.31553" lon="-1.73882">
        <ele>121</ele>
        <time>2013-10-20T07:02:26.000Z</time>
      </trkpt>
      <trkpt lat="47.31553" lon="-1.73882">
        <ele>121</ele>
        <time>2013-10-20T07:02:28.000Z</time>
      </trkpt>
      <trkpt lat="47.31553" lon="-1.73882">
        <ele>121</ele>
        <time>2013-10-20T07:02:30.000Z</time>
      </trkpt>
      <trkpt lat="47.31553" lon="-1.73882">
        <ele>121</ele>
        <time>2013-10-20T07:02:32.000Z</time>
      </trkpt>
      <trkpt lat="47.31553" lon="-1.73882">
        <ele>121</ele>
        <time>2013-10-20T07:02:34.000Z</time>
      </trkpt>
      <trkpt lat="47.31553" lon="-1.73882">
        <ele>121</ele>
        <time>2013-10-20T07:02:36.000Z</time>
      </trkpt>
      <trkpt lat="47.31461" lon="-1.74178">
        <ele>122</ele>
        <time>2013-10-20T07:02:40.000Z</time>
      </trkpt>
      <trkpt lat="47.31451" lon="-1.74187">
        <ele>123</ele>
        <time>2013-10-20T07:02:42.000Z</time>
      </trkpt>
      <trkpt lat="47.31441" lon="-1.74198">
        <ele>124</ele>
        <time>2013-10-20T07:02:44.000Z</time>
      </trkpt>
      <trkpt lat="47.31432" lon="-1.74206">
        <ele>124</ele>
        <time>2013-10-20T07:02:46.000Z</time>
      </trkpt>
      <trkpt lat="47.31421" lon="-1.74217">
        <ele>125</ele>
        <time>2013-10-20T07:02:48.000Z</time>
      </trkpt>
      <trkpt lat="47.31413" lon="-1.74223">
        <ele>125</ele>
        <time>2013-10-20T07:02:50.000Z</time>
      </trkpt>
      <trkpt lat="47.31404" lon="-1.74234">
        <ele>125</ele>
        <time>2013-10-20T07:02:52.000Z</time>
      </trkpt>
      <trkpt lat="47.31395" lon="-1.74241">
        <ele>126</ele>
        <time>2013-10-20T07:02:54.000Z</time>
      </trkpt>
      <trkpt lat="47.31387" lon="-1.74249">
        <ele>126</ele>
        <time>2013-10-20T07:02:56.000Z</time>
      </trkpt>
      <trkpt lat="47.31379" lon="-1.7426">
        <ele>126</ele>
        <time>2013-10-20T07:02:58.000Z</time>
      </trkpt>
      <trkpt lat="47.31373" lon="-1.74271">
        <ele>126</ele>
        <time>2013-10-20T07:03:00.000Z</time>
      </trkpt>
      <trkpt lat="47.31366" lon="-1.74281">
        <ele>126</ele>
        <time>2013-10-20T07:03:02.000Z</time>
      </trkpt>
      <trkpt lat="47.31359" lon="-1.74293">
        <ele>126</ele>
        <time>2013-10-20T07:03:04.000Z</time>
      </trkpt>
      <trkpt lat="47.31359" lon="-1.74293">
        <ele>126</ele>
        <time>2013-10-20T07:03:06.000Z</time>
      </trkpt>
      <trkpt lat="47.31347" lon="-1.74313">
        <ele>125</ele>
        <time>2013-10-20T07:03:08.000Z</time>
      </trkpt>
      <trkpt lat="47.31341" lon="-1.74324">
        <ele>125</ele>
        <time>2013-10-20T07:03:10.000Z</time>
      </trkpt>
      <trkpt lat="47.31334" lon="-1.74335">
        <ele>124</ele>
        <time>2013-10-20T07:03:12.000Z</time>
      </trkpt>
      <trkpt lat="47.31328" lon="-1.74345">
        <ele>124</ele>
        <time>2013-10-20T07:03:14.000Z</time>
      </trkpt>
      <trkpt lat="47.31321" lon="-1.74356">
        <ele>123</ele>
        <time>2013-10-20T07:03:16.000Z</time>
      </trkpt>
      <trkpt lat="47.31314" lon="-1.74367">
        <ele>122</ele>
        <time>2013-10-20T07:03:18.000Z</time>
      </trkpt>
      <trkpt lat="47.31307" lon="-1.74378">
        <ele>122</ele>
        <time>2013-10-20T07:03:20.000Z</time>
      </trkpt>
      <trkpt lat="47.313" lon="-1.74391">
        <ele>121</ele>
        <time>2013-10-20T07:03:22.000Z</time>
      </trkpt>
      <trkpt lat="47.31292" lon="-1.74404">
        <ele>122</ele>
        <time>2013-10-20T07:03:24.000Z</time>
      </trkpt>
      <trkpt lat="47.31286" lon="-1.74417">
        <ele>122</ele>
        <time>2013-10-20T07:03:26.000Z</time>
      </trkpt>
      <trkpt lat="47.31278" lon="-1.74427">
        <ele>122</ele>
        <time>2013-10-20T07:03:28.000Z</time>
      </trkpt>
      <trkpt lat="47.31271" lon="-1.74438">
        <ele>122</ele>
        <time>2013-10-20T07:03:30.000Z</time>
      </trkpt>
      <trkpt lat="47.31263" lon="-1.74449">
        <ele>123</ele>
        <time>2013-10-20T07:03:32.000Z</time>
      </trkpt>
      <trkpt lat="47.31256" lon="-1.74459">
        <ele>123</ele>
        <time>2013-10-20T07:03:34.000Z</time>
      </trkpt>
      <trkpt lat="47.31248" lon="-1.7447">
        <ele>123</ele>
        <time>2013-10-20T07:03:36.000Z</time>
      </trkpt>
      <trkpt lat="47.31241" lon="-1.74481">
        <ele>123</ele>
        <time>2013-10-20T07:03:38.000Z</time>
      </trkpt>
      <trkpt lat="47.31233" lon="-1.74492">
        <ele>123</ele>
        <time>2013-10-20T07:03:40.000Z</time>
      </trkpt>
      <trkpt lat="47.31224" lon="-1.74504">
        <ele>123</ele>
        <time>2013-10-20T07:03:42.000Z</time>
      </trkpt>
      <trkpt lat="47.31218" lon="-1.74514">
        <ele>123</ele>
        <time>2013-10-20T07:03:44.000Z</time>
      </trkpt>
      <trkpt lat="47.3121" lon="-1.74525">
        <ele>123</ele>
        <time>2013-10-20T07:03:46.000Z</time>
      </trkpt>
      <trkpt lat="47.31199" lon="-1.74532">
        <ele>123</ele>
        <time>2013-10-20T07:03:48.000Z</time>
      </trkpt>
      <trkpt lat="47.31191" lon="-1.74543">
        <ele>123</ele>
        <time>2013-10-20T07:03:50.000Z</time>
      </trkpt>
      <trkpt lat="47.31185" lon="-1.74554">
        <ele>124</ele>
        <time>2013-10-20T07:03:52.000Z</time>
      </trkpt>
      <trkpt lat="47.31179" lon="-1.74565">
        <ele>124</ele>
        <time>2013-10-20T07:03:54.000Z</time>
      </trkpt>
      <trkpt lat="47.31172" lon="-1.74576">
        <ele>125</ele>
        <time>2013-10-20T07:03:56.000Z</time>
      </trkpt>
      <trkpt lat="47.31165" lon="-1.74587">
        <ele>125</ele>
        <time>2013-10-20T07:03:58.000Z</time>
      </trkpt>
      <trkpt lat="47.31159" lon="-1.74598">
        <ele>125</ele>
        <time>2013-10-20T07:04:00.000Z</time>
      </trkpt>
      <trkpt lat="47.31153" lon="-1.74608">
        <ele>125</ele>
        <time>2013-10-20T07:04:02.000Z</time>
      </trkpt>
      <trkpt lat="47.31147" lon="-1.74618">
        <ele>125</ele>
        <time>2013-10-20T07:04:04.000Z</time>
      </trkpt>
      <trkpt lat="47.3114" lon="-1.74629">
        <ele>125</ele>
        <time>2013-10-20T07:04:06.000Z</time>
      </trkpt>
      <trkpt lat="47.31134" lon="-1.74639">
        <ele>124</ele>
        <time>2013-10-20T07:04:08.000Z</time>
      </trkpt>
      <trkpt lat="47.31127" lon="-1.7465">
        <ele>124</ele>
        <time>2013-10-20T07:04:10.000Z</time>
      </trkpt>
      <trkpt lat="47.3112" lon="-1.74662">
        <ele>124</ele>
        <time>2013-10-20T07:04:12.000Z</time>
      </trkpt>
      <trkpt lat="47.31112" lon="-1.7467">
        <ele>124</ele>
        <time>2013-10-20T07:04:14.000Z</time>
      </trkpt>
      <trkpt lat="47.31105" lon="-1.7468">
        <ele>125</ele>
        <time>2013-10-20T07:04:16.000Z</time>
      </trkpt>
      <trkpt lat="47.31098" lon="-1.74691">
        <ele>125</ele>
        <time>2013-10-20T07:04:18.000Z</time>
      </trkpt>
      <trkpt lat="47.31093" lon="-1.74702">
        <ele>125</ele>
        <time>2013-10-20T07:04:20.000Z</time>
      </trkpt>
      <trkpt lat="47.31085" lon="-1.74713">
        <ele>124</ele>
        <time>2013-10-20T07:04:22.000Z</time>
      </trkpt>
      <trkpt lat="47.31078" lon="-1.74723">
        <ele>123</ele>
        <time>2013-10-20T07:04:24.000Z</time>
      </trkpt>
      <trkpt lat="47.31071" lon="-1.74733">
        <ele>122</ele>
        <time>2013-10-20T07:04:26.000Z</time>
      </trkpt>
      <trkpt lat="47.31064" lon="-1.74743">
        <ele>122</ele>
        <time>2013-10-20T07:04:28.000Z</time>
      </trkpt>
      <trkpt lat="47.31056" lon="-1.74754">
        <ele>121</ele>
        <time>2013-10-20T07:04:30.000Z</time>
      </trkpt>
      <trkpt lat="47.31049" lon="-1.74764">
        <ele>121</ele>
        <time>2013-10-20T07:04:32.000Z</time>
      </trkpt>
      <trkpt lat="47.3104" lon="-1.74773">
        <ele>121</ele>
        <time>2013-10-20T07:04:34.000Z</time>
      </trkpt>
      <trkpt lat="47.31031" lon="-1.74779">
        <ele>121</ele>
        <time>2013-10-20T07:04:36.000Z</time>
      </trkpt>
      <trkpt lat="47.31022" lon="-1.74786">
        <ele>121</ele>
        <time>2013-10-20T07:04:38.000Z</time>
      </trkpt>
      <trkpt lat="47.31012" lon="-1.74794">
        <ele>121</ele>
        <time>2013-10-20T07:04:40.000Z</time>
      </trkpt>
      <trkpt lat="47.31004" lon="-1.74801">
        <ele>121</ele>
        <time>2013-10-20T07:04:42.000Z</time>
      </trkpt>
      <trkpt lat="47.30995" lon="-1.74807">
        <ele>120</ele>
        <time>2013-10-20T07:04:44.000Z</time>
      </trkpt>
      <trkpt lat="47.30986" lon="-1.74814">
        <ele>120</ele>
        <time>2013-10-20T07:04:46.000Z</time>
      </trkpt>
      <trkpt lat="47.30976" lon="-1.74821">
        <ele>120</ele>
        <time>2013-10-20T07:04:48.000Z</time>
      </trkpt>
      <trkpt lat="47.30968" lon="-1.74827">
        <ele>120</ele>
        <time>2013-10-20T07:04:50.000Z</time>
      </trkpt>
      <trkpt lat="47.30959" lon="-1.74834">
        <ele>120</ele>
        <time>2013-10-20T07:04:52.000Z</time>
      </trkpt>
      <trkpt lat="47.3095" lon="-1.74841">
        <ele>120</ele>
        <time>2013-10-20T07:04:54.000Z</time>
      </trkpt>
      <trkpt lat="47.30942" lon="-1.74847">
        <ele>120</ele>
        <time>2013-10-20T07:04:56.000Z</time>
      </trkpt>
      <trkpt lat="47.30933" lon="-1.74853">
        <ele>120</ele>
        <time>2013-10-20T07:04:58.000Z</time>
      </trkpt>
      <trkpt lat="47.30925" lon="-1.7486">
        <ele>120</ele>
        <time>2013-10-20T07:05:00.000Z</time>
      </trkpt>
      <trkpt lat="47.30915" lon="-1.74867">
        <ele>121</ele>
        <time>2013-10-20T07:05:02.000Z</time>
      </trkpt>
      <trkpt lat="47.30915" lon="-1.74867">
        <ele>121</ele>
        <time>2013-10-20T07:05:04.000Z</time>
      </trkpt>
      <trkpt lat="47.30899" lon="-1.7488">
        <ele>121</ele>
        <time>2013-10-20T07:05:06.000Z</time>
      </trkpt>
      <trkpt lat="47.30889" lon="-1.74886">
        <ele>120</ele>
        <time>2013-10-20T07:05:08.000Z</time>
      </trkpt>
      <trkpt lat="47.3088" lon="-1.74893">
        <ele>120</ele>
        <time>2013-10-20T07:05:10.000Z</time>
      </trkpt>
      <trkpt lat="47.30874" lon="-1.74912">
        <ele>120</ele>
        <time>2013-10-20T07:05:12.000Z</time>
      </trkpt>
      <trkpt lat="47.30863" lon="-1.74921">
        <ele>119</ele>
        <time>2013-10-20T07:05:14.000Z</time>
      </trkpt>
      <trkpt lat="47.30853" lon="-1.74927">
        <ele>119</ele>
        <time>2013-10-20T07:05:16.000Z</time>
      </trkpt>
      <trkpt lat="47.30843" lon="-1.74935">
        <ele>121</ele>
        <time>2013-10-20T07:05:20.000Z</time>
      </trkpt>
      <trkpt lat="47.30833" lon="-1.74942">
        <ele>122</ele>
        <time>2013-10-20T07:05:22.000Z</time>
      </trkpt>
      <trkpt lat="47.30824" lon="-1.74949">
        <ele>122</ele>
        <time>2013-10-20T07:05:24.000Z</time>
      </trkpt>
      <trkpt lat="47.30814" lon="-1.74957">
        <ele>123</ele>
        <time>2013-10-20T07:05:26.000Z</time>
      </trkpt>
      <trkpt lat="47.30806" lon="-1.74964">
        <ele>123</ele>
        <time>2013-10-20T07:05:28.000Z</time>
      </trkpt>
      <trkpt lat="47.30788" lon="-1.74978">
        <ele>124</ele>
        <time>2013-10-20T07:05:30.000Z</time>
      </trkpt>
      <trkpt lat="47.30788" lon="-1.74978">
        <ele>124</ele>
        <time>2013-10-20T07:05:32.000Z</time>
      </trkpt>
      <trkpt lat="47.30773" lon="-1.7499">
        <ele>127</ele>
        <time>2013-10-20T07:05:34.000Z</time>
      </trkpt>
      <trkpt lat="47.30773" lon="-1.7499">
        <ele>127</ele>
        <time>2013-10-20T07:05:36.000Z</time>
      </trkpt>
      <trkpt lat="47.30756" lon="-1.75004">
        <ele>129</ele>
        <time>2013-10-20T07:05:38.000Z</time>
      </trkpt>
      <trkpt lat="47.30756" lon="-1.75004">
        <ele>129</ele>
        <time>2013-10-20T07:05:40.000Z</time>
      </trkpt>
      <trkpt lat="47.30745" lon="-1.75013">
        <ele>129</ele>
        <time>2013-10-20T07:05:42.000Z</time>
      </trkpt>
      <trkpt lat="47.30745" lon="-1.75013">
        <ele>129</ele>
        <time>2013-10-20T07:05:44.000Z</time>
      </trkpt>
      <trkpt lat="47.30745" lon="-1.75013">
        <ele>129</ele>
        <time>2013-10-20T07:05:46.000Z</time>
      </trkpt>
      <trkpt lat="47.30736" lon="-1.7502">
        <ele>130</ele>
        <time>2013-10-20T07:05:50.000Z</time>
      </trkpt>
      <trkpt lat="47.30714" lon="-1.74957">
        <ele>131</ele>
        <time>2013-10-20T07:05:52.000Z</time>
      </trkpt>
      <trkpt lat="47.30712" lon="-1.74938">
        <ele>131</ele>
        <time>2013-10-20T07:05:54.000Z</time>
      </trkpt>
      <trkpt lat="47.30715" lon="-1.74919">
        <ele>131</ele>
        <time>2013-10-20T07:05:56.000Z</time>
      </trkpt>
      <trkpt lat="47.30715" lon="-1.74901">
        <ele>131</ele>
        <time>2013-10-20T07:05:58.000Z</time>
      </trkpt>
      <trkpt lat="47.30716" lon="-1.74884">
        <ele>131</ele>
        <time>2013-10-20T07:06:00.000Z</time>
      </trkpt>
      <trkpt lat="47.30715" lon="-1.74869">
        <ele>132</ele>
        <time>2013-10-20T07:06:02.000Z</time>
      </trkpt>
      <trkpt lat="47.30714" lon="-1.74852">
        <ele>132</ele>
        <time>2013-10-20T07:06:04.000Z</time>
      </trkpt>
      <trkpt lat="47.30712" lon="-1.74837">
        <ele>132</ele>
        <time>2013-10-20T07:06:06.000Z</time>
      </trkpt>
      <trkpt lat="47.3071" lon="-1.74822">
        <ele>133</ele>
        <time>2013-10-20T07:06:08.000Z</time>
      </trkpt>
      <trkpt lat="47.30706" lon="-1.74807">
        <ele>133</ele>
        <time>2013-10-20T07:06:10.000Z</time>
      </trkpt>
      <trkpt lat="47.30704" lon="-1.7479">
        <ele>133</ele>
        <time>2013-10-20T07:06:12.000Z</time>
      </trkpt>
      <trkpt lat="47.30702" lon="-1.74775">
        <ele>134</ele>
        <time>2013-10-20T07:06:14.000Z</time>
      </trkpt>
      <trkpt lat="47.30699" lon="-1.7476">
        <ele>135</ele>
        <time>2013-10-20T07:06:16.000Z</time>
      </trkpt>
      <trkpt lat="47.30697" lon="-1.74745">
        <ele>136</ele>
        <time>2013-10-20T07:06:18.000Z</time>
      </trkpt>
      <trkpt lat="47.30695" lon="-1.7473">
        <ele>136</ele>
        <time>2013-10-20T07:06:20.000Z</time>
      </trkpt>
      <trkpt lat="47.30693" lon="-1.74715">
        <ele>135</ele>
        <time>2013-10-20T07:06:22.000Z</time>
      </trkpt>
      <trkpt lat="47.3069" lon="-1.747">
        <ele>135</ele>
        <time>2013-10-20T07:06:24.000Z</time>
      </trkpt>
      <trkpt lat="47.30689" lon="-1.74685">
        <ele>134</ele>
        <time>2013-10-20T07:06:26.000Z</time>
      </trkpt>
      <trkpt lat="47.30686" lon="-1.7467">
        <ele>134</ele>
        <time>2013-10-20T07:06:28.000Z</time>
      </trkpt>
      <trkpt lat="47.30683" lon="-1.74653">
        <ele>134</ele>
        <time>2013-10-20T07:06:30.000Z</time>
      </trkpt>
      <trkpt lat="47.3068" lon="-1.74635">
        <ele>135</ele>
        <time>2013-10-20T07:06:32.000Z</time>
      </trkpt>
      <trkpt lat="47.30677" lon="-1.7462">
        <ele>135</ele>
        <time>2013-10-20T07:06:34.000Z</time>
      </trkpt>
      <trkpt lat="47.30673" lon="-1.74603">
        <ele>135</ele>
        <time>2013-10-20T07:06:36.000Z</time>
      </trkpt>
      <trkpt lat="47.3067" lon="-1.74588">
        <ele>135</ele>
        <time>2013-10-20T07:06:38.000Z</time>
      </trkpt>
      <trkpt lat="47.30666" lon="-1.74571">
        <ele>135</ele>
        <time>2013-10-20T07:06:40.000Z</time>
      </trkpt>
      <trkpt lat="47.30663" lon="-1.74556">
        <ele>134</ele>
        <time>2013-10-20T07:06:42.000Z</time>
      </trkpt>
      <trkpt lat="47.30658" lon="-1.74539">
        <ele>133</ele>
        <time>2013-10-20T07:06:44.000Z</time>
      </trkpt>
      <trkpt lat="47.30655" lon="-1.74522">
        <ele>133</ele>
        <time>2013-10-20T07:06:46.000Z</time>
      </trkpt>
      <trkpt lat="47.30653" lon="-1.74505">
        <ele>132</ele>
        <time>2013-10-20T07:06:48.000Z</time>
      </trkpt>
      <trkpt lat="47.3065" lon="-1.74487">
        <ele>132</ele>
        <time>2013-10-20T07:06:50.000Z</time>
      </trkpt>
      <trkpt lat="47.30647" lon="-1.74468">
        <ele>132</ele>
        <time>2013-10-20T07:06:52.000Z</time>
      </trkpt>
      <trkpt lat="47.30643" lon="-1.74451">
        <ele>132</ele>
        <time>2013-10-20T07:06:54.000Z</time>
      </trkpt>
      <trkpt lat="47.30642" lon="-1.74429">
        <ele>131</ele>
        <time>2013-10-20T07:06:56.000Z</time>
      </trkpt>
      <trkpt lat="47.3064" lon="-1.7441">
        <ele>131</ele>
        <time>2013-10-20T07:06:58.000Z</time>
      </trkpt>
      <trkpt lat="47.30637" lon="-1.74391">
        <ele>131</ele>
        <time>2013-10-20T07:07:00.000Z</time>
      </trkpt>
      <trkpt lat="47.30634" lon="-1.74374">
        <ele>131</ele>
        <time>2013-10-20T07:07:02.000Z</time>
      </trkpt>
      <trkpt lat="47.30631" lon="-1.74354">
        <ele>131</ele>
        <time>2013-10-20T07:07:04.000Z</time>
      </trkpt>
      <trkpt lat="47.30628" lon="-1.74335">
        <ele>130</ele>
        <time>2013-10-20T07:07:06.000Z</time>
      </trkpt>
      <trkpt lat="47.30625" lon="-1.74318">
        <ele>130</ele>
        <time>2013-10-20T07:07:08.000Z</time>
      </trkpt>
      <trkpt lat="47.30623" lon="-1.74301">
        <ele>130</ele>
        <time>2013-10-20T07:07:10.000Z</time>
      </trkpt>
      <trkpt lat="47.30619" lon="-1.74284">
        <ele>130</ele>
        <time>2013-10-20T07:07:12.000Z</time>
      </trkpt>
      <trkpt lat="47.30616" lon="-1.74268">
        <ele>130</ele>
        <time>2013-10-20T07:07:14.000Z</time>
      </trkpt>
      <trkpt lat="47.30613" lon="-1.74253">
        <ele>130</ele>
        <time>2013-10-20T07:07:16.000Z</time>
      </trkpt>
      <trkpt lat="47.3061" lon="-1.74236">
        <ele>130</ele>
        <time>2013-10-20T07:07:18.000Z</time>
      </trkpt>
      <trkpt lat="47.30606" lon="-1.74221">
        <ele>130</ele>
        <time>2013-10-20T07:07:20.000Z</time>
      </trkpt>
      <trkpt lat="47.30603" lon="-1.74204">
        <ele>130</ele>
        <time>2013-10-20T07:07:22.000Z</time>
      </trkpt>
      <trkpt lat="47.30599" lon="-1.74189">
        <ele>130</ele>
        <time>2013-10-20T07:07:24.000Z</time>
      </trkpt>
      <trkpt lat="47.30596" lon="-1.74174">
        <ele>130</ele>
        <time>2013-10-20T07:07:26.000Z</time>
      </trkpt>
      <trkpt lat="47.30594" lon="-1.74157">
        <ele>130</ele>
        <time>2013-10-20T07:07:28.000Z</time>
      </trkpt>
      <trkpt lat="47.3059" lon="-1.74142">
        <ele>130</ele>
        <time>2013-10-20T07:07:30.000Z</time>
      </trkpt>
      <trkpt lat="47.30589" lon="-1.74125">
        <ele>130</ele>
        <time>2013-10-20T07:07:32.000Z</time>
      </trkpt>
      <trkpt lat="47.30585" lon="-1.74108">
        <ele>130</ele>
        <time>2013-10-20T07:07:34.000Z</time>
      </trkpt>
      <trkpt lat="47.30583" lon="-1.74093">
        <ele>130</ele>
        <time>2013-10-20T07:07:36.000Z</time>
      </trkpt>
      <trkpt lat="47.3058" lon="-1.74078">
        <ele>130</ele>
        <time>2013-10-20T07:07:38.000Z</time>
      </trkpt>
      <trkpt lat="47.30578" lon="-1.7406">
        <ele>130</ele>
        <time>2013-10-20T07:07:40.000Z</time>
      </trkpt>
      <trkpt lat="47.30576" lon="-1.74045">
        <ele>130</ele>
        <time>2013-10-20T07:07:42.000Z</time>
      </trkpt>
      <trkpt lat="47.30574" lon="-1.7403">
        <ele>130</ele>
        <time>2013-10-20T07:07:44.000Z</time>
      </trkpt>
      <trkpt lat="47.30573" lon="-1.74013">
        <ele>130</ele>
        <time>2013-10-20T07:07:46.000Z</time>
      </trkpt>
      <trkpt lat="47.3057" lon="-1.73998">
        <ele>131</ele>
        <time>2013-10-20T07:07:48.000Z</time>
      </trkpt>
      <trkpt lat="47.30569" lon="-1.73983">
        <ele>131</ele>
        <time>2013-10-20T07:07:50.000Z</time>
      </trkpt>
      <trkpt lat="47.30567" lon="-1.73968">
        <ele>131</ele>
        <time>2013-10-20T07:07:52.000Z</time>
      </trkpt>
      <trkpt lat="47.30565" lon="-1.73953">
        <ele>131</ele>
        <time>2013-10-20T07:07:54.000Z</time>
      </trkpt>
      <trkpt lat="47.30562" lon="-1.73936">
        <ele>131</ele>
        <time>2013-10-20T07:07:56.000Z</time>
      </trkpt>
      <trkpt lat="47.3056" lon="-1.73919">
        <ele>131</ele>
        <time>2013-10-20T07:07:58.000Z</time>
      </trkpt>
      <trkpt lat="47.30557" lon="-1.73899">
        <ele>131</ele>
        <time>2013-10-20T07:08:00.000Z</time>
      </trkpt>
      <trkpt lat="47.30555" lon="-1.73882">
        <ele>130</ele>
        <time>2013-10-20T07:08:02.000Z</time>
      </trkpt>
      <trkpt lat="47.30553" lon="-1.73865">
        <ele>130</ele>
        <time>2013-10-20T07:08:04.000Z</time>
      </trkpt>
      <trkpt lat="47.30551" lon="-1.73848">
        <ele>130</ele>
        <time>2013-10-20T07:08:06.000Z</time>
      </trkpt>
      <trkpt lat="47.30549" lon="-1.73831">
        <ele>130</ele>
        <time>2013-10-20T07:08:08.000Z</time>
      </trkpt>
      <trkpt lat="47.30548" lon="-1.73816">
        <ele>130</ele>
        <time>2013-10-20T07:08:10.000Z</time>
      </trkpt>
      <trkpt lat="47.30548" lon="-1.73816">
        <ele>130</ele>
        <time>2013-10-20T07:08:12.000Z</time>
      </trkpt>
      <trkpt lat="47.30546" lon="-1.73788">
        <ele>131</ele>
        <time>2013-10-20T07:08:14.000Z</time>
      </trkpt>
      <trkpt lat="47.30546" lon="-1.73788">
        <ele>131</ele>
        <time>2013-10-20T07:08:16.000Z</time>
      </trkpt>
      <trkpt lat="47.30545" lon="-1.73772">
        <ele>131</ele>
        <time>2013-10-20T07:08:18.000Z</time>
      </trkpt>
      <trkpt lat="47.30545" lon="-1.73772">
        <ele>131</ele>
        <time>2013-10-20T07:08:20.000Z</time>
      </trkpt>
      <trkpt lat="47.30511" lon="-1.73811">
        <ele>132</ele>
        <time>2013-10-20T07:08:25.000Z</time>
      </trkpt>
      <trkpt lat="47.30494" lon="-1.73854">
        <ele>132</ele>
        <time>2013-10-20T07:08:31.000Z</time>
      </trkpt>
      <trkpt lat="47.30487" lon="-1.73865">
        <ele>132</ele>
        <time>2013-10-20T07:08:33.000Z</time>
      </trkpt>
      <trkpt lat="47.30481" lon="-1.73876">
        <ele>133</ele>
        <time>2013-10-20T07:08:35.000Z</time>
      </trkpt>
      <trkpt lat="47.30481" lon="-1.73876">
        <ele>133</ele>
        <time>2013-10-20T07:08:37.000Z</time>
      </trkpt>
      <trkpt lat="47.3047" lon="-1.73895">
        <ele>132</ele>
        <time>2013-10-20T07:08:39.000Z</time>
      </trkpt>
      <trkpt lat="47.3047" lon="-1.73895">
        <ele>132</ele>
        <time>2013-10-20T07:08:41.000Z</time>
      </trkpt>
      <trkpt lat="47.30457" lon="-1.73914">
        <ele>132</ele>
        <time>2013-10-20T07:08:43.000Z</time>
      </trkpt>
      <trkpt lat="47.30457" lon="-1.73914">
        <ele>132</ele>
        <time>2013-10-20T07:08:45.000Z</time>
      </trkpt>
      <trkpt lat="47.30445" lon="-1.73934">
        <ele>132</ele>
        <time>2013-10-20T07:08:47.000Z</time>
      </trkpt>
      <trkpt lat="47.30438" lon="-1.73944">
        <ele>132</ele>
        <time>2013-10-20T07:08:49.000Z</time>
      </trkpt>
      <trkpt lat="47.30432" lon="-1.73957">
        <ele>133</ele>
        <time>2013-10-20T07:08:51.000Z</time>
      </trkpt>
      <trkpt lat="47.30425" lon="-1.73968">
        <ele>133</ele>
        <time>2013-10-20T07:08:53.000Z</time>
      </trkpt>
      <trkpt lat="47.3042" lon="-1.73979">
        <ele>133</ele>
        <time>2013-10-20T07:08:55.000Z</time>
      </trkpt>
      <trkpt lat="47.30412" lon="-1.73992">
        <ele>133</ele>
        <time>2013-10-20T07:08:57.000Z</time>
      </trkpt>
      <trkpt lat="47.30406" lon="-1.74002">
        <ele>133</ele>
        <time>2013-10-20T07:08:59.000Z</time>
      </trkpt>
      <trkpt lat="47.30401" lon="-1.74015">
        <ele>133</ele>
        <time>2013-10-20T07:09:01.000Z</time>
      </trkpt>
      <trkpt lat="47.30394" lon="-1.74026">
        <ele>133</ele>
        <time>2013-10-20T07:09:03.000Z</time>
      </trkpt>
      <trkpt lat="47.30388" lon="-1.74037">
        <ele>133</ele>
        <time>2013-10-20T07:09:05.000Z</time>
      </trkpt>
      <trkpt lat="47.30381" lon="-1.74047">
        <ele>133</ele>
        <time>2013-10-20T07:09:07.000Z</time>
      </trkpt>
      <trkpt lat="47.30374" lon="-1.7406">
        <ele>132</ele>
        <time>2013-10-20T07:09:09.000Z</time>
      </trkpt>
      <trkpt lat="47.30367" lon="-1.74073">
        <ele>132</ele>
        <time>2013-10-20T07:09:11.000Z</time>
      </trkpt>
      <trkpt lat="47.30359" lon="-1.74084">
        <ele>132</ele>
        <time>2013-10-20T07:09:13.000Z</time>
      </trkpt>
      <trkpt lat="47.30351" lon="-1.74097">
        <ele>132</ele>
        <time>2013-10-20T07:09:15.000Z</time>
      </trkpt>
      <trkpt lat="47.30334" lon="-1.7412">
        <ele>131</ele>
        <time>2013-10-20T07:09:19.000Z</time>
      </trkpt>
      <trkpt lat="47.30323" lon="-1.74131">
        <ele>130</ele>
        <time>2013-10-20T07:09:21.000Z</time>
      </trkpt>
      <trkpt lat="47.30314" lon="-1.74142">
        <ele>130</ele>
        <time>2013-10-20T07:09:23.000Z</time>
      </trkpt>
      <trkpt lat="47.30302" lon="-1.74155">
        <ele>129</ele>
        <time>2013-10-20T07:09:25.000Z</time>
      </trkpt>
      <trkpt lat="47.3029" lon="-1.74165">
        <ele>128</ele>
        <time>2013-10-20T07:09:27.000Z</time>
      </trkpt>
      <trkpt lat="47.3028" lon="-1.74174">
        <ele>127</ele>
        <time>2013-10-20T07:09:29.000Z</time>
      </trkpt>
      <trkpt lat="47.30269" lon="-1.74183">
        <ele>127</ele>
        <time>2013-10-20T07:09:31.000Z</time>
      </trkpt>
      <trkpt lat="47.30258" lon="-1.74189">
        <ele>127</ele>
        <time>2013-10-20T07:09:33.000Z</time>
      </trkpt>
      <trkpt lat="47.30247" lon="-1.74198">
        <ele>127</ele>
        <time>2013-10-20T07:09:35.000Z</time>
      </trkpt>
      <trkpt lat="47.30238" lon="-1.74204">
        <ele>127</ele>
        <time>2013-10-20T07:09:37.000Z</time>
      </trkpt>
      <trkpt lat="47.30238" lon="-1.74204">
        <ele>127</ele>
        <time>2013-10-20T07:09:39.000Z</time>
      </trkpt>
      <trkpt lat="47.30216" lon="-1.74218">
        <ele>128</ele>
        <time>2013-10-20T07:09:41.000Z</time>
      </trkpt>
      <trkpt lat="47.30207" lon="-1.74225">
        <ele>128</ele>
        <time>2013-10-20T07:09:43.000Z</time>
      </trkpt>
      <trkpt lat="47.30197" lon="-1.74231">
        <ele>128</ele>
        <time>2013-10-20T07:09:45.000Z</time>
      </trkpt>
      <trkpt lat="47.30187" lon="-1.74238">
        <ele>128</ele>
        <time>2013-10-20T07:09:47.000Z</time>
      </trkpt>
      <trkpt lat="47.30178" lon="-1.74244">
        <ele>128</ele>
        <time>2013-10-20T07:09:49.000Z</time>
      </trkpt>
      <trkpt lat="47.30178" lon="-1.74244">
        <ele>128</ele>
        <time>2013-10-20T07:09:51.000Z</time>
      </trkpt>
      <trkpt lat="47.30159" lon="-1.74256">
        <ele>127</ele>
        <time>2013-10-20T07:09:53.000Z</time>
      </trkpt>
      <trkpt lat="47.30159" lon="-1.74256">
        <ele>127</ele>
        <time>2013-10-20T07:09:55.000Z</time>
      </trkpt>
      <trkpt lat="47.30141" lon="-1.74268">
        <ele>128</ele>
        <time>2013-10-20T07:09:57.000Z</time>
      </trkpt>
      <trkpt lat="47.30133" lon="-1.74274">
        <ele>128</ele>
        <time>2013-10-20T07:09:59.000Z</time>
      </trkpt>
      <trkpt lat="47.30124" lon="-1.7428">
        <ele>129</ele>
        <time>2013-10-20T07:10:01.000Z</time>
      </trkpt>
      <trkpt lat="47.30116" lon="-1.74285">
        <ele>129</ele>
        <time>2013-10-20T07:10:03.000Z</time>
      </trkpt>
      <trkpt lat="47.30116" lon="-1.74285">
        <ele>129</ele>
        <time>2013-10-20T07:10:05.000Z</time>
      </trkpt>
      <trkpt lat="47.30101" lon="-1.74295">
        <ele>129</ele>
        <time>2013-10-20T07:10:07.000Z</time>
      </trkpt>
      <trkpt lat="47.30101" lon="-1.74295">
        <ele>129</ele>
        <time>2013-10-20T07:10:09.000Z</time>
      </trkpt>
      <trkpt lat="47.30086" lon="-1.74305">
        <ele>128</ele>
        <time>2013-10-20T07:10:11.000Z</time>
      </trkpt>
      <trkpt lat="47.30076" lon="-1.74312">
        <ele>128</ele>
        <time>2013-10-20T07:10:13.000Z</time>
      </trkpt>
      <trkpt lat="47.30076" lon="-1.74312">
        <ele>128</ele>
        <time>2013-10-20T07:10:15.000Z</time>
      </trkpt>
      <trkpt lat="47.30059" lon="-1.74323">
        <ele>128</ele>
        <time>2013-10-20T07:10:17.000Z</time>
      </trkpt>
      <trkpt lat="47.30049" lon="-1.7433">
        <ele>127</ele>
        <time>2013-10-20T07:10:19.000Z</time>
      </trkpt>
      <trkpt lat="47.30052" lon="-1.7438">
        <ele>127</ele>
        <time>2013-10-20T07:10:21.000Z</time>
      </trkpt>
      <trkpt lat="47.30034" lon="-1.74399">
        <ele>126</ele>
        <time>2013-10-20T07:10:25.000Z</time>
      </trkpt>
      <trkpt lat="47.30025" lon="-1.74412">
        <ele>126</ele>
        <time>2013-10-20T07:10:27.000Z</time>
      </trkpt>
      <trkpt lat="47.30017" lon="-1.74421">
        <ele>126</ele>
        <time>2013-10-20T07:10:29.000Z</time>
      </trkpt>
      <trkpt lat="47.30007" lon="-1.74432">
        <ele>126</ele>
        <time>2013-10-20T07:10:31.000Z</time>
      </trkpt>
      <trkpt lat="47.29997" lon="-1.7444">
        <ele>126</ele>
        <time>2013-10-20T07:10:33.000Z</time>
      </trkpt>
      <trkpt lat="47.29988" lon="-1.74449">
        <ele>126</ele>
        <time>2013-10-20T07:10:35.000Z</time>
      </trkpt>
      <trkpt lat="47.29978" lon="-1.74455">
        <ele>127</ele>
        <time>2013-10-20T07:10:37.000Z</time>
      </trkpt>
      <trkpt lat="47.29967" lon="-1.74464">
        <ele>127</ele>
        <time>2013-10-20T07:10:39.000Z</time>
      </trkpt>
      <trkpt lat="47.29958" lon="-1.7447">
        <ele>126</ele>
        <time>2013-10-20T07:10:41.000Z</time>
      </trkpt>
      <trkpt lat="47.29948" lon="-1.74477">
        <ele>126</ele>
        <time>2013-10-20T07:10:43.000Z</time>
      </trkpt>
      <trkpt lat="47.29938" lon="-1.74483">
        <ele>126</ele>
        <time>2013-10-20T07:10:45.000Z</time>
      </trkpt>
      <trkpt lat="47.29926" lon="-1.74489">
        <ele>126</ele>
        <time>2013-10-20T07:10:47.000Z</time>
      </trkpt>
      <trkpt lat="47.29916" lon="-1.74494">
        <ele>126</ele>
        <time>2013-10-20T07:10:49.000Z</time>
      </trkpt>
      <trkpt lat="47.29905" lon="-1.745">
        <ele>126</ele>
        <time>2013-10-20T07:10:51.000Z</time>
      </trkpt>
      <trkpt lat="47.29894" lon="-1.74507">
        <ele>126</ele>
        <time>2013-10-20T07:10:53.000Z</time>
      </trkpt>
      <trkpt lat="47.29884" lon="-1.74513">
        <ele>126</ele>
        <time>2013-10-20T07:10:55.000Z</time>
      </trkpt>
      <trkpt lat="47.29873" lon="-1.74517">
        <ele>126</ele>
        <time>2013-10-20T07:10:57.000Z</time>
      </trkpt>
      <trkpt lat="47.29862" lon="-1.74522">
        <ele>126</ele>
        <time>2013-10-20T07:10:59.000Z</time>
      </trkpt>
      <trkpt lat="47.29852" lon="-1.74526">
        <ele>126</ele>
        <time>2013-10-20T07:11:01.000Z</time>
      </trkpt>
      <trkpt lat="47.2984" lon="-1.7453">
        <ele>126</ele>
        <time>2013-10-20T07:11:03.000Z</time>
      </trkpt>
      <trkpt lat="47.2983" lon="-1.74537">
        <ele>126</ele>
        <time>2013-10-20T07:11:05.000Z</time>
      </trkpt>
      <trkpt lat="47.2982" lon="-1.74541">
        <ele>125</ele>
        <time>2013-10-20T07:11:07.000Z</time>
      </trkpt>
      <trkpt lat="47.2981" lon="-1.74547">
        <ele>125</ele>
        <time>2013-10-20T07:11:09.000Z</time>
      </trkpt>
      <trkpt lat="47.298" lon="-1.74556">
        <ele>124</ele>
        <time>2013-10-20T07:11:11.000Z</time>
      </trkpt>
      <trkpt lat="47.29789" lon="-1.74562">
        <ele>124</ele>
        <time>2013-10-20T07:11:13.000Z</time>
      </trkpt>
      <trkpt lat="47.29777" lon="-1.74571">
        <ele>124</ele>
        <time>2013-10-20T07:11:15.000Z</time>
      </trkpt>
      <trkpt lat="47.29765" lon="-1.74577">
        <ele>124</ele>
        <time>2013-10-20T07:11:17.000Z</time>
      </trkpt>
      <trkpt lat="47.29752" lon="-1.74584">
        <ele>124</ele>
        <time>2013-10-20T07:11:19.000Z</time>
      </trkpt>
      <trkpt lat="47.29739" lon="-1.7459">
        <ele>124</ele>
        <time>2013-10-20T07:11:21.000Z</time>
      </trkpt>
      <trkpt lat="47.29726" lon="-1.74597">
        <ele>124</ele>
        <time>2013-10-20T07:11:23.000Z</time>
      </trkpt>
      <trkpt lat="47.29713" lon="-1.74601">
        <ele>124</ele>
        <time>2013-10-20T07:11:25.000Z</time>
      </trkpt>
      <trkpt lat="47.29701" lon="-1.74608">
        <ele>124</ele>
        <time>2013-10-20T07:11:27.000Z</time>
      </trkpt>
      <trkpt lat="47.29689" lon="-1.74614">
        <ele>124</ele>
        <time>2013-10-20T07:11:29.000Z</time>
      </trkpt>
      <trkpt lat="47.29678" lon="-1.74618">
        <ele>124</ele>
        <time>2013-10-20T07:11:31.000Z</time>
      </trkpt>
      <trkpt lat="47.29666" lon="-1.74625">
        <ele>124</ele>
        <time>2013-10-20T07:11:33.000Z</time>
      </trkpt>
      <trkpt lat="47.29654" lon="-1.74631">
        <ele>124</ele>
        <time>2013-10-20T07:11:35.000Z</time>
      </trkpt>
      <trkpt lat="47.29643" lon="-1.7464">
        <ele>124</ele>
        <time>2013-10-20T07:11:37.000Z</time>
      </trkpt>
      <trkpt lat="47.29634" lon="-1.74648">
        <ele>124</ele>
        <time>2013-10-20T07:11:39.000Z</time>
      </trkpt>
      <trkpt lat="47.29624" lon="-1.74657">
        <ele>123</ele>
        <time>2013-10-20T07:11:41.000Z</time>
      </trkpt>
      <trkpt lat="47.29615" lon="-1.74665">
        <ele>124</ele>
        <time>2013-10-20T07:11:43.000Z</time>
      </trkpt>
      <trkpt lat="47.29601" lon="-1.74676">
        <ele>124</ele>
        <time>2013-10-20T07:11:46.000Z</time>
      </trkpt>
      <trkpt lat="47.29593" lon="-1.74685">
        <ele>124</ele>
        <time>2013-10-20T07:11:48.000Z</time>
      </trkpt>
      <trkpt lat="47.29593" lon="-1.74685">
        <ele>124</ele>
        <time>2013-10-20T07:11:50.000Z</time>
      </trkpt>
      <trkpt lat="47.29578" lon="-1.74699">
        <ele>124</ele>
        <time>2013-10-20T07:11:52.000Z</time>
      </trkpt>
      <trkpt lat="47.29578" lon="-1.74699">
        <ele>124</ele>
        <time>2013-10-20T07:11:54.000Z</time>
      </trkpt>
      <trkpt lat="47.29568" lon="-1.7471">
        <ele>124</ele>
        <time>2013-10-20T07:11:56.000Z</time>
      </trkpt>
      <trkpt lat="47.29568" lon="-1.7471">
        <ele>124</ele>
        <time>2013-10-20T07:11:58.000Z</time>
      </trkpt>
      <trkpt lat="47.29556" lon="-1.74722">
        <ele>124</ele>
        <time>2013-10-20T07:12:04.000Z</time>
      </trkpt>
      <trkpt lat="47.29546" lon="-1.74711">
        <ele>125</ele>
        <time>2013-10-20T07:12:06.000Z</time>
      </trkpt>
      <trkpt lat="47.29534" lon="-1.74698">
        <ele>125</ele>
        <time>2013-10-20T07:12:10.000Z</time>
      </trkpt>
      <trkpt lat="47.29523" lon="-1.74683">
        <ele>124</ele>
        <time>2013-10-20T07:12:14.000Z</time>
      </trkpt>
      <trkpt lat="47.29511" lon="-1.74668">
        <ele>125</ele>
        <time>2013-10-20T07:12:18.000Z</time>
      </trkpt>
      <trkpt lat="47.29498" lon="-1.7465">
        <ele>126</ele>
        <time>2013-10-20T07:12:22.000Z</time>
      </trkpt>
      <trkpt lat="47.29485" lon="-1.74635">
        <ele>126</ele>
        <time>2013-10-20T07:12:26.000Z</time>
      </trkpt>
      <trkpt lat="47.29485" lon="-1.74635">
        <ele>126</ele>
        <time>2013-10-20T07:12:28.000Z</time>
      </trkpt>
      <trkpt lat="47.29485" lon="-1.74635">
        <ele>126</ele>
        <time>2013-10-20T07:12:30.000Z</time>
      </trkpt>
      <trkpt lat="47.29485" lon="-1.74635">
        <ele>126</ele>
        <time>2013-10-20T07:12:32.000Z</time>
      </trkpt>
      <trkpt lat="47.29485" lon="-1.74635">
        <ele>126</ele>
        <time>2013-10-20T07:12:34.000Z</time>
      </trkpt>
      <trkpt lat="47.29485" lon="-1.74635">
        <ele>126</ele>
        <time>2013-10-20T07:12:36.000Z</time>
      </trkpt>
      <trkpt lat="47.29485" lon="-1.74635">
        <ele>126</ele>
        <time>2013-10-20T07:12:38.000Z</time>
      </trkpt>
      <trkpt lat="47.29485" lon="-1.74635">
        <ele>126</ele>
        <time>2013-10-20T07:12:40.000Z</time>
      </trkpt>
      <trkpt lat="47.29485" lon="-1.74635">
        <ele>126</ele>
        <time>2013-10-20T07:12:42.000Z</time>
      </trkpt>
      <trkpt lat="47.29485" lon="-1.74635">
        <ele>126</ele>
        <time>2013-10-20T07:12:44.000Z</time>
      </trkpt>
      <trkpt lat="47.29457" lon="-1.7459">
        <ele>127</ele>
        <time>2013-10-20T07:12:48.000Z</time>
      </trkpt>
      <trkpt lat="47.2944" lon="-1.74567">
        <ele>127</ele>
        <time>2013-10-20T07:12:50.000Z</time>
      </trkpt>
      <trkpt lat="47.29427" lon="-1.74552">
        <ele>127</ele>
        <time>2013-10-20T07:12:52.000Z</time>
      </trkpt>
      <trkpt lat="47.29417" lon="-1.7454">
        <ele>127</ele>
        <time>2013-10-20T07:12:54.000Z</time>
      </trkpt>
      <trkpt lat="47.29408" lon="-1.7453">
        <ele>127</ele>
        <time>2013-10-20T07:12:56.000Z</time>
      </trkpt>
      <trkpt lat="47.29393" lon="-1.74509">
        <ele>127</ele>
        <time>2013-10-20T07:12:58.000Z</time>
      </trkpt>
      <trkpt lat="47.29379" lon="-1.74489">
        <ele>127</ele>
        <time>2013-10-20T07:13:02.000Z</time>
      </trkpt>
      <trkpt lat="47.29372" lon="-1.74477">
        <ele>127</ele>
        <time>2013-10-20T07:13:04.000Z</time>
      </trkpt>
      <trkpt lat="47.29363" lon="-1.74466">
        <ele>127</ele>
        <time>2013-10-20T07:13:06.000Z</time>
      </trkpt>
      <trkpt lat="47.29356" lon="-1.74455">
        <ele>126</ele>
        <time>2013-10-20T07:13:08.000Z</time>
      </trkpt>
      <trkpt lat="47.29348" lon="-1.74447">
        <ele>126</ele>
        <time>2013-10-20T07:13:10.000Z</time>
      </trkpt>
      <trkpt lat="47.29341" lon="-1.74436">
        <ele>126</ele>
        <time>2013-10-20T07:13:12.000Z</time>
      </trkpt>
      <trkpt lat="47.29333" lon="-1.74425">
        <ele>126</ele>
        <time>2013-10-20T07:13:14.000Z</time>
      </trkpt>
      <trkpt lat="47.29325" lon="-1.74412">
        <ele>126</ele>
        <time>2013-10-20T07:13:16.000Z</time>
      </trkpt>
      <trkpt lat="47.29318" lon="-1.74402">
        <ele>127</ele>
        <time>2013-10-20T07:13:18.000Z</time>
      </trkpt>
      <trkpt lat="47.29311" lon="-1.74392">
        <ele>127</ele>
        <time>2013-10-20T07:13:20.000Z</time>
      </trkpt>
      <trkpt lat="47.29304" lon="-1.74381">
        <ele>127</ele>
        <time>2013-10-20T07:13:22.000Z</time>
      </trkpt>
      <trkpt lat="47.29295" lon="-1.74369">
        <ele>128</ele>
        <time>2013-10-20T07:13:24.000Z</time>
      </trkpt>
      <trkpt lat="47.29288" lon="-1.74356">
        <ele>128</ele>
        <time>2013-10-20T07:13:26.000Z</time>
      </trkpt>
      <trkpt lat="47.2928" lon="-1.74344">
        <ele>128</ele>
        <time>2013-10-20T07:13:28.000Z</time>
      </trkpt>
      <trkpt lat="47.29272" lon="-1.74333">
        <ele>128</ele>
        <time>2013-10-20T07:13:30.000Z</time>
      </trkpt>
      <trkpt lat="47.29264" lon="-1.7432">
        <ele>129</ele>
        <time>2013-10-20T07:13:32.000Z</time>
      </trkpt>
      <trkpt lat="47.29257" lon="-1.74309">
        <ele>129</ele>
        <time>2013-10-20T07:13:34.000Z</time>
      </trkpt>
      <trkpt lat="47.2925" lon="-1.74299">
        <ele>128</ele>
        <time>2013-10-20T07:13:36.000Z</time>
      </trkpt>
      <trkpt lat="47.29243" lon="-1.74289">
        <ele>128</ele>
        <time>2013-10-20T07:13:38.000Z</time>
      </trkpt>
      <trkpt lat="47.29235" lon="-1.74279">
        <ele>128</ele>
        <time>2013-10-20T07:13:40.000Z</time>
      </trkpt>
      <trkpt lat="47.29235" lon="-1.74279">
        <ele>128</ele>
        <time>2013-10-20T07:13:42.000Z</time>
      </trkpt>
      <trkpt lat="47.29222" lon="-1.7426">
        <ele>127</ele>
        <time>2013-10-20T07:13:44.000Z</time>
      </trkpt>
      <trkpt lat="47.29214" lon="-1.74248">
        <ele>127</ele>
        <time>2013-10-20T07:13:46.000Z</time>
      </trkpt>
      <trkpt lat="47.29206" lon="-1.74237">
        <ele>127</ele>
        <time>2013-10-20T07:13:48.000Z</time>
      </trkpt>
      <trkpt lat="47.29201" lon="-1.74223">
        <ele>127</ele>
        <time>2013-10-20T07:13:50.000Z</time>
      </trkpt>
      <trkpt lat="47.29195" lon="-1.74213">
        <ele>127</ele>
        <time>2013-10-20T07:13:52.000Z</time>
      </trkpt>
      <trkpt lat="47.29188" lon="-1.74202">
        <ele>127</ele>
        <time>2013-10-20T07:13:54.000Z</time>
      </trkpt>
      <trkpt lat="47.29185" lon="-1.74189">
        <ele>127</ele>
        <time>2013-10-20T07:13:56.000Z</time>
      </trkpt>
      <trkpt lat="47.29185" lon="-1.74189">
        <ele>127</ele>
        <time>2013-10-20T07:13:58.000Z</time>
      </trkpt>
      <trkpt lat="47.29179" lon="-1.74167">
        <ele>126</ele>
        <time>2013-10-20T07:14:00.000Z</time>
      </trkpt>
      <trkpt lat="47.29179" lon="-1.74167">
        <ele>126</ele>
        <time>2013-10-20T07:14:02.000Z</time>
      </trkpt>
      <trkpt lat="47.29174" lon="-1.74146">
        <ele>126</ele>
        <time>2013-10-20T07:14:04.000Z</time>
      </trkpt>
      <trkpt lat="47.29174" lon="-1.74146">
        <ele>126</ele>
        <time>2013-10-20T07:14:06.000Z</time>
      </trkpt>
      <trkpt lat="47.29171" lon="-1.7413">
        <ele>126</ele>
        <time>2013-10-20T07:14:08.000Z</time>
      </trkpt>
      <trkpt lat="47.29171" lon="-1.7413">
        <ele>126</ele>
        <time>2013-10-20T07:14:10.000Z</time>
      </trkpt>
      <trkpt lat="47.29166" lon="-1.74115">
        <ele>126</ele>
        <time>2013-10-20T07:14:12.000Z</time>
      </trkpt>
      <trkpt lat="47.29166" lon="-1.74115">
        <ele>126</ele>
        <time>2013-10-20T07:14:14.000Z</time>
      </trkpt>
      <trkpt lat="47.29166" lon="-1.74115">
        <ele>126</ele>
        <time>2013-10-20T07:14:16.000Z</time>
      </trkpt>
      <trkpt lat="47.29148" lon="-1.7412">
        <ele>126</ele>
        <time>2013-10-20T07:14:20.000Z</time>
      </trkpt>
      <trkpt lat="47.29139" lon="-1.74114">
        <ele>126</ele>
        <time>2013-10-20T07:14:22.000Z</time>
      </trkpt>
      <trkpt lat="47.29129" lon="-1.74103">
        <ele>125</ele>
        <time>2013-10-20T07:14:24.000Z</time>
      </trkpt>
      <trkpt lat="47.29121" lon="-1.74093">
        <ele>124</ele>
        <time>2013-10-20T07:14:26.000Z</time>
      </trkpt>
      <trkpt lat="47.29113" lon="-1.7408">
        <ele>123</ele>
        <time>2013-10-20T07:14:28.000Z</time>
      </trkpt>
      <trkpt lat="47.29106" lon="-1.74069">
        <ele>123</ele>
        <time>2013-10-20T07:14:30.000Z</time>
      </trkpt>
      <trkpt lat="47.29097" lon="-1.74056">
        <ele>123</ele>
        <time>2013-10-20T07:14:32.000Z</time>
      </trkpt>
      <trkpt lat="47.2909" lon="-1.74043">
        <ele>122</ele>
        <time>2013-10-20T07:14:34.000Z</time>
      </trkpt>
      <trkpt lat="47.29082" lon="-1.7403">
        <ele>122</ele>
        <time>2013-10-20T07:14:36.000Z</time>
      </trkpt>
      <trkpt lat="47.29073" lon="-1.7402">
        <ele>122</ele>
        <time>2013-10-20T07:14:38.000Z</time>
      </trkpt>
      <trkpt lat="47.29065" lon="-1.74007">
        <ele>121</ele>
        <time>2013-10-20T07:14:40.000Z</time>
      </trkpt>
      <trkpt lat="47.29057" lon="-1.73998">
        <ele>121</ele>
        <time>2013-10-20T07:14:42.000Z</time>
      </trkpt>
      <trkpt lat="47.29051" lon="-1.73987">
        <ele>120</ele>
        <time>2013-10-20T07:14:44.000Z</time>
      </trkpt>
      <trkpt lat="47.29044" lon="-1.73977">
        <ele>120</ele>
        <time>2013-10-20T07:14:46.000Z</time>
      </trkpt>
      <trkpt lat="47.29044" lon="-1.73977">
        <ele>120</ele>
        <time>2013-10-20T07:14:48.000Z</time>
      </trkpt>
      <trkpt lat="47.2903" lon="-1.73958">
        <ele>120</ele>
        <time>2013-10-20T07:14:50.000Z</time>
      </trkpt>
      <trkpt lat="47.2903" lon="-1.73958">
        <ele>120</ele>
        <time>2013-10-20T07:14:52.000Z</time>
      </trkpt>
      <trkpt lat="47.29016" lon="-1.73938">
        <ele>120</ele>
        <time>2013-10-20T07:14:54.000Z</time>
      </trkpt>
      <trkpt lat="47.2901" lon="-1.73928">
        <ele>120</ele>
        <time>2013-10-20T07:14:56.000Z</time>
      </trkpt>
      <trkpt lat="47.2901" lon="-1.73928">
        <ele>120</ele>
        <time>2013-10-20T07:14:58.000Z</time>
      </trkpt>
      <trkpt lat="47.28997" lon="-1.7391">
        <ele>121</ele>
        <time>2013-10-20T07:15:00.000Z</time>
      </trkpt>
      <trkpt lat="47.28997" lon="-1.7391">
        <ele>121</ele>
        <time>2013-10-20T07:15:02.000Z</time>
      </trkpt>
      <trkpt lat="47.28984" lon="-1.73892">
        <ele>121</ele>
        <time>2013-10-20T07:15:04.000Z</time>
      </trkpt>
      <trkpt lat="47.28984" lon="-1.73892">
        <ele>121</ele>
        <time>2013-10-20T07:15:06.000Z</time>
      </trkpt>
      <trkpt lat="47.28971" lon="-1.73874">
        <ele>120</ele>
        <time>2013-10-20T07:15:08.000Z</time>
      </trkpt>
      <trkpt lat="47.28971" lon="-1.73874">
        <ele>120</ele>
        <time>2013-10-20T07:15:10.000Z</time>
      </trkpt>
      <trkpt lat="47.28959" lon="-1.73855">
        <ele>121</ele>
        <time>2013-10-20T07:15:12.000Z</time>
      </trkpt>
      <trkpt lat="47.28952" lon="-1.73846">
        <ele>121</ele>
        <time>2013-10-20T07:15:14.000Z</time>
      </trkpt>
      <trkpt lat="47.28944" lon="-1.73835">
        <ele>121</ele>
        <time>2013-10-20T07:15:16.000Z</time>
      </trkpt>
      <trkpt lat="47.28935" lon="-1.73831">
        <ele>122</ele>
        <time>2013-10-20T07:15:18.000Z</time>
      </trkpt>
      <trkpt lat="47.28928" lon="-1.7382">
        <ele>123</ele>
        <time>2013-10-20T07:15:20.000Z</time>
      </trkpt>
      <trkpt lat="47.28921" lon="-1.73809">
        <ele>124</ele>
        <time>2013-10-20T07:15:22.000Z</time>
      </trkpt>
      <trkpt lat="47.28913" lon="-1.73801">
        <ele>124</ele>
        <time>2013-10-20T07:15:24.000Z</time>
      </trkpt>
      <trkpt lat="47.28907" lon="-1.7379">
        <ele>125</ele>
        <time>2013-10-20T07:15:26.000Z</time>
      </trkpt>
      <trkpt lat="47.289" lon="-1.73781">
        <ele>125</ele>
        <time>2013-10-20T07:15:28.000Z</time>
      </trkpt>
      <trkpt lat="47.28893" lon="-1.73771">
        <ele>125</ele>
        <time>2013-10-20T07:15:30.000Z</time>
      </trkpt>
      <trkpt lat="47.2888" lon="-1.73751">
        <ele>125</ele>
        <time>2013-10-20T07:15:34.000Z</time>
      </trkpt>
      <trkpt lat="47.28873" lon="-1.73743">
        <ele>125</ele>
        <time>2013-10-20T07:15:36.000Z</time>
      </trkpt>
      <trkpt lat="47.28859" lon="-1.73723">
        <ele>125</ele>
        <time>2013-10-20T07:15:40.000Z</time>
      </trkpt>
      <trkpt lat="47.28851" lon="-1.73715">
        <ele>125</ele>
        <time>2013-10-20T07:15:42.000Z</time>
      </trkpt>
      <trkpt lat="47.28844" lon="-1.73706">
        <ele>126</ele>
        <time>2013-10-20T07:15:44.000Z</time>
      </trkpt>
      <trkpt lat="47.28839" lon="-1.73693">
        <ele>126</ele>
        <time>2013-10-20T07:15:46.000Z</time>
      </trkpt>
      <trkpt lat="47.28839" lon="-1.73678">
        <ele>126</ele>
        <time>2013-10-20T07:15:48.000Z</time>
      </trkpt>
      <trkpt lat="47.28841" lon="-1.73663">
        <ele>127</ele>
        <time>2013-10-20T07:15:50.000Z</time>
      </trkpt>
      <trkpt lat="47.28843" lon="-1.73651">
        <ele>127</ele>
        <time>2013-10-20T07:15:52.000Z</time>
      </trkpt>
      <trkpt lat="47.28848" lon="-1.73638">
        <ele>127</ele>
        <time>2013-10-20T07:15:54.000Z</time>
      </trkpt>
      <trkpt lat="47.28855" lon="-1.73627">
        <ele>127</ele>
        <time>2013-10-20T07:15:56.000Z</time>
      </trkpt>
      <trkpt lat="47.28861" lon="-1.73616">
        <ele>127</ele>
        <time>2013-10-20T07:15:58.000Z</time>
      </trkpt>
      <trkpt lat="47.28868" lon="-1.73605">
        <ele>127</ele>
        <time>2013-10-20T07:16:00.000Z</time>
      </trkpt>
      <trkpt lat="47.28875" lon="-1.73595">
        <ele>127</ele>
        <time>2013-10-20T07:16:02.000Z</time>
      </trkpt>
      <trkpt lat="47.28875" lon="-1.73595">
        <ele>127</ele>
        <time>2013-10-20T07:16:04.000Z</time>
      </trkpt>
      <trkpt lat="47.28877" lon="-1.73569">
        <ele>127</ele>
        <time>2013-10-20T07:16:06.000Z</time>
      </trkpt>
      <trkpt lat="47.28878" lon="-1.73555">
        <ele>126</ele>
        <time>2013-10-20T07:16:08.000Z</time>
      </trkpt>
      <trkpt lat="47.28878" lon="-1.73555">
        <ele>126</ele>
        <time>2013-10-20T07:16:10.000Z</time>
      </trkpt>
      <trkpt lat="47.2888" lon="-1.73532">
        <ele>125</ele>
        <time>2013-10-20T07:16:12.000Z</time>
      </trkpt>
      <trkpt lat="47.2888" lon="-1.73532">
        <ele>125</ele>
        <time>2013-10-20T07:16:14.000Z</time>
      </trkpt>
      <trkpt lat="47.28882" lon="-1.73509">
        <ele>124</ele>
        <time>2013-10-20T07:16:16.000Z</time>
      </trkpt>
      <trkpt lat="47.28918" lon="-1.73492">
        <ele>123</ele>
        <time>2013-10-20T07:16:20.000Z</time>
      </trkpt>
      <trkpt lat="47.28925" lon="-1.73479">
        <ele>122</ele>
        <time>2013-10-20T07:16:22.000Z</time>
      </trkpt>
      <trkpt lat="47.28932" lon="-1.73468">
        <ele>122</ele>
        <time>2013-10-20T07:16:24.000Z</time>
      </trkpt>
      <trkpt lat="47.28938" lon="-1.73457">
        <ele>121</ele>
        <time>2013-10-20T07:16:26.000Z</time>
      </trkpt>
      <trkpt lat="47.28945" lon="-1.73447">
        <ele>120</ele>
        <time>2013-10-20T07:16:28.000Z</time>
      </trkpt>
      <trkpt lat="47.28952" lon="-1.73438">
        <ele>120</ele>
        <time>2013-10-20T07:16:30.000Z</time>
      </trkpt>
      <trkpt lat="47.2896" lon="-1.73429">
        <ele>119</ele>
        <time>2013-10-20T07:16:32.000Z</time>
      </trkpt>
      <trkpt lat="47.28968" lon="-1.7342">
        <ele>117</ele>
        <time>2013-10-20T07:16:34.000Z</time>
      </trkpt>
      <trkpt lat="47.28976" lon="-1.73411">
        <ele>115</ele>
        <time>2013-10-20T07:16:36.000Z</time>
      </trkpt>
      <trkpt lat="47.28976" lon="-1.73411">
        <ele>115</ele>
        <time>2013-10-20T07:16:38.000Z</time>
      </trkpt>
      <trkpt lat="47.2899" lon="-1.73395">
        <ele>113</ele>
        <time>2013-10-20T07:16:40.000Z</time>
      </trkpt>
      <trkpt lat="47.28997" lon="-1.73386">
        <ele>112</ele>
        <time>2013-10-20T07:16:42.000Z</time>
      </trkpt>
      <trkpt lat="47.28997" lon="-1.73386">
        <ele>112</ele>
        <time>2013-10-20T07:16:44.000Z</time>
      </trkpt>
      <trkpt lat="47.2901" lon="-1.73371">
        <ele>112</ele>
        <time>2013-10-20T07:16:46.000Z</time>
      </trkpt>
      <trkpt lat="47.29025" lon="-1.73355">
        <ele>112</ele>
        <time>2013-10-20T07:16:50.000Z</time>
      </trkpt>
      <trkpt lat="47.29021" lon="-1.73329">
        <ele>112</ele>
        <time>2013-10-20T07:16:52.000Z</time>
      </trkpt>
      <trkpt lat="47.29028" lon="-1.73318">
        <ele>113</ele>
        <time>2013-10-20T07:16:54.000Z</time>
      </trkpt>
      <trkpt lat="47.29033" lon="-1.73307">
        <ele>113</ele>
        <time>2013-10-20T07:16:56.000Z</time>
      </trkpt>
      <trkpt lat="47.29039" lon="-1.73294">
        <ele>114</ele>
        <time>2013-10-20T07:16:58.000Z</time>
      </trkpt>
      <trkpt lat="47.29045" lon="-1.73284">
        <ele>115</ele>
        <time>2013-10-20T07:17:00.000Z</time>
      </trkpt>
      <trkpt lat="47.29051" lon="-1.73273">
        <ele>115</ele>
        <time>2013-10-20T07:17:02.000Z</time>
      </trkpt>
      <trkpt lat="47.29058" lon="-1.73262">
        <ele>115</ele>
        <time>2013-10-20T07:17:04.000Z</time>
      </trkpt>
      <trkpt lat="47.29066" lon="-1.73251">
        <ele>115</ele>
        <time>2013-10-20T07:17:06.000Z</time>
      </trkpt>
      <trkpt lat="47.29074" lon="-1.73236">
        <ele>115</ele>
        <time>2013-10-20T07:17:08.000Z</time>
      </trkpt>
      <trkpt lat="47.29083" lon="-1.73226">
        <ele>115</ele>
        <time>2013-10-20T07:17:10.000Z</time>
      </trkpt>
      <trkpt lat="47.29092" lon="-1.73213">
        <ele>116</ele>
        <time>2013-10-20T07:17:12.000Z</time>
      </trkpt>
      <trkpt lat="47.29098" lon="-1.73202">
        <ele>117</ele>
        <time>2013-10-20T07:17:14.000Z</time>
      </trkpt>
      <trkpt lat="47.29106" lon="-1.73189">
        <ele>117</ele>
        <time>2013-10-20T07:17:16.000Z</time>
      </trkpt>
      <trkpt lat="47.29112" lon="-1.73178">
        <ele>118</ele>
        <time>2013-10-20T07:17:18.000Z</time>
      </trkpt>
      <trkpt lat="47.29119" lon="-1.73166">
        <ele>118</ele>
        <time>2013-10-20T07:17:20.000Z</time>
      </trkpt>
      <trkpt lat="47.29125" lon="-1.73155">
        <ele>118</ele>
        <time>2013-10-20T07:17:22.000Z</time>
      </trkpt>
      <trkpt lat="47.29125" lon="-1.73155">
        <ele>118</ele>
        <time>2013-10-20T07:17:24.000Z</time>
      </trkpt>
      <trkpt lat="47.29135" lon="-1.73138">
        <ele>119</ele>
        <time>2013-10-20T07:17:26.000Z</time>
      </trkpt>
      <trkpt lat="47.29135" lon="-1.73138">
        <ele>119</ele>
        <time>2013-10-20T07:17:28.000Z</time>
      </trkpt>
      <trkpt lat="47.29145" lon="-1.73122">
        <ele>119</ele>
        <time>2013-10-20T07:17:30.000Z</time>
      </trkpt>
      <trkpt lat="47.29145" lon="-1.73122">
        <ele>119</ele>
        <time>2013-10-20T07:17:32.000Z</time>
      </trkpt>
      <trkpt lat="47.29155" lon="-1.73105">
        <ele>119</ele>
        <time>2013-10-20T07:17:34.000Z</time>
      </trkpt>
      <trkpt lat="47.29155" lon="-1.73105">
        <ele>119</ele>
        <time>2013-10-20T07:17:36.000Z</time>
      </trkpt>
      <trkpt lat="47.29167" lon="-1.73085">
        <ele>120</ele>
        <time>2013-10-20T07:17:38.000Z</time>
      </trkpt>
      <trkpt lat="47.29184" lon="-1.73073">
        <ele>121</ele>
        <time>2013-10-20T07:17:42.000Z</time>
      </trkpt>
      <trkpt lat="47.2919" lon="-1.73064">
        <ele>126</ele>
        <time>2013-10-20T07:17:46.000Z</time>
      </trkpt>
      <trkpt lat="47.29195" lon="-1.73053">
        <ele>127</ele>
        <time>2013-10-20T07:17:48.000Z</time>
      </trkpt>
      <trkpt lat="47.292" lon="-1.73041">
        <ele>128</ele>
        <time>2013-10-20T07:17:50.000Z</time>
      </trkpt>
      <trkpt lat="47.29204" lon="-1.73029">
        <ele>128</ele>
        <time>2013-10-20T07:17:52.000Z</time>
      </trkpt>
      <trkpt lat="47.29209" lon="-1.73016">
        <ele>128</ele>
        <time>2013-10-20T07:17:54.000Z</time>
      </trkpt>
      <trkpt lat="47.29214" lon="-1.72987">
        <ele>128</ele>
        <time>2013-10-20T07:17:56.000Z</time>
      </trkpt>
      <trkpt lat="47.29217" lon="-1.72972">
        <ele>128</ele>
        <time>2013-10-20T07:17:58.000Z</time>
      </trkpt>
      <trkpt lat="47.29219" lon="-1.72957">
        <ele>128</ele>
        <time>2013-10-20T07:18:00.000Z</time>
      </trkpt>
      <trkpt lat="47.29222" lon="-1.72942">
        <ele>129</ele>
        <time>2013-10-20T07:18:02.000Z</time>
      </trkpt>
      <trkpt lat="47.29222" lon="-1.72942">
        <ele>129</ele>
        <time>2013-10-20T07:18:04.000Z</time>
      </trkpt>
      <trkpt lat="47.29222" lon="-1.72942">
        <ele>129</ele>
        <time>2013-10-20T07:18:06.000Z</time>
      </trkpt>
      <trkpt lat="47.29222" lon="-1.72942">
        <ele>129</ele>
        <time>2013-10-20T07:18:08.000Z</time>
      </trkpt>
      <trkpt lat="47.29222" lon="-1.72942">
        <ele>129</ele>
        <time>2013-10-20T07:18:10.000Z</time>
      </trkpt>
      <trkpt lat="47.29222" lon="-1.72942">
        <ele>129</ele>
        <time>2013-10-20T07:18:12.000Z</time>
      </trkpt>
      <trkpt lat="47.29222" lon="-1.72942">
        <ele>129</ele>
        <time>2013-10-20T07:18:14.000Z</time>
      </trkpt>
      <trkpt lat="47.29222" lon="-1.72942">
        <ele>129</ele>
        <time>2013-10-20T07:18:16.000Z</time>
      </trkpt>
      <trkpt lat="47.29222" lon="-1.72942">
        <ele>129</ele>
        <time>2013-10-20T07:18:18.000Z</time>
      </trkpt>
      <trkpt lat="47.29222" lon="-1.72942">
        <ele>129</ele>
        <time>2013-10-20T07:18:20.000Z</time>
      </trkpt>
      <trkpt lat="47.29248" lon="-1.72807">
        <ele>131</ele>
        <time>2013-10-20T07:18:26.000Z</time>
      </trkpt>
      <trkpt lat="47.2925" lon="-1.72784">
        <ele>132</ele>
        <time>2013-10-20T07:18:30.000Z</time>
      </trkpt>
      <trkpt lat="47.29251" lon="-1.72769">
        <ele>132</ele>
        <time>2013-10-20T07:18:32.000Z</time>
      </trkpt>
      <trkpt lat="47.29251" lon="-1.72754">
        <ele>132</ele>
        <time>2013-10-20T07:18:34.000Z</time>
      </trkpt>
      <trkpt lat="47.29251" lon="-1.72739">
        <ele>132</ele>
        <time>2013-10-20T07:18:36.000Z</time>
      </trkpt>
      <trkpt lat="47.29251" lon="-1.72721">
        <ele>134</ele>
        <time>2013-10-20T07:18:38.000Z</time>
      </trkpt>
      <trkpt lat="47.29251" lon="-1.72702">
        <ele>135</ele>
        <time>2013-10-20T07:18:40.000Z</time>
      </trkpt>
      <trkpt lat="47.29253" lon="-1.72685">
        <ele>135</ele>
        <time>2013-10-20T07:18:42.000Z</time>
      </trkpt>
      <trkpt lat="47.29253" lon="-1.7267">
        <ele>136</ele>
        <time>2013-10-20T07:18:44.000Z</time>
      </trkpt>
      <trkpt lat="47.29254" lon="-1.72655">
        <ele>136</ele>
        <time>2013-10-20T07:18:46.000Z</time>
      </trkpt>
      <trkpt lat="47.29254" lon="-1.72655">
        <ele>136</ele>
        <time>2013-10-20T07:18:48.000Z</time>
      </trkpt>
      <trkpt lat="47.29255" lon="-1.72634">
        <ele>136</ele>
        <time>2013-10-20T07:18:50.000Z</time>
      </trkpt>
      <trkpt lat="47.29255" lon="-1.72634">
        <ele>136</ele>
        <time>2013-10-20T07:18:54.000Z</time>
      </trkpt>
      <trkpt lat="47.29257" lon="-1.72613">
        <ele>136</ele>
        <time>2013-10-20T07:18:58.000Z</time>
      </trkpt>
      <trkpt lat="47.29251" lon="-1.72601">
        <ele>136</ele>
        <time>2013-10-20T07:19:00.000Z</time>
      </trkpt>
      <trkpt lat="47.29255" lon="-1.7258">
        <ele>134</ele>
        <time>2013-10-20T07:19:04.000Z</time>
      </trkpt>
      <trkpt lat="47.29258" lon="-1.72556">
        <ele>133</ele>
        <time>2013-10-20T07:19:08.000Z</time>
      </trkpt>
      <trkpt lat="47.2926" lon="-1.7253">
        <ele>131</ele>
        <time>2013-10-20T07:19:12.000Z</time>
      </trkpt>
      <trkpt lat="47.29261" lon="-1.72515">
        <ele>130</ele>
        <time>2013-10-20T07:19:14.000Z</time>
      </trkpt>
      <trkpt lat="47.29262" lon="-1.7249">
        <ele>129</ele>
        <time>2013-10-20T07:19:18.000Z</time>
      </trkpt>
      <trkpt lat="47.29262" lon="-1.72475">
        <ele>129</ele>
        <time>2013-10-20T07:19:20.000Z</time>
      </trkpt>
      <trkpt lat="47.29266" lon="-1.72462">
        <ele>128</ele>
        <time>2013-10-20T07:19:22.000Z</time>
      </trkpt>
      <trkpt lat="47.29273" lon="-1.72453">
        <ele>128</ele>
        <time>2013-10-20T07:19:24.000Z</time>
      </trkpt>
      <trkpt lat="47.29282" lon="-1.72445">
        <ele>127</ele>
        <time>2013-10-20T07:19:26.000Z</time>
      </trkpt>
      <trkpt lat="47.2929" lon="-1.7244">
        <ele>127</ele>
        <time>2013-10-20T07:19:28.000Z</time>
      </trkpt>
      <trkpt lat="47.29299" lon="-1.72434">
        <ele>127</ele>
        <time>2013-10-20T07:19:30.000Z</time>
      </trkpt>
      <trkpt lat="47.29308" lon="-1.72432">
        <ele>127</ele>
        <time>2013-10-20T07:19:32.000Z</time>
      </trkpt>
      <trkpt lat="47.29317" lon="-1.72427">
        <ele>127</ele>
        <time>2013-10-20T07:19:34.000Z</time>
      </trkpt>
      <trkpt lat="47.29325" lon="-1.72423">
        <ele>127</ele>
        <time>2013-10-20T07:19:36.000Z</time>
      </trkpt>
      <trkpt lat="47.29334" lon="-1.72419">
        <ele>127</ele>
        <time>2013-10-20T07:19:38.000Z</time>
      </trkpt>
      <trkpt lat="47.29334" lon="-1.72419">
        <ele>127</ele>
        <time>2013-10-20T07:19:40.000Z</time>
      </trkpt>
      <trkpt lat="47.2935" lon="-1.72411">
        <ele>127</ele>
        <time>2013-10-20T07:19:42.000Z</time>
      </trkpt>
      <trkpt lat="47.2935" lon="-1.72411">
        <ele>127</ele>
        <time>2013-10-20T07:19:44.000Z</time>
      </trkpt>
      <trkpt lat="47.29366" lon="-1.72403">
        <ele>126</ele>
        <time>2013-10-20T07:19:46.000Z</time>
      </trkpt>
      <trkpt lat="47.29375" lon="-1.72399">
        <ele>126</ele>
        <time>2013-10-20T07:19:48.000Z</time>
      </trkpt>
      <trkpt lat="47.29385" lon="-1.72394">
        <ele>126</ele>
        <time>2013-10-20T07:19:50.000Z</time>
      </trkpt>
      <trkpt lat="47.29393" lon="-1.72387">
        <ele>126</ele>
        <time>2013-10-20T07:19:52.000Z</time>
      </trkpt>
      <trkpt lat="47.29404" lon="-1.72385">
        <ele>126</ele>
        <time>2013-10-20T07:19:54.000Z</time>
      </trkpt>
      <trkpt lat="47.29416" lon="-1.7238">
        <ele>126</ele>
        <time>2013-10-20T07:19:56.000Z</time>
      </trkpt>
      <trkpt lat="47.29428" lon="-1.72376">
        <ele>126</ele>
        <time>2013-10-20T07:19:58.000Z</time>
      </trkpt>
      <trkpt lat="47.29438" lon="-1.72369">
        <ele>127</ele>
        <time>2013-10-20T07:20:00.000Z</time>
      </trkpt>
      <trkpt lat="47.29448" lon="-1.72359">
        <ele>127</ele>
        <time>2013-10-20T07:20:02.000Z</time>
      </trkpt>
      <trkpt lat="47.29456" lon="-1.72344">
        <ele>128</ele>
        <time>2013-10-20T07:20:04.000Z</time>
      </trkpt>
      <trkpt lat="47.29463" lon="-1.72327">
        <ele>129</ele>
        <time>2013-10-20T07:20:06.000Z</time>
      </trkpt>
      <trkpt lat="47.29469" lon="-1.72309">
        <ele>129</ele>
        <time>2013-10-20T07:20:08.000Z</time>
      </trkpt>
      <trkpt lat="47.29475" lon="-1.7229">
        <ele>129</ele>
        <time>2013-10-20T07:20:10.000Z</time>
      </trkpt>
      <trkpt lat="47.2948" lon="-1.72273">
        <ele>129</ele>
        <time>2013-10-20T07:20:12.000Z</time>
      </trkpt>
      <trkpt lat="47.29485" lon="-1.72256">
        <ele>129</ele>
        <time>2013-10-20T07:20:14.000Z</time>
      </trkpt>
      <trkpt lat="47.29491" lon="-1.72239">
        <ele>129</ele>
        <time>2013-10-20T07:20:16.000Z</time>
      </trkpt>
      <trkpt lat="47.29499" lon="-1.72224">
        <ele>129</ele>
        <time>2013-10-20T07:20:18.000Z</time>
      </trkpt>
      <trkpt lat="47.29509" lon="-1.72206">
        <ele>129</ele>
        <time>2013-10-20T07:20:20.000Z</time>
      </trkpt>
      <trkpt lat="47.29519" lon="-1.72191">
        <ele>129</ele>
        <time>2013-10-20T07:20:22.000Z</time>
      </trkpt>
      <trkpt lat="47.2953" lon="-1.72176">
        <ele>129</ele>
        <time>2013-10-20T07:20:24.000Z</time>
      </trkpt>
      <trkpt lat="47.29541" lon="-1.72161">
        <ele>129</ele>
        <time>2013-10-20T07:20:26.000Z</time>
      </trkpt>
      <trkpt lat="47.29552" lon="-1.72148">
        <ele>129</ele>
        <time>2013-10-20T07:20:28.000Z</time>
      </trkpt>
      <trkpt lat="47.29563" lon="-1.72133">
        <ele>129</ele>
        <time>2013-10-20T07:20:30.000Z</time>
      </trkpt>
      <trkpt lat="47.29572" lon="-1.72118">
        <ele>129</ele>
        <time>2013-10-20T07:20:32.000Z</time>
      </trkpt>
      <trkpt lat="47.29581" lon="-1.72103">
        <ele>129</ele>
        <time>2013-10-20T07:20:34.000Z</time>
      </trkpt>
      <trkpt lat="47.29586" lon="-1.72086">
        <ele>128</ele>
        <time>2013-10-20T07:20:36.000Z</time>
      </trkpt>
      <trkpt lat="47.29589" lon="-1.72067">
        <ele>128</ele>
        <time>2013-10-20T07:20:38.000Z</time>
      </trkpt>
      <trkpt lat="47.29591" lon="-1.72048">
        <ele>128</ele>
        <time>2013-10-20T07:20:40.000Z</time>
      </trkpt>
      <trkpt lat="47.29591" lon="-1.72028">
        <ele>128</ele>
        <time>2013-10-20T07:20:42.000Z</time>
      </trkpt>
      <trkpt lat="47.29591" lon="-1.72009">
        <ele>127</ele>
        <time>2013-10-20T07:20:44.000Z</time>
      </trkpt>
      <trkpt lat="47.29592" lon="-1.7199">
        <ele>127</ele>
        <time>2013-10-20T07:20:46.000Z</time>
      </trkpt>
      <trkpt lat="47.29592" lon="-1.71973">
        <ele>127</ele>
        <time>2013-10-20T07:20:48.000Z</time>
      </trkpt>
      <trkpt lat="47.29593" lon="-1.71955">
        <ele>126</ele>
        <time>2013-10-20T07:20:50.000Z</time>
      </trkpt>
      <trkpt lat="47.29593" lon="-1.71936">
        <ele>126</ele>
        <time>2013-10-20T07:20:52.000Z</time>
      </trkpt>
      <trkpt lat="47.29593" lon="-1.71917">
        <ele>126</ele>
        <time>2013-10-20T07:20:54.000Z</time>
      </trkpt>
      <trkpt lat="47.29592" lon="-1.71897">
        <ele>126</ele>
        <time>2013-10-20T07:20:56.000Z</time>
      </trkpt>
      <trkpt lat="47.29588" lon="-1.7188">
        <ele>126</ele>
        <time>2013-10-20T07:20:58.000Z</time>
      </trkpt>
      <trkpt lat="47.29585" lon="-1.71861">
        <ele>126</ele>
        <time>2013-10-20T07:21:00.000Z</time>
      </trkpt>
      <trkpt lat="47.29581" lon="-1.71846">
        <ele>127</ele>
        <time>2013-10-20T07:21:02.000Z</time>
      </trkpt>
      <trkpt lat="47.29576" lon="-1.71831">
        <ele>127</ele>
        <time>2013-10-20T07:21:04.000Z</time>
      </trkpt>
      <trkpt lat="47.2957" lon="-1.71816">
        <ele>127</ele>
        <time>2013-10-20T07:21:06.000Z</time>
      </trkpt>
      <trkpt lat="47.29565" lon="-1.71801">
        <ele>126</ele>
        <time>2013-10-20T07:21:08.000Z</time>
      </trkpt>
      <trkpt lat="47.29559" lon="-1.71788">
        <ele>126</ele>
        <time>2013-10-20T07:21:10.000Z</time>
      </trkpt>
      <trkpt lat="47.29552" lon="-1.71775">
        <ele>126</ele>
        <time>2013-10-20T07:21:12.000Z</time>
      </trkpt>
      <trkpt lat="47.29546" lon="-1.7176">
        <ele>126</ele>
        <time>2013-10-20T07:21:14.000Z</time>
      </trkpt>
      <trkpt lat="47.29538" lon="-1.71745">
        <ele>126</ele>
        <time>2013-10-20T07:21:16.000Z</time>
      </trkpt>
      <trkpt lat="47.29531" lon="-1.7173">
        <ele>126</ele>
        <time>2013-10-20T07:21:18.000Z</time>
      </trkpt>
      <trkpt lat="47.29523" lon="-1.71713">
        <ele>125</ele>
        <time>2013-10-20T07:21:20.000Z</time>
      </trkpt>
      <trkpt lat="47.29517" lon="-1.71698">
        <ele>125</ele>
        <time>2013-10-20T07:21:22.000Z</time>
      </trkpt>
      <trkpt lat="47.29517" lon="-1.71698">
        <ele>125</ele>
        <time>2013-10-20T07:21:24.000Z</time>
      </trkpt>
      <trkpt lat="47.29517" lon="-1.71698">
        <ele>125</ele>
        <time>2013-10-20T07:21:26.000Z</time>
      </trkpt>
      <trkpt lat="47.29517" lon="-1.71698">
        <ele>125</ele>
        <time>2013-10-20T07:21:28.000Z</time>
      </trkpt>
      <trkpt lat="47.29517" lon="-1.71698">
        <ele>125</ele>
        <time>2013-10-20T07:21:30.000Z</time>
      </trkpt>
      <trkpt lat="47.29517" lon="-1.71698">
        <ele>125</ele>
        <time>2013-10-20T07:21:34.000Z</time>
      </trkpt>
      <trkpt lat="47.29553" lon="-1.71664">
        <ele>122</ele>
        <time>2013-10-20T07:21:38.000Z</time>
      </trkpt>
      <trkpt lat="47.29569" lon="-1.71661">
        <ele>120</ele>
        <time>2013-10-20T07:21:42.000Z</time>
      </trkpt>
      <trkpt lat="47.29583" lon="-1.71659">
        <ele>120</ele>
        <time>2013-10-20T07:21:46.000Z</time>
      </trkpt>
      <trkpt lat="47.29583" lon="-1.71659">
        <ele>120</ele>
        <time>2013-10-20T07:21:48.000Z</time>
      </trkpt>
      <trkpt lat="47.29582" lon="-1.71643">
        <ele>118</ele>
        <time>2013-10-20T07:21:51.000Z</time>
      </trkpt>
      <trkpt lat="47.29579" lon="-1.71627">
        <ele>118</ele>
        <time>2013-10-20T07:21:53.000Z</time>
      </trkpt>
      <trkpt lat="47.29575" lon="-1.71611">
        <ele>117</ele>
        <time>2013-10-20T07:21:55.000Z</time>
      </trkpt>
      <trkpt lat="47.2957" lon="-1.71596">
        <ele>117</ele>
        <time>2013-10-20T07:21:57.000Z</time>
      </trkpt>
      <trkpt lat="47.29567" lon="-1.71584">
        <ele>117</ele>
        <time>2013-10-20T07:21:59.000Z</time>
      </trkpt>
      <trkpt lat="47.2956" lon="-1.71562">
        <ele>117</ele>
        <time>2013-10-20T07:22:01.000Z</time>
      </trkpt>
      <trkpt lat="47.2956" lon="-1.71562">
        <ele>117</ele>
        <time>2013-10-20T07:22:03.000Z</time>
      </trkpt>
      <trkpt lat="47.29555" lon="-1.71545">
        <ele>117</ele>
        <time>2013-10-20T07:22:05.000Z</time>
      </trkpt>
      <trkpt lat="47.29555" lon="-1.71545">
        <ele>117</ele>
        <time>2013-10-20T07:22:07.000Z</time>
      </trkpt>
      <trkpt lat="47.2955" lon="-1.71529">
        <ele>116</ele>
        <time>2013-10-20T07:22:09.000Z</time>
      </trkpt>
      <trkpt lat="47.2955" lon="-1.71529">
        <ele>116</ele>
        <time>2013-10-20T07:22:11.000Z</time>
      </trkpt>
      <trkpt lat="47.29545" lon="-1.71512">
        <ele>115</ele>
        <time>2013-10-20T07:22:13.000Z</time>
      </trkpt>
      <trkpt lat="47.29545" lon="-1.71512">
        <ele>115</ele>
        <time>2013-10-20T07:22:15.000Z</time>
      </trkpt>
      <trkpt lat="47.29539" lon="-1.71493">
        <ele>115</ele>
        <time>2013-10-20T07:22:17.000Z</time>
      </trkpt>
      <trkpt lat="47.29539" lon="-1.71493">
        <ele>115</ele>
        <time>2013-10-20T07:22:19.000Z</time>
      </trkpt>
      <trkpt lat="47.29534" lon="-1.71475">
        <ele>114</ele>
        <time>2013-10-20T07:22:21.000Z</time>
      </trkpt>
      <trkpt lat="47.29534" lon="-1.71475">
        <ele>114</ele>
        <time>2013-10-20T07:22:23.000Z</time>
      </trkpt>
      <trkpt lat="47.29528" lon="-1.71456">
        <ele>114</ele>
        <time>2013-10-20T07:22:25.000Z</time>
      </trkpt>
      <trkpt lat="47.29528" lon="-1.71456">
        <ele>114</ele>
        <time>2013-10-20T07:22:27.000Z</time>
      </trkpt>
      <trkpt lat="47.29523" lon="-1.71437">
        <ele>113</ele>
        <time>2013-10-20T07:22:29.000Z</time>
      </trkpt>
      <trkpt lat="47.29517" lon="-1.71418">
        <ele>113</ele>
        <time>2013-10-20T07:22:33.000Z</time>
      </trkpt>
      <trkpt lat="47.29595" lon="-1.7134">
        <ele>112</ele>
        <time>2013-10-20T07:22:38.000Z</time>
      </trkpt>
      <trkpt lat="47.29602" lon="-1.71322">
        <ele>112</ele>
        <time>2013-10-20T07:22:40.000Z</time>
      </trkpt>
      <trkpt lat="47.29609" lon="-1.71309">
        <ele>112</ele>
        <time>2013-10-20T07:22:42.000Z</time>
      </trkpt>
      <trkpt lat="47.29609" lon="-1.71309">
        <ele>112</ele>
        <time>2013-10-20T07:22:44.000Z</time>
      </trkpt>
      <trkpt lat="47.29609" lon="-1.71309">
        <ele>112</ele>
        <time>2013-10-20T07:22:46.000Z</time>
      </trkpt>
      <trkpt lat="47.29609" lon="-1.71309">
        <ele>112</ele>
        <time>2013-10-20T07:22:48.000Z</time>
      </trkpt>
      <trkpt lat="47.29609" lon="-1.71309">
        <ele>112</ele>
        <time>2013-10-20T07:22:50.000Z</time>
      </trkpt>
      <trkpt lat="47.29609" lon="-1.71309">
        <ele>112</ele>
        <time>2013-10-20T07:22:53.000Z</time>
      </trkpt>
      <trkpt lat="47.29609" lon="-1.71309">
        <ele>112</ele>
        <time>2013-10-20T07:22:57.000Z</time>
      </trkpt>
      <trkpt lat="47.29564" lon="-1.71102">
        <ele>108</ele>
        <time>2013-10-20T07:25:42.000Z</time>
      </trkpt>
      <trkpt lat="47.29539" lon="-1.70995">
        <ele>109</ele>
        <time>2013-10-20T07:25:44.000Z</time>
      </trkpt>
      <trkpt lat="47.29525" lon="-1.70936">
        <ele>109</ele>
        <time>2013-10-20T07:25:46.000Z</time>
      </trkpt>
      <trkpt lat="47.29517" lon="-1.70904">
        <ele>109</ele>
        <time>2013-10-20T07:25:48.000Z</time>
      </trkpt>
      <trkpt lat="47.29511" lon="-1.70885">
        <ele>109</ele>
        <time>2013-10-20T07:25:50.000Z</time>
      </trkpt>
      <trkpt lat="47.29502" lon="-1.70859">
        <ele>110</ele>
        <time>2013-10-20T07:25:52.000Z</time>
      </trkpt>
      <trkpt lat="47.29502" lon="-1.70859">
        <ele>110</ele>
        <time>2013-10-20T07:25:54.000Z</time>
      </trkpt>
      <trkpt lat="47.29502" lon="-1.70859">
        <ele>110</ele>
        <time>2013-10-20T07:25:56.000Z</time>
      </trkpt>
      <trkpt lat="47.29498" lon="-1.70843">
        <ele>111</ele>
        <time>2013-10-20T07:25:58.000Z</time>
      </trkpt>
      <trkpt lat="47.29498" lon="-1.70843">
        <ele>111</ele>
        <time>2013-10-20T07:26:00.000Z</time>
      </trkpt>
      <trkpt lat="47.29498" lon="-1.70843">
        <ele>111</ele>
        <time>2013-10-20T07:26:02.000Z</time>
      </trkpt>
      <trkpt lat="47.29492" lon="-1.70826">
        <ele>112</ele>
        <time>2013-10-20T07:26:04.000Z</time>
      </trkpt>
      <trkpt lat="47.29492" lon="-1.70826">
        <ele>112</ele>
        <time>2013-10-20T07:26:06.000Z</time>
      </trkpt>
      <trkpt lat="47.29492" lon="-1.70826">
        <ele>112</ele>
        <time>2013-10-20T07:26:08.000Z</time>
      </trkpt>
      <trkpt lat="47.29487" lon="-1.70808">
        <ele>112</ele>
        <time>2013-10-20T07:26:10.000Z</time>
      </trkpt>
      <trkpt lat="47.29487" lon="-1.70808">
        <ele>112</ele>
        <time>2013-10-20T07:26:12.000Z</time>
      </trkpt>
      <trkpt lat="47.29482" lon="-1.70794">
        <ele>112</ele>
        <time>2013-10-20T07:26:14.000Z</time>
      </trkpt>
      <trkpt lat="47.29482" lon="-1.70794">
        <ele>112</ele>
        <time>2013-10-20T07:26:16.000Z</time>
      </trkpt>
      <trkpt lat="47.29466" lon="-1.70782">
        <ele>112</ele>
        <time>2013-10-20T07:26:20.000Z</time>
      </trkpt>
      <trkpt lat="47.29461" lon="-1.70767">
        <ele>112</ele>
        <time>2013-10-20T07:26:24.000Z</time>
      </trkpt>
      <trkpt lat="47.29456" lon="-1.70749">
        <ele>112</ele>
        <time>2013-10-20T07:26:30.000Z</time>
      </trkpt>
      <trkpt lat="47.29456" lon="-1.70749">
        <ele>112</ele>
        <time>2013-10-20T07:26:34.000Z</time>
      </trkpt>
      <trkpt lat="47.29456" lon="-1.70749">
        <ele>112</ele>
        <time>2013-10-20T07:26:36.000Z</time>
      </trkpt>
      <trkpt lat="47.29456" lon="-1.70749">
        <ele>112</ele>
        <time>2013-10-20T07:26:38.000Z</time>
      </trkpt>
      <trkpt lat="47.29456" lon="-1.70749">
        <ele>112</ele>
        <time>2013-10-20T07:26:40.000Z</time>
      </trkpt>
      <trkpt lat="47.29456" lon="-1.70749">
        <ele>112</ele>
        <time>2013-10-20T07:26:42.000Z</time>
      </trkpt>
      <trkpt lat="47.29456" lon="-1.70749">
        <ele>112</ele>
        <time>2013-10-20T07:26:44.000Z</time>
      </trkpt>
      <trkpt lat="47.29456" lon="-1.70749">
        <ele>112</ele>
        <time>2013-10-20T07:26:46.000Z</time>
      </trkpt>
      <trkpt lat="47.29456" lon="-1.70749">
        <ele>112</ele>
        <time>2013-10-20T07:26:48.000Z</time>
      </trkpt>
      <trkpt lat="47.29456" lon="-1.70749">
        <ele>112</ele>
        <time>2013-10-20T07:26:50.000Z</time>
      </trkpt>
      <trkpt lat="47.29456" lon="-1.70749">
        <ele>112</ele>
        <time>2013-10-20T07:26:52.000Z</time>
      </trkpt>
      <trkpt lat="47.29456" lon="-1.70749">
        <ele>112</ele>
        <time>2013-10-20T07:26:54.000Z</time>
      </trkpt>
      <trkpt lat="47.29456" lon="-1.70749">
        <ele>112</ele>
        <time>2013-10-20T07:26:56.000Z</time>
      </trkpt>
      <trkpt lat="47.29456" lon="-1.70749">
        <ele>112</ele>
        <time>2013-10-20T07:26:58.000Z</time>
      </trkpt>
      <trkpt lat="47.29456" lon="-1.70749">
        <ele>112</ele>
        <time>2013-10-20T07:27:00.000Z</time>
      </trkpt>
      <trkpt lat="47.29456" lon="-1.70749">
        <ele>112</ele>
        <time>2013-10-20T07:27:02.000Z</time>
      </trkpt>
      <trkpt lat="47.29456" lon="-1.70749">
        <ele>112</ele>
        <time>2013-10-20T07:27:04.000Z</time>
      </trkpt>
      <trkpt lat="47.29456" lon="-1.70749">
        <ele>112</ele>
        <time>2013-10-20T07:27:06.000Z</time>
      </trkpt>
      <trkpt lat="47.29456" lon="-1.70749">
        <ele>112</ele>
        <time>2013-10-20T07:27:08.000Z</time>
      </trkpt>
      <trkpt lat="47.29428" lon="-1.70732">
        <ele>111</ele>
        <time>2013-10-20T07:27:10.000Z</time>
      </trkpt>
      <trkpt lat="47.29411" lon="-1.70722">
        <ele>111</ele>
        <time>2013-10-20T07:27:12.000Z</time>
      </trkpt>
      <trkpt lat="47.29398" lon="-1.70709">
        <ele>111</ele>
        <time>2013-10-20T07:27:15.000Z</time>
      </trkpt>
      <trkpt lat="47.29381" lon="-1.70693">
        <ele>111</ele>
        <time>2013-10-20T07:27:18.000Z</time>
      </trkpt>
      <trkpt lat="47.29368" lon="-1.70678">
        <ele>110</ele>
        <time>2013-10-20T07:27:20.000Z</time>
      </trkpt>
      <trkpt lat="47.29346" lon="-1.70653">
        <ele>109</ele>
        <time>2013-10-20T07:27:22.000Z</time>
      </trkpt>
      <trkpt lat="47.29337" lon="-1.70644">
        <ele>108</ele>
        <time>2013-10-20T07:27:24.000Z</time>
      </trkpt>
      <trkpt lat="47.29329" lon="-1.70636">
        <ele>108</ele>
        <time>2013-10-20T07:27:26.000Z</time>
      </trkpt>
      <trkpt lat="47.29319" lon="-1.70612">
        <ele>108</ele>
        <time>2013-10-20T07:27:30.000Z</time>
      </trkpt>
      <trkpt lat="47.29315" lon="-1.70599">
        <ele>109</ele>
        <time>2013-10-20T07:27:32.000Z</time>
      </trkpt>
      <trkpt lat="47.29315" lon="-1.70599">
        <ele>109</ele>
        <time>2013-10-20T07:27:34.000Z</time>
      </trkpt>
      <trkpt lat="47.29315" lon="-1.70599">
        <ele>109</ele>
        <time>2013-10-20T07:27:36.000Z</time>
      </trkpt>
      <trkpt lat="47.29315" lon="-1.70599">
        <ele>109</ele>
        <time>2013-10-20T07:27:38.000Z</time>
      </trkpt>
      <trkpt lat="47.29315" lon="-1.70599">
        <ele>109</ele>
        <time>2013-10-20T07:27:45.000Z</time>
      </trkpt>
      <trkpt lat="47.29197" lon="-1.70702">
        <ele>110</ele>
        <time>2013-10-20T07:30:04.000Z</time>
      </trkpt>
      <trkpt lat="47.29135" lon="-1.70758">
        <ele>110</ele>
        <time>2013-10-20T07:30:06.000Z</time>
      </trkpt>
      <trkpt lat="47.29102" lon="-1.7079">
        <ele>110</ele>
        <time>2013-10-20T07:30:08.000Z</time>
      </trkpt>
      <trkpt lat="47.29083" lon="-1.7081">
        <ele>110</ele>
        <time>2013-10-20T07:30:10.000Z</time>
      </trkpt>
      <trkpt lat="47.29071" lon="-1.70821">
        <ele>110</ele>
        <time>2013-10-20T07:30:12.000Z</time>
      </trkpt>
      <trkpt lat="47.29055" lon="-1.7084">
        <ele>110</ele>
        <time>2013-10-20T07:30:14.000Z</time>
      </trkpt>
      <trkpt lat="47.29055" lon="-1.7084">
        <ele>110</ele>
        <time>2013-10-20T07:30:20.000Z</time>
      </trkpt>
      <trkpt lat="47.2902" lon="-1.70855">
        <ele>110</ele>
        <time>2013-10-20T07:30:31.000Z</time>
      </trkpt>
      <trkpt lat="47.29006" lon="-1.70859">
        <ele>110</ele>
        <time>2013-10-20T07:30:35.000Z</time>
      </trkpt>
      <trkpt lat="47.28994" lon="-1.70859">
        <ele>110</ele>
        <time>2013-10-20T07:30:39.000Z</time>
      </trkpt>
      <trkpt lat="47.28982" lon="-1.70857">
        <ele>110</ele>
        <time>2013-10-20T07:30:43.000Z</time>
      </trkpt>
      <trkpt lat="47.28967" lon="-1.70846">
        <ele>110</ele>
        <time>2013-10-20T07:30:47.000Z</time>
      </trkpt>
      <trkpt lat="47.28967" lon="-1.70846">
        <ele>110</ele>
        <time>2013-10-20T07:30:49.000Z</time>
      </trkpt>
      <trkpt lat="47.28953" lon="-1.70835">
        <ele>110</ele>
        <time>2013-10-20T07:30:51.000Z</time>
      </trkpt>
      <trkpt lat="47.28937" lon="-1.70825">
        <ele>110</ele>
        <time>2013-10-20T07:30:55.000Z</time>
      </trkpt>
      <trkpt lat="47.28925" lon="-1.70807">
        <ele>110</ele>
        <time>2013-10-20T07:30:59.000Z</time>
      </trkpt>
      <trkpt lat="47.28916" lon="-1.70792">
        <ele>111</ele>
        <time>2013-10-20T07:31:03.000Z</time>
      </trkpt>
      <trkpt lat="47.28908" lon="-1.70775">
        <ele>111</ele>
        <time>2013-10-20T07:31:07.000Z</time>
      </trkpt>
      <trkpt lat="47.28902" lon="-1.70752">
        <ele>112</ele>
        <time>2013-10-20T07:31:11.000Z</time>
      </trkpt>
      <trkpt lat="47.28897" lon="-1.70739">
        <ele>113</ele>
        <time>2013-10-20T07:31:13.000Z</time>
      </trkpt>
      <trkpt lat="47.28894" lon="-1.70726">
        <ele>113</ele>
        <time>2013-10-20T07:31:15.000Z</time>
      </trkpt>
      <trkpt lat="47.28889" lon="-1.70713">
        <ele>113</ele>
        <time>2013-10-20T07:31:17.000Z</time>
      </trkpt>
      <trkpt lat="47.28884" lon="-1.707">
        <ele>113</ele>
        <time>2013-10-20T07:31:19.000Z</time>
      </trkpt>
      <trkpt lat="47.28877" lon="-1.70687">
        <ele>113</ele>
        <time>2013-10-20T07:31:21.000Z</time>
      </trkpt>
      <trkpt lat="47.28868" lon="-1.70674">
        <ele>113</ele>
        <time>2013-10-20T07:31:23.000Z</time>
      </trkpt>
      <trkpt lat="47.2886" lon="-1.70664">
        <ele>113</ele>
        <time>2013-10-20T07:31:25.000Z</time>
      </trkpt>
      <trkpt lat="47.28851" lon="-1.70653">
        <ele>113</ele>
        <time>2013-10-20T07:31:27.000Z</time>
      </trkpt>
      <trkpt lat="47.28843" lon="-1.70644">
        <ele>113</ele>
        <time>2013-10-20T07:31:29.000Z</time>
      </trkpt>
      <trkpt lat="47.28833" lon="-1.70634">
        <ele>113</ele>
        <time>2013-10-20T07:31:31.000Z</time>
      </trkpt>
      <trkpt lat="47.28823" lon="-1.70623">
        <ele>114</ele>
        <time>2013-10-20T07:31:33.000Z</time>
      </trkpt>
      <trkpt lat="47.28813" lon="-1.70614">
        <ele>114</ele>
        <time>2013-10-20T07:31:35.000Z</time>
      </trkpt>
      <trkpt lat="47.28802" lon="-1.70604">
        <ele>114</ele>
        <time>2013-10-20T07:31:37.000Z</time>
      </trkpt>
      <trkpt lat="47.2879" lon="-1.70593">
        <ele>114</ele>
        <time>2013-10-20T07:31:39.000Z</time>
      </trkpt>
      <trkpt lat="47.2878" lon="-1.70584">
        <ele>113</ele>
        <time>2013-10-20T07:31:41.000Z</time>
      </trkpt>
      <trkpt lat="47.28768" lon="-1.70576">
        <ele>113</ele>
        <time>2013-10-20T07:31:43.000Z</time>
      </trkpt>
      <trkpt lat="47.28756" lon="-1.70567">
        <ele>113</ele>
        <time>2013-10-20T07:31:45.000Z</time>
      </trkpt>
      <trkpt lat="47.28743" lon="-1.70565">
        <ele>113</ele>
        <time>2013-10-20T07:31:47.000Z</time>
      </trkpt>
      <trkpt lat="47.28731" lon="-1.70565">
        <ele>114</ele>
        <time>2013-10-20T07:31:49.000Z</time>
      </trkpt>
      <trkpt lat="47.28731" lon="-1.70565">
        <ele>114</ele>
        <time>2013-10-20T07:31:51.000Z</time>
      </trkpt>
      <trkpt lat="47.28719" lon="-1.70565">
        <ele>115</ele>
        <time>2013-10-20T07:31:53.000Z</time>
      </trkpt>
      <trkpt lat="47.28719" lon="-1.70565">
        <ele>115</ele>
        <time>2013-10-20T07:31:55.000Z</time>
      </trkpt>
      <trkpt lat="47.28719" lon="-1.70565">
        <ele>115</ele>
        <time>2013-10-20T07:31:57.000Z</time>
      </trkpt>
      <trkpt lat="47.28719" lon="-1.70565">
        <ele>115</ele>
        <time>2013-10-20T07:31:59.000Z</time>
      </trkpt>
      <trkpt lat="47.28719" lon="-1.70565">
        <ele>115</ele>
        <time>2013-10-20T07:32:01.000Z</time>
      </trkpt>
      <trkpt lat="47.28735" lon="-1.70537">
        <ele>116</ele>
        <time>2013-10-20T07:32:06.000Z</time>
      </trkpt>
      <trkpt lat="47.28745" lon="-1.70535">
        <ele>117</ele>
        <time>2013-10-20T07:32:08.000Z</time>
      </trkpt>
      <trkpt lat="47.28756" lon="-1.70533">
        <ele>117</ele>
        <time>2013-10-20T07:32:10.000Z</time>
      </trkpt>
      <trkpt lat="47.28767" lon="-1.70531">
        <ele>118</ele>
        <time>2013-10-20T07:32:12.000Z</time>
      </trkpt>
      <trkpt lat="47.28777" lon="-1.70528">
        <ele>118</ele>
        <time>2013-10-20T07:32:14.000Z</time>
      </trkpt>
      <trkpt lat="47.28787" lon="-1.70526">
        <ele>118</ele>
        <time>2013-10-20T07:32:16.000Z</time>
      </trkpt>
      <trkpt lat="47.28798" lon="-1.70522">
        <ele>118</ele>
        <time>2013-10-20T07:32:18.000Z</time>
      </trkpt>
      <trkpt lat="47.28809" lon="-1.7052">
        <ele>117</ele>
        <time>2013-10-20T07:32:20.000Z</time>
      </trkpt>
      <trkpt lat="47.28818" lon="-1.70516">
        <ele>117</ele>
        <time>2013-10-20T07:32:22.000Z</time>
      </trkpt>
      <trkpt lat="47.28829" lon="-1.70511">
        <ele>116</ele>
        <time>2013-10-20T07:32:24.000Z</time>
      </trkpt>
      <trkpt lat="47.28839" lon="-1.70509">
        <ele>116</ele>
        <time>2013-10-20T07:32:26.000Z</time>
      </trkpt>
      <trkpt lat="47.28847" lon="-1.70505">
        <ele>116</ele>
        <time>2013-10-20T07:32:28.000Z</time>
      </trkpt>
      <trkpt lat="47.28857" lon="-1.70503">
        <ele>116</ele>
        <time>2013-10-20T07:32:30.000Z</time>
      </trkpt>
      <trkpt lat="47.28857" lon="-1.70503">
        <ele>116</ele>
        <time>2013-10-20T07:32:32.000Z</time>
      </trkpt>
      <trkpt lat="47.28874" lon="-1.70499">
        <ele>117</ele>
        <time>2013-10-20T07:32:34.000Z</time>
      </trkpt>
      <trkpt lat="47.28874" lon="-1.70499">
        <ele>117</ele>
        <time>2013-10-20T07:32:36.000Z</time>
      </trkpt>
      <trkpt lat="47.28891" lon="-1.70495">
        <ele>117</ele>
        <time>2013-10-20T07:32:38.000Z</time>
      </trkpt>
      <trkpt lat="47.28891" lon="-1.70495">
        <ele>117</ele>
        <time>2013-10-20T07:32:40.000Z</time>
      </trkpt>
      <trkpt lat="47.28909" lon="-1.70491">
        <ele>116</ele>
        <time>2013-10-20T07:32:42.000Z</time>
      </trkpt>
      <trkpt lat="47.28909" lon="-1.70491">
        <ele>116</ele>
        <time>2013-10-20T07:32:44.000Z</time>
      </trkpt>
      <trkpt lat="47.28926" lon="-1.70487">
        <ele>116</ele>
        <time>2013-10-20T07:32:46.000Z</time>
      </trkpt>
      <trkpt lat="47.28939" lon="-1.70484">
        <ele>116</ele>
        <time>2013-10-20T07:32:48.000Z</time>
      </trkpt>
      <trkpt lat="47.28953" lon="-1.70477">
        <ele>115</ele>
        <time>2013-10-20T07:32:50.000Z</time>
      </trkpt>
      <trkpt lat="47.28967" lon="-1.70475">
        <ele>114</ele>
        <time>2013-10-20T07:32:52.000Z</time>
      </trkpt>
      <trkpt lat="47.28982" lon="-1.7047">
        <ele>114</ele>
        <time>2013-10-20T07:32:54.000Z</time>
      </trkpt>
      <trkpt lat="47.28997" lon="-1.70466">
        <ele>114</ele>
        <time>2013-10-20T07:32:56.000Z</time>
      </trkpt>
      <trkpt lat="47.29015" lon="-1.70462">
        <ele>114</ele>
        <time>2013-10-20T07:32:58.000Z</time>
      </trkpt>
      <trkpt lat="47.29029" lon="-1.70458">
        <ele>115</ele>
        <time>2013-10-20T07:33:00.000Z</time>
      </trkpt>
      <trkpt lat="47.29055" lon="-1.70451">
        <ele>116</ele>
        <time>2013-10-20T07:33:03.000Z</time>
      </trkpt>
      <trkpt lat="47.29073" lon="-1.70443">
        <ele>117</ele>
        <time>2013-10-20T07:33:05.000Z</time>
      </trkpt>
      <trkpt lat="47.29092" lon="-1.70436">
        <ele>118</ele>
        <time>2013-10-20T07:33:07.000Z</time>
      </trkpt>
      <trkpt lat="47.29108" lon="-1.70428">
        <ele>119</ele>
        <time>2013-10-20T07:33:09.000Z</time>
      </trkpt>
      <trkpt lat="47.29123" lon="-1.70419">
        <ele>119</ele>
        <time>2013-10-20T07:33:11.000Z</time>
      </trkpt>
      <trkpt lat="47.29138" lon="-1.70413">
        <ele>120</ele>
        <time>2013-10-20T07:33:13.000Z</time>
      </trkpt>
      <trkpt lat="47.29152" lon="-1.70404">
        <ele>120</ele>
        <time>2013-10-20T07:33:15.000Z</time>
      </trkpt>
      <trkpt lat="47.29166" lon="-1.70398">
        <ele>120</ele>
        <time>2013-10-20T07:33:17.000Z</time>
      </trkpt>
      <trkpt lat="47.2918" lon="-1.70389">
        <ele>120</ele>
        <time>2013-10-20T07:33:19.000Z</time>
      </trkpt>
      <trkpt lat="47.29196" lon="-1.70382">
        <ele>119</ele>
        <time>2013-10-20T07:33:21.000Z</time>
      </trkpt>
      <trkpt lat="47.29212" lon="-1.70374">
        <ele>119</ele>
        <time>2013-10-20T07:33:23.000Z</time>
      </trkpt>
      <trkpt lat="47.29227" lon="-1.70367">
        <ele>119</ele>
        <time>2013-10-20T07:33:25.000Z</time>
      </trkpt>
      <trkpt lat="47.29243" lon="-1.70359">
        <ele>119</ele>
        <time>2013-10-20T07:33:27.000Z</time>
      </trkpt>
      <trkpt lat="47.29258" lon="-1.70352">
        <ele>119</ele>
        <time>2013-10-20T07:33:29.000Z</time>
      </trkpt>
      <trkpt lat="47.29273" lon="-1.70346">
        <ele>119</ele>
        <time>2013-10-20T07:33:31.000Z</time>
      </trkpt>
      <trkpt lat="47.29288" lon="-1.7034">
        <ele>119</ele>
        <time>2013-10-20T07:33:33.000Z</time>
      </trkpt>
      <trkpt lat="47.29303" lon="-1.70331">
        <ele>119</ele>
        <time>2013-10-20T07:33:35.000Z</time>
      </trkpt>
      <trkpt lat="47.29318" lon="-1.70325">
        <ele>119</ele>
        <time>2013-10-20T07:33:37.000Z</time>
      </trkpt>
      <trkpt lat="47.29333" lon="-1.70316">
        <ele>119</ele>
        <time>2013-10-20T07:33:39.000Z</time>
      </trkpt>
      <trkpt lat="47.29348" lon="-1.70307">
        <ele>119</ele>
        <time>2013-10-20T07:33:41.000Z</time>
      </trkpt>
      <trkpt lat="47.29363" lon="-1.70303">
        <ele>119</ele>
        <time>2013-10-20T07:33:43.000Z</time>
      </trkpt>
      <trkpt lat="47.29378" lon="-1.70299">
        <ele>119</ele>
        <time>2013-10-20T07:33:45.000Z</time>
      </trkpt>
      <trkpt lat="47.29392" lon="-1.70305">
        <ele>119</ele>
        <time>2013-10-20T07:33:47.000Z</time>
      </trkpt>
      <trkpt lat="47.29405" lon="-1.70318">
        <ele>119</ele>
        <time>2013-10-20T07:33:49.000Z</time>
      </trkpt>
      <trkpt lat="47.29417" lon="-1.70333">
        <ele>118</ele>
        <time>2013-10-20T07:33:51.000Z</time>
      </trkpt>
      <trkpt lat="47.29428" lon="-1.70346">
        <ele>118</ele>
        <time>2013-10-20T07:33:53.000Z</time>
      </trkpt>
      <trkpt lat="47.29438" lon="-1.70363">
        <ele>118</ele>
        <time>2013-10-20T07:33:55.000Z</time>
      </trkpt>
      <trkpt lat="47.29449" lon="-1.7038">
        <ele>118</ele>
        <time>2013-10-20T07:33:57.000Z</time>
      </trkpt>
      <trkpt lat="47.29462" lon="-1.70395">
        <ele>118</ele>
        <time>2013-10-20T07:33:59.000Z</time>
      </trkpt>
      <trkpt lat="47.29474" lon="-1.70408">
        <ele>118</ele>
        <time>2013-10-20T07:34:01.000Z</time>
      </trkpt>
      <trkpt lat="47.29486" lon="-1.70421">
        <ele>117</ele>
        <time>2013-10-20T07:34:03.000Z</time>
      </trkpt>
      <trkpt lat="47.29498" lon="-1.70434">
        <ele>117</ele>
        <time>2013-10-20T07:34:05.000Z</time>
      </trkpt>
      <trkpt lat="47.2951" lon="-1.70449">
        <ele>117</ele>
        <time>2013-10-20T07:34:07.000Z</time>
      </trkpt>
      <trkpt lat="47.2952" lon="-1.70464">
        <ele>116</ele>
        <time>2013-10-20T07:34:09.000Z</time>
      </trkpt>
      <trkpt lat="47.2953" lon="-1.70477">
        <ele>116</ele>
        <time>2013-10-20T07:34:11.000Z</time>
      </trkpt>
      <trkpt lat="47.29538" lon="-1.7049">
        <ele>116</ele>
        <time>2013-10-20T07:34:13.000Z</time>
      </trkpt>
      <trkpt lat="47.29546" lon="-1.70503">
        <ele>116</ele>
        <time>2013-10-20T07:34:15.000Z</time>
      </trkpt>
      <trkpt lat="47.29546" lon="-1.70503">
        <ele>116</ele>
        <time>2013-10-20T07:34:17.000Z</time>
      </trkpt>
      <trkpt lat="47.29554" lon="-1.70526">
        <ele>115</ele>
        <time>2013-10-20T07:34:19.000Z</time>
      </trkpt>
      <trkpt lat="47.29557" lon="-1.70539">
        <ele>115</ele>
        <time>2013-10-20T07:34:21.000Z</time>
      </trkpt>
      <trkpt lat="47.29561" lon="-1.70553">
        <ele>115</ele>
        <time>2013-10-20T07:34:23.000Z</time>
      </trkpt>
      <trkpt lat="47.29564" lon="-1.70565">
        <ele>114</ele>
        <time>2013-10-20T07:34:25.000Z</time>
      </trkpt>
      <trkpt lat="47.29564" lon="-1.70565">
        <ele>114</ele>
        <time>2013-10-20T07:34:27.000Z</time>
      </trkpt>
      <trkpt lat="47.2957" lon="-1.70587">
        <ele>113</ele>
        <time>2013-10-20T07:34:29.000Z</time>
      </trkpt>
      <trkpt lat="47.2957" lon="-1.70587">
        <ele>113</ele>
        <time>2013-10-20T07:34:31.000Z</time>
      </trkpt>
      <trkpt lat="47.29575" lon="-1.70609">
        <ele>113</ele>
        <time>2013-10-20T07:34:33.000Z</time>
      </trkpt>
      <trkpt lat="47.29575" lon="-1.70609">
        <ele>113</ele>
        <time>2013-10-20T07:34:35.000Z</time>
      </trkpt>
      <trkpt lat="47.29575" lon="-1.70609">
        <ele>113</ele>
        <time>2013-10-20T07:34:49.000Z</time>
      </trkpt>
      <trkpt lat="47.29596" lon="-1.70544">
        <ele>116</ele>
        <time>2013-10-20T07:35:34.000Z</time>
      </trkpt>
      <trkpt lat="47.29606" lon="-1.70507">
        <ele>116</ele>
        <time>2013-10-20T07:35:36.000Z</time>
      </trkpt>
      <trkpt lat="47.29611" lon="-1.70485">
        <ele>117</ele>
        <time>2013-10-20T07:35:38.000Z</time>
      </trkpt>
      <trkpt lat="47.29613" lon="-1.70469">
        <ele>117</ele>
        <time>2013-10-20T07:35:40.000Z</time>
      </trkpt>
      <trkpt lat="47.29614" lon="-1.70458">
        <ele>117</ele>
        <time>2013-10-20T07:35:42.000Z</time>
      </trkpt>
      <trkpt lat="47.29614" lon="-1.70438">
        <ele>117</ele>
        <time>2013-10-20T07:35:44.000Z</time>
      </trkpt>
      <trkpt lat="47.29613" lon="-1.70421">
        <ele>117</ele>
        <time>2013-10-20T07:35:48.000Z</time>
      </trkpt>
      <trkpt lat="47.29613" lon="-1.70421">
        <ele>117</ele>
        <time>2013-10-20T07:35:50.000Z</time>
      </trkpt>
      <trkpt lat="47.29611" lon="-1.70406">
        <ele>117</ele>
        <time>2013-10-20T07:35:52.000Z</time>
      </trkpt>
      <trkpt lat="47.29611" lon="-1.70406">
        <ele>117</ele>
        <time>2013-10-20T07:35:54.000Z</time>
      </trkpt>
      <trkpt lat="47.29609" lon="-1.70389">
        <ele>118</ele>
        <time>2013-10-20T07:35:56.000Z</time>
      </trkpt>
      <trkpt lat="47.29609" lon="-1.70389">
        <ele>118</ele>
        <time>2013-10-20T07:35:58.000Z</time>
      </trkpt>
      <trkpt lat="47.29607" lon="-1.70374">
        <ele>118</ele>
        <time>2013-10-20T07:36:00.000Z</time>
      </trkpt>
      <trkpt lat="47.29607" lon="-1.70352">
        <ele>118</ele>
        <time>2013-10-20T07:36:04.000Z</time>
      </trkpt>
      <trkpt lat="47.29605" lon="-1.70335">
        <ele>118</ele>
        <time>2013-10-20T07:36:08.000Z</time>
      </trkpt>
      <trkpt lat="47.29605" lon="-1.70314">
        <ele>119</ele>
        <time>2013-10-20T07:36:12.000Z</time>
      </trkpt>
      <trkpt lat="47.2961" lon="-1.70292">
        <ele>119</ele>
        <time>2013-10-20T07:36:16.000Z</time>
      </trkpt>
      <trkpt lat="47.29613" lon="-1.70275">
        <ele>119</ele>
        <time>2013-10-20T07:36:20.000Z</time>
      </trkpt>
      <trkpt lat="47.29618" lon="-1.70252">
        <ele>120</ele>
        <time>2013-10-20T07:36:24.000Z</time>
      </trkpt>
      <trkpt lat="47.29628" lon="-1.7023">
        <ele>119</ele>
        <time>2013-10-20T07:36:28.000Z</time>
      </trkpt>
      <trkpt lat="47.29628" lon="-1.7023">
        <ele>119</ele>
        <time>2013-10-20T07:36:30.000Z</time>
      </trkpt>
      <trkpt lat="47.2964" lon="-1.70215">
        <ele>119</ele>
        <time>2013-10-20T07:36:32.000Z</time>
      </trkpt>
      <trkpt lat="47.2964" lon="-1.70215">
        <ele>119</ele>
        <time>2013-10-20T07:36:34.000Z</time>
      </trkpt>
      <trkpt lat="47.29651" lon="-1.70201">
        <ele>119</ele>
        <time>2013-10-20T07:36:36.000Z</time>
      </trkpt>
      <trkpt lat="47.29651" lon="-1.70201">
        <ele>119</ele>
        <time>2013-10-20T07:36:38.000Z</time>
      </trkpt>
      <trkpt lat="47.29664" lon="-1.70185">
        <ele>119</ele>
        <time>2013-10-20T07:36:40.000Z</time>
      </trkpt>
      <trkpt lat="47.29664" lon="-1.70185">
        <ele>119</ele>
        <time>2013-10-20T07:36:42.000Z</time>
      </trkpt>
      <trkpt lat="47.29676" lon="-1.70169">
        <ele>119</ele>
        <time>2013-10-20T07:36:44.000Z</time>
      </trkpt>
      <trkpt lat="47.29676" lon="-1.70169">
        <ele>119</ele>
        <time>2013-10-20T07:36:46.000Z</time>
      </trkpt>
      <trkpt lat="47.29686" lon="-1.70156">
        <ele>119</ele>
        <time>2013-10-20T07:36:48.000Z</time>
      </trkpt>
      <trkpt lat="47.29686" lon="-1.70156">
        <ele>119</ele>
        <time>2013-10-20T07:36:50.000Z</time>
      </trkpt>
      <trkpt lat="47.29695" lon="-1.70145">
        <ele>119</ele>
        <time>2013-10-20T07:36:52.000Z</time>
      </trkpt>
      <trkpt lat="47.29715" lon="-1.70161">
        <ele>119</ele>
        <time>2013-10-20T07:36:54.000Z</time>
      </trkpt>
      <trkpt lat="47.29731" lon="-1.70161">
        <ele>119</ele>
        <time>2013-10-20T07:36:58.000Z</time>
      </trkpt>
      <trkpt lat="47.29747" lon="-1.70166">
        <ele>119</ele>
        <time>2013-10-20T07:37:02.000Z</time>
      </trkpt>
      <trkpt lat="47.29762" lon="-1.70166">
        <ele>119</ele>
        <time>2013-10-20T07:37:06.000Z</time>
      </trkpt>
      <trkpt lat="47.29762" lon="-1.70166">
        <ele>119</ele>
        <time>2013-10-20T07:37:08.000Z</time>
      </trkpt>
      <trkpt lat="47.29775" lon="-1.70166">
        <ele>119</ele>
        <time>2013-10-20T07:37:10.000Z</time>
      </trkpt>
      <trkpt lat="47.29775" lon="-1.70166">
        <ele>119</ele>
        <time>2013-10-20T07:37:12.000Z</time>
      </trkpt>
      <trkpt lat="47.29788" lon="-1.70166">
        <ele>119</ele>
        <time>2013-10-20T07:37:14.000Z</time>
      </trkpt>
      <trkpt lat="47.29788" lon="-1.70166">
        <ele>119</ele>
        <time>2013-10-20T07:37:16.000Z</time>
      </trkpt>
      <trkpt lat="47.29799" lon="-1.70166">
        <ele>119</ele>
        <time>2013-10-20T07:37:18.000Z</time>
      </trkpt>
      <trkpt lat="47.29799" lon="-1.70166">
        <ele>119</ele>
        <time>2013-10-20T07:37:20.000Z</time>
      </trkpt>
      <trkpt lat="47.29799" lon="-1.70166">
        <ele>119</ele>
        <time>2013-10-20T07:37:22.000Z</time>
      </trkpt>
      <trkpt lat="47.2981" lon="-1.70166">
        <ele>119</ele>
        <time>2013-10-20T07:37:24.000Z</time>
      </trkpt>
      <trkpt lat="47.2981" lon="-1.70166">
        <ele>119</ele>
        <time>2013-10-20T07:37:26.000Z</time>
      </trkpt>
      <trkpt lat="47.2982" lon="-1.70166">
        <ele>119</ele>
        <time>2013-10-20T07:37:28.000Z</time>
      </trkpt>
      <trkpt lat="47.2983" lon="-1.70192">
        <ele>119</ele>
        <time>2013-10-20T07:37:32.000Z</time>
      </trkpt>
      <trkpt lat="47.2983" lon="-1.70192">
        <ele>119</ele>
        <time>2013-10-20T07:37:38.000Z</time>
      </trkpt>
      <trkpt lat="47.2983" lon="-1.70192">
        <ele>119</ele>
        <time>2013-10-20T07:37:44.000Z</time>
      </trkpt>
      <trkpt lat="47.29835" lon="-1.70213">
        <ele>118</ele>
        <time>2013-10-20T07:38:28.000Z</time>
      </trkpt>
      <trkpt lat="47.29836" lon="-1.70229">
        <ele>118</ele>
        <time>2013-10-20T07:38:30.000Z</time>
      </trkpt>
      <trkpt lat="47.29836" lon="-1.70242">
        <ele>118</ele>
        <time>2013-10-20T07:38:32.000Z</time>
      </trkpt>
      <trkpt lat="47.29836" lon="-1.70255">
        <ele>118</ele>
        <time>2013-10-20T07:38:34.000Z</time>
      </trkpt>
      <trkpt lat="47.29837" lon="-1.70266">
        <ele>119</ele>
        <time>2013-10-20T07:38:36.000Z</time>
      </trkpt>
      <trkpt lat="47.29838" lon="-1.70282">
        <ele>119</ele>
        <time>2013-10-20T07:38:38.000Z</time>
      </trkpt>
      <trkpt lat="47.29838" lon="-1.70282">
        <ele>119</ele>
        <time>2013-10-20T07:38:40.000Z</time>
      </trkpt>
      <trkpt lat="47.29839" lon="-1.70299">
        <ele>119</ele>
        <time>2013-10-20T07:38:42.000Z</time>
      </trkpt>
      <trkpt lat="47.29846" lon="-1.70322">
        <ele>122</ele>
        <time>2013-10-20T07:38:46.000Z</time>
      </trkpt>
      <trkpt lat="47.2985" lon="-1.70335">
        <ele>123</ele>
        <time>2013-10-20T07:38:48.000Z</time>
      </trkpt>
      <trkpt lat="47.29855" lon="-1.70348">
        <ele>124</ele>
        <time>2013-10-20T07:38:50.000Z</time>
      </trkpt>
      <trkpt lat="47.2986" lon="-1.70363">
        <ele>125</ele>
        <time>2013-10-20T07:38:52.000Z</time>
      </trkpt>
      <trkpt lat="47.29864" lon="-1.70376">
        <ele>126</ele>
        <time>2013-10-20T07:38:54.000Z</time>
      </trkpt>
      <trkpt lat="47.29869" lon="-1.70391">
        <ele>126</ele>
        <time>2013-10-20T07:38:56.000Z</time>
      </trkpt>
      <trkpt lat="47.29874" lon="-1.70404">
        <ele>126</ele>
        <time>2013-10-20T07:38:58.000Z</time>
      </trkpt>
      <trkpt lat="47.29879" lon="-1.70417">
        <ele>127</ele>
        <time>2013-10-20T07:39:00.000Z</time>
      </trkpt>
      <trkpt lat="47.29886" lon="-1.7043">
        <ele>127</ele>
        <time>2013-10-20T07:39:02.000Z</time>
      </trkpt>
      <trkpt lat="47.29893" lon="-1.70443">
        <ele>127</ele>
        <time>2013-10-20T07:39:04.000Z</time>
      </trkpt>
      <trkpt lat="47.29901" lon="-1.70455">
        <ele>127</ele>
        <time>2013-10-20T07:39:06.000Z</time>
      </trkpt>
      <trkpt lat="47.29909" lon="-1.70464">
        <ele>127</ele>
        <time>2013-10-20T07:39:08.000Z</time>
      </trkpt>
      <trkpt lat="47.29918" lon="-1.70473">
        <ele>127</ele>
        <time>2013-10-20T07:39:10.000Z</time>
      </trkpt>
      <trkpt lat="47.29918" lon="-1.70473">
        <ele>127</ele>
        <time>2013-10-20T07:39:12.000Z</time>
      </trkpt>
      <trkpt lat="47.29933" lon="-1.70488">
        <ele>127</ele>
        <time>2013-10-20T07:39:14.000Z</time>
      </trkpt>
      <trkpt lat="47.29933" lon="-1.70488">
        <ele>127</ele>
        <time>2013-10-20T07:39:16.000Z</time>
      </trkpt>
      <trkpt lat="47.29948" lon="-1.70503">
        <ele>127</ele>
        <time>2013-10-20T07:39:18.000Z</time>
      </trkpt>
      <trkpt lat="47.29948" lon="-1.70503">
        <ele>127</ele>
        <time>2013-10-20T07:39:20.000Z</time>
      </trkpt>
      <trkpt lat="47.29962" lon="-1.70517">
        <ele>127</ele>
        <time>2013-10-20T07:39:22.000Z</time>
      </trkpt>
      <trkpt lat="47.29962" lon="-1.70517">
        <ele>127</ele>
        <time>2013-10-20T07:39:24.000Z</time>
      </trkpt>
      <trkpt lat="47.29974" lon="-1.70529">
        <ele>126</ele>
        <time>2013-10-20T07:39:26.000Z</time>
      </trkpt>
      <trkpt lat="47.29974" lon="-1.70529">
        <ele>126</ele>
        <time>2013-10-20T07:39:28.000Z</time>
      </trkpt>
      <trkpt lat="47.29986" lon="-1.7054">
        <ele>125</ele>
        <time>2013-10-20T07:39:30.000Z</time>
      </trkpt>
      <trkpt lat="47.29986" lon="-1.7054">
        <ele>125</ele>
        <time>2013-10-20T07:39:32.000Z</time>
      </trkpt>
      <trkpt lat="47.29998" lon="-1.70553">
        <ele>125</ele>
        <time>2013-10-20T07:39:34.000Z</time>
      </trkpt>
      <trkpt lat="47.29998" lon="-1.70553">
        <ele>125</ele>
        <time>2013-10-20T07:39:36.000Z</time>
      </trkpt>
      <trkpt lat="47.3001" lon="-1.70565">
        <ele>125</ele>
        <time>2013-10-20T07:39:38.000Z</time>
      </trkpt>
      <trkpt lat="47.3001" lon="-1.70565">
        <ele>125</ele>
        <time>2013-10-20T07:39:40.000Z</time>
      </trkpt>
      <trkpt lat="47.30022" lon="-1.70576">
        <ele>124</ele>
        <time>2013-10-20T07:39:42.000Z</time>
      </trkpt>
      <trkpt lat="47.30022" lon="-1.70576">
        <ele>124</ele>
        <time>2013-10-20T07:39:44.000Z</time>
      </trkpt>
      <trkpt lat="47.30034" lon="-1.70589">
        <ele>124</ele>
        <time>2013-10-20T07:39:46.000Z</time>
      </trkpt>
      <trkpt lat="47.30021" lon="-1.70664">
        <ele>124</ele>
        <time>2013-10-20T07:39:50.000Z</time>
      </trkpt>
      <trkpt lat="47.30021" lon="-1.70664">
        <ele>124</ele>
        <time>2013-10-20T07:39:54.000Z</time>
      </trkpt>
      <trkpt lat="47.30021" lon="-1.70664">
        <ele>124</ele>
        <time>2013-10-20T07:39:56.000Z</time>
      </trkpt>
      <trkpt lat="47.30021" lon="-1.70664">
        <ele>124</ele>
        <time>2013-10-20T07:39:58.000Z</time>
      </trkpt>
      <trkpt lat="47.30021" lon="-1.70664">
        <ele>124</ele>
        <time>2013-10-20T07:40:00.000Z</time>
      </trkpt>
      <trkpt lat="47.30021" lon="-1.70664">
        <ele>124</ele>
        <time>2013-10-20T07:40:02.000Z</time>
      </trkpt>
      <trkpt lat="47.30021" lon="-1.70664">
        <ele>124</ele>
        <time>2013-10-20T07:40:22.000Z</time>
      </trkpt>
      <trkpt lat="47.30021" lon="-1.70664">
        <ele>124</ele>
        <time>2013-10-20T07:40:31.000Z</time>
      </trkpt>
      <trkpt lat="47.3002" lon="-1.70698">
        <ele>125</ele>
        <time>2013-10-20T07:58:29.000Z</time>
      </trkpt>
      <trkpt lat="47.30046" lon="-1.70724">
        <ele>122</ele>
        <time>2013-10-20T07:59:40.000Z</time>
      </trkpt>
      <trkpt lat="47.30056" lon="-1.70717">
        <ele>121</ele>
        <time>2013-10-20T07:59:44.000Z</time>
      </trkpt>
      <trkpt lat="47.30065" lon="-1.70711">
        <ele>120</ele>
        <time>2013-10-20T07:59:48.000Z</time>
      </trkpt>
      <trkpt lat="47.30064" lon="-1.70691">
        <ele>120</ele>
        <time>2013-10-20T07:59:54.000Z</time>
      </trkpt>
      <trkpt lat="47.30056" lon="-1.70681">
        <ele>120</ele>
        <time>2013-10-20T07:59:56.000Z</time>
      </trkpt>
      <trkpt lat="47.30046" lon="-1.7067">
        <ele>120</ele>
        <time>2013-10-20T07:59:58.000Z</time>
      </trkpt>
      <trkpt lat="47.30036" lon="-1.70659">
        <ele>119</ele>
        <time>2013-10-20T08:00:00.000Z</time>
      </trkpt>
      <trkpt lat="47.30027" lon="-1.70651">
        <ele>119</ele>
        <time>2013-10-20T08:00:02.000Z</time>
      </trkpt>
      <trkpt lat="47.3002" lon="-1.70642">
        <ele>119</ele>
        <time>2013-10-20T08:00:04.000Z</time>
      </trkpt>
      <trkpt lat="47.30008" lon="-1.70625">
        <ele>119</ele>
        <time>2013-10-20T08:00:08.000Z</time>
      </trkpt>
      <trkpt lat="47.29997" lon="-1.70606">
        <ele>118</ele>
        <time>2013-10-20T08:00:12.000Z</time>
      </trkpt>
      <trkpt lat="47.29985" lon="-1.70586">
        <ele>117</ele>
        <time>2013-10-20T08:00:16.000Z</time>
      </trkpt>
      <trkpt lat="47.29979" lon="-1.70576">
        <ele>117</ele>
        <time>2013-10-20T08:00:18.000Z</time>
      </trkpt>
      <trkpt lat="47.29974" lon="-1.70563">
        <ele>117</ele>
        <time>2013-10-20T08:00:20.000Z</time>
      </trkpt>
      <trkpt lat="47.29966" lon="-1.7055">
        <ele>117</ele>
        <time>2013-10-20T08:00:22.000Z</time>
      </trkpt>
      <trkpt lat="47.29959" lon="-1.70533">
        <ele>117</ele>
        <time>2013-10-20T08:00:24.000Z</time>
      </trkpt>
      <trkpt lat="47.29952" lon="-1.70518">
        <ele>116</ele>
        <time>2013-10-20T08:00:26.000Z</time>
      </trkpt>
      <trkpt lat="47.29945" lon="-1.70503">
        <ele>116</ele>
        <time>2013-10-20T08:00:28.000Z</time>
      </trkpt>
      <trkpt lat="47.29934" lon="-1.7049">
        <ele>116</ele>
        <time>2013-10-20T08:00:30.000Z</time>
      </trkpt>
      <trkpt lat="47.29922" lon="-1.70477">
        <ele>117</ele>
        <time>2013-10-20T08:00:32.000Z</time>
      </trkpt>
      <trkpt lat="47.2991" lon="-1.70464">
        <ele>119</ele>
        <time>2013-10-20T08:00:34.000Z</time>
      </trkpt>
      <trkpt lat="47.299" lon="-1.70453">
        <ele>121</ele>
        <time>2013-10-20T08:00:36.000Z</time>
      </trkpt>
      <trkpt lat="47.29891" lon="-1.70438">
        <ele>122</ele>
        <time>2013-10-20T08:00:38.000Z</time>
      </trkpt>
      <trkpt lat="47.29882" lon="-1.70425">
        <ele>122</ele>
        <time>2013-10-20T08:00:40.000Z</time>
      </trkpt>
      <trkpt lat="47.29876" lon="-1.7041">
        <ele>123</ele>
        <time>2013-10-20T08:00:42.000Z</time>
      </trkpt>
      <trkpt lat="47.29869" lon="-1.70395">
        <ele>123</ele>
        <time>2013-10-20T08:00:44.000Z</time>
      </trkpt>
      <trkpt lat="47.29863" lon="-1.7038">
        <ele>123</ele>
        <time>2013-10-20T08:00:46.000Z</time>
      </trkpt>
      <trkpt lat="47.29858" lon="-1.70365">
        <ele>123</ele>
        <time>2013-10-20T08:00:48.000Z</time>
      </trkpt>
      <trkpt lat="47.29852" lon="-1.7035">
        <ele>124</ele>
        <time>2013-10-20T08:00:50.000Z</time>
      </trkpt>
      <trkpt lat="47.29848" lon="-1.70333">
        <ele>124</ele>
        <time>2013-10-20T08:00:52.000Z</time>
      </trkpt>
      <trkpt lat="47.29844" lon="-1.70318">
        <ele>124</ele>
        <time>2013-10-20T08:00:54.000Z</time>
      </trkpt>
      <trkpt lat="47.2984" lon="-1.70303">
        <ele>124</ele>
        <time>2013-10-20T08:00:56.000Z</time>
      </trkpt>
      <trkpt lat="47.29836" lon="-1.70288">
        <ele>124</ele>
        <time>2013-10-20T08:00:58.000Z</time>
      </trkpt>
      <trkpt lat="47.29833" lon="-1.70273">
        <ele>124</ele>
        <time>2013-10-20T08:01:00.000Z</time>
      </trkpt>
      <trkpt lat="47.2983" lon="-1.7026">
        <ele>124</ele>
        <time>2013-10-20T08:01:02.000Z</time>
      </trkpt>
      <trkpt lat="47.2983" lon="-1.7026">
        <ele>124</ele>
        <time>2013-10-20T08:01:04.000Z</time>
      </trkpt>
      <trkpt lat="47.29825" lon="-1.7024">
        <ele>123</ele>
        <time>2013-10-20T08:01:06.000Z</time>
      </trkpt>
      <trkpt lat="47.29825" lon="-1.7024">
        <ele>123</ele>
        <time>2013-10-20T08:01:08.000Z</time>
      </trkpt>
      <trkpt lat="47.29821" lon="-1.70226">
        <ele>123</ele>
        <time>2013-10-20T08:01:10.000Z</time>
      </trkpt>
      <trkpt lat="47.29821" lon="-1.70226">
        <ele>123</ele>
        <time>2013-10-20T08:01:12.000Z</time>
      </trkpt>
      <trkpt lat="47.29821" lon="-1.70226">
        <ele>123</ele>
        <time>2013-10-20T08:01:16.000Z</time>
      </trkpt>
      <trkpt lat="47.29864" lon="-1.70196">
        <ele>123</ele>
        <time>2013-10-20T08:01:30.000Z</time>
      </trkpt>
      <trkpt lat="47.29876" lon="-1.70194">
        <ele>123</ele>
        <time>2013-10-20T08:01:34.000Z</time>
      </trkpt>
      <trkpt lat="47.2989" lon="-1.70192">
        <ele>123</ele>
        <time>2013-10-20T08:01:38.000Z</time>
      </trkpt>
      <trkpt lat="47.2989" lon="-1.70192">
        <ele>123</ele>
        <time>2013-10-20T08:01:42.000Z</time>
      </trkpt>
      <trkpt lat="47.2989" lon="-1.70192">
        <ele>123</ele>
        <time>2013-10-20T08:01:46.000Z</time>
      </trkpt>
      <trkpt lat="47.299" lon="-1.7018">
        <ele>123</ele>
        <time>2013-10-20T08:01:50.000Z</time>
      </trkpt>
      <trkpt lat="47.29905" lon="-1.7017">
        <ele>123</ele>
        <time>2013-10-20T08:01:52.000Z</time>
      </trkpt>
      <trkpt lat="47.29906" lon="-1.7016">
        <ele>123</ele>
        <time>2013-10-20T08:01:54.000Z</time>
      </trkpt>
      <trkpt lat="47.29907" lon="-1.70152">
        <ele>123</ele>
        <time>2013-10-20T08:01:56.000Z</time>
      </trkpt>
      <trkpt lat="47.29907" lon="-1.70152">
        <ele>123</ele>
        <time>2013-10-20T08:01:58.000Z</time>
      </trkpt>
      <trkpt lat="47.29907" lon="-1.70152">
        <ele>123</ele>
        <time>2013-10-20T08:02:02.000Z</time>
      </trkpt>
      <trkpt lat="47.29915" lon="-1.7003">
        <ele>119</ele>
        <time>2013-10-20T08:03:01.000Z</time>
      </trkpt>
      <trkpt lat="47.29918" lon="-1.69964">
        <ele>119</ele>
        <time>2013-10-20T08:03:03.000Z</time>
      </trkpt>
      <trkpt lat="47.2992" lon="-1.69926">
        <ele>119</ele>
        <time>2013-10-20T08:03:05.000Z</time>
      </trkpt>
      <trkpt lat="47.29919" lon="-1.69902">
        <ele>119</ele>
        <time>2013-10-20T08:03:07.000Z</time>
      </trkpt>
      <trkpt lat="47.29919" lon="-1.69888">
        <ele>119</ele>
        <time>2013-10-20T08:03:09.000Z</time>
      </trkpt>
      <trkpt lat="47.29919" lon="-1.69888">
        <ele>119</ele>
        <time>2013-10-20T08:03:12.000Z</time>
      </trkpt>
      <trkpt lat="47.29919" lon="-1.69888">
        <ele>119</ele>
        <time>2013-10-20T08:03:15.000Z</time>
      </trkpt>
      <trkpt lat="47.29857" lon="-1.69762">
        <ele>116</ele>
        <time>2013-10-20T08:03:35.000Z</time>
      </trkpt>
      <trkpt lat="47.29847" lon="-1.69758">
        <ele>116</ele>
        <time>2013-10-20T08:03:37.000Z</time>
      </trkpt>
      <trkpt lat="47.29839" lon="-1.69754">
        <ele>116</ele>
        <time>2013-10-20T08:03:39.000Z</time>
      </trkpt>
      <trkpt lat="47.29829" lon="-1.69749">
        <ele>116</ele>
        <time>2013-10-20T08:03:41.000Z</time>
      </trkpt>
      <trkpt lat="47.29813" lon="-1.69745">
        <ele>116</ele>
        <time>2013-10-20T08:03:45.000Z</time>
      </trkpt>
      <trkpt lat="47.298" lon="-1.69745">
        <ele>116</ele>
        <time>2013-10-20T08:03:49.000Z</time>
      </trkpt>
      <trkpt lat="47.298" lon="-1.69745">
        <ele>116</ele>
        <time>2013-10-20T08:03:51.000Z</time>
      </trkpt>
      <trkpt lat="47.298" lon="-1.69745">
        <ele>116</ele>
        <time>2013-10-20T08:03:53.000Z</time>
      </trkpt>
      <trkpt lat="47.29765" lon="-1.69754">
        <ele>115</ele>
        <time>2013-10-20T08:03:57.000Z</time>
      </trkpt>
      <trkpt lat="47.29755" lon="-1.69756">
        <ele>115</ele>
        <time>2013-10-20T08:03:59.000Z</time>
      </trkpt>
      <trkpt lat="47.29733" lon="-1.69752">
        <ele>114</ele>
        <time>2013-10-20T08:04:02.000Z</time>
      </trkpt>
      <trkpt lat="47.2972" lon="-1.69747">
        <ele>114</ele>
        <time>2013-10-20T08:04:04.000Z</time>
      </trkpt>
      <trkpt lat="47.29707" lon="-1.69747">
        <ele>114</ele>
        <time>2013-10-20T08:04:06.000Z</time>
      </trkpt>
      <trkpt lat="47.29694" lon="-1.69747">
        <ele>113</ele>
        <time>2013-10-20T08:04:08.000Z</time>
      </trkpt>
      <trkpt lat="47.29681" lon="-1.69747">
        <ele>113</ele>
        <time>2013-10-20T08:04:10.000Z</time>
      </trkpt>
      <trkpt lat="47.29681" lon="-1.69747">
        <ele>113</ele>
        <time>2013-10-20T08:04:12.000Z</time>
      </trkpt>
      <trkpt lat="47.29655" lon="-1.69745">
        <ele>110</ele>
        <time>2013-10-20T08:04:15.000Z</time>
      </trkpt>
      <trkpt lat="47.29655" lon="-1.69745">
        <ele>110</ele>
        <time>2013-10-20T08:04:17.000Z</time>
      </trkpt>
      <trkpt lat="47.2964" lon="-1.69744">
        <ele>109</ele>
        <time>2013-10-20T08:04:19.000Z</time>
      </trkpt>
      <trkpt lat="47.2964" lon="-1.69744">
        <ele>109</ele>
        <time>2013-10-20T08:04:22.000Z</time>
      </trkpt>
      <trkpt lat="47.29626" lon="-1.69743">
        <ele>109</ele>
        <time>2013-10-20T08:04:24.000Z</time>
      </trkpt>
      <trkpt lat="47.29626" lon="-1.69743">
        <ele>109</ele>
        <time>2013-10-20T08:04:26.000Z</time>
      </trkpt>
      <trkpt lat="47.29626" lon="-1.69743">
        <ele>109</ele>
        <time>2013-10-20T08:04:28.000Z</time>
      </trkpt>
      <trkpt lat="47.29626" lon="-1.69743">
        <ele>109</ele>
        <time>2013-10-20T08:04:32.000Z</time>
      </trkpt>
      <trkpt lat="47.29644" lon="-1.69674">
        <ele>107</ele>
        <time>2013-10-20T08:04:55.000Z</time>
      </trkpt>
      <trkpt lat="47.29653" lon="-1.69664">
        <ele>106</ele>
        <time>2013-10-20T08:04:59.000Z</time>
      </trkpt>
      <trkpt lat="47.29659" lon="-1.69651">
        <ele>106</ele>
        <time>2013-10-20T08:05:03.000Z</time>
      </trkpt>
      <trkpt lat="47.29662" lon="-1.69631">
        <ele>105</ele>
        <time>2013-10-20T08:05:07.000Z</time>
      </trkpt>
      <trkpt lat="47.29662" lon="-1.6961">
        <ele>105</ele>
        <time>2013-10-20T08:05:11.000Z</time>
      </trkpt>
      <trkpt lat="47.29662" lon="-1.69591">
        <ele>105</ele>
        <time>2013-10-20T08:05:15.000Z</time>
      </trkpt>
      <trkpt lat="47.2966" lon="-1.69574">
        <ele>104</ele>
        <time>2013-10-20T08:05:19.000Z</time>
      </trkpt>
      <trkpt lat="47.2966" lon="-1.69574">
        <ele>104</ele>
        <time>2013-10-20T08:05:21.000Z</time>
      </trkpt>
      <trkpt lat="47.29652" lon="-1.69556">
        <ele>104</ele>
        <time>2013-10-20T08:05:23.000Z</time>
      </trkpt>
      <trkpt lat="47.29652" lon="-1.69556">
        <ele>104</ele>
        <time>2013-10-20T08:05:25.000Z</time>
      </trkpt>
      <trkpt lat="47.29652" lon="-1.69556">
        <ele>104</ele>
        <time>2013-10-20T08:05:27.000Z</time>
      </trkpt>
      <trkpt lat="47.29652" lon="-1.69556">
        <ele>104</ele>
        <time>2013-10-20T08:05:29.000Z</time>
      </trkpt>
      <trkpt lat="47.29643" lon="-1.69539">
        <ele>104</ele>
        <time>2013-10-20T08:05:31.000Z</time>
      </trkpt>
      <trkpt lat="47.29637" lon="-1.69527">
        <ele>104</ele>
        <time>2013-10-20T08:05:33.000Z</time>
      </trkpt>
      <trkpt lat="47.29632" lon="-1.69517">
        <ele>103</ele>
        <time>2013-10-20T08:05:35.000Z</time>
      </trkpt>
      <trkpt lat="47.29628" lon="-1.69508">
        <ele>103</ele>
        <time>2013-10-20T08:05:37.000Z</time>
      </trkpt>
      <trkpt lat="47.29623" lon="-1.69499">
        <ele>103</ele>
        <time>2013-10-20T08:05:39.000Z</time>
      </trkpt>
      <trkpt lat="47.29614" lon="-1.69481">
        <ele>103</ele>
        <time>2013-10-20T08:05:41.000Z</time>
      </trkpt>
      <trkpt lat="47.29605" lon="-1.69464">
        <ele>103</ele>
        <time>2013-10-20T08:05:45.000Z</time>
      </trkpt>
      <trkpt lat="47.29605" lon="-1.69464">
        <ele>103</ele>
        <time>2013-10-20T08:05:47.000Z</time>
      </trkpt>
      <trkpt lat="47.29605" lon="-1.69464">
        <ele>103</ele>
        <time>2013-10-20T08:05:49.000Z</time>
      </trkpt>
      <trkpt lat="47.29605" lon="-1.69464">
        <ele>103</ele>
        <time>2013-10-20T08:05:51.000Z</time>
      </trkpt>
      <trkpt lat="47.29605" lon="-1.69464">
        <ele>103</ele>
        <time>2013-10-20T08:05:53.000Z</time>
      </trkpt>
      <trkpt lat="47.29605" lon="-1.69464">
        <ele>103</ele>
        <time>2013-10-20T08:05:55.000Z</time>
      </trkpt>
      <trkpt lat="47.29605" lon="-1.69464">
        <ele>103</ele>
        <time>2013-10-20T08:05:57.000Z</time>
      </trkpt>
      <trkpt lat="47.29605" lon="-1.69464">
        <ele>103</ele>
        <time>2013-10-20T08:05:59.000Z</time>
      </trkpt>
      <trkpt lat="47.29605" lon="-1.69464">
        <ele>103</ele>
        <time>2013-10-20T08:06:01.000Z</time>
      </trkpt>
      <trkpt lat="47.29605" lon="-1.69464">
        <ele>103</ele>
        <time>2013-10-20T08:06:03.000Z</time>
      </trkpt>
      <trkpt lat="47.29605" lon="-1.69464">
        <ele>103</ele>
        <time>2013-10-20T08:06:05.000Z</time>
      </trkpt>
      <trkpt lat="47.29605" lon="-1.69464">
        <ele>103</ele>
        <time>2013-10-20T08:06:07.000Z</time>
      </trkpt>
      <trkpt lat="47.29605" lon="-1.69464">
        <ele>103</ele>
        <time>2013-10-20T08:06:09.000Z</time>
      </trkpt>
      <trkpt lat="47.29605" lon="-1.69464">
        <ele>103</ele>
        <time>2013-10-20T08:06:11.000Z</time>
      </trkpt>
      <trkpt lat="47.29605" lon="-1.69464">
        <ele>103</ele>
        <time>2013-10-20T08:06:13.000Z</time>
      </trkpt>
      <trkpt lat="47.29597" lon="-1.69331">
        <ele>104</ele>
        <time>2013-10-20T08:06:17.000Z</time>
      </trkpt>
      <trkpt lat="47.296" lon="-1.69314">
        <ele>104</ele>
        <time>2013-10-20T08:06:21.000Z</time>
      </trkpt>
      <trkpt lat="47.296" lon="-1.69314">
        <ele>104</ele>
        <time>2013-10-20T08:06:23.000Z</time>
      </trkpt>
      <trkpt lat="47.296" lon="-1.69314">
        <ele>104</ele>
        <time>2013-10-20T08:06:25.000Z</time>
      </trkpt>
      <trkpt lat="47.296" lon="-1.69314">
        <ele>104</ele>
        <time>2013-10-20T08:06:27.000Z</time>
      </trkpt>
      <trkpt lat="47.29617" lon="-1.69269">
        <ele>103</ele>
        <time>2013-10-20T08:06:33.000Z</time>
      </trkpt>
      <trkpt lat="47.29622" lon="-1.6925">
        <ele>103</ele>
        <time>2013-10-20T08:06:37.000Z</time>
      </trkpt>
      <trkpt lat="47.29622" lon="-1.6925">
        <ele>103</ele>
        <time>2013-10-20T08:06:39.000Z</time>
      </trkpt>
      <trkpt lat="47.29626" lon="-1.69232">
        <ele>103</ele>
        <time>2013-10-20T08:06:42.000Z</time>
      </trkpt>
      <trkpt lat="47.29615" lon="-1.69219">
        <ele>103</ele>
        <time>2013-10-20T08:06:44.000Z</time>
      </trkpt>
      <trkpt lat="47.29615" lon="-1.69219">
        <ele>103</ele>
        <time>2013-10-20T08:06:50.000Z</time>
      </trkpt>
      <trkpt lat="47.29593" lon="-1.69177">
        <ele>101</ele>
        <time>2013-10-20T08:07:08.000Z</time>
      </trkpt>
      <trkpt lat="47.29578" lon="-1.69152">
        <ele>101</ele>
        <time>2013-10-20T08:07:10.000Z</time>
      </trkpt>
      <trkpt lat="47.29568" lon="-1.69135">
        <ele>101</ele>
        <time>2013-10-20T08:07:12.000Z</time>
      </trkpt>
      <trkpt lat="47.29561" lon="-1.69124">
        <ele>101</ele>
        <time>2013-10-20T08:07:14.000Z</time>
      </trkpt>
      <trkpt lat="47.29561" lon="-1.69124">
        <ele>101</ele>
        <time>2013-10-20T08:07:18.000Z</time>
      </trkpt>
      <trkpt lat="47.29552" lon="-1.69108">
        <ele>100</ele>
        <time>2013-10-20T08:07:20.000Z</time>
      </trkpt>
      <trkpt lat="47.29545" lon="-1.69098">
        <ele>100</ele>
        <time>2013-10-20T08:07:22.000Z</time>
      </trkpt>
      <trkpt lat="47.29539" lon="-1.69091">
        <ele>100</ele>
        <time>2013-10-20T08:07:24.000Z</time>
      </trkpt>
      <trkpt lat="47.29534" lon="-1.69086">
        <ele>100</ele>
        <time>2013-10-20T08:07:26.000Z</time>
      </trkpt>
      <trkpt lat="47.29528" lon="-1.69082">
        <ele>100</ele>
        <time>2013-10-20T08:07:28.000Z</time>
      </trkpt>
      <trkpt lat="47.29519" lon="-1.69076">
        <ele>100</ele>
        <time>2013-10-20T08:07:30.000Z</time>
      </trkpt>
      <trkpt lat="47.29509" lon="-1.69069">
        <ele>100</ele>
        <time>2013-10-20T08:07:34.000Z</time>
      </trkpt>
      <trkpt lat="47.29509" lon="-1.69069">
        <ele>100</ele>
        <time>2013-10-20T08:07:36.000Z</time>
      </trkpt>
      <trkpt lat="47.29509" lon="-1.69069">
        <ele>100</ele>
        <time>2013-10-20T08:07:38.000Z</time>
      </trkpt>
      <trkpt lat="47.29509" lon="-1.69069">
        <ele>100</ele>
        <time>2013-10-20T08:07:40.000Z</time>
      </trkpt>
      <trkpt lat="47.29509" lon="-1.69069">
        <ele>100</ele>
        <time>2013-10-20T08:07:42.000Z</time>
      </trkpt>
      <trkpt lat="47.29509" lon="-1.69069">
        <ele>100</ele>
        <time>2013-10-20T08:07:44.000Z</time>
      </trkpt>
      <trkpt lat="47.29509" lon="-1.69069">
        <ele>100</ele>
        <time>2013-10-20T08:07:46.000Z</time>
      </trkpt>
      <trkpt lat="47.29509" lon="-1.69069">
        <ele>100</ele>
        <time>2013-10-20T08:07:48.000Z</time>
      </trkpt>
      <trkpt lat="47.29509" lon="-1.69069">
        <ele>100</ele>
        <time>2013-10-20T08:07:50.000Z</time>
      </trkpt>
      <trkpt lat="47.29509" lon="-1.69069">
        <ele>100</ele>
        <time>2013-10-20T08:07:52.000Z</time>
      </trkpt>
      <trkpt lat="47.29509" lon="-1.69069">
        <ele>100</ele>
        <time>2013-10-20T08:07:54.000Z</time>
      </trkpt>
      <trkpt lat="47.29509" lon="-1.69069">
        <ele>100</ele>
        <time>2013-10-20T08:07:56.000Z</time>
      </trkpt>
      <trkpt lat="47.29509" lon="-1.69069">
        <ele>100</ele>
        <time>2013-10-20T08:07:58.000Z</time>
      </trkpt>
      <trkpt lat="47.29509" lon="-1.69069">
        <ele>100</ele>
        <time>2013-10-20T08:08:00.000Z</time>
      </trkpt>
      <trkpt lat="47.29509" lon="-1.69069">
        <ele>100</ele>
        <time>2013-10-20T08:08:02.000Z</time>
      </trkpt>
      <trkpt lat="47.29509" lon="-1.69069">
        <ele>100</ele>
        <time>2013-10-20T08:08:04.000Z</time>
      </trkpt>
      <trkpt lat="47.29509" lon="-1.69069">
        <ele>100</ele>
        <time>2013-10-20T08:08:06.000Z</time>
      </trkpt>
      <trkpt lat="47.29509" lon="-1.69069">
        <ele>100</ele>
        <time>2013-10-20T08:08:08.000Z</time>
      </trkpt>
      <trkpt lat="47.29509" lon="-1.69069">
        <ele>100</ele>
        <time>2013-10-20T08:08:10.000Z</time>
      </trkpt>
      <trkpt lat="47.29509" lon="-1.69069">
        <ele>100</ele>
        <time>2013-10-20T08:08:12.000Z</time>
      </trkpt>
      <trkpt lat="47.29509" lon="-1.69069">
        <ele>100</ele>
        <time>2013-10-20T08:08:14.000Z</time>
      </trkpt>
      <trkpt lat="47.29509" lon="-1.69069">
        <ele>100</ele>
        <time>2013-10-20T08:08:16.000Z</time>
      </trkpt>
      <trkpt lat="47.29509" lon="-1.69069">
        <ele>100</ele>
        <time>2013-10-20T08:08:18.000Z</time>
      </trkpt>
      <trkpt lat="47.29399" lon="-1.68936">
        <ele>105</ele>
        <time>2013-10-20T08:08:38.000Z</time>
      </trkpt>
      <trkpt lat="47.29391" lon="-1.68926">
        <ele>105</ele>
        <time>2013-10-20T08:08:42.000Z</time>
      </trkpt>
      <trkpt lat="47.29382" lon="-1.68915">
        <ele>105</ele>
        <time>2013-10-20T08:08:46.000Z</time>
      </trkpt>
      <trkpt lat="47.29375" lon="-1.68906">
        <ele>105</ele>
        <time>2013-10-20T08:08:50.000Z</time>
      </trkpt>
      <trkpt lat="47.29375" lon="-1.68906">
        <ele>105</ele>
        <time>2013-10-20T08:08:52.000Z</time>
      </trkpt>
      <trkpt lat="47.29375" lon="-1.68906">
        <ele>105</ele>
        <time>2013-10-20T08:08:54.000Z</time>
      </trkpt>
      <trkpt lat="47.29375" lon="-1.68906">
        <ele>105</ele>
        <time>2013-10-20T08:08:56.000Z</time>
      </trkpt>
      <trkpt lat="47.29375" lon="-1.68906">
        <ele>105</ele>
        <time>2013-10-20T08:08:58.000Z</time>
      </trkpt>
      <trkpt lat="47.29375" lon="-1.68906">
        <ele>105</ele>
        <time>2013-10-20T08:09:00.000Z</time>
      </trkpt>
      <trkpt lat="47.29375" lon="-1.68906">
        <ele>105</ele>
        <time>2013-10-20T08:09:02.000Z</time>
      </trkpt>
      <trkpt lat="47.29375" lon="-1.68906">
        <ele>105</ele>
        <time>2013-10-20T08:09:05.000Z</time>
      </trkpt>
      <trkpt lat="47.29375" lon="-1.68906">
        <ele>105</ele>
        <time>2013-10-20T08:09:08.000Z</time>
      </trkpt>
      <trkpt lat="47.29375" lon="-1.68906">
        <ele>105</ele>
        <time>2013-10-20T08:09:10.000Z</time>
      </trkpt>
      <trkpt lat="47.29352" lon="-1.68911">
        <ele>106</ele>
        <time>2013-10-20T08:11:39.000Z</time>
      </trkpt>
      <trkpt lat="47.29336" lon="-1.68916">
        <ele>106</ele>
        <time>2013-10-20T08:11:41.000Z</time>
      </trkpt>
      <trkpt lat="47.29324" lon="-1.68924">
        <ele>106</ele>
        <time>2013-10-20T08:11:43.000Z</time>
      </trkpt>
      <trkpt lat="47.29314" lon="-1.68932">
        <ele>106</ele>
        <time>2013-10-20T08:11:45.000Z</time>
      </trkpt>
      <trkpt lat="47.29305" lon="-1.68941">
        <ele>105</ele>
        <time>2013-10-20T08:11:47.000Z</time>
      </trkpt>
      <trkpt lat="47.29289" lon="-1.68958">
        <ele>105</ele>
        <time>2013-10-20T08:11:49.000Z</time>
      </trkpt>
      <trkpt lat="47.29282" lon="-1.68966">
        <ele>105</ele>
        <time>2013-10-20T08:11:51.000Z</time>
      </trkpt>
      <trkpt lat="47.29267" lon="-1.68977">
        <ele>103</ele>
        <time>2013-10-20T08:11:55.000Z</time>
      </trkpt>
      <trkpt lat="47.29247" lon="-1.68988">
        <ele>103</ele>
        <time>2013-10-20T08:11:59.000Z</time>
      </trkpt>
      <trkpt lat="47.29228" lon="-1.68998">
        <ele>105</ele>
        <time>2013-10-20T08:12:03.000Z</time>
      </trkpt>
      <trkpt lat="47.29208" lon="-1.69009">
        <ele>107</ele>
        <time>2013-10-20T08:12:07.000Z</time>
      </trkpt>
      <trkpt lat="47.29185" lon="-1.69014">
        <ele>110</ele>
        <time>2013-10-20T08:12:11.000Z</time>
      </trkpt>
      <trkpt lat="47.29174" lon="-1.69011">
        <ele>111</ele>
        <time>2013-10-20T08:12:13.000Z</time>
      </trkpt>
      <trkpt lat="47.29164" lon="-1.69011">
        <ele>111</ele>
        <time>2013-10-20T08:12:15.000Z</time>
      </trkpt>
      <trkpt lat="47.29154" lon="-1.69009">
        <ele>111</ele>
        <time>2013-10-20T08:12:17.000Z</time>
      </trkpt>
      <trkpt lat="47.29145" lon="-1.69007">
        <ele>111</ele>
        <time>2013-10-20T08:12:19.000Z</time>
      </trkpt>
      <trkpt lat="47.29135" lon="-1.69005">
        <ele>111</ele>
        <time>2013-10-20T08:12:21.000Z</time>
      </trkpt>
      <trkpt lat="47.29125" lon="-1.69003">
        <ele>110</ele>
        <time>2013-10-20T08:12:23.000Z</time>
      </trkpt>
      <trkpt lat="47.29116" lon="-1.69001">
        <ele>109</ele>
        <time>2013-10-20T08:12:25.000Z</time>
      </trkpt>
      <trkpt lat="47.29106" lon="-1.68998">
        <ele>109</ele>
        <time>2013-10-20T08:12:27.000Z</time>
      </trkpt>
      <trkpt lat="47.29097" lon="-1.68996">
        <ele>108</ele>
        <time>2013-10-20T08:12:29.000Z</time>
      </trkpt>
      <trkpt lat="47.29086" lon="-1.68994">
        <ele>108</ele>
        <time>2013-10-20T08:12:31.000Z</time>
      </trkpt>
      <trkpt lat="47.29076" lon="-1.68992">
        <ele>108</ele>
        <time>2013-10-20T08:12:33.000Z</time>
      </trkpt>
      <trkpt lat="47.29062" lon="-1.69022">
        <ele>109</ele>
        <time>2013-10-20T08:12:35.000Z</time>
      </trkpt>
      <trkpt lat="47.29049" lon="-1.69024">
        <ele>110</ele>
        <time>2013-10-20T08:12:37.000Z</time>
      </trkpt>
      <trkpt lat="47.29034" lon="-1.69024">
        <ele>111</ele>
        <time>2013-10-20T08:12:39.000Z</time>
      </trkpt>
      <trkpt lat="47.29018" lon="-1.69024">
        <ele>111</ele>
        <time>2013-10-20T08:12:41.000Z</time>
      </trkpt>
      <trkpt lat="47.29003" lon="-1.69024">
        <ele>112</ele>
        <time>2013-10-20T08:12:43.000Z</time>
      </trkpt>
      <trkpt lat="47.28989" lon="-1.69022">
        <ele>113</ele>
        <time>2013-10-20T08:12:45.000Z</time>
      </trkpt>
      <trkpt lat="47.28965" lon="-1.69018">
        <ele>114</ele>
        <time>2013-10-20T08:12:49.000Z</time>
      </trkpt>
      <trkpt lat="47.28965" lon="-1.69018">
        <ele>114</ele>
        <time>2013-10-20T08:12:51.000Z</time>
      </trkpt>
      <trkpt lat="47.28942" lon="-1.69016">
        <ele>114</ele>
        <time>2013-10-20T08:12:53.000Z</time>
      </trkpt>
      <trkpt lat="47.28942" lon="-1.69016">
        <ele>114</ele>
        <time>2013-10-20T08:12:55.000Z</time>
      </trkpt>
      <trkpt lat="47.28931" lon="-1.69015">
        <ele>114</ele>
        <time>2013-10-20T08:12:57.000Z</time>
      </trkpt>
      <trkpt lat="47.28931" lon="-1.69015">
        <ele>114</ele>
        <time>2013-10-20T08:12:59.000Z</time>
      </trkpt>
      <trkpt lat="47.28917" lon="-1.69013">
        <ele>115</ele>
        <time>2013-10-20T08:13:01.000Z</time>
      </trkpt>
      <trkpt lat="47.28907" lon="-1.69012">
        <ele>115</ele>
        <time>2013-10-20T08:13:03.000Z</time>
      </trkpt>
      <trkpt lat="47.28907" lon="-1.69012">
        <ele>115</ele>
        <time>2013-10-20T08:13:05.000Z</time>
      </trkpt>
      <trkpt lat="47.28891" lon="-1.69011">
        <ele>115</ele>
        <time>2013-10-20T08:13:07.000Z</time>
      </trkpt>
      <trkpt lat="47.28891" lon="-1.69011">
        <ele>115</ele>
        <time>2013-10-20T08:13:09.000Z</time>
      </trkpt>
      <trkpt lat="47.28878" lon="-1.69009">
        <ele>115</ele>
        <time>2013-10-20T08:13:11.000Z</time>
      </trkpt>
      <trkpt lat="47.28878" lon="-1.69009">
        <ele>115</ele>
        <time>2013-10-20T08:13:13.000Z</time>
      </trkpt>
      <trkpt lat="47.28866" lon="-1.69008">
        <ele>115</ele>
        <time>2013-10-20T08:13:15.000Z</time>
      </trkpt>
      <trkpt lat="47.28866" lon="-1.69008">
        <ele>115</ele>
        <time>2013-10-20T08:13:17.000Z</time>
      </trkpt>
      <trkpt lat="47.28854" lon="-1.69007">
        <ele>115</ele>
        <time>2013-10-20T08:13:19.000Z</time>
      </trkpt>
      <trkpt lat="47.28854" lon="-1.69007">
        <ele>115</ele>
        <time>2013-10-20T08:13:21.000Z</time>
      </trkpt>
      <trkpt lat="47.28841" lon="-1.69006">
        <ele>115</ele>
        <time>2013-10-20T08:13:23.000Z</time>
      </trkpt>
      <trkpt lat="47.28823" lon="-1.69004">
        <ele>113</ele>
        <time>2013-10-20T08:13:27.000Z</time>
      </trkpt>
      <trkpt lat="47.28809" lon="-1.69001">
        <ele>112</ele>
        <time>2013-10-20T08:13:31.000Z</time>
      </trkpt>
      <trkpt lat="47.28809" lon="-1.69001">
        <ele>112</ele>
        <time>2013-10-20T08:13:33.000Z</time>
      </trkpt>
      <trkpt lat="47.28809" lon="-1.69001">
        <ele>112</ele>
        <time>2013-10-20T08:13:37.000Z</time>
      </trkpt>
      <trkpt lat="47.28775" lon="-1.69151">
        <ele>108</ele>
        <time>2013-10-20T08:14:07.000Z</time>
      </trkpt>
      <trkpt lat="47.28775" lon="-1.69151">
        <ele>108</ele>
        <time>2013-10-20T08:14:19.000Z</time>
      </trkpt>
      <trkpt lat="47.28704" lon="-1.69196">
        <ele>106</ele>
        <time>2013-10-20T08:18:01.000Z</time>
      </trkpt>
      <trkpt lat="47.28668" lon="-1.69222">
        <ele>106</ele>
        <time>2013-10-20T08:18:03.000Z</time>
      </trkpt>
      <trkpt lat="47.28649" lon="-1.69237">
        <ele>107</ele>
        <time>2013-10-20T08:18:05.000Z</time>
      </trkpt>
      <trkpt lat="47.28637" lon="-1.69246">
        <ele>107</ele>
        <time>2013-10-20T08:18:07.000Z</time>
      </trkpt>
      <trkpt lat="47.2863" lon="-1.69253">
        <ele>107</ele>
        <time>2013-10-20T08:18:09.000Z</time>
      </trkpt>
      <trkpt lat="47.28617" lon="-1.69262">
        <ele>108</ele>
        <time>2013-10-20T08:18:11.000Z</time>
      </trkpt>
      <trkpt lat="47.28605" lon="-1.69271">
        <ele>109</ele>
        <time>2013-10-20T08:18:15.000Z</time>
      </trkpt>
      <trkpt lat="47.28591" lon="-1.69275">
        <ele>110</ele>
        <time>2013-10-20T08:18:19.000Z</time>
      </trkpt>
      <trkpt lat="47.28577" lon="-1.69282">
        <ele>110</ele>
        <time>2013-10-20T08:18:23.000Z</time>
      </trkpt>
      <trkpt lat="47.28562" lon="-1.69284">
        <ele>111</ele>
        <time>2013-10-20T08:18:27.000Z</time>
      </trkpt>
      <trkpt lat="47.28545" lon="-1.69284">
        <ele>115</ele>
        <time>2013-10-20T08:18:31.000Z</time>
      </trkpt>
      <trkpt lat="47.28527" lon="-1.69282">
        <ele>116</ele>
        <time>2013-10-20T08:18:35.000Z</time>
      </trkpt>
      <trkpt lat="47.28518" lon="-1.6928">
        <ele>117</ele>
        <time>2013-10-20T08:18:37.000Z</time>
      </trkpt>
      <trkpt lat="47.28508" lon="-1.69277">
        <ele>117</ele>
        <time>2013-10-20T08:18:39.000Z</time>
      </trkpt>
      <trkpt lat="47.28498" lon="-1.69275">
        <ele>117</ele>
        <time>2013-10-20T08:18:41.000Z</time>
      </trkpt>
      <trkpt lat="47.28488" lon="-1.69271">
        <ele>117</ele>
        <time>2013-10-20T08:18:43.000Z</time>
      </trkpt>
      <trkpt lat="47.28476" lon="-1.69269">
        <ele>118</ele>
        <time>2013-10-20T08:18:45.000Z</time>
      </trkpt>
      <trkpt lat="47.28464" lon="-1.69267">
        <ele>118</ele>
        <time>2013-10-20T08:18:47.000Z</time>
      </trkpt>
      <trkpt lat="47.28451" lon="-1.69262">
        <ele>119</ele>
        <time>2013-10-20T08:18:49.000Z</time>
      </trkpt>
      <trkpt lat="47.28437" lon="-1.6926">
        <ele>119</ele>
        <time>2013-10-20T08:18:51.000Z</time>
      </trkpt>
      <trkpt lat="47.28423" lon="-1.6926">
        <ele>119</ele>
        <time>2013-10-20T08:18:53.000Z</time>
      </trkpt>
      <trkpt lat="47.28407" lon="-1.69256">
        <ele>119</ele>
        <time>2013-10-20T08:18:55.000Z</time>
      </trkpt>
      <trkpt lat="47.28391" lon="-1.69254">
        <ele>118</ele>
        <time>2013-10-20T08:18:57.000Z</time>
      </trkpt>
      <trkpt lat="47.28375" lon="-1.69252">
        <ele>117</ele>
        <time>2013-10-20T08:18:59.000Z</time>
      </trkpt>
      <trkpt lat="47.28359" lon="-1.6925">
        <ele>116</ele>
        <time>2013-10-20T08:19:01.000Z</time>
      </trkpt>
      <trkpt lat="47.28343" lon="-1.69247">
        <ele>116</ele>
        <time>2013-10-20T08:19:03.000Z</time>
      </trkpt>
      <trkpt lat="47.28328" lon="-1.69243">
        <ele>116</ele>
        <time>2013-10-20T08:19:05.000Z</time>
      </trkpt>
      <trkpt lat="47.28315" lon="-1.69241">
        <ele>117</ele>
        <time>2013-10-20T08:19:07.000Z</time>
      </trkpt>
      <trkpt lat="47.28302" lon="-1.69239">
        <ele>117</ele>
        <time>2013-10-20T08:19:09.000Z</time>
      </trkpt>
      <trkpt lat="47.2829" lon="-1.69235">
        <ele>117</ele>
        <time>2013-10-20T08:19:11.000Z</time>
      </trkpt>
      <trkpt lat="47.28278" lon="-1.69232">
        <ele>117</ele>
        <time>2013-10-20T08:19:13.000Z</time>
      </trkpt>
      <trkpt lat="47.28267" lon="-1.69228">
        <ele>117</ele>
        <time>2013-10-20T08:19:15.000Z</time>
      </trkpt>
      <trkpt lat="47.28255" lon="-1.69224">
        <ele>117</ele>
        <time>2013-10-20T08:19:17.000Z</time>
      </trkpt>
      <trkpt lat="47.28243" lon="-1.69222">
        <ele>118</ele>
        <time>2013-10-20T08:19:19.000Z</time>
      </trkpt>
      <trkpt lat="47.28231" lon="-1.69219">
        <ele>118</ele>
        <time>2013-10-20T08:19:21.000Z</time>
      </trkpt>
      <trkpt lat="47.2822" lon="-1.69219">
        <ele>118</ele>
        <time>2013-10-20T08:19:23.000Z</time>
      </trkpt>
      <trkpt lat="47.28209" lon="-1.69219">
        <ele>118</ele>
        <time>2013-10-20T08:19:25.000Z</time>
      </trkpt>
      <trkpt lat="47.28209" lon="-1.69219">
        <ele>118</ele>
        <time>2013-10-20T08:19:27.000Z</time>
      </trkpt>
      <trkpt lat="47.28194" lon="-1.69219">
        <ele>118</ele>
        <time>2013-10-20T08:19:29.000Z</time>
      </trkpt>
      <trkpt lat="47.28194" lon="-1.69219">
        <ele>118</ele>
        <time>2013-10-20T08:19:31.000Z</time>
      </trkpt>
      <trkpt lat="47.28194" lon="-1.69219">
        <ele>118</ele>
        <time>2013-10-20T08:19:33.000Z</time>
      </trkpt>
      <trkpt lat="47.28194" lon="-1.69219">
        <ele>118</ele>
        <time>2013-10-20T08:19:35.000Z</time>
      </trkpt>
      <trkpt lat="47.28194" lon="-1.69219">
        <ele>118</ele>
        <time>2013-10-20T08:19:37.000Z</time>
      </trkpt>
      <trkpt lat="47.28184" lon="-1.69219">
        <ele>115</ele>
        <time>2013-10-20T08:19:39.000Z</time>
      </trkpt>
      <trkpt lat="47.28178" lon="-1.69136">
        <ele>114</ele>
        <time>2013-10-20T08:19:41.000Z</time>
      </trkpt>
      <trkpt lat="47.2817" lon="-1.69125">
        <ele>113</ele>
        <time>2013-10-20T08:19:43.000Z</time>
      </trkpt>
      <trkpt lat="47.28163" lon="-1.69116">
        <ele>112</ele>
        <time>2013-10-20T08:19:45.000Z</time>
      </trkpt>
      <trkpt lat="47.28153" lon="-1.69108">
        <ele>112</ele>
        <time>2013-10-20T08:19:47.000Z</time>
      </trkpt>
      <trkpt lat="47.28142" lon="-1.69104">
        <ele>111</ele>
        <time>2013-10-20T08:19:49.000Z</time>
      </trkpt>
      <trkpt lat="47.28128" lon="-1.69104">
        <ele>111</ele>
        <time>2013-10-20T08:19:51.000Z</time>
      </trkpt>
      <trkpt lat="47.28115" lon="-1.69104">
        <ele>110</ele>
        <time>2013-10-20T08:19:53.000Z</time>
      </trkpt>
      <trkpt lat="47.28104" lon="-1.6911">
        <ele>110</ele>
        <time>2013-10-20T08:19:55.000Z</time>
      </trkpt>
      <trkpt lat="47.28092" lon="-1.69114">
        <ele>110</ele>
        <time>2013-10-20T08:19:57.000Z</time>
      </trkpt>
      <trkpt lat="47.2808" lon="-1.69116">
        <ele>110</ele>
        <time>2013-10-20T08:19:59.000Z</time>
      </trkpt>
      <trkpt lat="47.28068" lon="-1.69119">
        <ele>110</ele>
        <time>2013-10-20T08:20:01.000Z</time>
      </trkpt>
      <trkpt lat="47.28056" lon="-1.69121">
        <ele>110</ele>
        <time>2013-10-20T08:20:03.000Z</time>
      </trkpt>
      <trkpt lat="47.28045" lon="-1.69121">
        <ele>110</ele>
        <time>2013-10-20T08:20:05.000Z</time>
      </trkpt>
      <trkpt lat="47.28033" lon="-1.69121">
        <ele>110</ele>
        <time>2013-10-20T08:20:07.000Z</time>
      </trkpt>
      <trkpt lat="47.28022" lon="-1.69114">
        <ele>110</ele>
        <time>2013-10-20T08:20:09.000Z</time>
      </trkpt>
      <trkpt lat="47.2801" lon="-1.69108">
        <ele>110</ele>
        <time>2013-10-20T08:20:11.000Z</time>
      </trkpt>
      <trkpt lat="47.27999" lon="-1.69104">
        <ele>109</ele>
        <time>2013-10-20T08:20:13.000Z</time>
      </trkpt>
      <trkpt lat="47.27988" lon="-1.69099">
        <ele>109</ele>
        <time>2013-10-20T08:20:15.000Z</time>
      </trkpt>
      <trkpt lat="47.27975" lon="-1.69101">
        <ele>109</ele>
        <time>2013-10-20T08:20:17.000Z</time>
      </trkpt>
      <trkpt lat="47.27961" lon="-1.69104">
        <ele>109</ele>
        <time>2013-10-20T08:20:19.000Z</time>
      </trkpt>
      <trkpt lat="47.27946" lon="-1.69106">
        <ele>110</ele>
        <time>2013-10-20T08:20:21.000Z</time>
      </trkpt>
      <trkpt lat="47.27931" lon="-1.69108">
        <ele>110</ele>
        <time>2013-10-20T08:20:23.000Z</time>
      </trkpt>
      <trkpt lat="47.27916" lon="-1.69106">
        <ele>110</ele>
        <time>2013-10-20T08:20:25.000Z</time>
      </trkpt>
      <trkpt lat="47.27902" lon="-1.69099">
        <ele>109</ele>
        <time>2013-10-20T08:20:27.000Z</time>
      </trkpt>
      <trkpt lat="47.2789" lon="-1.69086">
        <ele>109</ele>
        <time>2013-10-20T08:20:29.000Z</time>
      </trkpt>
      <trkpt lat="47.2788" lon="-1.69076">
        <ele>109</ele>
        <time>2013-10-20T08:20:31.000Z</time>
      </trkpt>
      <trkpt lat="47.27874" lon="-1.69065">
        <ele>108</ele>
        <time>2013-10-20T08:20:33.000Z</time>
      </trkpt>
      <trkpt lat="47.27868" lon="-1.69054">
        <ele>108</ele>
        <time>2013-10-20T08:20:35.000Z</time>
      </trkpt>
      <trkpt lat="47.27868" lon="-1.69054">
        <ele>108</ele>
        <time>2013-10-20T08:20:37.000Z</time>
      </trkpt>
      <trkpt lat="47.27856" lon="-1.69035">
        <ele>107</ele>
        <time>2013-10-20T08:20:39.000Z</time>
      </trkpt>
      <trkpt lat="47.27856" lon="-1.69035">
        <ele>107</ele>
        <time>2013-10-20T08:20:41.000Z</time>
      </trkpt>
      <trkpt lat="47.27848" lon="-1.69022">
        <ele>107</ele>
        <time>2013-10-20T08:20:43.000Z</time>
      </trkpt>
      <trkpt lat="47.27848" lon="-1.69022">
        <ele>107</ele>
        <time>2013-10-20T08:20:46.000Z</time>
      </trkpt>
      <trkpt lat="47.27841" lon="-1.69009">
        <ele>107</ele>
        <time>2013-10-20T08:20:48.000Z</time>
      </trkpt>
      <trkpt lat="47.27841" lon="-1.69009">
        <ele>107</ele>
        <time>2013-10-20T08:20:51.000Z</time>
      </trkpt>
      <trkpt lat="47.27832" lon="-1.68996">
        <ele>106</ele>
        <time>2013-10-20T08:20:53.000Z</time>
      </trkpt>
      <trkpt lat="47.27832" lon="-1.68996">
        <ele>106</ele>
        <time>2013-10-20T08:20:55.000Z</time>
      </trkpt>
      <trkpt lat="47.27826" lon="-1.68985">
        <ele>107</ele>
        <time>2013-10-20T08:20:57.000Z</time>
      </trkpt>
      <trkpt lat="47.27826" lon="-1.68985">
        <ele>107</ele>
        <time>2013-10-20T08:20:59.000Z</time>
      </trkpt>
      <trkpt lat="47.27819" lon="-1.68973">
        <ele>107</ele>
        <time>2013-10-20T08:21:01.000Z</time>
      </trkpt>
      <trkpt lat="47.27819" lon="-1.68973">
        <ele>107</ele>
        <time>2013-10-20T08:21:03.000Z</time>
      </trkpt>
      <trkpt lat="47.27819" lon="-1.68973">
        <ele>107</ele>
        <time>2013-10-20T08:21:05.000Z</time>
      </trkpt>
      <trkpt lat="47.2781" lon="-1.68958">
        <ele>106</ele>
        <time>2013-10-20T08:21:07.000Z</time>
      </trkpt>
      <trkpt lat="47.2781" lon="-1.68958">
        <ele>106</ele>
        <time>2013-10-20T08:21:09.000Z</time>
      </trkpt>
      <trkpt lat="47.2781" lon="-1.68958">
        <ele>106</ele>
        <time>2013-10-20T08:21:11.000Z</time>
      </trkpt>
      <trkpt lat="47.27802" lon="-1.68944">
        <ele>106</ele>
        <time>2013-10-20T08:21:13.000Z</time>
      </trkpt>
      <trkpt lat="47.27802" lon="-1.68944">
        <ele>106</ele>
        <time>2013-10-20T08:21:15.000Z</time>
      </trkpt>
      <trkpt lat="47.27795" lon="-1.68934">
        <ele>106</ele>
        <time>2013-10-20T08:21:17.000Z</time>
      </trkpt>
      <trkpt lat="47.27795" lon="-1.68934">
        <ele>106</ele>
        <time>2013-10-20T08:21:19.000Z</time>
      </trkpt>
      <trkpt lat="47.27795" lon="-1.68934">
        <ele>106</ele>
        <time>2013-10-20T08:21:21.000Z</time>
      </trkpt>
      <trkpt lat="47.27788" lon="-1.68922">
        <ele>106</ele>
        <time>2013-10-20T08:21:23.000Z</time>
      </trkpt>
      <trkpt lat="47.27788" lon="-1.68922">
        <ele>106</ele>
        <time>2013-10-20T08:21:27.000Z</time>
      </trkpt>
      <trkpt lat="47.27742" lon="-1.68943">
        <ele>106</ele>
        <time>2013-10-20T08:21:32.000Z</time>
      </trkpt>
      <trkpt lat="47.27742" lon="-1.68943">
        <ele>106</ele>
        <time>2013-10-20T08:21:34.000Z</time>
      </trkpt>
      <trkpt lat="47.27742" lon="-1.68943">
        <ele>106</ele>
        <time>2013-10-20T08:21:38.000Z</time>
      </trkpt>
      <trkpt lat="47.27747" lon="-1.68917">
        <ele>106</ele>
        <time>2013-10-20T08:21:42.000Z</time>
      </trkpt>
      <trkpt lat="47.27756" lon="-1.68902">
        <ele>106</ele>
        <time>2013-10-20T08:21:46.000Z</time>
      </trkpt>
      <trkpt lat="47.27763" lon="-1.68887">
        <ele>106</ele>
        <time>2013-10-20T08:21:50.000Z</time>
      </trkpt>
      <trkpt lat="47.27772" lon="-1.68882">
        <ele>105</ele>
        <time>2013-10-20T08:21:54.000Z</time>
      </trkpt>
      <trkpt lat="47.2778" lon="-1.68875">
        <ele>105</ele>
        <time>2013-10-20T08:21:56.000Z</time>
      </trkpt>
      <trkpt lat="47.27788" lon="-1.68868">
        <ele>104</ele>
        <time>2013-10-20T08:21:58.000Z</time>
      </trkpt>
      <trkpt lat="47.27794" lon="-1.6886">
        <ele>104</ele>
        <time>2013-10-20T08:22:00.000Z</time>
      </trkpt>
      <trkpt lat="47.27799" lon="-1.68852">
        <ele>104</ele>
        <time>2013-10-20T08:22:02.000Z</time>
      </trkpt>
      <trkpt lat="47.27799" lon="-1.68852">
        <ele>104</ele>
        <time>2013-10-20T08:22:04.000Z</time>
      </trkpt>
      <trkpt lat="47.27808" lon="-1.68835">
        <ele>103</ele>
        <time>2013-10-20T08:22:06.000Z</time>
      </trkpt>
      <trkpt lat="47.27808" lon="-1.68835">
        <ele>103</ele>
        <time>2013-10-20T08:22:08.000Z</time>
      </trkpt>
      <trkpt lat="47.27808" lon="-1.68835">
        <ele>103</ele>
        <time>2013-10-20T08:22:10.000Z</time>
      </trkpt>
      <trkpt lat="47.27808" lon="-1.68835">
        <ele>103</ele>
        <time>2013-10-20T08:22:12.000Z</time>
      </trkpt>
      <trkpt lat="47.27808" lon="-1.68835">
        <ele>103</ele>
        <time>2013-10-20T08:22:15.000Z</time>
      </trkpt>
      <trkpt lat="47.27808" lon="-1.68835">
        <ele>103</ele>
        <time>2013-10-20T08:22:18.000Z</time>
      </trkpt>
      <trkpt lat="47.27808" lon="-1.68835">
        <ele>103</ele>
        <time>2013-10-20T08:22:22.000Z</time>
      </trkpt>
      <trkpt lat="47.2766" lon="-1.6883">
        <ele>102</ele>
        <time>2013-10-20T08:24:00.000Z</time>
      </trkpt>
      <trkpt lat="47.27583" lon="-1.68826">
        <ele>102</ele>
        <time>2013-10-20T08:24:02.000Z</time>
      </trkpt>
      <trkpt lat="47.27539" lon="-1.68822">
        <ele>103</ele>
        <time>2013-10-20T08:24:04.000Z</time>
      </trkpt>
      <trkpt lat="47.27512" lon="-1.68817">
        <ele>103</ele>
        <time>2013-10-20T08:24:06.000Z</time>
      </trkpt>
      <trkpt lat="47.27494" lon="-1.68812">
        <ele>103</ele>
        <time>2013-10-20T08:24:08.000Z</time>
      </trkpt>
      <trkpt lat="47.27466" lon="-1.68803">
        <ele>104</ele>
        <time>2013-10-20T08:24:10.000Z</time>
      </trkpt>
      <trkpt lat="47.27458" lon="-1.68799">
        <ele>106</ele>
        <time>2013-10-20T08:24:12.000Z</time>
      </trkpt>
      <trkpt lat="47.27449" lon="-1.68792">
        <ele>108</ele>
        <time>2013-10-20T08:24:14.000Z</time>
      </trkpt>
      <trkpt lat="47.27441" lon="-1.68788">
        <ele>110</ele>
        <time>2013-10-20T08:24:16.000Z</time>
      </trkpt>
      <trkpt lat="47.27425" lon="-1.68784">
        <ele>112</ele>
        <time>2013-10-20T08:24:20.000Z</time>
      </trkpt>
      <trkpt lat="47.27425" lon="-1.68784">
        <ele>112</ele>
        <time>2013-10-20T08:24:22.000Z</time>
      </trkpt>
      <trkpt lat="47.27425" lon="-1.68784">
        <ele>112</ele>
        <time>2013-10-20T08:24:24.000Z</time>
      </trkpt>
      <trkpt lat="47.27425" lon="-1.68784">
        <ele>112</ele>
        <time>2013-10-20T08:24:26.000Z</time>
      </trkpt>
      <trkpt lat="47.27425" lon="-1.68784">
        <ele>112</ele>
        <time>2013-10-20T08:24:28.000Z</time>
      </trkpt>
      <trkpt lat="47.27425" lon="-1.68784">
        <ele>112</ele>
        <time>2013-10-20T08:24:30.000Z</time>
      </trkpt>
      <trkpt lat="47.27425" lon="-1.68784">
        <ele>112</ele>
        <time>2013-10-20T08:24:32.000Z</time>
      </trkpt>
      <trkpt lat="47.27425" lon="-1.68784">
        <ele>112</ele>
        <time>2013-10-20T08:24:34.000Z</time>
      </trkpt>
      <trkpt lat="47.27425" lon="-1.68784">
        <ele>112</ele>
        <time>2013-10-20T08:24:36.000Z</time>
      </trkpt>
      <trkpt lat="47.27425" lon="-1.68784">
        <ele>112</ele>
        <time>2013-10-20T08:24:38.000Z</time>
      </trkpt>
      <trkpt lat="47.27425" lon="-1.68784">
        <ele>112</ele>
        <time>2013-10-20T08:24:40.000Z</time>
      </trkpt>
      <trkpt lat="47.27425" lon="-1.68784">
        <ele>112</ele>
        <time>2013-10-20T08:24:42.000Z</time>
      </trkpt>
      <trkpt lat="47.27425" lon="-1.68784">
        <ele>112</ele>
        <time>2013-10-20T08:24:44.000Z</time>
      </trkpt>
      <trkpt lat="47.27425" lon="-1.68784">
        <ele>112</ele>
        <time>2013-10-20T08:24:46.000Z</time>
      </trkpt>
      <trkpt lat="47.27349" lon="-1.68872">
        <ele>113</ele>
        <time>2013-10-20T08:24:52.000Z</time>
      </trkpt>
      <trkpt lat="47.27339" lon="-1.68887">
        <ele>114</ele>
        <time>2013-10-20T08:24:56.000Z</time>
      </trkpt>
      <trkpt lat="47.27328" lon="-1.68902">
        <ele>114</ele>
        <time>2013-10-20T08:25:00.000Z</time>
      </trkpt>
      <trkpt lat="47.27318" lon="-1.68917">
        <ele>114</ele>
        <time>2013-10-20T08:25:04.000Z</time>
      </trkpt>
      <trkpt lat="47.2731" lon="-1.68932">
        <ele>114</ele>
        <time>2013-10-20T08:25:08.000Z</time>
      </trkpt>
      <trkpt lat="47.2731" lon="-1.68932">
        <ele>114</ele>
        <time>2013-10-20T08:25:10.000Z</time>
      </trkpt>
      <trkpt lat="47.2731" lon="-1.68932">
        <ele>114</ele>
        <time>2013-10-20T08:25:12.000Z</time>
      </trkpt>
      <trkpt lat="47.2731" lon="-1.68932">
        <ele>114</ele>
        <time>2013-10-20T08:25:14.000Z</time>
      </trkpt>
      <trkpt lat="47.2731" lon="-1.68932">
        <ele>114</ele>
        <time>2013-10-20T08:25:33.000Z</time>
      </trkpt>
      <trkpt lat="47.2731" lon="-1.68932">
        <ele>114</ele>
        <time>2013-10-20T08:26:12.000Z</time>
      </trkpt>
      <trkpt lat="47.27286" lon="-1.68931">
        <ele>117</ele>
        <time>2013-10-20T08:27:54.000Z</time>
      </trkpt>
      <trkpt lat="47.27273" lon="-1.68929">
        <ele>117</ele>
        <time>2013-10-20T08:27:56.000Z</time>
      </trkpt>
      <trkpt lat="47.27264" lon="-1.68926">
        <ele>117</ele>
        <time>2013-10-20T08:27:58.000Z</time>
      </trkpt>
      <trkpt lat="47.27257" lon="-1.68924">
        <ele>118</ele>
        <time>2013-10-20T08:28:00.000Z</time>
      </trkpt>
      <trkpt lat="47.27251" lon="-1.6892">
        <ele>118</ele>
        <time>2013-10-20T08:28:02.000Z</time>
      </trkpt>
      <trkpt lat="47.2724" lon="-1.68915">
        <ele>118</ele>
        <time>2013-10-20T08:28:04.000Z</time>
      </trkpt>
      <trkpt lat="47.27229" lon="-1.68906">
        <ele>118</ele>
        <time>2013-10-20T08:28:08.000Z</time>
      </trkpt>
      <trkpt lat="47.27217" lon="-1.68898">
        <ele>118</ele>
        <time>2013-10-20T08:28:12.000Z</time>
      </trkpt>
      <trkpt lat="47.27206" lon="-1.68891">
        <ele>119</ele>
        <time>2013-10-20T08:28:16.000Z</time>
      </trkpt>
      <trkpt lat="47.27194" lon="-1.68885">
        <ele>119</ele>
        <time>2013-10-20T08:28:20.000Z</time>
      </trkpt>
      <trkpt lat="47.27181" lon="-1.68878">
        <ele>119</ele>
        <time>2013-10-20T08:28:24.000Z</time>
      </trkpt>
      <trkpt lat="47.2717" lon="-1.68872">
        <ele>119</ele>
        <time>2013-10-20T08:28:28.000Z</time>
      </trkpt>
      <trkpt lat="47.2716" lon="-1.68863">
        <ele>120</ele>
        <time>2013-10-20T08:28:32.000Z</time>
      </trkpt>
      <trkpt lat="47.27149" lon="-1.6885">
        <ele>120</ele>
        <time>2013-10-20T08:28:36.000Z</time>
      </trkpt>
      <trkpt lat="47.27139" lon="-1.6884">
        <ele>120</ele>
        <time>2013-10-20T08:28:40.000Z</time>
      </trkpt>
      <trkpt lat="47.27131" lon="-1.68825">
        <ele>120</ele>
        <time>2013-10-20T08:28:44.000Z</time>
      </trkpt>
      <trkpt lat="47.27121" lon="-1.68814">
        <ele>120</ele>
        <time>2013-10-20T08:28:48.000Z</time>
      </trkpt>
      <trkpt lat="47.2711" lon="-1.68801">
        <ele>120</ele>
        <time>2013-10-20T08:28:52.000Z</time>
      </trkpt>
      <trkpt lat="47.2711" lon="-1.68801">
        <ele>120</ele>
        <time>2013-10-20T08:29:00.000Z</time>
      </trkpt>
      <trkpt lat="47.2711" lon="-1.68801">
        <ele>120</ele>
        <time>2013-10-20T08:29:02.000Z</time>
      </trkpt>
      <trkpt lat="47.2711" lon="-1.68801">
        <ele>120</ele>
        <time>2013-10-20T08:29:04.000Z</time>
      </trkpt>
      <trkpt lat="47.2711" lon="-1.68801">
        <ele>120</ele>
        <time>2013-10-20T08:29:06.000Z</time>
      </trkpt>
      <trkpt lat="47.2711" lon="-1.68801">
        <ele>120</ele>
        <time>2013-10-20T08:29:10.000Z</time>
      </trkpt>
      <trkpt lat="47.27092" lon="-1.68739">
        <ele>120</ele>
        <time>2013-10-20T08:29:12.000Z</time>
      </trkpt>
      <trkpt lat="47.27099" lon="-1.6873">
        <ele>120</ele>
        <time>2013-10-20T08:29:14.000Z</time>
      </trkpt>
      <trkpt lat="47.2711" lon="-1.68711">
        <ele>119</ele>
        <time>2013-10-20T08:29:17.000Z</time>
      </trkpt>
      <trkpt lat="47.27116" lon="-1.68692">
        <ele>119</ele>
        <time>2013-10-20T08:29:21.000Z</time>
      </trkpt>
      <trkpt lat="47.27114" lon="-1.6867">
        <ele>118</ele>
        <time>2013-10-20T08:29:25.000Z</time>
      </trkpt>
      <trkpt lat="47.27106" lon="-1.68649">
        <ele>116</ele>
        <time>2013-10-20T08:29:29.000Z</time>
      </trkpt>
      <trkpt lat="47.27106" lon="-1.68649">
        <ele>116</ele>
        <time>2013-10-20T08:29:31.000Z</time>
      </trkpt>
      <trkpt lat="47.27105" lon="-1.68623">
        <ele>115</ele>
        <time>2013-10-20T08:29:33.000Z</time>
      </trkpt>
      <trkpt lat="47.27112" lon="-1.68595">
        <ele>114</ele>
        <time>2013-10-20T08:29:37.000Z</time>
      </trkpt>
      <trkpt lat="47.27113" lon="-1.68571">
        <ele>114</ele>
        <time>2013-10-20T08:29:41.000Z</time>
      </trkpt>
      <trkpt lat="47.27114" lon="-1.68556">
        <ele>114</ele>
        <time>2013-10-20T08:29:43.000Z</time>
      </trkpt>
      <trkpt lat="47.27114" lon="-1.68556">
        <ele>114</ele>
        <time>2013-10-20T08:29:48.000Z</time>
      </trkpt>
      <trkpt lat="47.27114" lon="-1.68556">
        <ele>114</ele>
        <time>2013-10-20T08:29:50.000Z</time>
      </trkpt>
      <trkpt lat="47.27114" lon="-1.68556">
        <ele>114</ele>
        <time>2013-10-20T08:29:52.000Z</time>
      </trkpt>
      <trkpt lat="47.27114" lon="-1.68556">
        <ele>114</ele>
        <time>2013-10-20T08:29:54.000Z</time>
      </trkpt>
      <trkpt lat="47.27114" lon="-1.68556">
        <ele>114</ele>
        <time>2013-10-20T08:29:56.000Z</time>
      </trkpt>
      <trkpt lat="47.27132" lon="-1.68529">
        <ele>108</ele>
        <time>2013-10-20T08:30:00.000Z</time>
      </trkpt>
      <trkpt lat="47.27145" lon="-1.68514">
        <ele>108</ele>
        <time>2013-10-20T08:30:02.000Z</time>
      </trkpt>
      <trkpt lat="47.27157" lon="-1.68504">
        <ele>108</ele>
        <time>2013-10-20T08:30:04.000Z</time>
      </trkpt>
      <trkpt lat="47.27167" lon="-1.68496">
        <ele>108</ele>
        <time>2013-10-20T08:30:06.000Z</time>
      </trkpt>
      <trkpt lat="47.27175" lon="-1.68486">
        <ele>108</ele>
        <time>2013-10-20T08:30:08.000Z</time>
      </trkpt>
      <trkpt lat="47.27192" lon="-1.68462">
        <ele>108</ele>
        <time>2013-10-20T08:30:10.000Z</time>
      </trkpt>
      <trkpt lat="47.27199" lon="-1.68451">
        <ele>107</ele>
        <time>2013-10-20T08:30:12.000Z</time>
      </trkpt>
      <trkpt lat="47.27207" lon="-1.68438">
        <ele>107</ele>
        <time>2013-10-20T08:30:14.000Z</time>
      </trkpt>
      <trkpt lat="47.27215" lon="-1.68428">
        <ele>107</ele>
        <time>2013-10-20T08:30:16.000Z</time>
      </trkpt>
      <trkpt lat="47.27223" lon="-1.68417">
        <ele>107</ele>
        <time>2013-10-20T08:30:18.000Z</time>
      </trkpt>
      <trkpt lat="47.27223" lon="-1.68417">
        <ele>107</ele>
        <time>2013-10-20T08:30:20.000Z</time>
      </trkpt>
      <trkpt lat="47.27223" lon="-1.68417">
        <ele>107</ele>
        <time>2013-10-20T08:30:22.000Z</time>
      </trkpt>
      <trkpt lat="47.27223" lon="-1.68417">
        <ele>107</ele>
        <time>2013-10-20T08:30:24.000Z</time>
      </trkpt>
      <trkpt lat="47.27223" lon="-1.68417">
        <ele>107</ele>
        <time>2013-10-20T08:30:26.000Z</time>
      </trkpt>
      <trkpt lat="47.27231" lon="-1.68405">
        <ele>106</ele>
        <time>2013-10-20T08:30:29.000Z</time>
      </trkpt>
      <trkpt lat="47.27196" lon="-1.68353">
        <ele>105</ele>
        <time>2013-10-20T08:30:31.000Z</time>
      </trkpt>
      <trkpt lat="47.27186" lon="-1.6834">
        <ele>105</ele>
        <time>2013-10-20T08:30:33.000Z</time>
      </trkpt>
      <trkpt lat="47.27179" lon="-1.68327">
        <ele>105</ele>
        <time>2013-10-20T08:30:35.000Z</time>
      </trkpt>
      <trkpt lat="47.27171" lon="-1.68316">
        <ele>105</ele>
        <time>2013-10-20T08:30:37.000Z</time>
      </trkpt>
      <trkpt lat="47.27165" lon="-1.68305">
        <ele>105</ele>
        <time>2013-10-20T08:30:39.000Z</time>
      </trkpt>
      <trkpt lat="47.27165" lon="-1.68305">
        <ele>105</ele>
        <time>2013-10-20T08:30:43.000Z</time>
      </trkpt>
      <trkpt lat="47.27165" lon="-1.68305">
        <ele>105</ele>
        <time>2013-10-20T08:30:45.000Z</time>
      </trkpt>
      <trkpt lat="47.27165" lon="-1.68305">
        <ele>105</ele>
        <time>2013-10-20T08:30:47.000Z</time>
      </trkpt>
      <trkpt lat="47.27165" lon="-1.68305">
        <ele>105</ele>
        <time>2013-10-20T08:30:49.000Z</time>
      </trkpt>
      <trkpt lat="47.27165" lon="-1.68305">
        <ele>105</ele>
        <time>2013-10-20T08:30:51.000Z</time>
      </trkpt>
      <trkpt lat="47.27165" lon="-1.68305">
        <ele>105</ele>
        <time>2013-10-20T08:30:53.000Z</time>
      </trkpt>
      <trkpt lat="47.27165" lon="-1.68305">
        <ele>105</ele>
        <time>2013-10-20T08:31:01.000Z</time>
      </trkpt>
      <trkpt lat="47.27116" lon="-1.68224">
        <ele>104</ele>
        <time>2013-10-20T08:31:43.000Z</time>
      </trkpt>
      <trkpt lat="47.2711" lon="-1.68213">
        <ele>104</ele>
        <time>2013-10-20T08:31:47.000Z</time>
      </trkpt>
      <trkpt lat="47.271" lon="-1.682">
        <ele>104</ele>
        <time>2013-10-20T08:31:51.000Z</time>
      </trkpt>
      <trkpt lat="47.27088" lon="-1.68185">
        <ele>103</ele>
        <time>2013-10-20T08:31:55.000Z</time>
      </trkpt>
      <trkpt lat="47.27077" lon="-1.68166">
        <ele>102</ele>
        <time>2013-10-20T08:31:59.000Z</time>
      </trkpt>
      <trkpt lat="47.27071" lon="-1.68144">
        <ele>103</ele>
        <time>2013-10-20T08:32:03.000Z</time>
      </trkpt>
      <trkpt lat="47.27071" lon="-1.68144">
        <ele>103</ele>
        <time>2013-10-20T08:32:05.000Z</time>
      </trkpt>
      <trkpt lat="47.27071" lon="-1.68144">
        <ele>103</ele>
        <time>2013-10-20T08:32:24.000Z</time>
      </trkpt>
      <trkpt lat="47.27071" lon="-1.68144">
        <ele>103</ele>
        <time>2013-10-20T08:32:46.000Z</time>
      </trkpt>
      <trkpt lat="47.27065" lon="-1.68125">
        <ele>102</ele>
        <time>2013-10-20T08:33:33.000Z</time>
      </trkpt>
      <trkpt lat="47.27057" lon="-1.68061">
        <ele>100</ele>
        <time>2013-10-20T08:33:43.000Z</time>
      </trkpt>
      <trkpt lat="47.27053" lon="-1.68048">
        <ele>100</ele>
        <time>2013-10-20T08:33:45.000Z</time>
      </trkpt>
      <trkpt lat="47.27048" lon="-1.68024">
        <ele>99</ele>
        <time>2013-10-20T08:33:49.000Z</time>
      </trkpt>
      <trkpt lat="47.27044" lon="-1.68003">
        <ele>98</ele>
        <time>2013-10-20T08:33:53.000Z</time>
      </trkpt>
      <trkpt lat="47.27044" lon="-1.68003">
        <ele>98</ele>
        <time>2013-10-20T08:33:55.000Z</time>
      </trkpt>
      <trkpt lat="47.27044" lon="-1.68003">
        <ele>98</ele>
        <time>2013-10-20T08:33:57.000Z</time>
      </trkpt>
      <trkpt lat="47.27044" lon="-1.68003">
        <ele>98</ele>
        <time>2013-10-20T08:33:59.000Z</time>
      </trkpt>
      <trkpt lat="47.27044" lon="-1.68003">
        <ele>98</ele>
        <time>2013-10-20T08:34:01.000Z</time>
      </trkpt>
      <trkpt lat="47.27044" lon="-1.68003">
        <ele>98</ele>
        <time>2013-10-20T08:34:03.000Z</time>
      </trkpt>
      <trkpt lat="47.27044" lon="-1.68003">
        <ele>98</ele>
        <time>2013-10-20T08:34:05.000Z</time>
      </trkpt>
      <trkpt lat="47.27044" lon="-1.68003">
        <ele>98</ele>
        <time>2013-10-20T08:34:07.000Z</time>
      </trkpt>
      <trkpt lat="47.27044" lon="-1.68003">
        <ele>98</ele>
        <time>2013-10-20T08:34:09.000Z</time>
      </trkpt>
      <trkpt lat="47.27044" lon="-1.68003">
        <ele>98</ele>
        <time>2013-10-20T08:34:11.000Z</time>
      </trkpt>
      <trkpt lat="47.27044" lon="-1.68003">
        <ele>98</ele>
        <time>2013-10-20T08:34:13.000Z</time>
      </trkpt>
      <trkpt lat="47.27047" lon="-1.67949">
        <ele>96</ele>
        <time>2013-10-20T08:34:15.000Z</time>
      </trkpt>
      <trkpt lat="47.27053" lon="-1.67915">
        <ele>96</ele>
        <time>2013-10-20T08:34:17.000Z</time>
      </trkpt>
      <trkpt lat="47.2706" lon="-1.67891">
        <ele>95</ele>
        <time>2013-10-20T08:34:19.000Z</time>
      </trkpt>
      <trkpt lat="47.27066" lon="-1.67872">
        <ele>95</ele>
        <time>2013-10-20T08:34:21.000Z</time>
      </trkpt>
      <trkpt lat="47.27072" lon="-1.67855">
        <ele>93</ele>
        <time>2013-10-20T08:34:23.000Z</time>
      </trkpt>
      <trkpt lat="47.27082" lon="-1.67825">
        <ele>93</ele>
        <time>2013-10-20T08:34:25.000Z</time>
      </trkpt>
      <trkpt lat="47.27082" lon="-1.67825">
        <ele>93</ele>
        <time>2013-10-20T08:34:27.000Z</time>
      </trkpt>
      <trkpt lat="47.27089" lon="-1.67807">
        <ele>93</ele>
        <time>2013-10-20T08:34:29.000Z</time>
      </trkpt>
      <trkpt lat="47.27089" lon="-1.67807">
        <ele>93</ele>
        <time>2013-10-20T08:34:31.000Z</time>
      </trkpt>
      <trkpt lat="47.27096" lon="-1.67784">
        <ele>92</ele>
        <time>2013-10-20T08:34:33.000Z</time>
      </trkpt>
      <trkpt lat="47.27102" lon="-1.67767">
        <ele>87</ele>
        <time>2013-10-20T08:34:35.000Z</time>
      </trkpt>
      <trkpt lat="47.27107" lon="-1.6775">
        <ele>84</ele>
        <time>2013-10-20T08:34:37.000Z</time>
      </trkpt>
      <trkpt lat="47.27104" lon="-1.67726">
        <ele>80</ele>
        <time>2013-10-20T08:34:39.000Z</time>
      </trkpt>
      <trkpt lat="47.27099" lon="-1.67702">
        <ele>78</ele>
        <time>2013-10-20T08:34:41.000Z</time>
      </trkpt>
      <trkpt lat="47.27095" lon="-1.67683">
        <ele>76</ele>
        <time>2013-10-20T08:34:43.000Z</time>
      </trkpt>
      <trkpt lat="47.27091" lon="-1.67664">
        <ele>76</ele>
        <time>2013-10-20T08:34:45.000Z</time>
      </trkpt>
      <trkpt lat="47.27088" lon="-1.67645">
        <ele>77</ele>
        <time>2013-10-20T08:34:47.000Z</time>
      </trkpt>
      <trkpt lat="47.27085" lon="-1.67627">
        <ele>77</ele>
        <time>2013-10-20T08:34:49.000Z</time>
      </trkpt>
      <trkpt lat="47.27079" lon="-1.67599">
        <ele>78</ele>
        <time>2013-10-20T08:34:53.000Z</time>
      </trkpt>
      <trkpt lat="47.27079" lon="-1.67599">
        <ele>78</ele>
        <time>2013-10-20T08:34:55.000Z</time>
      </trkpt>
      <trkpt lat="47.27073" lon="-1.67575">
        <ele>78</ele>
        <time>2013-10-20T08:34:57.000Z</time>
      </trkpt>
      <trkpt lat="47.27073" lon="-1.67575">
        <ele>78</ele>
        <time>2013-10-20T08:34:59.000Z</time>
      </trkpt>
      <trkpt lat="47.27068" lon="-1.67551">
        <ele>78</ele>
        <time>2013-10-20T08:35:01.000Z</time>
      </trkpt>
      <trkpt lat="47.27065" lon="-1.67537">
        <ele>79</ele>
        <time>2013-10-20T08:35:03.000Z</time>
      </trkpt>
      <trkpt lat="47.27059" lon="-1.67513">
        <ele>82</ele>
        <time>2013-10-20T08:35:07.000Z</time>
      </trkpt>
      <trkpt lat="47.27059" lon="-1.67513">
        <ele>82</ele>
        <time>2013-10-20T08:35:09.000Z</time>
      </trkpt>
      <trkpt lat="47.27055" lon="-1.67495">
        <ele>84</ele>
        <time>2013-10-20T08:35:11.000Z</time>
      </trkpt>
      <trkpt lat="47.27055" lon="-1.67495">
        <ele>84</ele>
        <time>2013-10-20T08:35:13.000Z</time>
      </trkpt>
      <trkpt lat="47.2705" lon="-1.67474">
        <ele>87</ele>
        <time>2013-10-20T08:35:15.000Z</time>
      </trkpt>
      <trkpt lat="47.2705" lon="-1.67474">
        <ele>87</ele>
        <time>2013-10-20T08:35:17.000Z</time>
      </trkpt>
      <trkpt lat="47.27045" lon="-1.67454">
        <ele>92</ele>
        <time>2013-10-20T08:35:19.000Z</time>
      </trkpt>
      <trkpt lat="47.27045" lon="-1.67454">
        <ele>92</ele>
        <time>2013-10-20T08:35:21.000Z</time>
      </trkpt>
      <trkpt lat="47.2704" lon="-1.6743">
        <ele>94</ele>
        <time>2013-10-20T08:35:23.000Z</time>
      </trkpt>
      <trkpt lat="47.2704" lon="-1.6743">
        <ele>94</ele>
        <time>2013-10-20T08:35:25.000Z</time>
      </trkpt>
      <trkpt lat="47.27036" lon="-1.6741">
        <ele>94</ele>
        <time>2013-10-20T08:35:27.000Z</time>
      </trkpt>
      <trkpt lat="47.27036" lon="-1.6741">
        <ele>94</ele>
        <time>2013-10-20T08:35:29.000Z</time>
      </trkpt>
      <trkpt lat="47.2703" lon="-1.67386">
        <ele>94</ele>
        <time>2013-10-20T08:35:31.000Z</time>
      </trkpt>
      <trkpt lat="47.2703" lon="-1.67386">
        <ele>94</ele>
        <time>2013-10-20T08:35:33.000Z</time>
      </trkpt>
      <trkpt lat="47.27025" lon="-1.67365">
        <ele>94</ele>
        <time>2013-10-20T08:35:35.000Z</time>
      </trkpt>
      <trkpt lat="47.27022" lon="-1.67352">
        <ele>93</ele>
        <time>2013-10-20T08:35:37.000Z</time>
      </trkpt>
      <trkpt lat="47.2708" lon="-1.67312">
        <ele>93</ele>
        <time>2013-10-20T08:35:39.000Z</time>
      </trkpt>
      <trkpt lat="47.27083" lon="-1.67297">
        <ele>92</ele>
        <time>2013-10-20T08:35:41.000Z</time>
      </trkpt>
      <trkpt lat="47.2708" lon="-1.67284">
        <ele>91</ele>
        <time>2013-10-20T08:35:43.000Z</time>
      </trkpt>
      <trkpt lat="47.27074" lon="-1.67273">
        <ele>92</ele>
        <time>2013-10-20T08:35:45.000Z</time>
      </trkpt>
      <trkpt lat="47.27066" lon="-1.67263">
        <ele>92</ele>
        <time>2013-10-20T08:35:47.000Z</time>
      </trkpt>
      <trkpt lat="47.27058" lon="-1.67258">
        <ele>93</ele>
        <time>2013-10-20T08:35:49.000Z</time>
      </trkpt>
      <trkpt lat="47.27045" lon="-1.67252">
        <ele>94</ele>
        <time>2013-10-20T08:35:52.000Z</time>
      </trkpt>
      <trkpt lat="47.27037" lon="-1.67248">
        <ele>94</ele>
        <time>2013-10-20T08:35:54.000Z</time>
      </trkpt>
      <trkpt lat="47.27037" lon="-1.67248">
        <ele>94</ele>
        <time>2013-10-20T08:35:56.000Z</time>
      </trkpt>
      <trkpt lat="47.27021" lon="-1.6724">
        <ele>93</ele>
        <time>2013-10-20T08:35:58.000Z</time>
      </trkpt>
      <trkpt lat="47.27004" lon="-1.67243">
        <ele>92</ele>
        <time>2013-10-20T08:36:02.000Z</time>
      </trkpt>
      <trkpt lat="47.26995" lon="-1.67248">
        <ele>92</ele>
        <time>2013-10-20T08:36:04.000Z</time>
      </trkpt>
      <trkpt lat="47.26987" lon="-1.67252">
        <ele>92</ele>
        <time>2013-10-20T08:36:06.000Z</time>
      </trkpt>
      <trkpt lat="47.26978" lon="-1.67256">
        <ele>92</ele>
        <time>2013-10-20T08:36:08.000Z</time>
      </trkpt>
      <trkpt lat="47.2697" lon="-1.6726">
        <ele>92</ele>
        <time>2013-10-20T08:36:10.000Z</time>
      </trkpt>
      <trkpt lat="47.2696" lon="-1.67265">
        <ele>92</ele>
        <time>2013-10-20T08:36:12.000Z</time>
      </trkpt>
      <trkpt lat="47.26943" lon="-1.6726">
        <ele>91</ele>
        <time>2013-10-20T08:36:16.000Z</time>
      </trkpt>
      <trkpt lat="47.26943" lon="-1.6726">
        <ele>91</ele>
        <time>2013-10-20T08:36:18.000Z</time>
      </trkpt>
      <trkpt lat="47.26926" lon="-1.67265">
        <ele>90</ele>
        <time>2013-10-20T08:36:20.000Z</time>
      </trkpt>
      <trkpt lat="47.26926" lon="-1.67265">
        <ele>90</ele>
        <time>2013-10-20T08:36:22.000Z</time>
      </trkpt>
      <trkpt lat="47.26907" lon="-1.67269">
        <ele>89</ele>
        <time>2013-10-20T08:36:24.000Z</time>
      </trkpt>
      <trkpt lat="47.26897" lon="-1.67272">
        <ele>88</ele>
        <time>2013-10-20T08:36:26.000Z</time>
      </trkpt>
      <trkpt lat="47.26886" lon="-1.67267">
        <ele>88</ele>
        <time>2013-10-20T08:36:28.000Z</time>
      </trkpt>
      <trkpt lat="47.26876" lon="-1.67265">
        <ele>88</ele>
        <time>2013-10-20T08:36:30.000Z</time>
      </trkpt>
      <trkpt lat="47.26876" lon="-1.67265">
        <ele>88</ele>
        <time>2013-10-20T08:36:32.000Z</time>
      </trkpt>
      <trkpt lat="47.2686" lon="-1.67252">
        <ele>89</ele>
        <time>2013-10-20T08:36:34.000Z</time>
      </trkpt>
      <trkpt lat="47.26852" lon="-1.67245">
        <ele>89</ele>
        <time>2013-10-20T08:36:36.000Z</time>
      </trkpt>
      <trkpt lat="47.26852" lon="-1.6722">
        <ele>89</ele>
        <time>2013-10-20T08:36:38.000Z</time>
      </trkpt>
      <trkpt lat="47.26849" lon="-1.67205">
        <ele>89</ele>
        <time>2013-10-20T08:36:40.000Z</time>
      </trkpt>
      <trkpt lat="47.26847" lon="-1.67179">
        <ele>89</ele>
        <time>2013-10-20T08:36:44.000Z</time>
      </trkpt>
      <trkpt lat="47.26847" lon="-1.67179">
        <ele>89</ele>
        <time>2013-10-20T08:36:46.000Z</time>
      </trkpt>
      <trkpt lat="47.26847" lon="-1.67179">
        <ele>89</ele>
        <time>2013-10-20T08:36:49.000Z</time>
      </trkpt>
      <trkpt lat="47.26847" lon="-1.67179">
        <ele>89</ele>
        <time>2013-10-20T08:37:08.000Z</time>
      </trkpt>
      <trkpt lat="47.26847" lon="-1.67179">
        <ele>89</ele>
        <time>2013-10-20T08:38:08.000Z</time>
      </trkpt>
      <trkpt lat="47.26825" lon="-1.67138">
        <ele>88</ele>
        <time>2013-10-20T08:40:11.000Z</time>
      </trkpt>
      <trkpt lat="47.26815" lon="-1.67116">
        <ele>88</ele>
        <time>2013-10-20T08:40:13.000Z</time>
      </trkpt>
      <trkpt lat="47.26812" lon="-1.67103">
        <ele>88</ele>
        <time>2013-10-20T08:40:15.000Z</time>
      </trkpt>
      <trkpt lat="47.26812" lon="-1.67095">
        <ele>88</ele>
        <time>2013-10-20T08:40:17.000Z</time>
      </trkpt>
      <trkpt lat="47.26817" lon="-1.67094">
        <ele>89</ele>
        <time>2013-10-20T08:40:21.000Z</time>
      </trkpt>
      <trkpt lat="47.26824" lon="-1.67096">
        <ele>89</ele>
        <time>2013-10-20T08:40:23.000Z</time>
      </trkpt>
      <trkpt lat="47.2683" lon="-1.671">
        <ele>89</ele>
        <time>2013-10-20T08:40:25.000Z</time>
      </trkpt>
      <trkpt lat="47.26836" lon="-1.67105">
        <ele>89</ele>
        <time>2013-10-20T08:40:27.000Z</time>
      </trkpt>
      <trkpt lat="47.26842" lon="-1.67112">
        <ele>90</ele>
        <time>2013-10-20T08:40:29.000Z</time>
      </trkpt>
      <trkpt lat="47.26853" lon="-1.67127">
        <ele>90</ele>
        <time>2013-10-20T08:40:31.000Z</time>
      </trkpt>
      <trkpt lat="47.26865" lon="-1.67136">
        <ele>90</ele>
        <time>2013-10-20T08:40:35.000Z</time>
      </trkpt>
      <trkpt lat="47.26874" lon="-1.67136">
        <ele>90</ele>
        <time>2013-10-20T08:40:37.000Z</time>
      </trkpt>
      <trkpt lat="47.26885" lon="-1.67134">
        <ele>91</ele>
        <time>2013-10-20T08:40:39.000Z</time>
      </trkpt>
      <trkpt lat="47.26893" lon="-1.67123">
        <ele>91</ele>
        <time>2013-10-20T08:40:41.000Z</time>
      </trkpt>
      <trkpt lat="47.26901" lon="-1.67108">
        <ele>91</ele>
        <time>2013-10-20T08:40:43.000Z</time>
      </trkpt>
      <trkpt lat="47.26908" lon="-1.67093">
        <ele>92</ele>
        <time>2013-10-20T08:40:45.000Z</time>
      </trkpt>
      <trkpt lat="47.26918" lon="-1.67076">
        <ele>92</ele>
        <time>2013-10-20T08:40:47.000Z</time>
      </trkpt>
      <trkpt lat="47.26922" lon="-1.67057">
        <ele>92</ele>
        <time>2013-10-20T08:40:49.000Z</time>
      </trkpt>
      <trkpt lat="47.26923" lon="-1.67037">
        <ele>92</ele>
        <time>2013-10-20T08:40:51.000Z</time>
      </trkpt>
      <trkpt lat="47.26923" lon="-1.67018">
        <ele>91</ele>
        <time>2013-10-20T08:40:53.000Z</time>
      </trkpt>
      <trkpt lat="47.26923" lon="-1.67001">
        <ele>90</ele>
        <time>2013-10-20T08:40:55.000Z</time>
      </trkpt>
      <trkpt lat="47.26926" lon="-1.66984">
        <ele>90</ele>
        <time>2013-10-20T08:40:57.000Z</time>
      </trkpt>
      <trkpt lat="47.26929" lon="-1.66969">
        <ele>89</ele>
        <time>2013-10-20T08:40:59.000Z</time>
      </trkpt>
      <trkpt lat="47.26931" lon="-1.66954">
        <ele>89</ele>
        <time>2013-10-20T08:41:01.000Z</time>
      </trkpt>
      <trkpt lat="47.26931" lon="-1.66936">
        <ele>89</ele>
        <time>2013-10-20T08:41:03.000Z</time>
      </trkpt>
      <trkpt lat="47.26932" lon="-1.66919">
        <ele>88</ele>
        <time>2013-10-20T08:41:05.000Z</time>
      </trkpt>
      <trkpt lat="47.26931" lon="-1.66904">
        <ele>88</ele>
        <time>2013-10-20T08:41:07.000Z</time>
      </trkpt>
      <trkpt lat="47.26928" lon="-1.66887">
        <ele>87</ele>
        <time>2013-10-20T08:41:09.000Z</time>
      </trkpt>
      <trkpt lat="47.26923" lon="-1.66872">
        <ele>87</ele>
        <time>2013-10-20T08:41:11.000Z</time>
      </trkpt>
      <trkpt lat="47.26919" lon="-1.66857">
        <ele>87</ele>
        <time>2013-10-20T08:41:13.000Z</time>
      </trkpt>
      <trkpt lat="47.26915" lon="-1.66842">
        <ele>87</ele>
        <time>2013-10-20T08:41:15.000Z</time>
      </trkpt>
      <trkpt lat="47.26911" lon="-1.66829">
        <ele>87</ele>
        <time>2013-10-20T08:41:17.000Z</time>
      </trkpt>
      <trkpt lat="47.26907" lon="-1.66813">
        <ele>87</ele>
        <time>2013-10-20T08:41:19.000Z</time>
      </trkpt>
      <trkpt lat="47.26902" lon="-1.66798">
        <ele>87</ele>
        <time>2013-10-20T08:41:21.000Z</time>
      </trkpt>
      <trkpt lat="47.26898" lon="-1.66784">
        <ele>87</ele>
        <time>2013-10-20T08:41:23.000Z</time>
      </trkpt>
      <trkpt lat="47.26898" lon="-1.66784">
        <ele>87</ele>
        <time>2013-10-20T08:41:25.000Z</time>
      </trkpt>
      <trkpt lat="47.26892" lon="-1.66762">
        <ele>87</ele>
        <time>2013-10-20T08:41:27.000Z</time>
      </trkpt>
      <trkpt lat="47.26892" lon="-1.66762">
        <ele>87</ele>
        <time>2013-10-20T08:41:29.000Z</time>
      </trkpt>
      <trkpt lat="47.26886" lon="-1.6674">
        <ele>87</ele>
        <time>2013-10-20T08:41:31.000Z</time>
      </trkpt>
      <trkpt lat="47.26886" lon="-1.6674">
        <ele>87</ele>
        <time>2013-10-20T08:41:33.000Z</time>
      </trkpt>
      <trkpt lat="47.26879" lon="-1.66716">
        <ele>87</ele>
        <time>2013-10-20T08:41:35.000Z</time>
      </trkpt>
      <trkpt lat="47.26817" lon="-1.66737">
        <ele>87</ele>
        <time>2013-10-20T08:41:37.000Z</time>
      </trkpt>
      <trkpt lat="47.2681" lon="-1.66726">
        <ele>87</ele>
        <time>2013-10-20T08:41:39.000Z</time>
      </trkpt>
      <trkpt lat="47.26803" lon="-1.66715">
        <ele>87</ele>
        <time>2013-10-20T08:41:41.000Z</time>
      </trkpt>
      <trkpt lat="47.26803" lon="-1.66715">
        <ele>87</ele>
        <time>2013-10-20T08:41:43.000Z</time>
      </trkpt>
      <trkpt lat="47.26792" lon="-1.66696">
        <ele>88</ele>
        <time>2013-10-20T08:41:45.000Z</time>
      </trkpt>
      <trkpt lat="47.26792" lon="-1.66696">
        <ele>88</ele>
        <time>2013-10-20T08:41:47.000Z</time>
      </trkpt>
      <trkpt lat="47.26781" lon="-1.66678">
        <ele>89</ele>
        <time>2013-10-20T08:41:49.000Z</time>
      </trkpt>
      <trkpt lat="47.26774" lon="-1.66667">
        <ele>90</ele>
        <time>2013-10-20T08:41:51.000Z</time>
      </trkpt>
      <trkpt lat="47.26768" lon="-1.66657">
        <ele>91</ele>
        <time>2013-10-20T08:41:53.000Z</time>
      </trkpt>
      <trkpt lat="47.26762" lon="-1.66646">
        <ele>92</ele>
        <time>2013-10-20T08:41:55.000Z</time>
      </trkpt>
      <trkpt lat="47.26751" lon="-1.66629">
        <ele>92</ele>
        <time>2013-10-20T08:41:59.000Z</time>
      </trkpt>
      <trkpt lat="47.26751" lon="-1.66629">
        <ele>92</ele>
        <time>2013-10-20T08:42:01.000Z</time>
      </trkpt>
      <trkpt lat="47.26744" lon="-1.66617">
        <ele>92</ele>
        <time>2013-10-20T08:42:03.000Z</time>
      </trkpt>
      <trkpt lat="47.26744" lon="-1.66617">
        <ele>92</ele>
        <time>2013-10-20T08:42:05.000Z</time>
      </trkpt>
      <trkpt lat="47.26744" lon="-1.66617">
        <ele>92</ele>
        <time>2013-10-20T08:42:11.000Z</time>
      </trkpt>
      <trkpt lat="47.2667" lon="-1.66567">
        <ele>87</ele>
        <time>2013-10-20T08:43:47.000Z</time>
      </trkpt>
      <trkpt lat="47.26667" lon="-1.66554">
        <ele>87</ele>
        <time>2013-10-20T08:43:49.000Z</time>
      </trkpt>
      <trkpt lat="47.26664" lon="-1.66542">
        <ele>86</ele>
        <time>2013-10-20T08:43:51.000Z</time>
      </trkpt>
      <trkpt lat="47.26662" lon="-1.66527">
        <ele>86</ele>
        <time>2013-10-20T08:43:53.000Z</time>
      </trkpt>
      <trkpt lat="47.26659" lon="-1.66509">
        <ele>86</ele>
        <time>2013-10-20T08:43:55.000Z</time>
      </trkpt>
      <trkpt lat="47.26659" lon="-1.66494">
        <ele>86</ele>
        <time>2013-10-20T08:43:57.000Z</time>
      </trkpt>
      <trkpt lat="47.26657" lon="-1.66479">
        <ele>85</ele>
        <time>2013-10-20T08:43:59.000Z</time>
      </trkpt>
      <trkpt lat="47.26651" lon="-1.66451">
        <ele>85</ele>
        <time>2013-10-20T08:44:03.000Z</time>
      </trkpt>
      <trkpt lat="47.26645" lon="-1.66432">
        <ele>85</ele>
        <time>2013-10-20T08:44:05.000Z</time>
      </trkpt>
      <trkpt lat="47.26638" lon="-1.66415">
        <ele>85</ele>
        <time>2013-10-20T08:44:07.000Z</time>
      </trkpt>
      <trkpt lat="47.26633" lon="-1.66396">
        <ele>85</ele>
        <time>2013-10-20T08:44:09.000Z</time>
      </trkpt>
      <trkpt lat="47.26627" lon="-1.66378">
        <ele>85</ele>
        <time>2013-10-20T08:44:11.000Z</time>
      </trkpt>
      <trkpt lat="47.26624" lon="-1.66359">
        <ele>86</ele>
        <time>2013-10-20T08:44:13.000Z</time>
      </trkpt>
      <trkpt lat="47.26621" lon="-1.66342">
        <ele>87</ele>
        <time>2013-10-20T08:44:15.000Z</time>
      </trkpt>
      <trkpt lat="47.26618" lon="-1.66323">
        <ele>88</ele>
        <time>2013-10-20T08:44:17.000Z</time>
      </trkpt>
      <trkpt lat="47.26613" lon="-1.66308">
        <ele>88</ele>
        <time>2013-10-20T08:44:19.000Z</time>
      </trkpt>
      <trkpt lat="47.26608" lon="-1.66291">
        <ele>88</ele>
        <time>2013-10-20T08:44:21.000Z</time>
      </trkpt>
      <trkpt lat="47.26604" lon="-1.66276">
        <ele>89</ele>
        <time>2013-10-20T08:44:23.000Z</time>
      </trkpt>
      <trkpt lat="47.26604" lon="-1.66276">
        <ele>89</ele>
        <time>2013-10-20T08:44:25.000Z</time>
      </trkpt>
      <trkpt lat="47.2661" lon="-1.66245">
        <ele>90</ele>
        <time>2013-10-20T08:44:27.000Z</time>
      </trkpt>
      <trkpt lat="47.26618" lon="-1.66235">
        <ele>91</ele>
        <time>2013-10-20T08:44:29.000Z</time>
      </trkpt>
      <trkpt lat="47.26618" lon="-1.66235">
        <ele>91</ele>
        <time>2013-10-20T08:44:31.000Z</time>
      </trkpt>
      <trkpt lat="47.26631" lon="-1.66215">
        <ele>90</ele>
        <time>2013-10-20T08:44:33.000Z</time>
      </trkpt>
      <trkpt lat="47.26631" lon="-1.66215">
        <ele>90</ele>
        <time>2013-10-20T08:44:35.000Z</time>
      </trkpt>
      <trkpt lat="47.26641" lon="-1.66201">
        <ele>88</ele>
        <time>2013-10-20T08:44:37.000Z</time>
      </trkpt>
      <trkpt lat="47.26641" lon="-1.66201">
        <ele>88</ele>
        <time>2013-10-20T08:44:39.000Z</time>
      </trkpt>
      <trkpt lat="47.26641" lon="-1.66201">
        <ele>88</ele>
        <time>2013-10-20T08:44:58.000Z</time>
      </trkpt>
      <trkpt lat="47.26641" lon="-1.66201">
        <ele>88</ele>
        <time>2013-10-20T08:45:03.000Z</time>
      </trkpt>
      <trkpt lat="47.26645" lon="-1.66153">
        <ele>86</ele>
        <time>2013-10-20T08:45:29.000Z</time>
      </trkpt>
      <trkpt lat="47.26643" lon="-1.66123">
        <ele>86</ele>
        <time>2013-10-20T08:45:31.000Z</time>
      </trkpt>
      <trkpt lat="47.26638" lon="-1.66102">
        <ele>86</ele>
        <time>2013-10-20T08:45:33.000Z</time>
      </trkpt>
      <trkpt lat="47.26631" lon="-1.66088">
        <ele>86</ele>
        <time>2013-10-20T08:45:35.000Z</time>
      </trkpt>
      <trkpt lat="47.26623" lon="-1.66078">
        <ele>86</ele>
        <time>2013-10-20T08:45:37.000Z</time>
      </trkpt>
      <trkpt lat="47.26606" lon="-1.66063">
        <ele>86</ele>
        <time>2013-10-20T08:45:39.000Z</time>
      </trkpt>
      <trkpt lat="47.26595" lon="-1.66059">
        <ele>87</ele>
        <time>2013-10-20T08:45:41.000Z</time>
      </trkpt>
      <trkpt lat="47.26584" lon="-1.66054">
        <ele>89</ele>
        <time>2013-10-20T08:45:43.000Z</time>
      </trkpt>
      <trkpt lat="47.26575" lon="-1.66052">
        <ele>90</ele>
        <time>2013-10-20T08:45:45.000Z</time>
      </trkpt>
      <trkpt lat="47.26565" lon="-1.66052">
        <ele>91</ele>
        <time>2013-10-20T08:45:47.000Z</time>
      </trkpt>
      <trkpt lat="47.26556" lon="-1.66052">
        <ele>91</ele>
        <time>2013-10-20T08:45:49.000Z</time>
      </trkpt>
      <trkpt lat="47.26546" lon="-1.66052">
        <ele>92</ele>
        <time>2013-10-20T08:45:51.000Z</time>
      </trkpt>
      <trkpt lat="47.26546" lon="-1.66052">
        <ele>92</ele>
        <time>2013-10-20T08:45:53.000Z</time>
      </trkpt>
      <trkpt lat="47.26533" lon="-1.66039">
        <ele>93</ele>
        <time>2013-10-20T08:45:55.000Z</time>
      </trkpt>
      <trkpt lat="47.26533" lon="-1.66039">
        <ele>93</ele>
        <time>2013-10-20T08:45:57.000Z</time>
      </trkpt>
      <trkpt lat="47.26522" lon="-1.66028">
        <ele>93</ele>
        <time>2013-10-20T08:45:59.000Z</time>
      </trkpt>
      <trkpt lat="47.26522" lon="-1.66028">
        <ele>93</ele>
        <time>2013-10-20T08:46:01.000Z</time>
      </trkpt>
      <trkpt lat="47.26514" lon="-1.6602">
        <ele>94</ele>
        <time>2013-10-20T08:46:03.000Z</time>
      </trkpt>
      <trkpt lat="47.26514" lon="-1.6602">
        <ele>94</ele>
        <time>2013-10-20T08:46:05.000Z</time>
      </trkpt>
      <trkpt lat="47.26506" lon="-1.66012">
        <ele>94</ele>
        <time>2013-10-20T08:46:07.000Z</time>
      </trkpt>
      <trkpt lat="47.26494" lon="-1.66">
        <ele>94</ele>
        <time>2013-10-20T08:46:11.000Z</time>
      </trkpt>
      <trkpt lat="47.26511" lon="-1.65943">
        <ele>94</ele>
        <time>2013-10-20T08:46:13.000Z</time>
      </trkpt>
      <trkpt lat="47.26506" lon="-1.65924">
        <ele>94</ele>
        <time>2013-10-20T08:46:17.000Z</time>
      </trkpt>
      <trkpt lat="47.26506" lon="-1.65924">
        <ele>94</ele>
        <time>2013-10-20T08:46:19.000Z</time>
      </trkpt>
      <trkpt lat="47.26506" lon="-1.65924">
        <ele>94</ele>
        <time>2013-10-20T08:46:21.000Z</time>
      </trkpt>
      <trkpt lat="47.26499" lon="-1.65897">
        <ele>94</ele>
        <time>2013-10-20T08:46:23.000Z</time>
      </trkpt>
      <trkpt lat="47.26499" lon="-1.65897">
        <ele>94</ele>
        <time>2013-10-20T08:46:25.000Z</time>
      </trkpt>
      <trkpt lat="47.26494" lon="-1.6588">
        <ele>94</ele>
        <time>2013-10-20T08:46:27.000Z</time>
      </trkpt>
      <trkpt lat="47.26494" lon="-1.6588">
        <ele>94</ele>
        <time>2013-10-20T08:46:29.000Z</time>
      </trkpt>
      <trkpt lat="47.26494" lon="-1.6588">
        <ele>94</ele>
        <time>2013-10-20T08:46:31.000Z</time>
      </trkpt>
      <trkpt lat="47.26527" lon="-1.65836">
        <ele>94</ele>
        <time>2013-10-20T08:46:41.000Z</time>
      </trkpt>
      <trkpt lat="47.26533" lon="-1.65818">
        <ele>94</ele>
        <time>2013-10-20T08:46:45.000Z</time>
      </trkpt>
      <trkpt lat="47.26533" lon="-1.65818">
        <ele>94</ele>
        <time>2013-10-20T08:46:51.000Z</time>
      </trkpt>
      <trkpt lat="47.26667" lon="-1.65799">
        <ele>95</ele>
        <time>2013-10-20T08:47:35.000Z</time>
      </trkpt>
      <trkpt lat="47.26676" lon="-1.65795">
        <ele>96</ele>
        <time>2013-10-20T08:47:37.000Z</time>
      </trkpt>
      <trkpt lat="47.26685" lon="-1.65791">
        <ele>97</ele>
        <time>2013-10-20T08:47:39.000Z</time>
      </trkpt>
      <trkpt lat="47.26699" lon="-1.65791">
        <ele>97</ele>
        <time>2013-10-20T08:47:43.000Z</time>
      </trkpt>
      <trkpt lat="47.26713" lon="-1.65797">
        <ele>97</ele>
        <time>2013-10-20T08:47:47.000Z</time>
      </trkpt>
      <trkpt lat="47.26713" lon="-1.65797">
        <ele>97</ele>
        <time>2013-10-20T08:47:49.000Z</time>
      </trkpt>
      <trkpt lat="47.26719" lon="-1.658">
        <ele>96</ele>
        <time>2013-10-20T08:47:51.000Z</time>
      </trkpt>
      <trkpt lat="47.26725" lon="-1.65802">
        <ele>96</ele>
        <time>2013-10-20T08:47:53.000Z</time>
      </trkpt>
      <trkpt lat="47.26731" lon="-1.65805">
        <ele>96</ele>
        <time>2013-10-20T08:47:55.000Z</time>
      </trkpt>
      <trkpt lat="47.26736" lon="-1.65808">
        <ele>96</ele>
        <time>2013-10-20T08:47:57.000Z</time>
      </trkpt>
      <trkpt lat="47.26736" lon="-1.65808">
        <ele>96</ele>
        <time>2013-10-20T08:48:09.000Z</time>
      </trkpt>
      <trkpt lat="47.26754" lon="-1.65789">
        <ele>93</ele>
        <time>2013-10-20T08:48:23.000Z</time>
      </trkpt>
      <trkpt lat="47.2677" lon="-1.65776">
        <ele>93</ele>
        <time>2013-10-20T08:48:27.000Z</time>
      </trkpt>
      <trkpt lat="47.26782" lon="-1.65767">
        <ele>93</ele>
        <time>2013-10-20T08:48:29.000Z</time>
      </trkpt>
      <trkpt lat="47.26792" lon="-1.65761">
        <ele>93</ele>
        <time>2013-10-20T08:48:31.000Z</time>
      </trkpt>
      <trkpt lat="47.268" lon="-1.65756">
        <ele>93</ele>
        <time>2013-10-20T08:48:33.000Z</time>
      </trkpt>
      <trkpt lat="47.2681" lon="-1.65749">
        <ele>93</ele>
        <time>2013-10-20T08:48:35.000Z</time>
      </trkpt>
      <trkpt lat="47.2681" lon="-1.65749">
        <ele>93</ele>
        <time>2013-10-20T08:48:38.000Z</time>
      </trkpt>
      <trkpt lat="47.26826" lon="-1.65733">
        <ele>92</ele>
        <time>2013-10-20T08:48:42.000Z</time>
      </trkpt>
      <trkpt lat="47.26831" lon="-1.65718">
        <ele>91</ele>
        <time>2013-10-20T08:48:46.000Z</time>
      </trkpt>
      <trkpt lat="47.26839" lon="-1.65703">
        <ele>91</ele>
        <time>2013-10-20T08:48:50.000Z</time>
      </trkpt>
      <trkpt lat="47.26839" lon="-1.65703">
        <ele>91</ele>
        <time>2013-10-20T08:48:52.000Z</time>
      </trkpt>
      <trkpt lat="47.26845" lon="-1.6569">
        <ele>90</ele>
        <time>2013-10-20T08:48:55.000Z</time>
      </trkpt>
      <trkpt lat="47.26845" lon="-1.6569">
        <ele>90</ele>
        <time>2013-10-20T08:48:59.000Z</time>
      </trkpt>
      <trkpt lat="47.26845" lon="-1.6569">
        <ele>90</ele>
        <time>2013-10-20T08:49:04.000Z</time>
      </trkpt>
      <trkpt lat="47.26858" lon="-1.65606">
        <ele>86</ele>
        <time>2013-10-20T08:49:25.000Z</time>
      </trkpt>
      <trkpt lat="47.26858" lon="-1.65606">
        <ele>86</ele>
        <time>2013-10-20T08:49:27.000Z</time>
      </trkpt>
      <trkpt lat="47.26847" lon="-1.65574">
        <ele>86</ele>
        <time>2013-10-20T08:49:32.000Z</time>
      </trkpt>
      <trkpt lat="47.26847" lon="-1.65574">
        <ele>86</ele>
        <time>2013-10-20T08:49:51.000Z</time>
      </trkpt>
      <trkpt lat="47.26847" lon="-1.65574">
        <ele>86</ele>
        <time>2013-10-20T08:49:57.000Z</time>
      </trkpt>
      <trkpt lat="47.26802" lon="-1.65546">
        <ele>86</ele>
        <time>2013-10-20T08:50:10.000Z</time>
      </trkpt>
      <trkpt lat="47.26791" lon="-1.65548">
        <ele>86</ele>
        <time>2013-10-20T08:50:14.000Z</time>
      </trkpt>
      <trkpt lat="47.26781" lon="-1.65548">
        <ele>86</ele>
        <time>2013-10-20T08:50:18.000Z</time>
      </trkpt>
      <trkpt lat="47.26781" lon="-1.65548">
        <ele>86</ele>
        <time>2013-10-20T08:50:22.000Z</time>
      </trkpt>
      <trkpt lat="47.26781" lon="-1.65548">
        <ele>86</ele>
        <time>2013-10-20T08:50:25.000Z</time>
      </trkpt>
      <trkpt lat="47.26781" lon="-1.65548">
        <ele>86</ele>
        <time>2013-10-20T08:50:39.000Z</time>
      </trkpt>
      <trkpt lat="47.26775" lon="-1.65528">
        <ele>85</ele>
        <time>2013-10-20T08:51:06.000Z</time>
      </trkpt>
      <trkpt lat="47.26772" lon="-1.65513">
        <ele>85</ele>
        <time>2013-10-20T08:51:08.000Z</time>
      </trkpt>
      <trkpt lat="47.2677" lon="-1.65503">
        <ele>85</ele>
        <time>2013-10-20T08:51:10.000Z</time>
      </trkpt>
      <trkpt lat="47.26768" lon="-1.65493">
        <ele>85</ele>
        <time>2013-10-20T08:51:12.000Z</time>
      </trkpt>
      <trkpt lat="47.26767" lon="-1.65483">
        <ele>85</ele>
        <time>2013-10-20T08:51:14.000Z</time>
      </trkpt>
      <trkpt lat="47.26765" lon="-1.65464">
        <ele>85</ele>
        <time>2013-10-20T08:51:16.000Z</time>
      </trkpt>
      <trkpt lat="47.26767" lon="-1.65445">
        <ele>85</ele>
        <time>2013-10-20T08:51:20.000Z</time>
      </trkpt>
      <trkpt lat="47.26766" lon="-1.65426">
        <ele>85</ele>
        <time>2013-10-20T08:51:24.000Z</time>
      </trkpt>
      <trkpt lat="47.26762" lon="-1.65409">
        <ele>85</ele>
        <time>2013-10-20T08:51:28.000Z</time>
      </trkpt>
      <trkpt lat="47.26759" lon="-1.65391">
        <ele>85</ele>
        <time>2013-10-20T08:51:32.000Z</time>
      </trkpt>
      <trkpt lat="47.26754" lon="-1.65374">
        <ele>85</ele>
        <time>2013-10-20T08:51:36.000Z</time>
      </trkpt>
      <trkpt lat="47.26752" lon="-1.65359">
        <ele>85</ele>
        <time>2013-10-20T08:51:40.000Z</time>
      </trkpt>
      <trkpt lat="47.26752" lon="-1.65359">
        <ele>85</ele>
        <time>2013-10-20T08:51:44.000Z</time>
      </trkpt>
      <trkpt lat="47.26752" lon="-1.65359">
        <ele>85</ele>
        <time>2013-10-20T08:51:46.000Z</time>
      </trkpt>
      <trkpt lat="47.26752" lon="-1.65359">
        <ele>85</ele>
        <time>2013-10-20T08:51:48.000Z</time>
      </trkpt>
      <trkpt lat="47.26762" lon="-1.65303">
        <ele>86</ele>
        <time>2013-10-20T08:51:52.000Z</time>
      </trkpt>
      <trkpt lat="47.2677" lon="-1.65286">
        <ele>85</ele>
        <time>2013-10-20T08:51:54.000Z</time>
      </trkpt>
      <trkpt lat="47.26788" lon="-1.65267">
        <ele>82</ele>
        <time>2013-10-20T08:51:58.000Z</time>
      </trkpt>
      <trkpt lat="47.26788" lon="-1.65267">
        <ele>82</ele>
        <time>2013-10-20T08:52:00.000Z</time>
      </trkpt>
      <trkpt lat="47.26788" lon="-1.65267">
        <ele>82</ele>
        <time>2013-10-20T08:52:02.000Z</time>
      </trkpt>
      <trkpt lat="47.26788" lon="-1.65267">
        <ele>82</ele>
        <time>2013-10-20T08:52:04.000Z</time>
      </trkpt>
      <trkpt lat="47.26788" lon="-1.65267">
        <ele>82</ele>
        <time>2013-10-20T08:52:06.000Z</time>
      </trkpt>
      <trkpt lat="47.26788" lon="-1.65267">
        <ele>82</ele>
        <time>2013-10-20T08:52:08.000Z</time>
      </trkpt>
      <trkpt lat="47.26788" lon="-1.65267">
        <ele>82</ele>
        <time>2013-10-20T08:52:10.000Z</time>
      </trkpt>
      <trkpt lat="47.26788" lon="-1.65267">
        <ele>82</ele>
        <time>2013-10-20T08:52:12.000Z</time>
      </trkpt>
      <trkpt lat="47.26788" lon="-1.65267">
        <ele>82</ele>
        <time>2013-10-20T08:52:14.000Z</time>
      </trkpt>
      <trkpt lat="47.26788" lon="-1.65267">
        <ele>82</ele>
        <time>2013-10-20T08:52:16.000Z</time>
      </trkpt>
      <trkpt lat="47.26788" lon="-1.65267">
        <ele>82</ele>
        <time>2013-10-20T08:52:18.000Z</time>
      </trkpt>
      <trkpt lat="47.26788" lon="-1.65267">
        <ele>82</ele>
        <time>2013-10-20T08:52:20.000Z</time>
      </trkpt>
      <trkpt lat="47.26788" lon="-1.65267">
        <ele>82</ele>
        <time>2013-10-20T08:52:22.000Z</time>
      </trkpt>
      <trkpt lat="47.26799" lon="-1.651">
        <ele>77</ele>
        <time>2013-10-20T08:52:28.000Z</time>
      </trkpt>
      <trkpt lat="47.26811" lon="-1.65074">
        <ele>78</ele>
        <time>2013-10-20T08:52:32.000Z</time>
      </trkpt>
      <trkpt lat="47.26816" lon="-1.65059">
        <ele>78</ele>
        <time>2013-10-20T08:52:34.000Z</time>
      </trkpt>
      <trkpt lat="47.26822" lon="-1.65044">
        <ele>78</ele>
        <time>2013-10-20T08:52:36.000Z</time>
      </trkpt>
      <trkpt lat="47.26826" lon="-1.65031">
        <ele>78</ele>
        <time>2013-10-20T08:52:38.000Z</time>
      </trkpt>
      <trkpt lat="47.2683" lon="-1.65019">
        <ele>78</ele>
        <time>2013-10-20T08:52:40.000Z</time>
      </trkpt>
      <trkpt lat="47.2683" lon="-1.65019">
        <ele>78</ele>
        <time>2013-10-20T08:52:42.000Z</time>
      </trkpt>
      <trkpt lat="47.26837" lon="-1.65">
        <ele>78</ele>
        <time>2013-10-20T08:52:44.000Z</time>
      </trkpt>
      <trkpt lat="47.26837" lon="-1.65">
        <ele>78</ele>
        <time>2013-10-20T08:52:46.000Z</time>
      </trkpt>
      <trkpt lat="47.26837" lon="-1.65">
        <ele>78</ele>
        <time>2013-10-20T08:52:50.000Z</time>
      </trkpt>
      <trkpt lat="47.26849" lon="-1.64963">
        <ele>79</ele>
        <time>2013-10-20T08:53:02.000Z</time>
      </trkpt>
      <trkpt lat="47.26857" lon="-1.64938">
        <ele>79</ele>
        <time>2013-10-20T08:53:04.000Z</time>
      </trkpt>
      <trkpt lat="47.26863" lon="-1.64919">
        <ele>79</ele>
        <time>2013-10-20T08:53:06.000Z</time>
      </trkpt>
      <trkpt lat="47.26868" lon="-1.64904">
        <ele>78</ele>
        <time>2013-10-20T08:53:08.000Z</time>
      </trkpt>
      <trkpt lat="47.26873" lon="-1.64891">
        <ele>78</ele>
        <time>2013-10-20T08:53:10.000Z</time>
      </trkpt>
      <trkpt lat="47.26881" lon="-1.6487">
        <ele>78</ele>
        <time>2013-10-20T08:53:12.000Z</time>
      </trkpt>
      <trkpt lat="47.26887" lon="-1.64853">
        <ele>78</ele>
        <time>2013-10-20T08:53:16.000Z</time>
      </trkpt>
      <trkpt lat="47.26887" lon="-1.64853">
        <ele>78</ele>
        <time>2013-10-20T08:53:18.000Z</time>
      </trkpt>
      <trkpt lat="47.26887" lon="-1.64853">
        <ele>78</ele>
        <time>2013-10-20T08:53:20.000Z</time>
      </trkpt>
      <trkpt lat="47.26896" lon="-1.64829">
        <ele>78</ele>
        <time>2013-10-20T08:53:22.000Z</time>
      </trkpt>
      <trkpt lat="47.26912" lon="-1.64812">
        <ele>78</ele>
        <time>2013-10-20T08:53:26.000Z</time>
      </trkpt>
      <trkpt lat="47.26919" lon="-1.64804">
        <ele>78</ele>
        <time>2013-10-20T08:53:28.000Z</time>
      </trkpt>
      <trkpt lat="47.26935" lon="-1.64786">
        <ele>78</ele>
        <time>2013-10-20T08:53:32.000Z</time>
      </trkpt>
      <trkpt lat="47.26944" lon="-1.64773">
        <ele>78</ele>
        <time>2013-10-20T08:53:34.000Z</time>
      </trkpt>
      <trkpt lat="47.2695" lon="-1.64763">
        <ele>78</ele>
        <time>2013-10-20T08:53:36.000Z</time>
      </trkpt>
      <trkpt lat="47.26956" lon="-1.6475">
        <ele>78</ele>
        <time>2013-10-20T08:53:38.000Z</time>
      </trkpt>
      <trkpt lat="47.26961" lon="-1.64739">
        <ele>78</ele>
        <time>2013-10-20T08:53:40.000Z</time>
      </trkpt>
      <trkpt lat="47.26964" lon="-1.64726">
        <ele>78</ele>
        <time>2013-10-20T08:53:42.000Z</time>
      </trkpt>
      <trkpt lat="47.26972" lon="-1.64705">
        <ele>78</ele>
        <time>2013-10-20T08:53:46.000Z</time>
      </trkpt>
      <trkpt lat="47.26972" lon="-1.64705">
        <ele>78</ele>
        <time>2013-10-20T08:53:48.000Z</time>
      </trkpt>
      <trkpt lat="47.26972" lon="-1.64705">
        <ele>78</ele>
        <time>2013-10-20T08:53:50.000Z</time>
      </trkpt>
      <trkpt lat="47.26972" lon="-1.64705">
        <ele>78</ele>
        <time>2013-10-20T08:53:52.000Z</time>
      </trkpt>
      <trkpt lat="47.26972" lon="-1.64705">
        <ele>78</ele>
        <time>2013-10-20T08:53:54.000Z</time>
      </trkpt>
      <trkpt lat="47.26979" lon="-1.64638">
        <ele>77</ele>
        <time>2013-10-20T08:53:58.000Z</time>
      </trkpt>
      <trkpt lat="47.26977" lon="-1.64613">
        <ele>76</ele>
        <time>2013-10-20T08:54:02.000Z</time>
      </trkpt>
      <trkpt lat="47.26976" lon="-1.64589">
        <ele>75</ele>
        <time>2013-10-20T08:54:06.000Z</time>
      </trkpt>
      <trkpt lat="47.26974" lon="-1.64563">
        <ele>72</ele>
        <time>2013-10-20T08:54:10.000Z</time>
      </trkpt>
      <trkpt lat="47.26975" lon="-1.6454">
        <ele>70</ele>
        <time>2013-10-20T08:54:14.000Z</time>
      </trkpt>
      <trkpt lat="47.26982" lon="-1.64514">
        <ele>68</ele>
        <time>2013-10-20T08:54:18.000Z</time>
      </trkpt>
      <trkpt lat="47.26992" lon="-1.64488">
        <ele>67</ele>
        <time>2013-10-20T08:54:22.000Z</time>
      </trkpt>
      <trkpt lat="47.26996" lon="-1.64475">
        <ele>68</ele>
        <time>2013-10-20T08:54:24.000Z</time>
      </trkpt>
      <trkpt lat="47.26996" lon="-1.64475">
        <ele>68</ele>
        <time>2013-10-20T08:54:26.000Z</time>
      </trkpt>
      <trkpt lat="47.26996" lon="-1.64475">
        <ele>68</ele>
        <time>2013-10-20T08:54:28.000Z</time>
      </trkpt>
      <trkpt lat="47.26996" lon="-1.64475">
        <ele>68</ele>
        <time>2013-10-20T08:54:30.000Z</time>
      </trkpt>
      <trkpt lat="47.26996" lon="-1.64475">
        <ele>68</ele>
        <time>2013-10-20T08:54:32.000Z</time>
      </trkpt>
      <trkpt lat="47.26996" lon="-1.64475">
        <ele>68</ele>
        <time>2013-10-20T08:54:34.000Z</time>
      </trkpt>
      <trkpt lat="47.26996" lon="-1.64475">
        <ele>68</ele>
        <time>2013-10-20T08:54:36.000Z</time>
      </trkpt>
      <trkpt lat="47.26996" lon="-1.64475">
        <ele>68</ele>
        <time>2013-10-20T08:54:38.000Z</time>
      </trkpt>
      <trkpt lat="47.26996" lon="-1.64475">
        <ele>68</ele>
        <time>2013-10-20T08:54:40.000Z</time>
      </trkpt>
      <trkpt lat="47.26996" lon="-1.64475">
        <ele>68</ele>
        <time>2013-10-20T08:54:42.000Z</time>
      </trkpt>
      <trkpt lat="47.26996" lon="-1.64475">
        <ele>68</ele>
        <time>2013-10-20T08:54:44.000Z</time>
      </trkpt>
      <trkpt lat="47.26996" lon="-1.64475">
        <ele>68</ele>
        <time>2013-10-20T08:54:46.000Z</time>
      </trkpt>
      <trkpt lat="47.26996" lon="-1.64475">
        <ele>68</ele>
        <time>2013-10-20T08:54:48.000Z</time>
      </trkpt>
      <trkpt lat="47.26996" lon="-1.64475">
        <ele>68</ele>
        <time>2013-10-20T08:54:50.000Z</time>
      </trkpt>
      <trkpt lat="47.26996" lon="-1.64475">
        <ele>68</ele>
        <time>2013-10-20T08:54:52.000Z</time>
      </trkpt>
      <trkpt lat="47.26996" lon="-1.64475">
        <ele>68</ele>
        <time>2013-10-20T08:54:54.000Z</time>
      </trkpt>
      <trkpt lat="47.26996" lon="-1.64475">
        <ele>68</ele>
        <time>2013-10-20T08:54:56.000Z</time>
      </trkpt>
      <trkpt lat="47.26996" lon="-1.64475">
        <ele>68</ele>
        <time>2013-10-20T08:54:58.000Z</time>
      </trkpt>
      <trkpt lat="47.26996" lon="-1.64475">
        <ele>68</ele>
        <time>2013-10-20T08:55:00.000Z</time>
      </trkpt>
      <trkpt lat="47.26996" lon="-1.64475">
        <ele>68</ele>
        <time>2013-10-20T08:55:02.000Z</time>
      </trkpt>
      <trkpt lat="47.26996" lon="-1.64475">
        <ele>68</ele>
        <time>2013-10-20T08:55:04.000Z</time>
      </trkpt>
      <trkpt lat="47.26996" lon="-1.64475">
        <ele>68</ele>
        <time>2013-10-20T08:55:06.000Z</time>
      </trkpt>
      <trkpt lat="47.26996" lon="-1.64475">
        <ele>68</ele>
        <time>2013-10-20T08:55:08.000Z</time>
      </trkpt>
      <trkpt lat="47.26996" lon="-1.64475">
        <ele>68</ele>
        <time>2013-10-20T08:55:10.000Z</time>
      </trkpt>
      <trkpt lat="47.26991" lon="-1.64351">
        <ele>71</ele>
        <time>2013-10-20T08:55:14.000Z</time>
      </trkpt>
      <trkpt lat="47.26985" lon="-1.64284">
        <ele>71</ele>
        <time>2013-10-20T08:55:16.000Z</time>
      </trkpt>
      <trkpt lat="47.26978" lon="-1.64248">
        <ele>71</ele>
        <time>2013-10-20T08:55:18.000Z</time>
      </trkpt>
      <trkpt lat="47.26972" lon="-1.64225">
        <ele>71</ele>
        <time>2013-10-20T08:55:20.000Z</time>
      </trkpt>
      <trkpt lat="47.26966" lon="-1.6421">
        <ele>71</ele>
        <time>2013-10-20T08:55:22.000Z</time>
      </trkpt>
      <trkpt lat="47.26954" lon="-1.64188">
        <ele>72</ele>
        <time>2013-10-20T08:55:24.000Z</time>
      </trkpt>
      <trkpt lat="47.26942" lon="-1.64173">
        <ele>72</ele>
        <time>2013-10-20T08:55:28.000Z</time>
      </trkpt>
      <trkpt lat="47.26932" lon="-1.64158">
        <ele>72</ele>
        <time>2013-10-20T08:55:32.000Z</time>
      </trkpt>
      <trkpt lat="47.26932" lon="-1.64158">
        <ele>72</ele>
        <time>2013-10-20T08:55:34.000Z</time>
      </trkpt>
      <trkpt lat="47.26932" lon="-1.64158">
        <ele>72</ele>
        <time>2013-10-20T08:55:36.000Z</time>
      </trkpt>
      <trkpt lat="47.2692" lon="-1.6414">
        <ele>72</ele>
        <time>2013-10-20T08:55:38.000Z</time>
      </trkpt>
      <trkpt lat="47.2692" lon="-1.6414">
        <ele>72</ele>
        <time>2013-10-20T08:55:40.000Z</time>
      </trkpt>
      <trkpt lat="47.26911" lon="-1.64125">
        <ele>73</ele>
        <time>2013-10-20T08:55:42.000Z</time>
      </trkpt>
      <trkpt lat="47.26911" lon="-1.64125">
        <ele>73</ele>
        <time>2013-10-20T08:55:44.000Z</time>
      </trkpt>
      <trkpt lat="47.26904" lon="-1.64114">
        <ele>73</ele>
        <time>2013-10-20T08:55:46.000Z</time>
      </trkpt>
      <trkpt lat="47.26904" lon="-1.64114">
        <ele>73</ele>
        <time>2013-10-20T08:55:48.000Z</time>
      </trkpt>
      <trkpt lat="47.26897" lon="-1.64102">
        <ele>73</ele>
        <time>2013-10-20T08:55:50.000Z</time>
      </trkpt>
      <trkpt lat="47.26897" lon="-1.64102">
        <ele>73</ele>
        <time>2013-10-20T08:55:52.000Z</time>
      </trkpt>
      <trkpt lat="47.26897" lon="-1.64102">
        <ele>73</ele>
        <time>2013-10-20T08:55:54.000Z</time>
      </trkpt>
      <trkpt lat="47.26897" lon="-1.64102">
        <ele>73</ele>
        <time>2013-10-20T08:55:59.000Z</time>
      </trkpt>
      <trkpt lat="47.26905" lon="-1.63979">
        <ele>86</ele>
        <time>2013-10-20T09:01:24.000Z</time>
      </trkpt>
      <trkpt lat="47.26911" lon="-1.63918">
        <ele>86</ele>
        <time>2013-10-20T09:01:26.000Z</time>
      </trkpt>
      <trkpt lat="47.26916" lon="-1.63888">
        <ele>87</ele>
        <time>2013-10-20T09:01:28.000Z</time>
      </trkpt>
      <trkpt lat="47.2692" lon="-1.63873">
        <ele>87</ele>
        <time>2013-10-20T09:01:30.000Z</time>
      </trkpt>
      <trkpt lat="47.26925" lon="-1.63866">
        <ele>87</ele>
        <time>2013-10-20T09:01:32.000Z</time>
      </trkpt>
      <trkpt lat="47.26937" lon="-1.63864">
        <ele>88</ele>
        <time>2013-10-20T09:01:36.000Z</time>
      </trkpt>
      <trkpt lat="47.26951" lon="-1.63866">
        <ele>89</ele>
        <time>2013-10-20T09:01:42.000Z</time>
      </trkpt>
      <trkpt lat="47.26965" lon="-1.63868">
        <ele>89</ele>
        <time>2013-10-20T09:01:46.000Z</time>
      </trkpt>
      <trkpt lat="47.26979" lon="-1.63872">
        <ele>89</ele>
        <time>2013-10-20T09:01:50.000Z</time>
      </trkpt>
      <trkpt lat="47.26996" lon="-1.63877">
        <ele>90</ele>
        <time>2013-10-20T09:01:54.000Z</time>
      </trkpt>
      <trkpt lat="47.27005" lon="-1.63881">
        <ele>90</ele>
        <time>2013-10-20T09:01:56.000Z</time>
      </trkpt>
      <trkpt lat="47.27013" lon="-1.63885">
        <ele>90</ele>
        <time>2013-10-20T09:01:58.000Z</time>
      </trkpt>
      <trkpt lat="47.27028" lon="-1.63894">
        <ele>91</ele>
        <time>2013-10-20T09:02:02.000Z</time>
      </trkpt>
      <trkpt lat="47.27028" lon="-1.63894">
        <ele>91</ele>
        <time>2013-10-20T09:02:04.000Z</time>
      </trkpt>
      <trkpt lat="47.27042" lon="-1.63902">
        <ele>91</ele>
        <time>2013-10-20T09:02:06.000Z</time>
      </trkpt>
      <trkpt lat="47.27042" lon="-1.63902">
        <ele>91</ele>
        <time>2013-10-20T09:02:08.000Z</time>
      </trkpt>
      <trkpt lat="47.27053" lon="-1.63909">
        <ele>91</ele>
        <time>2013-10-20T09:02:10.000Z</time>
      </trkpt>
      <trkpt lat="47.27053" lon="-1.63909">
        <ele>91</ele>
        <time>2013-10-20T09:02:12.000Z</time>
      </trkpt>
      <trkpt lat="47.27065" lon="-1.63917">
        <ele>92</ele>
        <time>2013-10-20T09:02:14.000Z</time>
      </trkpt>
      <trkpt lat="47.27065" lon="-1.63917">
        <ele>92</ele>
        <time>2013-10-20T09:02:16.000Z</time>
      </trkpt>
      <trkpt lat="47.27076" lon="-1.63924">
        <ele>92</ele>
        <time>2013-10-20T09:02:18.000Z</time>
      </trkpt>
      <trkpt lat="47.27076" lon="-1.63924">
        <ele>92</ele>
        <time>2013-10-20T09:02:20.000Z</time>
      </trkpt>
      <trkpt lat="47.27086" lon="-1.6393">
        <ele>92</ele>
        <time>2013-10-20T09:02:22.000Z</time>
      </trkpt>
      <trkpt lat="47.27095" lon="-1.63947">
        <ele>93</ele>
        <time>2013-10-20T09:02:26.000Z</time>
      </trkpt>
      <trkpt lat="47.27104" lon="-1.63967">
        <ele>93</ele>
        <time>2013-10-20T09:02:30.000Z</time>
      </trkpt>
      <trkpt lat="47.27112" lon="-1.63986">
        <ele>93</ele>
        <time>2013-10-20T09:02:34.000Z</time>
      </trkpt>
      <trkpt lat="47.27124" lon="-1.64001">
        <ele>93</ele>
        <time>2013-10-20T09:02:38.000Z</time>
      </trkpt>
      <trkpt lat="47.27136" lon="-1.64018">
        <ele>93</ele>
        <time>2013-10-20T09:02:42.000Z</time>
      </trkpt>
      <trkpt lat="47.27145" lon="-1.64037">
        <ele>94</ele>
        <time>2013-10-20T09:02:46.000Z</time>
      </trkpt>
      <trkpt lat="47.27155" lon="-1.64055">
        <ele>94</ele>
        <time>2013-10-20T09:02:50.000Z</time>
      </trkpt>
      <trkpt lat="47.27166" lon="-1.64074">
        <ele>94</ele>
        <time>2013-10-20T09:02:54.000Z</time>
      </trkpt>
      <trkpt lat="47.27171" lon="-1.64087">
        <ele>94</ele>
        <time>2013-10-20T09:02:56.000Z</time>
      </trkpt>
      <trkpt lat="47.27177" lon="-1.64102">
        <ele>94</ele>
        <time>2013-10-20T09:02:58.000Z</time>
      </trkpt>
      <trkpt lat="47.27183" lon="-1.64119">
        <ele>94</ele>
        <time>2013-10-20T09:03:00.000Z</time>
      </trkpt>
      <trkpt lat="47.2719" lon="-1.64136">
        <ele>95</ele>
        <time>2013-10-20T09:03:02.000Z</time>
      </trkpt>
      <trkpt lat="47.27196" lon="-1.64151">
        <ele>95</ele>
        <time>2013-10-20T09:03:04.000Z</time>
      </trkpt>
      <trkpt lat="47.27203" lon="-1.64168">
        <ele>96</ele>
        <time>2013-10-20T09:03:06.000Z</time>
      </trkpt>
      <trkpt lat="47.2721" lon="-1.64186">
        <ele>97</ele>
        <time>2013-10-20T09:03:08.000Z</time>
      </trkpt>
      <trkpt lat="47.27216" lon="-1.64201">
        <ele>97</ele>
        <time>2013-10-20T09:03:10.000Z</time>
      </trkpt>
      <trkpt lat="47.27222" lon="-1.64213">
        <ele>97</ele>
        <time>2013-10-20T09:03:12.000Z</time>
      </trkpt>
      <trkpt lat="47.27228" lon="-1.64228">
        <ele>97</ele>
        <time>2013-10-20T09:03:14.000Z</time>
      </trkpt>
      <trkpt lat="47.27235" lon="-1.64241">
        <ele>97</ele>
        <time>2013-10-20T09:03:16.000Z</time>
      </trkpt>
      <trkpt lat="47.27235" lon="-1.64241">
        <ele>97</ele>
        <time>2013-10-20T09:03:18.000Z</time>
      </trkpt>
      <trkpt lat="47.27245" lon="-1.64261">
        <ele>97</ele>
        <time>2013-10-20T09:03:20.000Z</time>
      </trkpt>
      <trkpt lat="47.27245" lon="-1.64261">
        <ele>97</ele>
        <time>2013-10-20T09:03:22.000Z</time>
      </trkpt>
      <trkpt lat="47.27253" lon="-1.64279">
        <ele>96</ele>
        <time>2013-10-20T09:03:24.000Z</time>
      </trkpt>
      <trkpt lat="47.27253" lon="-1.64279">
        <ele>96</ele>
        <time>2013-10-20T09:03:26.000Z</time>
      </trkpt>
      <trkpt lat="47.27261" lon="-1.64295">
        <ele>95</ele>
        <time>2013-10-20T09:03:28.000Z</time>
      </trkpt>
      <trkpt lat="47.27261" lon="-1.64295">
        <ele>95</ele>
        <time>2013-10-20T09:03:30.000Z</time>
      </trkpt>
      <trkpt lat="47.27269" lon="-1.64311">
        <ele>95</ele>
        <time>2013-10-20T09:03:32.000Z</time>
      </trkpt>
      <trkpt lat="47.27269" lon="-1.64311">
        <ele>95</ele>
        <time>2013-10-20T09:03:34.000Z</time>
      </trkpt>
      <trkpt lat="47.27278" lon="-1.64327">
        <ele>95</ele>
        <time>2013-10-20T09:03:36.000Z</time>
      </trkpt>
      <trkpt lat="47.27278" lon="-1.64327">
        <ele>95</ele>
        <time>2013-10-20T09:03:38.000Z</time>
      </trkpt>
      <trkpt lat="47.27285" lon="-1.64343">
        <ele>95</ele>
        <time>2013-10-20T09:03:40.000Z</time>
      </trkpt>
      <trkpt lat="47.27285" lon="-1.64343">
        <ele>95</ele>
        <time>2013-10-20T09:03:42.000Z</time>
      </trkpt>
      <trkpt lat="47.27295" lon="-1.64362">
        <ele>95</ele>
        <time>2013-10-20T09:03:44.000Z</time>
      </trkpt>
      <trkpt lat="47.27295" lon="-1.64362">
        <ele>95</ele>
        <time>2013-10-20T09:03:46.000Z</time>
      </trkpt>
      <trkpt lat="47.27303" lon="-1.64379">
        <ele>95</ele>
        <time>2013-10-20T09:03:48.000Z</time>
      </trkpt>
      <trkpt lat="47.27303" lon="-1.64379">
        <ele>95</ele>
        <time>2013-10-20T09:03:50.000Z</time>
      </trkpt>
      <trkpt lat="47.27313" lon="-1.64398">
        <ele>95</ele>
        <time>2013-10-20T09:03:52.000Z</time>
      </trkpt>
      <trkpt lat="47.27313" lon="-1.64398">
        <ele>95</ele>
        <time>2013-10-20T09:03:54.000Z</time>
      </trkpt>
      <trkpt lat="47.27317" lon="-1.64407">
        <ele>94</ele>
        <time>2013-10-20T09:03:56.000Z</time>
      </trkpt>
      <trkpt lat="47.27322" lon="-1.64416">
        <ele>94</ele>
        <time>2013-10-20T09:03:58.000Z</time>
      </trkpt>
      <trkpt lat="47.27327" lon="-1.64425">
        <ele>94</ele>
        <time>2013-10-20T09:04:00.000Z</time>
      </trkpt>
      <trkpt lat="47.2733" lon="-1.64433">
        <ele>94</ele>
        <time>2013-10-20T09:04:02.000Z</time>
      </trkpt>
      <trkpt lat="47.27334" lon="-1.64441">
        <ele>94</ele>
        <time>2013-10-20T09:04:04.000Z</time>
      </trkpt>
      <trkpt lat="47.27341" lon="-1.64455">
        <ele>94</ele>
        <time>2013-10-20T09:04:06.000Z</time>
      </trkpt>
      <trkpt lat="47.27341" lon="-1.64455">
        <ele>94</ele>
        <time>2013-10-20T09:04:08.000Z</time>
      </trkpt>
      <trkpt lat="47.27348" lon="-1.64467">
        <ele>94</ele>
        <time>2013-10-20T09:04:10.000Z</time>
      </trkpt>
      <trkpt lat="47.27348" lon="-1.64467">
        <ele>94</ele>
        <time>2013-10-20T09:04:12.000Z</time>
      </trkpt>
      <trkpt lat="47.27348" lon="-1.64467">
        <ele>94</ele>
        <time>2013-10-20T09:04:14.000Z</time>
      </trkpt>
      <trkpt lat="47.27348" lon="-1.64467">
        <ele>94</ele>
        <time>2013-10-20T09:04:17.000Z</time>
      </trkpt>
      <trkpt lat="47.27348" lon="-1.64467">
        <ele>94</ele>
        <time>2013-10-20T09:04:21.000Z</time>
      </trkpt>
      <trkpt lat="47.27417" lon="-1.64484">
        <ele>94</ele>
        <time>2013-10-20T09:04:33.000Z</time>
      </trkpt>
      <trkpt lat="47.27427" lon="-1.64486">
        <ele>94</ele>
        <time>2013-10-20T09:04:35.000Z</time>
      </trkpt>
      <trkpt lat="47.27443" lon="-1.64486">
        <ele>96</ele>
        <time>2013-10-20T09:04:39.000Z</time>
      </trkpt>
      <trkpt lat="47.27454" lon="-1.64486">
        <ele>97</ele>
        <time>2013-10-20T09:04:43.000Z</time>
      </trkpt>
      <trkpt lat="47.2747" lon="-1.64486">
        <ele>98</ele>
        <time>2013-10-20T09:04:48.000Z</time>
      </trkpt>
      <trkpt lat="47.2748" lon="-1.64484">
        <ele>99</ele>
        <time>2013-10-20T09:04:52.000Z</time>
      </trkpt>
      <trkpt lat="47.27491" lon="-1.64484">
        <ele>100</ele>
        <time>2013-10-20T09:04:56.000Z</time>
      </trkpt>
      <trkpt lat="47.27502" lon="-1.64479">
        <ele>101</ele>
        <time>2013-10-20T09:05:00.000Z</time>
      </trkpt>
      <trkpt lat="47.27511" lon="-1.64475">
        <ele>102</ele>
        <time>2013-10-20T09:05:04.000Z</time>
      </trkpt>
      <trkpt lat="47.27522" lon="-1.64469">
        <ele>103</ele>
        <time>2013-10-20T09:05:08.000Z</time>
      </trkpt>
      <trkpt lat="47.27533" lon="-1.64462">
        <ele>104</ele>
        <time>2013-10-20T09:05:12.000Z</time>
      </trkpt>
      <trkpt lat="47.27545" lon="-1.64458">
        <ele>104</ele>
        <time>2013-10-20T09:05:16.000Z</time>
      </trkpt>
      <trkpt lat="47.27555" lon="-1.64473">
        <ele>105</ele>
        <time>2013-10-20T09:05:21.000Z</time>
      </trkpt>
      <trkpt lat="47.27559" lon="-1.64497">
        <ele>110</ele>
        <time>2013-10-20T09:05:25.000Z</time>
      </trkpt>
      <trkpt lat="47.27561" lon="-1.64512">
        <ele>112</ele>
        <time>2013-10-20T09:05:27.000Z</time>
      </trkpt>
      <trkpt lat="47.27562" lon="-1.64527">
        <ele>114</ele>
        <time>2013-10-20T09:05:29.000Z</time>
      </trkpt>
      <trkpt lat="47.27562" lon="-1.64542">
        <ele>115</ele>
        <time>2013-10-20T09:05:31.000Z</time>
      </trkpt>
      <trkpt lat="47.27562" lon="-1.64559">
        <ele>116</ele>
        <time>2013-10-20T09:05:33.000Z</time>
      </trkpt>
      <trkpt lat="47.27562" lon="-1.64574">
        <ele>116</ele>
        <time>2013-10-20T09:05:35.000Z</time>
      </trkpt>
      <trkpt lat="47.2756" lon="-1.64587">
        <ele>116</ele>
        <time>2013-10-20T09:05:37.000Z</time>
      </trkpt>
      <trkpt lat="47.27557" lon="-1.646">
        <ele>116</ele>
        <time>2013-10-20T09:05:39.000Z</time>
      </trkpt>
      <trkpt lat="47.27557" lon="-1.646">
        <ele>116</ele>
        <time>2013-10-20T09:05:41.000Z</time>
      </trkpt>
      <trkpt lat="47.27551" lon="-1.64622">
        <ele>115</ele>
        <time>2013-10-20T09:05:43.000Z</time>
      </trkpt>
      <trkpt lat="47.27551" lon="-1.64622">
        <ele>115</ele>
        <time>2013-10-20T09:05:45.000Z</time>
      </trkpt>
      <trkpt lat="47.27545" lon="-1.64645">
        <ele>113</ele>
        <time>2013-10-20T09:05:47.000Z</time>
      </trkpt>
      <trkpt lat="47.27545" lon="-1.64645">
        <ele>113</ele>
        <time>2013-10-20T09:05:49.000Z</time>
      </trkpt>
      <trkpt lat="47.2754" lon="-1.64665">
        <ele>113</ele>
        <time>2013-10-20T09:05:51.000Z</time>
      </trkpt>
      <trkpt lat="47.2754" lon="-1.64665">
        <ele>113</ele>
        <time>2013-10-20T09:05:53.000Z</time>
      </trkpt>
      <trkpt lat="47.27534" lon="-1.64689">
        <ele>113</ele>
        <time>2013-10-20T09:05:55.000Z</time>
      </trkpt>
      <trkpt lat="47.27534" lon="-1.64689">
        <ele>113</ele>
        <time>2013-10-20T09:05:57.000Z</time>
      </trkpt>
      <trkpt lat="47.27528" lon="-1.64712">
        <ele>113</ele>
        <time>2013-10-20T09:05:59.000Z</time>
      </trkpt>
      <trkpt lat="47.27523" lon="-1.64734">
        <ele>113</ele>
        <time>2013-10-20T09:06:03.000Z</time>
      </trkpt>
      <trkpt lat="47.27535" lon="-1.64763">
        <ele>113</ele>
        <time>2013-10-20T09:06:07.000Z</time>
      </trkpt>
      <trkpt lat="47.2753" lon="-1.64784">
        <ele>113</ele>
        <time>2013-10-20T09:06:11.000Z</time>
      </trkpt>
      <trkpt lat="47.27524" lon="-1.64806">
        <ele>112</ele>
        <time>2013-10-20T09:06:15.000Z</time>
      </trkpt>
      <trkpt lat="47.2752" lon="-1.64827">
        <ele>112</ele>
        <time>2013-10-20T09:06:19.000Z</time>
      </trkpt>
      <trkpt lat="47.27521" lon="-1.6484">
        <ele>112</ele>
        <time>2013-10-20T09:06:23.000Z</time>
      </trkpt>
      <trkpt lat="47.27523" lon="-1.64853">
        <ele>112</ele>
        <time>2013-10-20T09:06:25.000Z</time>
      </trkpt>
      <trkpt lat="47.27524" lon="-1.64866">
        <ele>112</ele>
        <time>2013-10-20T09:06:27.000Z</time>
      </trkpt>
      <trkpt lat="47.27525" lon="-1.64878">
        <ele>112</ele>
        <time>2013-10-20T09:06:29.000Z</time>
      </trkpt>
      <trkpt lat="47.27526" lon="-1.64889">
        <ele>112</ele>
        <time>2013-10-20T09:06:31.000Z</time>
      </trkpt>
      <trkpt lat="47.27529" lon="-1.64913">
        <ele>112</ele>
        <time>2013-10-20T09:06:33.000Z</time>
      </trkpt>
      <trkpt lat="47.27529" lon="-1.64913">
        <ele>112</ele>
        <time>2013-10-20T09:06:35.000Z</time>
      </trkpt>
      <trkpt lat="47.27531" lon="-1.64936">
        <ele>112</ele>
        <time>2013-10-20T09:06:37.000Z</time>
      </trkpt>
      <trkpt lat="47.27534" lon="-1.6496">
        <ele>112</ele>
        <time>2013-10-20T09:06:41.000Z</time>
      </trkpt>
      <trkpt lat="47.27533" lon="-1.64984">
        <ele>112</ele>
        <time>2013-10-20T09:06:45.000Z</time>
      </trkpt>
      <trkpt lat="47.27537" lon="-1.65009">
        <ele>112</ele>
        <time>2013-10-20T09:06:49.000Z</time>
      </trkpt>
      <trkpt lat="47.27539" lon="-1.65025">
        <ele>112</ele>
        <time>2013-10-20T09:06:51.000Z</time>
      </trkpt>
      <trkpt lat="47.27542" lon="-1.65037">
        <ele>112</ele>
        <time>2013-10-20T09:06:53.000Z</time>
      </trkpt>
      <trkpt lat="47.27545" lon="-1.65052">
        <ele>112</ele>
        <time>2013-10-20T09:06:55.000Z</time>
      </trkpt>
      <trkpt lat="47.27548" lon="-1.6507">
        <ele>112</ele>
        <time>2013-10-20T09:06:57.000Z</time>
      </trkpt>
      <trkpt lat="47.27551" lon="-1.65087">
        <ele>111</ele>
        <time>2013-10-20T09:06:59.000Z</time>
      </trkpt>
      <trkpt lat="47.27553" lon="-1.65102">
        <ele>111</ele>
        <time>2013-10-20T09:07:01.000Z</time>
      </trkpt>
      <trkpt lat="47.27557" lon="-1.65117">
        <ele>111</ele>
        <time>2013-10-20T09:07:03.000Z</time>
      </trkpt>
      <trkpt lat="47.27562" lon="-1.6513">
        <ele>111</ele>
        <time>2013-10-20T09:07:05.000Z</time>
      </trkpt>
      <trkpt lat="47.27566" lon="-1.65143">
        <ele>111</ele>
        <time>2013-10-20T09:07:07.000Z</time>
      </trkpt>
      <trkpt lat="47.27566" lon="-1.65143">
        <ele>111</ele>
        <time>2013-10-20T09:07:09.000Z</time>
      </trkpt>
      <trkpt lat="47.27573" lon="-1.65165">
        <ele>110</ele>
        <time>2013-10-20T09:07:11.000Z</time>
      </trkpt>
      <trkpt lat="47.27573" lon="-1.65165">
        <ele>110</ele>
        <time>2013-10-20T09:07:13.000Z</time>
      </trkpt>
      <trkpt lat="47.2758" lon="-1.65185">
        <ele>110</ele>
        <time>2013-10-20T09:07:15.000Z</time>
      </trkpt>
      <trkpt lat="47.2758" lon="-1.65185">
        <ele>110</ele>
        <time>2013-10-20T09:07:17.000Z</time>
      </trkpt>
      <trkpt lat="47.27586" lon="-1.65202">
        <ele>110</ele>
        <time>2013-10-20T09:07:19.000Z</time>
      </trkpt>
      <trkpt lat="47.27586" lon="-1.65202">
        <ele>110</ele>
        <time>2013-10-20T09:07:21.000Z</time>
      </trkpt>
      <trkpt lat="47.27593" lon="-1.65222">
        <ele>111</ele>
        <time>2013-10-20T09:07:23.000Z</time>
      </trkpt>
      <trkpt lat="47.27593" lon="-1.65222">
        <ele>111</ele>
        <time>2013-10-20T09:07:25.000Z</time>
      </trkpt>
      <trkpt lat="47.27599" lon="-1.6524">
        <ele>111</ele>
        <time>2013-10-20T09:07:27.000Z</time>
      </trkpt>
      <trkpt lat="47.27599" lon="-1.6524">
        <ele>111</ele>
        <time>2013-10-20T09:07:29.000Z</time>
      </trkpt>
      <trkpt lat="47.27604" lon="-1.65255">
        <ele>111</ele>
        <time>2013-10-20T09:07:31.000Z</time>
      </trkpt>
      <trkpt lat="47.27604" lon="-1.65255">
        <ele>111</ele>
        <time>2013-10-20T09:07:33.000Z</time>
      </trkpt>
      <trkpt lat="47.2761" lon="-1.65273">
        <ele>112</ele>
        <time>2013-10-20T09:07:35.000Z</time>
      </trkpt>
      <trkpt lat="47.2761" lon="-1.65273">
        <ele>112</ele>
        <time>2013-10-20T09:07:37.000Z</time>
      </trkpt>
      <trkpt lat="47.27616" lon="-1.65291">
        <ele>112</ele>
        <time>2013-10-20T09:07:39.000Z</time>
      </trkpt>
      <trkpt lat="47.27638" lon="-1.65291">
        <ele>112</ele>
        <time>2013-10-20T09:07:41.000Z</time>
      </trkpt>
      <trkpt lat="47.27649" lon="-1.6531">
        <ele>112</ele>
        <time>2013-10-20T09:07:45.000Z</time>
      </trkpt>
      <trkpt lat="47.27649" lon="-1.6531">
        <ele>112</ele>
        <time>2013-10-20T09:07:47.000Z</time>
      </trkpt>
      <trkpt lat="47.27657" lon="-1.65323">
        <ele>113</ele>
        <time>2013-10-20T09:07:49.000Z</time>
      </trkpt>
      <trkpt lat="47.27657" lon="-1.65323">
        <ele>113</ele>
        <time>2013-10-20T09:07:51.000Z</time>
      </trkpt>
      <trkpt lat="47.27664" lon="-1.65333">
        <ele>113</ele>
        <time>2013-10-20T09:07:53.000Z</time>
      </trkpt>
      <trkpt lat="47.27664" lon="-1.65333">
        <ele>113</ele>
        <time>2013-10-20T09:07:55.000Z</time>
      </trkpt>
      <trkpt lat="47.27671" lon="-1.65343">
        <ele>113</ele>
        <time>2013-10-20T09:07:57.000Z</time>
      </trkpt>
      <trkpt lat="47.27671" lon="-1.65343">
        <ele>113</ele>
        <time>2013-10-20T09:07:59.000Z</time>
      </trkpt>
      <trkpt lat="47.27679" lon="-1.65355">
        <ele>113</ele>
        <time>2013-10-20T09:08:02.000Z</time>
      </trkpt>
      <trkpt lat="47.27682" lon="-1.65374">
        <ele>113</ele>
        <time>2013-10-20T09:08:06.000Z</time>
      </trkpt>
      <trkpt lat="47.27687" lon="-1.65398">
        <ele>113</ele>
        <time>2013-10-20T09:08:10.000Z</time>
      </trkpt>
      <trkpt lat="47.27687" lon="-1.65398">
        <ele>113</ele>
        <time>2013-10-20T09:08:14.000Z</time>
      </trkpt>
      <trkpt lat="47.27687" lon="-1.65398">
        <ele>113</ele>
        <time>2013-10-20T09:08:16.000Z</time>
      </trkpt>
      <trkpt lat="47.27687" lon="-1.65398">
        <ele>113</ele>
        <time>2013-10-20T09:08:18.000Z</time>
      </trkpt>
      <trkpt lat="47.27734" lon="-1.65445">
        <ele>113</ele>
        <time>2013-10-20T09:08:29.000Z</time>
      </trkpt>
      <trkpt lat="47.2775" lon="-1.65445">
        <ele>114</ele>
        <time>2013-10-20T09:08:33.000Z</time>
      </trkpt>
      <trkpt lat="47.27763" lon="-1.65445">
        <ele>114</ele>
        <time>2013-10-20T09:08:37.000Z</time>
      </trkpt>
      <trkpt lat="47.2777" lon="-1.65447">
        <ele>114</ele>
        <time>2013-10-20T09:08:41.000Z</time>
      </trkpt>
      <trkpt lat="47.27776" lon="-1.65449">
        <ele>114</ele>
        <time>2013-10-20T09:08:43.000Z</time>
      </trkpt>
      <trkpt lat="47.27783" lon="-1.6545">
        <ele>114</ele>
        <time>2013-10-20T09:08:45.000Z</time>
      </trkpt>
      <trkpt lat="47.27791" lon="-1.65452">
        <ele>114</ele>
        <time>2013-10-20T09:08:47.000Z</time>
      </trkpt>
      <trkpt lat="47.27799" lon="-1.65454">
        <ele>114</ele>
        <time>2013-10-20T09:08:49.000Z</time>
      </trkpt>
      <trkpt lat="47.27815" lon="-1.65458">
        <ele>114</ele>
        <time>2013-10-20T09:08:51.000Z</time>
      </trkpt>
      <trkpt lat="47.27829" lon="-1.65462">
        <ele>114</ele>
        <time>2013-10-20T09:08:55.000Z</time>
      </trkpt>
      <trkpt lat="47.27829" lon="-1.65462">
        <ele>114</ele>
        <time>2013-10-20T09:08:57.000Z</time>
      </trkpt>
      <trkpt lat="47.27846" lon="-1.65464">
        <ele>115</ele>
        <time>2013-10-20T09:08:59.000Z</time>
      </trkpt>
      <trkpt lat="47.27862" lon="-1.65471">
        <ele>115</ele>
        <time>2013-10-20T09:09:03.000Z</time>
      </trkpt>
      <trkpt lat="47.27874" lon="-1.65482">
        <ele>114</ele>
        <time>2013-10-20T09:09:07.000Z</time>
      </trkpt>
      <trkpt lat="47.27874" lon="-1.65482">
        <ele>114</ele>
        <time>2013-10-20T09:09:09.000Z</time>
      </trkpt>
      <trkpt lat="47.27885" lon="-1.65492">
        <ele>114</ele>
        <time>2013-10-20T09:09:11.000Z</time>
      </trkpt>
      <trkpt lat="47.27898" lon="-1.65504">
        <ele>114</ele>
        <time>2013-10-20T09:09:15.000Z</time>
      </trkpt>
      <trkpt lat="47.27896" lon="-1.6554">
        <ele>114</ele>
        <time>2013-10-20T09:09:19.000Z</time>
      </trkpt>
      <trkpt lat="47.27899" lon="-1.65561">
        <ele>113</ele>
        <time>2013-10-20T09:09:23.000Z</time>
      </trkpt>
      <trkpt lat="47.27899" lon="-1.65561">
        <ele>113</ele>
        <time>2013-10-20T09:09:25.000Z</time>
      </trkpt>
      <trkpt lat="47.27899" lon="-1.65561">
        <ele>113</ele>
        <time>2013-10-20T09:09:27.000Z</time>
      </trkpt>
      <trkpt lat="47.27899" lon="-1.65561">
        <ele>113</ele>
        <time>2013-10-20T09:09:29.000Z</time>
      </trkpt>
      <trkpt lat="47.27899" lon="-1.65561">
        <ele>113</ele>
        <time>2013-10-20T09:09:31.000Z</time>
      </trkpt>
      <trkpt lat="47.27899" lon="-1.65561">
        <ele>113</ele>
        <time>2013-10-20T09:09:33.000Z</time>
      </trkpt>
      <trkpt lat="47.27899" lon="-1.65561">
        <ele>113</ele>
        <time>2013-10-20T09:09:41.000Z</time>
      </trkpt>
      <trkpt lat="47.27899" lon="-1.65561">
        <ele>113</ele>
        <time>2013-10-20T09:09:43.000Z</time>
      </trkpt>
      <trkpt lat="47.27899" lon="-1.65561">
        <ele>113</ele>
        <time>2013-10-20T09:09:45.000Z</time>
      </trkpt>
      <trkpt lat="47.27905" lon="-1.65692">
        <ele>113</ele>
        <time>2013-10-20T09:09:47.000Z</time>
      </trkpt>
      <trkpt lat="47.27904" lon="-1.65715">
        <ele>112</ele>
        <time>2013-10-20T09:09:51.000Z</time>
      </trkpt>
      <trkpt lat="47.27904" lon="-1.65739">
        <ele>112</ele>
        <time>2013-10-20T09:09:55.000Z</time>
      </trkpt>
      <trkpt lat="47.27905" lon="-1.65765">
        <ele>113</ele>
        <time>2013-10-20T09:09:59.000Z</time>
      </trkpt>
      <trkpt lat="47.27906" lon="-1.65788">
        <ele>113</ele>
        <time>2013-10-20T09:10:03.000Z</time>
      </trkpt>
      <trkpt lat="47.27907" lon="-1.65812">
        <ele>113</ele>
        <time>2013-10-20T09:10:07.000Z</time>
      </trkpt>
      <trkpt lat="47.27907" lon="-1.65833">
        <ele>114</ele>
        <time>2013-10-20T09:10:11.000Z</time>
      </trkpt>
      <trkpt lat="47.27907" lon="-1.65833">
        <ele>114</ele>
        <time>2013-10-20T09:10:13.000Z</time>
      </trkpt>
      <trkpt lat="47.27907" lon="-1.65855">
        <ele>114</ele>
        <time>2013-10-20T09:10:15.000Z</time>
      </trkpt>
      <trkpt lat="47.27907" lon="-1.65855">
        <ele>114</ele>
        <time>2013-10-20T09:10:17.000Z</time>
      </trkpt>
      <trkpt lat="47.27907" lon="-1.65876">
        <ele>115</ele>
        <time>2013-10-20T09:10:19.000Z</time>
      </trkpt>
      <trkpt lat="47.27907" lon="-1.65876">
        <ele>115</ele>
        <time>2013-10-20T09:10:21.000Z</time>
      </trkpt>
      <trkpt lat="47.27907" lon="-1.65896">
        <ele>115</ele>
        <time>2013-10-20T09:10:23.000Z</time>
      </trkpt>
      <trkpt lat="47.27907" lon="-1.65896">
        <ele>115</ele>
        <time>2013-10-20T09:10:25.000Z</time>
      </trkpt>
      <trkpt lat="47.27907" lon="-1.65915">
        <ele>115</ele>
        <time>2013-10-20T09:10:27.000Z</time>
      </trkpt>
      <trkpt lat="47.27907" lon="-1.65915">
        <ele>115</ele>
        <time>2013-10-20T09:10:29.000Z</time>
      </trkpt>
      <trkpt lat="47.27907" lon="-1.65924">
        <ele>116</ele>
        <time>2013-10-20T09:10:31.000Z</time>
      </trkpt>
      <trkpt lat="47.27907" lon="-1.65936">
        <ele>116</ele>
        <time>2013-10-20T09:10:33.000Z</time>
      </trkpt>
      <trkpt lat="47.27907" lon="-1.65947">
        <ele>116</ele>
        <time>2013-10-20T09:10:35.000Z</time>
      </trkpt>
      <trkpt lat="47.27913" lon="-1.65958">
        <ele>116</ele>
        <time>2013-10-20T09:10:37.000Z</time>
      </trkpt>
      <trkpt lat="47.27916" lon="-1.65969">
        <ele>116</ele>
        <time>2013-10-20T09:10:39.000Z</time>
      </trkpt>
      <trkpt lat="47.27917" lon="-1.6599">
        <ele>116</ele>
        <time>2013-10-20T09:10:41.000Z</time>
      </trkpt>
      <trkpt lat="47.27921" lon="-1.66009">
        <ele>116</ele>
        <time>2013-10-20T09:10:45.000Z</time>
      </trkpt>
      <trkpt lat="47.27928" lon="-1.66031">
        <ele>116</ele>
        <time>2013-10-20T09:10:49.000Z</time>
      </trkpt>
      <trkpt lat="47.27928" lon="-1.66031">
        <ele>116</ele>
        <time>2013-10-20T09:10:51.000Z</time>
      </trkpt>
      <trkpt lat="47.27934" lon="-1.66052">
        <ele>116</ele>
        <time>2013-10-20T09:10:53.000Z</time>
      </trkpt>
      <trkpt lat="47.27942" lon="-1.6607">
        <ele>116</ele>
        <time>2013-10-20T09:10:57.000Z</time>
      </trkpt>
      <trkpt lat="47.2796" lon="-1.66076">
        <ele>115</ele>
        <time>2013-10-20T09:11:01.000Z</time>
      </trkpt>
      <trkpt lat="47.27969" lon="-1.66076">
        <ele>114</ele>
        <time>2013-10-20T09:11:03.000Z</time>
      </trkpt>
      <trkpt lat="47.2798" lon="-1.66078">
        <ele>114</ele>
        <time>2013-10-20T09:11:05.000Z</time>
      </trkpt>
      <trkpt lat="47.27992" lon="-1.66076">
        <ele>114</ele>
        <time>2013-10-20T09:11:07.000Z</time>
      </trkpt>
      <trkpt lat="47.28004" lon="-1.66076">
        <ele>114</ele>
        <time>2013-10-20T09:11:09.000Z</time>
      </trkpt>
      <trkpt lat="47.28015" lon="-1.66076">
        <ele>115</ele>
        <time>2013-10-20T09:11:11.000Z</time>
      </trkpt>
      <trkpt lat="47.28026" lon="-1.66076">
        <ele>116</ele>
        <time>2013-10-20T09:11:13.000Z</time>
      </trkpt>
      <trkpt lat="47.28038" lon="-1.66076">
        <ele>116</ele>
        <time>2013-10-20T09:11:15.000Z</time>
      </trkpt>
      <trkpt lat="47.28049" lon="-1.66078">
        <ele>117</ele>
        <time>2013-10-20T09:11:17.000Z</time>
      </trkpt>
      <trkpt lat="47.28061" lon="-1.66078">
        <ele>118</ele>
        <time>2013-10-20T09:11:19.000Z</time>
      </trkpt>
      <trkpt lat="47.28072" lon="-1.66078">
        <ele>118</ele>
        <time>2013-10-20T09:11:21.000Z</time>
      </trkpt>
      <trkpt lat="47.28083" lon="-1.66078">
        <ele>118</ele>
        <time>2013-10-20T09:11:23.000Z</time>
      </trkpt>
      <trkpt lat="47.28095" lon="-1.6608">
        <ele>119</ele>
        <time>2013-10-20T09:11:25.000Z</time>
      </trkpt>
      <trkpt lat="47.28106" lon="-1.6608">
        <ele>119</ele>
        <time>2013-10-20T09:11:27.000Z</time>
      </trkpt>
      <trkpt lat="47.28115" lon="-1.6608">
        <ele>119</ele>
        <time>2013-10-20T09:11:29.000Z</time>
      </trkpt>
      <trkpt lat="47.28126" lon="-1.66082">
        <ele>119</ele>
        <time>2013-10-20T09:11:31.000Z</time>
      </trkpt>
      <trkpt lat="47.28136" lon="-1.66084">
        <ele>120</ele>
        <time>2013-10-20T09:11:33.000Z</time>
      </trkpt>
      <trkpt lat="47.28145" lon="-1.66086">
        <ele>120</ele>
        <time>2013-10-20T09:11:35.000Z</time>
      </trkpt>
      <trkpt lat="47.28145" lon="-1.66086">
        <ele>120</ele>
        <time>2013-10-20T09:11:37.000Z</time>
      </trkpt>
      <trkpt lat="47.28161" lon="-1.66089">
        <ele>120</ele>
        <time>2013-10-20T09:11:39.000Z</time>
      </trkpt>
      <trkpt lat="47.28161" lon="-1.66089">
        <ele>120</ele>
        <time>2013-10-20T09:11:41.000Z</time>
      </trkpt>
      <trkpt lat="47.28179" lon="-1.66093">
        <ele>121</ele>
        <time>2013-10-20T09:11:43.000Z</time>
      </trkpt>
      <trkpt lat="47.28179" lon="-1.66093">
        <ele>121</ele>
        <time>2013-10-20T09:11:45.000Z</time>
      </trkpt>
      <trkpt lat="47.28195" lon="-1.66096">
        <ele>122</ele>
        <time>2013-10-20T09:11:47.000Z</time>
      </trkpt>
      <trkpt lat="47.28195" lon="-1.66096">
        <ele>122</ele>
        <time>2013-10-20T09:11:49.000Z</time>
      </trkpt>
      <trkpt lat="47.28209" lon="-1.66099">
        <ele>122</ele>
        <time>2013-10-20T09:11:51.000Z</time>
      </trkpt>
      <trkpt lat="47.28209" lon="-1.66099">
        <ele>122</ele>
        <time>2013-10-20T09:11:53.000Z</time>
      </trkpt>
      <trkpt lat="47.28224" lon="-1.66102">
        <ele>121</ele>
        <time>2013-10-20T09:11:55.000Z</time>
      </trkpt>
      <trkpt lat="47.28224" lon="-1.66102">
        <ele>121</ele>
        <time>2013-10-20T09:11:57.000Z</time>
      </trkpt>
      <trkpt lat="47.2824" lon="-1.66105">
        <ele>120</ele>
        <time>2013-10-20T09:11:59.000Z</time>
      </trkpt>
      <trkpt lat="47.28259" lon="-1.66076">
        <ele>119</ele>
        <time>2013-10-20T09:12:03.000Z</time>
      </trkpt>
      <trkpt lat="47.28276" lon="-1.66074">
        <ele>118</ele>
        <time>2013-10-20T09:12:07.000Z</time>
      </trkpt>
      <trkpt lat="47.28286" lon="-1.66074">
        <ele>117</ele>
        <time>2013-10-20T09:12:09.000Z</time>
      </trkpt>
      <trkpt lat="47.28296" lon="-1.66072">
        <ele>117</ele>
        <time>2013-10-20T09:12:11.000Z</time>
      </trkpt>
      <trkpt lat="47.28307" lon="-1.6607">
        <ele>117</ele>
        <time>2013-10-20T09:12:13.000Z</time>
      </trkpt>
      <trkpt lat="47.28307" lon="-1.6607">
        <ele>117</ele>
        <time>2013-10-20T09:12:15.000Z</time>
      </trkpt>
      <trkpt lat="47.28324" lon="-1.66067">
        <ele>117</ele>
        <time>2013-10-20T09:12:17.000Z</time>
      </trkpt>
      <trkpt lat="47.28324" lon="-1.66067">
        <ele>117</ele>
        <time>2013-10-20T09:12:19.000Z</time>
      </trkpt>
      <trkpt lat="47.28342" lon="-1.66065">
        <ele>116</ele>
        <time>2013-10-20T09:12:21.000Z</time>
      </trkpt>
      <trkpt lat="47.28351" lon="-1.66064">
        <ele>116</ele>
        <time>2013-10-20T09:12:23.000Z</time>
      </trkpt>
      <trkpt lat="47.28369" lon="-1.66062">
        <ele>115</ele>
        <time>2013-10-20T09:12:27.000Z</time>
      </trkpt>
      <trkpt lat="47.28369" lon="-1.66062">
        <ele>115</ele>
        <time>2013-10-20T09:12:29.000Z</time>
      </trkpt>
      <trkpt lat="47.28386" lon="-1.6606">
        <ele>115</ele>
        <time>2013-10-20T09:12:31.000Z</time>
      </trkpt>
      <trkpt lat="47.28397" lon="-1.66058">
        <ele>115</ele>
        <time>2013-10-20T09:12:33.000Z</time>
      </trkpt>
      <trkpt lat="47.28408" lon="-1.66057">
        <ele>117</ele>
        <time>2013-10-20T09:12:35.000Z</time>
      </trkpt>
      <trkpt lat="47.2842" lon="-1.66065">
        <ele>119</ele>
        <time>2013-10-20T09:12:37.000Z</time>
      </trkpt>
      <trkpt lat="47.28431" lon="-1.66067">
        <ele>120</ele>
        <time>2013-10-20T09:12:39.000Z</time>
      </trkpt>
      <trkpt lat="47.2844" lon="-1.66067">
        <ele>121</ele>
        <time>2013-10-20T09:12:41.000Z</time>
      </trkpt>
      <trkpt lat="47.2845" lon="-1.66067">
        <ele>121</ele>
        <time>2013-10-20T09:12:43.000Z</time>
      </trkpt>
      <trkpt lat="47.2846" lon="-1.66067">
        <ele>122</ele>
        <time>2013-10-20T09:12:45.000Z</time>
      </trkpt>
      <trkpt lat="47.28469" lon="-1.66067">
        <ele>122</ele>
        <time>2013-10-20T09:12:47.000Z</time>
      </trkpt>
      <trkpt lat="47.28469" lon="-1.66067">
        <ele>122</ele>
        <time>2013-10-20T09:12:49.000Z</time>
      </trkpt>
      <trkpt lat="47.28489" lon="-1.66067">
        <ele>123</ele>
        <time>2013-10-20T09:12:51.000Z</time>
      </trkpt>
      <trkpt lat="47.28489" lon="-1.66067">
        <ele>123</ele>
        <time>2013-10-20T09:12:53.000Z</time>
      </trkpt>
      <trkpt lat="47.28506" lon="-1.66067">
        <ele>123</ele>
        <time>2013-10-20T09:12:55.000Z</time>
      </trkpt>
      <trkpt lat="47.28506" lon="-1.66067">
        <ele>123</ele>
        <time>2013-10-20T09:12:57.000Z</time>
      </trkpt>
      <trkpt lat="47.2852" lon="-1.66067">
        <ele>123</ele>
        <time>2013-10-20T09:12:59.000Z</time>
      </trkpt>
      <trkpt lat="47.2852" lon="-1.66067">
        <ele>123</ele>
        <time>2013-10-20T09:13:01.000Z</time>
      </trkpt>
      <trkpt lat="47.28533" lon="-1.66067">
        <ele>123</ele>
        <time>2013-10-20T09:13:03.000Z</time>
      </trkpt>
      <trkpt lat="47.28533" lon="-1.66067">
        <ele>123</ele>
        <time>2013-10-20T09:13:05.000Z</time>
      </trkpt>
      <trkpt lat="47.28533" lon="-1.66067">
        <ele>123</ele>
        <time>2013-10-20T09:13:23.000Z</time>
      </trkpt>
      <trkpt lat="47.28533" lon="-1.66067">
        <ele>123</ele>
        <time>2013-10-20T09:13:29.000Z</time>
      </trkpt>
      <trkpt lat="47.2855" lon="-1.66061">
        <ele>122</ele>
        <time>2013-10-20T09:13:32.000Z</time>
      </trkpt>
      <trkpt lat="47.28569" lon="-1.66061">
        <ele>119</ele>
        <time>2013-10-20T09:13:36.000Z</time>
      </trkpt>
      <trkpt lat="47.2858" lon="-1.66059">
        <ele>119</ele>
        <time>2013-10-20T09:13:38.000Z</time>
      </trkpt>
      <trkpt lat="47.2859" lon="-1.66059">
        <ele>119</ele>
        <time>2013-10-20T09:13:40.000Z</time>
      </trkpt>
      <trkpt lat="47.28608" lon="-1.66054">
        <ele>119</ele>
        <time>2013-10-20T09:13:44.000Z</time>
      </trkpt>
      <trkpt lat="47.28626" lon="-1.6605">
        <ele>119</ele>
        <time>2013-10-20T09:13:48.000Z</time>
      </trkpt>
      <trkpt lat="47.28644" lon="-1.66048">
        <ele>119</ele>
        <time>2013-10-20T09:13:52.000Z</time>
      </trkpt>
      <trkpt lat="47.28654" lon="-1.66044">
        <ele>118</ele>
        <time>2013-10-20T09:13:54.000Z</time>
      </trkpt>
      <trkpt lat="47.28665" lon="-1.66042">
        <ele>118</ele>
        <time>2013-10-20T09:13:56.000Z</time>
      </trkpt>
      <trkpt lat="47.28674" lon="-1.66037">
        <ele>119</ele>
        <time>2013-10-20T09:13:58.000Z</time>
      </trkpt>
      <trkpt lat="47.28685" lon="-1.66033">
        <ele>120</ele>
        <time>2013-10-20T09:14:00.000Z</time>
      </trkpt>
      <trkpt lat="47.28696" lon="-1.66029">
        <ele>121</ele>
        <time>2013-10-20T09:14:02.000Z</time>
      </trkpt>
      <trkpt lat="47.28707" lon="-1.66024">
        <ele>122</ele>
        <time>2013-10-20T09:14:04.000Z</time>
      </trkpt>
      <trkpt lat="47.28716" lon="-1.66018">
        <ele>123</ele>
        <time>2013-10-20T09:14:06.000Z</time>
      </trkpt>
      <trkpt lat="47.28725" lon="-1.66012">
        <ele>123</ele>
        <time>2013-10-20T09:14:08.000Z</time>
      </trkpt>
      <trkpt lat="47.28734" lon="-1.66005">
        <ele>124</ele>
        <time>2013-10-20T09:14:10.000Z</time>
      </trkpt>
      <trkpt lat="47.28743" lon="-1.65997">
        <ele>124</ele>
        <time>2013-10-20T09:14:12.000Z</time>
      </trkpt>
      <trkpt lat="47.28753" lon="-1.65988">
        <ele>124</ele>
        <time>2013-10-20T09:14:14.000Z</time>
      </trkpt>
      <trkpt lat="47.28761" lon="-1.65979">
        <ele>124</ele>
        <time>2013-10-20T09:14:16.000Z</time>
      </trkpt>
      <trkpt lat="47.28777" lon="-1.65964">
        <ele>124</ele>
        <time>2013-10-20T09:14:20.000Z</time>
      </trkpt>
      <trkpt lat="47.28786" lon="-1.65956">
        <ele>124</ele>
        <time>2013-10-20T09:14:22.000Z</time>
      </trkpt>
      <trkpt lat="47.28793" lon="-1.65947">
        <ele>124</ele>
        <time>2013-10-20T09:14:24.000Z</time>
      </trkpt>
      <trkpt lat="47.28801" lon="-1.65936">
        <ele>123</ele>
        <time>2013-10-20T09:14:26.000Z</time>
      </trkpt>
      <trkpt lat="47.28808" lon="-1.65927">
        <ele>123</ele>
        <time>2013-10-20T09:14:28.000Z</time>
      </trkpt>
      <trkpt lat="47.28808" lon="-1.65927">
        <ele>123</ele>
        <time>2013-10-20T09:14:30.000Z</time>
      </trkpt>
      <trkpt lat="47.2882" lon="-1.65909">
        <ele>123</ele>
        <time>2013-10-20T09:14:32.000Z</time>
      </trkpt>
      <trkpt lat="47.28827" lon="-1.65899">
        <ele>123</ele>
        <time>2013-10-20T09:14:34.000Z</time>
      </trkpt>
      <trkpt lat="47.28834" lon="-1.6589">
        <ele>122</ele>
        <time>2013-10-20T09:14:36.000Z</time>
      </trkpt>
      <trkpt lat="47.28834" lon="-1.6589">
        <ele>122</ele>
        <time>2013-10-20T09:14:38.000Z</time>
      </trkpt>
      <trkpt lat="47.28839" lon="-1.65883">
        <ele>122</ele>
        <time>2013-10-20T09:14:40.000Z</time>
      </trkpt>
      <trkpt lat="47.28843" lon="-1.65877">
        <ele>122</ele>
        <time>2013-10-20T09:14:42.000Z</time>
      </trkpt>
      <trkpt lat="47.28846" lon="-1.65872">
        <ele>122</ele>
        <time>2013-10-20T09:14:44.000Z</time>
      </trkpt>
      <trkpt lat="47.2885" lon="-1.65866">
        <ele>122</ele>
        <time>2013-10-20T09:14:48.000Z</time>
      </trkpt>
      <trkpt lat="47.28856" lon="-1.6587">
        <ele>122</ele>
        <time>2013-10-20T09:14:54.000Z</time>
      </trkpt>
      <trkpt lat="47.28861" lon="-1.65877">
        <ele>121</ele>
        <time>2013-10-20T09:14:56.000Z</time>
      </trkpt>
      <trkpt lat="47.28867" lon="-1.65884">
        <ele>121</ele>
        <time>2013-10-20T09:14:58.000Z</time>
      </trkpt>
      <trkpt lat="47.28872" lon="-1.65891">
        <ele>121</ele>
        <time>2013-10-20T09:15:00.000Z</time>
      </trkpt>
      <trkpt lat="47.28878" lon="-1.65899">
        <ele>120</ele>
        <time>2013-10-20T09:15:02.000Z</time>
      </trkpt>
      <trkpt lat="47.2889" lon="-1.65915">
        <ele>120</ele>
        <time>2013-10-20T09:15:04.000Z</time>
      </trkpt>
      <trkpt lat="47.28897" lon="-1.65926">
        <ele>120</ele>
        <time>2013-10-20T09:15:06.000Z</time>
      </trkpt>
      <trkpt lat="47.28904" lon="-1.65936">
        <ele>119</ele>
        <time>2013-10-20T09:15:08.000Z</time>
      </trkpt>
      <trkpt lat="47.28912" lon="-1.65945">
        <ele>119</ele>
        <time>2013-10-20T09:15:10.000Z</time>
      </trkpt>
      <trkpt lat="47.28918" lon="-1.65956">
        <ele>119</ele>
        <time>2013-10-20T09:15:12.000Z</time>
      </trkpt>
      <trkpt lat="47.28925" lon="-1.65964">
        <ele>118</ele>
        <time>2013-10-20T09:15:14.000Z</time>
      </trkpt>
      <trkpt lat="47.28933" lon="-1.65973">
        <ele>118</ele>
        <time>2013-10-20T09:15:16.000Z</time>
      </trkpt>
      <trkpt lat="47.28941" lon="-1.65982">
        <ele>118</ele>
        <time>2013-10-20T09:15:18.000Z</time>
      </trkpt>
      <trkpt lat="47.28948" lon="-1.6599">
        <ele>117</ele>
        <time>2013-10-20T09:15:20.000Z</time>
      </trkpt>
      <trkpt lat="47.28955" lon="-1.65999">
        <ele>117</ele>
        <time>2013-10-20T09:15:22.000Z</time>
      </trkpt>
      <trkpt lat="47.28955" lon="-1.65999">
        <ele>117</ele>
        <time>2013-10-20T09:15:26.000Z</time>
      </trkpt>
      <trkpt lat="47.28955" lon="-1.65999">
        <ele>117</ele>
        <time>2013-10-20T09:15:28.000Z</time>
      </trkpt>
      <trkpt lat="47.28955" lon="-1.65999">
        <ele>117</ele>
        <time>2013-10-20T09:15:30.000Z</time>
      </trkpt>
      <trkpt lat="47.28955" lon="-1.65999">
        <ele>117</ele>
        <time>2013-10-20T09:15:32.000Z</time>
      </trkpt>
      <trkpt lat="47.28955" lon="-1.65999">
        <ele>117</ele>
        <time>2013-10-20T09:15:34.000Z</time>
      </trkpt>
      <trkpt lat="47.29013" lon="-1.66067">
        <ele>117</ele>
        <time>2013-10-20T09:15:38.000Z</time>
      </trkpt>
      <trkpt lat="47.2902" lon="-1.66078">
        <ele>117</ele>
        <time>2013-10-20T09:15:40.000Z</time>
      </trkpt>
      <trkpt lat="47.29026" lon="-1.66089">
        <ele>117</ele>
        <time>2013-10-20T09:15:42.000Z</time>
      </trkpt>
      <trkpt lat="47.29033" lon="-1.661">
        <ele>117</ele>
        <time>2013-10-20T09:15:44.000Z</time>
      </trkpt>
      <trkpt lat="47.29039" lon="-1.6611">
        <ele>117</ele>
        <time>2013-10-20T09:15:46.000Z</time>
      </trkpt>
      <trkpt lat="47.29045" lon="-1.66121">
        <ele>117</ele>
        <time>2013-10-20T09:15:48.000Z</time>
      </trkpt>
      <trkpt lat="47.29053" lon="-1.66132">
        <ele>116</ele>
        <time>2013-10-20T09:15:50.000Z</time>
      </trkpt>
      <trkpt lat="47.29061" lon="-1.66145">
        <ele>116</ele>
        <time>2013-10-20T09:15:52.000Z</time>
      </trkpt>
      <trkpt lat="47.29067" lon="-1.66157">
        <ele>115</ele>
        <time>2013-10-20T09:15:54.000Z</time>
      </trkpt>
      <trkpt lat="47.29076" lon="-1.66168">
        <ele>116</ele>
        <time>2013-10-20T09:15:56.000Z</time>
      </trkpt>
      <trkpt lat="47.29083" lon="-1.66181">
        <ele>115</ele>
        <time>2013-10-20T09:15:58.000Z</time>
      </trkpt>
      <trkpt lat="47.2909" lon="-1.66194">
        <ele>115</ele>
        <time>2013-10-20T09:16:00.000Z</time>
      </trkpt>
      <trkpt lat="47.29099" lon="-1.66207">
        <ele>116</ele>
        <time>2013-10-20T09:16:02.000Z</time>
      </trkpt>
      <trkpt lat="47.29109" lon="-1.66213">
        <ele>115</ele>
        <time>2013-10-20T09:16:04.000Z</time>
      </trkpt>
      <trkpt lat="47.29119" lon="-1.66218">
        <ele>115</ele>
        <time>2013-10-20T09:16:06.000Z</time>
      </trkpt>
      <trkpt lat="47.29131" lon="-1.66213">
        <ele>115</ele>
        <time>2013-10-20T09:16:08.000Z</time>
      </trkpt>
      <trkpt lat="47.29145" lon="-1.66208">
        <ele>116</ele>
        <time>2013-10-20T09:16:10.000Z</time>
      </trkpt>
      <trkpt lat="47.29157" lon="-1.66204">
        <ele>117</ele>
        <time>2013-10-20T09:16:12.000Z</time>
      </trkpt>
      <trkpt lat="47.29167" lon="-1.662">
        <ele>118</ele>
        <time>2013-10-20T09:16:14.000Z</time>
      </trkpt>
      <trkpt lat="47.29167" lon="-1.662">
        <ele>118</ele>
        <time>2013-10-20T09:16:16.000Z</time>
      </trkpt>
      <trkpt lat="47.29181" lon="-1.66195">
        <ele>120</ele>
        <time>2013-10-20T09:16:18.000Z</time>
      </trkpt>
      <trkpt lat="47.29181" lon="-1.66195">
        <ele>120</ele>
        <time>2013-10-20T09:16:20.000Z</time>
      </trkpt>
      <trkpt lat="47.2919" lon="-1.66192">
        <ele>121</ele>
        <time>2013-10-20T09:16:22.000Z</time>
      </trkpt>
      <trkpt lat="47.2919" lon="-1.66192">
        <ele>121</ele>
        <time>2013-10-20T09:16:24.000Z</time>
      </trkpt>
      <trkpt lat="47.2919" lon="-1.66192">
        <ele>121</ele>
        <time>2013-10-20T09:16:26.000Z</time>
      </trkpt>
      <trkpt lat="47.29203" lon="-1.66187">
        <ele>120</ele>
        <time>2013-10-20T09:16:28.000Z</time>
      </trkpt>
      <trkpt lat="47.29203" lon="-1.66187">
        <ele>120</ele>
        <time>2013-10-20T09:16:30.000Z</time>
      </trkpt>
      <trkpt lat="47.29203" lon="-1.66187">
        <ele>120</ele>
        <time>2013-10-20T09:16:32.000Z</time>
      </trkpt>
      <trkpt lat="47.29203" lon="-1.66187">
        <ele>120</ele>
        <time>2013-10-20T09:16:34.000Z</time>
      </trkpt>
      <trkpt lat="47.29203" lon="-1.66187">
        <ele>120</ele>
        <time>2013-10-20T09:16:36.000Z</time>
      </trkpt>
      <trkpt lat="47.29203" lon="-1.66187">
        <ele>120</ele>
        <time>2013-10-20T09:16:38.000Z</time>
      </trkpt>
      <trkpt lat="47.29203" lon="-1.66187">
        <ele>120</ele>
        <time>2013-10-20T09:16:40.000Z</time>
      </trkpt>
      <trkpt lat="47.29203" lon="-1.66187">
        <ele>120</ele>
        <time>2013-10-20T09:16:42.000Z</time>
      </trkpt>
      <trkpt lat="47.29203" lon="-1.66187">
        <ele>120</ele>
        <time>2013-10-20T09:16:44.000Z</time>
      </trkpt>
      <trkpt lat="47.29203" lon="-1.66187">
        <ele>120</ele>
        <time>2013-10-20T09:16:46.000Z</time>
      </trkpt>
      <trkpt lat="47.29203" lon="-1.66187">
        <ele>120</ele>
        <time>2013-10-20T09:16:48.000Z</time>
      </trkpt>
      <trkpt lat="47.29214" lon="-1.66183">
        <ele>121</ele>
        <time>2013-10-20T09:16:50.000Z</time>
      </trkpt>
      <trkpt lat="47.29268" lon="-1.66409">
        <ele>122</ele>
        <time>2013-10-20T09:16:56.000Z</time>
      </trkpt>
      <trkpt lat="47.2928" lon="-1.66426">
        <ele>123</ele>
        <time>2013-10-20T09:17:00.000Z</time>
      </trkpt>
      <trkpt lat="47.29293" lon="-1.66443">
        <ele>122</ele>
        <time>2013-10-20T09:17:04.000Z</time>
      </trkpt>
      <trkpt lat="47.29293" lon="-1.66443">
        <ele>122</ele>
        <time>2013-10-20T09:17:06.000Z</time>
      </trkpt>
      <trkpt lat="47.29305" lon="-1.6646">
        <ele>122</ele>
        <time>2013-10-20T09:17:08.000Z</time>
      </trkpt>
      <trkpt lat="47.29312" lon="-1.66471">
        <ele>121</ele>
        <time>2013-10-20T09:17:10.000Z</time>
      </trkpt>
      <trkpt lat="47.29318" lon="-1.66481">
        <ele>120</ele>
        <time>2013-10-20T09:17:12.000Z</time>
      </trkpt>
      <trkpt lat="47.29329" lon="-1.66503">
        <ele>120</ele>
        <time>2013-10-20T09:17:16.000Z</time>
      </trkpt>
      <trkpt lat="47.2934" lon="-1.66524">
        <ele>120</ele>
        <time>2013-10-20T09:17:20.000Z</time>
      </trkpt>
      <trkpt lat="47.29345" lon="-1.66537">
        <ele>120</ele>
        <time>2013-10-20T09:17:22.000Z</time>
      </trkpt>
      <trkpt lat="47.29345" lon="-1.66537">
        <ele>120</ele>
        <time>2013-10-20T09:17:24.000Z</time>
      </trkpt>
      <trkpt lat="47.29345" lon="-1.66537">
        <ele>120</ele>
        <time>2013-10-20T09:17:26.000Z</time>
      </trkpt>
      <trkpt lat="47.29355" lon="-1.6656">
        <ele>120</ele>
        <time>2013-10-20T09:17:30.000Z</time>
      </trkpt>
      <trkpt lat="47.29362" lon="-1.66576">
        <ele>121</ele>
        <time>2013-10-20T09:17:32.000Z</time>
      </trkpt>
      <trkpt lat="47.29369" lon="-1.6659">
        <ele>121</ele>
        <time>2013-10-20T09:17:34.000Z</time>
      </trkpt>
      <trkpt lat="47.29375" lon="-1.66602">
        <ele>121</ele>
        <time>2013-10-20T09:17:36.000Z</time>
      </trkpt>
      <trkpt lat="47.2938" lon="-1.66614">
        <ele>122</ele>
        <time>2013-10-20T09:17:38.000Z</time>
      </trkpt>
      <trkpt lat="47.2939" lon="-1.66636">
        <ele>123</ele>
        <time>2013-10-20T09:17:40.000Z</time>
      </trkpt>
      <trkpt lat="47.2939" lon="-1.66636">
        <ele>123</ele>
        <time>2013-10-20T09:17:42.000Z</time>
      </trkpt>
      <trkpt lat="47.29401" lon="-1.66658">
        <ele>124</ele>
        <time>2013-10-20T09:17:44.000Z</time>
      </trkpt>
      <trkpt lat="47.29407" lon="-1.6667">
        <ele>125</ele>
        <time>2013-10-20T09:17:46.000Z</time>
      </trkpt>
      <trkpt lat="47.29407" lon="-1.6667">
        <ele>125</ele>
        <time>2013-10-20T09:17:48.000Z</time>
      </trkpt>
      <trkpt lat="47.29416" lon="-1.6669">
        <ele>125</ele>
        <time>2013-10-20T09:17:50.000Z</time>
      </trkpt>
      <trkpt lat="47.29416" lon="-1.6669">
        <ele>125</ele>
        <time>2013-10-20T09:17:52.000Z</time>
      </trkpt>
      <trkpt lat="47.29424" lon="-1.66706">
        <ele>126</ele>
        <time>2013-10-20T09:17:54.000Z</time>
      </trkpt>
      <trkpt lat="47.29424" lon="-1.66706">
        <ele>126</ele>
        <time>2013-10-20T09:17:56.000Z</time>
      </trkpt>
      <trkpt lat="47.29432" lon="-1.66722">
        <ele>126</ele>
        <time>2013-10-20T09:17:58.000Z</time>
      </trkpt>
      <trkpt lat="47.29432" lon="-1.66722">
        <ele>126</ele>
        <time>2013-10-20T09:18:00.000Z</time>
      </trkpt>
      <trkpt lat="47.29441" lon="-1.6674">
        <ele>127</ele>
        <time>2013-10-20T09:18:02.000Z</time>
      </trkpt>
      <trkpt lat="47.29441" lon="-1.6674">
        <ele>127</ele>
        <time>2013-10-20T09:18:04.000Z</time>
      </trkpt>
      <trkpt lat="47.29448" lon="-1.66755">
        <ele>128</ele>
        <time>2013-10-20T09:18:06.000Z</time>
      </trkpt>
      <trkpt lat="47.29448" lon="-1.66755">
        <ele>128</ele>
        <time>2013-10-20T09:18:08.000Z</time>
      </trkpt>
      <trkpt lat="47.29448" lon="-1.66755">
        <ele>128</ele>
        <time>2013-10-20T09:18:10.000Z</time>
      </trkpt>
      <trkpt lat="47.29457" lon="-1.66775">
        <ele>129</ele>
        <time>2013-10-20T09:18:12.000Z</time>
      </trkpt>
      <trkpt lat="47.29457" lon="-1.66775">
        <ele>129</ele>
        <time>2013-10-20T09:18:14.000Z</time>
      </trkpt>
      <trkpt lat="47.29457" lon="-1.66775">
        <ele>129</ele>
        <time>2013-10-20T09:18:16.000Z</time>
      </trkpt>
      <trkpt lat="47.29467" lon="-1.66797">
        <ele>128</ele>
        <time>2013-10-20T09:18:18.000Z</time>
      </trkpt>
      <trkpt lat="47.29467" lon="-1.66797">
        <ele>128</ele>
        <time>2013-10-20T09:18:20.000Z</time>
      </trkpt>
      <trkpt lat="47.29475" lon="-1.66812">
        <ele>127</ele>
        <time>2013-10-20T09:18:22.000Z</time>
      </trkpt>
      <trkpt lat="47.29475" lon="-1.66812">
        <ele>127</ele>
        <time>2013-10-20T09:18:24.000Z</time>
      </trkpt>
      <trkpt lat="47.29483" lon="-1.6683">
        <ele>127</ele>
        <time>2013-10-20T09:18:26.000Z</time>
      </trkpt>
      <trkpt lat="47.29483" lon="-1.6683">
        <ele>127</ele>
        <time>2013-10-20T09:18:28.000Z</time>
      </trkpt>
      <trkpt lat="47.29491" lon="-1.66847">
        <ele>127</ele>
        <time>2013-10-20T09:18:30.000Z</time>
      </trkpt>
      <trkpt lat="47.29491" lon="-1.66847">
        <ele>127</ele>
        <time>2013-10-20T09:18:32.000Z</time>
      </trkpt>
      <trkpt lat="47.29501" lon="-1.66866">
        <ele>127</ele>
        <time>2013-10-20T09:18:34.000Z</time>
      </trkpt>
      <trkpt lat="47.29501" lon="-1.66866">
        <ele>127</ele>
        <time>2013-10-20T09:18:36.000Z</time>
      </trkpt>
      <trkpt lat="47.2951" lon="-1.66886">
        <ele>127</ele>
        <time>2013-10-20T09:18:38.000Z</time>
      </trkpt>
      <trkpt lat="47.2951" lon="-1.66886">
        <ele>127</ele>
        <time>2013-10-20T09:18:40.000Z</time>
      </trkpt>
      <trkpt lat="47.29519" lon="-1.66904">
        <ele>127</ele>
        <time>2013-10-20T09:18:42.000Z</time>
      </trkpt>
      <trkpt lat="47.29519" lon="-1.66904">
        <ele>127</ele>
        <time>2013-10-20T09:18:44.000Z</time>
      </trkpt>
      <trkpt lat="47.29527" lon="-1.6692">
        <ele>127</ele>
        <time>2013-10-20T09:18:46.000Z</time>
      </trkpt>
      <trkpt lat="47.29451" lon="-1.67022">
        <ele>127</ele>
        <time>2013-10-20T09:18:50.000Z</time>
      </trkpt>
      <trkpt lat="47.29452" lon="-1.67042">
        <ele>127</ele>
        <time>2013-10-20T09:18:54.000Z</time>
      </trkpt>
      <trkpt lat="47.29452" lon="-1.67063">
        <ele>127</ele>
        <time>2013-10-20T09:18:58.000Z</time>
      </trkpt>
      <trkpt lat="47.29456" lon="-1.67084">
        <ele>127</ele>
        <time>2013-10-20T09:19:02.000Z</time>
      </trkpt>
      <trkpt lat="47.29459" lon="-1.67106">
        <ele>127</ele>
        <time>2013-10-20T09:19:06.000Z</time>
      </trkpt>
      <trkpt lat="47.29462" lon="-1.67125">
        <ele>128</ele>
        <time>2013-10-20T09:19:10.000Z</time>
      </trkpt>
      <trkpt lat="47.29467" lon="-1.67145">
        <ele>128</ele>
        <time>2013-10-20T09:19:14.000Z</time>
      </trkpt>
      <trkpt lat="47.29473" lon="-1.6717">
        <ele>128</ele>
        <time>2013-10-20T09:19:18.000Z</time>
      </trkpt>
      <trkpt lat="47.29481" lon="-1.672">
        <ele>125</ele>
        <time>2013-10-20T09:19:21.000Z</time>
      </trkpt>
      <trkpt lat="47.29486" lon="-1.6722">
        <ele>124</ele>
        <time>2013-10-20T09:19:23.000Z</time>
      </trkpt>
      <trkpt lat="47.29493" lon="-1.67239">
        <ele>123</ele>
        <time>2013-10-20T09:19:25.000Z</time>
      </trkpt>
      <trkpt lat="47.29498" lon="-1.67256">
        <ele>121</ele>
        <time>2013-10-20T09:19:27.000Z</time>
      </trkpt>
      <trkpt lat="47.29504" lon="-1.67273">
        <ele>120</ele>
        <time>2013-10-20T09:19:29.000Z</time>
      </trkpt>
      <trkpt lat="47.29508" lon="-1.6729">
        <ele>120</ele>
        <time>2013-10-20T09:19:31.000Z</time>
      </trkpt>
      <trkpt lat="47.29512" lon="-1.6731">
        <ele>119</ele>
        <time>2013-10-20T09:19:33.000Z</time>
      </trkpt>
      <trkpt lat="47.29515" lon="-1.67329">
        <ele>119</ele>
        <time>2013-10-20T09:19:35.000Z</time>
      </trkpt>
      <trkpt lat="47.29519" lon="-1.67346">
        <ele>119</ele>
        <time>2013-10-20T09:19:37.000Z</time>
      </trkpt>
      <trkpt lat="47.29522" lon="-1.67363">
        <ele>119</ele>
        <time>2013-10-20T09:19:39.000Z</time>
      </trkpt>
      <trkpt lat="47.29525" lon="-1.67383">
        <ele>121</ele>
        <time>2013-10-20T09:19:41.000Z</time>
      </trkpt>
      <trkpt lat="47.29528" lon="-1.674">
        <ele>122</ele>
        <time>2013-10-20T09:19:43.000Z</time>
      </trkpt>
      <trkpt lat="47.29535" lon="-1.67417">
        <ele>123</ele>
        <time>2013-10-20T09:19:45.000Z</time>
      </trkpt>
      <trkpt lat="47.29541" lon="-1.67434">
        <ele>124</ele>
        <time>2013-10-20T09:19:47.000Z</time>
      </trkpt>
      <trkpt lat="47.29554" lon="-1.67449">
        <ele>123</ele>
        <time>2013-10-20T09:19:49.000Z</time>
      </trkpt>
      <trkpt lat="47.29569" lon="-1.6746">
        <ele>121</ele>
        <time>2013-10-20T09:19:51.000Z</time>
      </trkpt>
      <trkpt lat="47.29585" lon="-1.67466">
        <ele>121</ele>
        <time>2013-10-20T09:19:53.000Z</time>
      </trkpt>
      <trkpt lat="47.29599" lon="-1.67479">
        <ele>121</ele>
        <time>2013-10-20T09:19:55.000Z</time>
      </trkpt>
      <trkpt lat="47.29611" lon="-1.67492">
        <ele>121</ele>
        <time>2013-10-20T09:19:57.000Z</time>
      </trkpt>
      <trkpt lat="47.29622" lon="-1.67507">
        <ele>121</ele>
        <time>2013-10-20T09:19:59.000Z</time>
      </trkpt>
      <trkpt lat="47.2963" lon="-1.67524">
        <ele>121</ele>
        <time>2013-10-20T09:20:01.000Z</time>
      </trkpt>
      <trkpt lat="47.29639" lon="-1.67546">
        <ele>121</ele>
        <time>2013-10-20T09:20:03.000Z</time>
      </trkpt>
      <trkpt lat="47.29647" lon="-1.67567">
        <ele>121</ele>
        <time>2013-10-20T09:20:05.000Z</time>
      </trkpt>
      <trkpt lat="47.29656" lon="-1.67587">
        <ele>121</ele>
        <time>2013-10-20T09:20:07.000Z</time>
      </trkpt>
      <trkpt lat="47.29666" lon="-1.67606">
        <ele>120</ele>
        <time>2013-10-20T09:20:09.000Z</time>
      </trkpt>
      <trkpt lat="47.29679" lon="-1.67621">
        <ele>120</ele>
        <time>2013-10-20T09:20:11.000Z</time>
      </trkpt>
      <trkpt lat="47.29692" lon="-1.67632">
        <ele>119</ele>
        <time>2013-10-20T09:20:13.000Z</time>
      </trkpt>
      <trkpt lat="47.29707" lon="-1.6764">
        <ele>119</ele>
        <time>2013-10-20T09:20:15.000Z</time>
      </trkpt>
      <trkpt lat="47.2972" lon="-1.67649">
        <ele>119</ele>
        <time>2013-10-20T09:20:17.000Z</time>
      </trkpt>
      <trkpt lat="47.29732" lon="-1.67657">
        <ele>119</ele>
        <time>2013-10-20T09:20:19.000Z</time>
      </trkpt>
      <trkpt lat="47.29744" lon="-1.67666">
        <ele>119</ele>
        <time>2013-10-20T09:20:21.000Z</time>
      </trkpt>
      <trkpt lat="47.29753" lon="-1.67677">
        <ele>118</ele>
        <time>2013-10-20T09:20:23.000Z</time>
      </trkpt>
      <trkpt lat="47.29757" lon="-1.67692">
        <ele>118</ele>
        <time>2013-10-20T09:20:25.000Z</time>
      </trkpt>
      <trkpt lat="47.2976" lon="-1.67707">
        <ele>117</ele>
        <time>2013-10-20T09:20:27.000Z</time>
      </trkpt>
      <trkpt lat="47.29765" lon="-1.67722">
        <ele>116</ele>
        <time>2013-10-20T09:20:29.000Z</time>
      </trkpt>
      <trkpt lat="47.29769" lon="-1.67737">
        <ele>115</ele>
        <time>2013-10-20T09:20:31.000Z</time>
      </trkpt>
      <trkpt lat="47.29773" lon="-1.6775">
        <ele>115</ele>
        <time>2013-10-20T09:20:33.000Z</time>
      </trkpt>
      <trkpt lat="47.29773" lon="-1.6775">
        <ele>115</ele>
        <time>2013-10-20T09:20:35.000Z</time>
      </trkpt>
      <trkpt lat="47.29779" lon="-1.67772">
        <ele>115</ele>
        <time>2013-10-20T09:20:37.000Z</time>
      </trkpt>
      <trkpt lat="47.29779" lon="-1.67772">
        <ele>115</ele>
        <time>2013-10-20T09:20:39.000Z</time>
      </trkpt>
      <trkpt lat="47.29784" lon="-1.67792">
        <ele>115</ele>
        <time>2013-10-20T09:20:41.000Z</time>
      </trkpt>
      <trkpt lat="47.29784" lon="-1.67792">
        <ele>115</ele>
        <time>2013-10-20T09:20:43.000Z</time>
      </trkpt>
      <trkpt lat="47.2979" lon="-1.67814">
        <ele>115</ele>
        <time>2013-10-20T09:20:45.000Z</time>
      </trkpt>
      <trkpt lat="47.2979" lon="-1.67814">
        <ele>115</ele>
        <time>2013-10-20T09:20:47.000Z</time>
      </trkpt>
      <trkpt lat="47.29796" lon="-1.67833">
        <ele>115</ele>
        <time>2013-10-20T09:20:49.000Z</time>
      </trkpt>
      <trkpt lat="47.29796" lon="-1.67833">
        <ele>115</ele>
        <time>2013-10-20T09:20:51.000Z</time>
      </trkpt>
      <trkpt lat="47.29799" lon="-1.67842">
        <ele>115</ele>
        <time>2013-10-20T09:20:53.000Z</time>
      </trkpt>
      <trkpt lat="47.29801" lon="-1.67851">
        <ele>115</ele>
        <time>2013-10-20T09:20:55.000Z</time>
      </trkpt>
      <trkpt lat="47.29804" lon="-1.6786">
        <ele>116</ele>
        <time>2013-10-20T09:20:57.000Z</time>
      </trkpt>
      <trkpt lat="47.29807" lon="-1.67869">
        <ele>116</ele>
        <time>2013-10-20T09:20:59.000Z</time>
      </trkpt>
      <trkpt lat="47.29809" lon="-1.67878">
        <ele>116</ele>
        <time>2013-10-20T09:21:01.000Z</time>
      </trkpt>
      <trkpt lat="47.29823" lon="-1.67891">
        <ele>116</ele>
        <time>2013-10-20T09:21:03.000Z</time>
      </trkpt>
      <trkpt lat="47.29831" lon="-1.67911">
        <ele>116</ele>
        <time>2013-10-20T09:21:07.000Z</time>
      </trkpt>
      <trkpt lat="47.29839" lon="-1.6793">
        <ele>117</ele>
        <time>2013-10-20T09:21:11.000Z</time>
      </trkpt>
      <trkpt lat="47.29845" lon="-1.67949">
        <ele>117</ele>
        <time>2013-10-20T09:21:15.000Z</time>
      </trkpt>
      <trkpt lat="47.29852" lon="-1.67969">
        <ele>118</ele>
        <time>2013-10-20T09:21:19.000Z</time>
      </trkpt>
      <trkpt lat="47.29852" lon="-1.67969">
        <ele>118</ele>
        <time>2013-10-20T09:21:23.000Z</time>
      </trkpt>
      <trkpt lat="47.29852" lon="-1.67969">
        <ele>118</ele>
        <time>2013-10-20T09:21:25.000Z</time>
      </trkpt>
      <trkpt lat="47.29852" lon="-1.67969">
        <ele>118</ele>
        <time>2013-10-20T09:21:27.000Z</time>
      </trkpt>
      <trkpt lat="47.29852" lon="-1.67969">
        <ele>118</ele>
        <time>2013-10-20T09:21:29.000Z</time>
      </trkpt>
      <trkpt lat="47.29852" lon="-1.67969">
        <ele>118</ele>
        <time>2013-10-20T09:21:31.000Z</time>
      </trkpt>
      <trkpt lat="47.29869" lon="-1.68035">
        <ele>119</ele>
        <time>2013-10-20T09:21:33.000Z</time>
      </trkpt>
      <trkpt lat="47.29874" lon="-1.68056">
        <ele>120</ele>
        <time>2013-10-20T09:21:37.000Z</time>
      </trkpt>
      <trkpt lat="47.29881" lon="-1.68078">
        <ele>121</ele>
        <time>2013-10-20T09:21:41.000Z</time>
      </trkpt>
      <trkpt lat="47.2989" lon="-1.68097">
        <ele>121</ele>
        <time>2013-10-20T09:21:45.000Z</time>
      </trkpt>
      <trkpt lat="47.29901" lon="-1.68119">
        <ele>121</ele>
        <time>2013-10-20T09:21:49.000Z</time>
      </trkpt>
      <trkpt lat="47.29911" lon="-1.68136">
        <ele>120</ele>
        <time>2013-10-20T09:21:53.000Z</time>
      </trkpt>
      <trkpt lat="47.29922" lon="-1.68149">
        <ele>120</ele>
        <time>2013-10-20T09:21:57.000Z</time>
      </trkpt>
      <trkpt lat="47.29922" lon="-1.68149">
        <ele>120</ele>
        <time>2013-10-20T09:21:59.000Z</time>
      </trkpt>
      <trkpt lat="47.29934" lon="-1.68162">
        <ele>120</ele>
        <time>2013-10-20T09:22:01.000Z</time>
      </trkpt>
      <trkpt lat="47.29934" lon="-1.68162">
        <ele>120</ele>
        <time>2013-10-20T09:22:03.000Z</time>
      </trkpt>
      <trkpt lat="47.29945" lon="-1.68176">
        <ele>121</ele>
        <time>2013-10-20T09:22:05.000Z</time>
      </trkpt>
      <trkpt lat="47.29972" lon="-1.68159">
        <ele>121</ele>
        <time>2013-10-20T09:22:09.000Z</time>
      </trkpt>
      <trkpt lat="47.29982" lon="-1.68162">
        <ele>122</ele>
        <time>2013-10-20T09:22:11.000Z</time>
      </trkpt>
      <trkpt lat="47.29992" lon="-1.68164">
        <ele>122</ele>
        <time>2013-10-20T09:22:13.000Z</time>
      </trkpt>
      <trkpt lat="47.30008" lon="-1.6817">
        <ele>123</ele>
        <time>2013-10-20T09:22:17.000Z</time>
      </trkpt>
      <trkpt lat="47.30017" lon="-1.68177">
        <ele>123</ele>
        <time>2013-10-20T09:22:19.000Z</time>
      </trkpt>
      <trkpt lat="47.30027" lon="-1.68198">
        <ele>123</ele>
        <time>2013-10-20T09:22:23.000Z</time>
      </trkpt>
      <trkpt lat="47.3003" lon="-1.68211">
        <ele>123</ele>
        <time>2013-10-20T09:22:25.000Z</time>
      </trkpt>
      <trkpt lat="47.30034" lon="-1.68224">
        <ele>123</ele>
        <time>2013-10-20T09:22:27.000Z</time>
      </trkpt>
      <trkpt lat="47.30038" lon="-1.68237">
        <ele>123</ele>
        <time>2013-10-20T09:22:29.000Z</time>
      </trkpt>
      <trkpt lat="47.30049" lon="-1.68256">
        <ele>122</ele>
        <time>2013-10-20T09:22:33.000Z</time>
      </trkpt>
      <trkpt lat="47.30049" lon="-1.68256">
        <ele>122</ele>
        <time>2013-10-20T09:22:35.000Z</time>
      </trkpt>
      <trkpt lat="47.30058" lon="-1.68272">
        <ele>122</ele>
        <time>2013-10-20T09:22:37.000Z</time>
      </trkpt>
      <trkpt lat="47.30058" lon="-1.68272">
        <ele>122</ele>
        <time>2013-10-20T09:22:39.000Z</time>
      </trkpt>
      <trkpt lat="47.30067" lon="-1.68289">
        <ele>122</ele>
        <time>2013-10-20T09:22:41.000Z</time>
      </trkpt>
      <trkpt lat="47.30067" lon="-1.68289">
        <ele>122</ele>
        <time>2013-10-20T09:22:43.000Z</time>
      </trkpt>
      <trkpt lat="47.30076" lon="-1.68305">
        <ele>121</ele>
        <time>2013-10-20T09:22:45.000Z</time>
      </trkpt>
      <trkpt lat="47.30076" lon="-1.68305">
        <ele>121</ele>
        <time>2013-10-20T09:22:47.000Z</time>
      </trkpt>
      <trkpt lat="47.30085" lon="-1.68322">
        <ele>121</ele>
        <time>2013-10-20T09:22:49.000Z</time>
      </trkpt>
      <trkpt lat="47.30085" lon="-1.68322">
        <ele>121</ele>
        <time>2013-10-20T09:22:51.000Z</time>
      </trkpt>
      <trkpt lat="47.30094" lon="-1.68337">
        <ele>121</ele>
        <time>2013-10-20T09:22:53.000Z</time>
      </trkpt>
      <trkpt lat="47.30094" lon="-1.68337">
        <ele>121</ele>
        <time>2013-10-20T09:22:55.000Z</time>
      </trkpt>
      <trkpt lat="47.30103" lon="-1.68353">
        <ele>119</ele>
        <time>2013-10-20T09:22:57.000Z</time>
      </trkpt>
      <trkpt lat="47.30117" lon="-1.6835">
        <ele>118</ele>
        <time>2013-10-20T09:22:59.000Z</time>
      </trkpt>
      <trkpt lat="47.30126" lon="-1.6837">
        <ele>117</ele>
        <time>2013-10-20T09:23:03.000Z</time>
      </trkpt>
      <trkpt lat="47.3013" lon="-1.68379">
        <ele>116</ele>
        <time>2013-10-20T09:23:07.000Z</time>
      </trkpt>
      <trkpt lat="47.30135" lon="-1.68389">
        <ele>116</ele>
        <time>2013-10-20T09:23:09.000Z</time>
      </trkpt>
      <trkpt lat="47.30138" lon="-1.68397">
        <ele>116</ele>
        <time>2013-10-20T09:23:11.000Z</time>
      </trkpt>
      <trkpt lat="47.30142" lon="-1.68404">
        <ele>116</ele>
        <time>2013-10-20T09:23:13.000Z</time>
      </trkpt>
      <trkpt lat="47.30142" lon="-1.68404">
        <ele>116</ele>
        <time>2013-10-20T09:23:15.000Z</time>
      </trkpt>
      <trkpt lat="47.30145" lon="-1.68411">
        <ele>116</ele>
        <time>2013-10-20T09:23:17.000Z</time>
      </trkpt>
      <trkpt lat="47.30148" lon="-1.68418">
        <ele>116</ele>
        <time>2013-10-20T09:23:19.000Z</time>
      </trkpt>
      <trkpt lat="47.30151" lon="-1.68424">
        <ele>117</ele>
        <time>2013-10-20T09:23:21.000Z</time>
      </trkpt>
      <trkpt lat="47.30154" lon="-1.6843">
        <ele>117</ele>
        <time>2013-10-20T09:23:23.000Z</time>
      </trkpt>
      <trkpt lat="47.30157" lon="-1.68436">
        <ele>117</ele>
        <time>2013-10-20T09:23:25.000Z</time>
      </trkpt>
      <trkpt lat="47.30163" lon="-1.68448">
        <ele>117</ele>
        <time>2013-10-20T09:23:27.000Z</time>
      </trkpt>
      <trkpt lat="47.30163" lon="-1.68448">
        <ele>117</ele>
        <time>2013-10-20T09:23:29.000Z</time>
      </trkpt>
      <trkpt lat="47.3017" lon="-1.68463">
        <ele>117</ele>
        <time>2013-10-20T09:23:31.000Z</time>
      </trkpt>
      <trkpt lat="47.30219" lon="-1.68423">
        <ele>118</ele>
        <time>2013-10-20T09:23:33.000Z</time>
      </trkpt>
      <trkpt lat="47.30232" lon="-1.68432">
        <ele>118</ele>
        <time>2013-10-20T09:23:37.000Z</time>
      </trkpt>
      <trkpt lat="47.30244" lon="-1.68445">
        <ele>118</ele>
        <time>2013-10-20T09:23:41.000Z</time>
      </trkpt>
      <trkpt lat="47.30244" lon="-1.68445">
        <ele>118</ele>
        <time>2013-10-20T09:23:43.000Z</time>
      </trkpt>
      <trkpt lat="47.30244" lon="-1.68445">
        <ele>118</ele>
        <time>2013-10-20T09:23:45.000Z</time>
      </trkpt>
      <trkpt lat="47.30244" lon="-1.68445">
        <ele>118</ele>
        <time>2013-10-20T09:23:47.000Z</time>
      </trkpt>
      <trkpt lat="47.30244" lon="-1.68445">
        <ele>118</ele>
        <time>2013-10-20T09:23:49.000Z</time>
      </trkpt>
      <trkpt lat="47.30244" lon="-1.68445">
        <ele>118</ele>
        <time>2013-10-20T09:23:51.000Z</time>
      </trkpt>
      <trkpt lat="47.30244" lon="-1.68445">
        <ele>118</ele>
        <time>2013-10-20T09:23:53.000Z</time>
      </trkpt>
      <trkpt lat="47.30244" lon="-1.68445">
        <ele>118</ele>
        <time>2013-10-20T09:23:55.000Z</time>
      </trkpt>
      <trkpt lat="47.30244" lon="-1.68445">
        <ele>118</ele>
        <time>2013-10-20T09:23:57.000Z</time>
      </trkpt>
      <trkpt lat="47.30244" lon="-1.68445">
        <ele>118</ele>
        <time>2013-10-20T09:23:59.000Z</time>
      </trkpt>
      <trkpt lat="47.30244" lon="-1.68445">
        <ele>118</ele>
        <time>2013-10-20T09:24:01.000Z</time>
      </trkpt>
      <trkpt lat="47.30306" lon="-1.68539">
        <ele>119</ele>
        <time>2013-10-20T09:24:05.000Z</time>
      </trkpt>
      <trkpt lat="47.30318" lon="-1.68554">
        <ele>119</ele>
        <time>2013-10-20T09:24:09.000Z</time>
      </trkpt>
      <trkpt lat="47.30329" lon="-1.68571">
        <ele>119</ele>
        <time>2013-10-20T09:24:13.000Z</time>
      </trkpt>
      <trkpt lat="47.30336" lon="-1.68593">
        <ele>120</ele>
        <time>2013-10-20T09:24:17.000Z</time>
      </trkpt>
      <trkpt lat="47.30341" lon="-1.68614">
        <ele>120</ele>
        <time>2013-10-20T09:24:21.000Z</time>
      </trkpt>
      <trkpt lat="47.30341" lon="-1.68614">
        <ele>120</ele>
        <time>2013-10-20T09:24:23.000Z</time>
      </trkpt>
      <trkpt lat="47.30345" lon="-1.68636">
        <ele>121</ele>
        <time>2013-10-20T09:24:25.000Z</time>
      </trkpt>
      <trkpt lat="47.30349" lon="-1.68659">
        <ele>125</ele>
        <time>2013-10-20T09:24:29.000Z</time>
      </trkpt>
      <trkpt lat="47.30352" lon="-1.68685">
        <ele>127</ele>
        <time>2013-10-20T09:24:33.000Z</time>
      </trkpt>
      <trkpt lat="47.30357" lon="-1.68711">
        <ele>127</ele>
        <time>2013-10-20T09:24:37.000Z</time>
      </trkpt>
      <trkpt lat="47.30358" lon="-1.68726">
        <ele>127</ele>
        <time>2013-10-20T09:24:39.000Z</time>
      </trkpt>
      <trkpt lat="47.30359" lon="-1.68741">
        <ele>126</ele>
        <time>2013-10-20T09:24:41.000Z</time>
      </trkpt>
      <trkpt lat="47.3036" lon="-1.68758">
        <ele>126</ele>
        <time>2013-10-20T09:24:43.000Z</time>
      </trkpt>
      <trkpt lat="47.30361" lon="-1.68773">
        <ele>125</ele>
        <time>2013-10-20T09:24:45.000Z</time>
      </trkpt>
      <trkpt lat="47.30362" lon="-1.6879">
        <ele>125</ele>
        <time>2013-10-20T09:24:47.000Z</time>
      </trkpt>
      <trkpt lat="47.30363" lon="-1.68805">
        <ele>126</ele>
        <time>2013-10-20T09:24:49.000Z</time>
      </trkpt>
      <trkpt lat="47.30364" lon="-1.68823">
        <ele>126</ele>
        <time>2013-10-20T09:24:51.000Z</time>
      </trkpt>
      <trkpt lat="47.30365" lon="-1.68838">
        <ele>126</ele>
        <time>2013-10-20T09:24:53.000Z</time>
      </trkpt>
      <trkpt lat="47.30367" lon="-1.68855">
        <ele>125</ele>
        <time>2013-10-20T09:24:55.000Z</time>
      </trkpt>
      <trkpt lat="47.30373" lon="-1.6887">
        <ele>125</ele>
        <time>2013-10-20T09:24:57.000Z</time>
      </trkpt>
      <trkpt lat="47.30378" lon="-1.68885">
        <ele>124</ele>
        <time>2013-10-20T09:24:59.000Z</time>
      </trkpt>
      <trkpt lat="47.30384" lon="-1.68898">
        <ele>123</ele>
        <time>2013-10-20T09:25:01.000Z</time>
      </trkpt>
      <trkpt lat="47.30389" lon="-1.68913">
        <ele>123</ele>
        <time>2013-10-20T09:25:03.000Z</time>
      </trkpt>
      <trkpt lat="47.30394" lon="-1.68925">
        <ele>123</ele>
        <time>2013-10-20T09:25:05.000Z</time>
      </trkpt>
      <trkpt lat="47.30399" lon="-1.6894">
        <ele>123</ele>
        <time>2013-10-20T09:25:07.000Z</time>
      </trkpt>
      <trkpt lat="47.30403" lon="-1.68953">
        <ele>122</ele>
        <time>2013-10-20T09:25:09.000Z</time>
      </trkpt>
      <trkpt lat="47.30408" lon="-1.68965">
        <ele>122</ele>
        <time>2013-10-20T09:25:11.000Z</time>
      </trkpt>
      <trkpt lat="47.30412" lon="-1.68978">
        <ele>122</ele>
        <time>2013-10-20T09:25:13.000Z</time>
      </trkpt>
      <trkpt lat="47.30412" lon="-1.68978">
        <ele>122</ele>
        <time>2013-10-20T09:25:15.000Z</time>
      </trkpt>
      <trkpt lat="47.30419" lon="-1.68996">
        <ele>121</ele>
        <time>2013-10-20T09:25:17.000Z</time>
      </trkpt>
      <trkpt lat="47.30419" lon="-1.68996">
        <ele>121</ele>
        <time>2013-10-20T09:25:19.000Z</time>
      </trkpt>
      <trkpt lat="47.30423" lon="-1.69009">
        <ele>120</ele>
        <time>2013-10-20T09:25:21.000Z</time>
      </trkpt>
      <trkpt lat="47.30423" lon="-1.69009">
        <ele>120</ele>
        <time>2013-10-20T09:25:23.000Z</time>
      </trkpt>
      <trkpt lat="47.30423" lon="-1.69009">
        <ele>120</ele>
        <time>2013-10-20T09:25:25.000Z</time>
      </trkpt>
      <trkpt lat="47.3043" lon="-1.69028">
        <ele>124</ele>
        <time>2013-10-20T09:25:27.000Z</time>
      </trkpt>
      <trkpt lat="47.3043" lon="-1.69028">
        <ele>124</ele>
        <time>2013-10-20T09:25:31.000Z</time>
      </trkpt>
      <trkpt lat="47.30508" lon="-1.68979">
        <ele>128</ele>
        <time>2013-10-20T09:25:37.000Z</time>
      </trkpt>
      <trkpt lat="47.30513" lon="-1.68966">
        <ele>128</ele>
        <time>2013-10-20T09:25:41.000Z</time>
      </trkpt>
      <trkpt lat="47.30513" lon="-1.68966">
        <ele>128</ele>
        <time>2013-10-20T09:25:47.000Z</time>
      </trkpt>
      <trkpt lat="47.30513" lon="-1.68966">
        <ele>128</ele>
        <time>2013-10-20T09:25:49.000Z</time>
      </trkpt>
      <trkpt lat="47.30513" lon="-1.68966">
        <ele>128</ele>
        <time>2013-10-20T09:26:07.000Z</time>
      </trkpt>
      <trkpt lat="47.30517" lon="-1.68957">
        <ele>128</ele>
        <time>2013-10-20T09:28:22.000Z</time>
      </trkpt>
      <trkpt lat="47.30511" lon="-1.6896">
        <ele>126</ele>
        <time>2013-10-20T09:28:35.000Z</time>
      </trkpt>
      <trkpt lat="47.30506" lon="-1.68965">
        <ele>126</ele>
        <time>2013-10-20T09:28:37.000Z</time>
      </trkpt>
      <trkpt lat="47.30503" lon="-1.68971">
        <ele>126</ele>
        <time>2013-10-20T09:28:39.000Z</time>
      </trkpt>
      <trkpt lat="47.30499" lon="-1.68976">
        <ele>126</ele>
        <time>2013-10-20T09:28:41.000Z</time>
      </trkpt>
      <trkpt lat="47.30495" lon="-1.68981">
        <ele>126</ele>
        <time>2013-10-20T09:28:43.000Z</time>
      </trkpt>
      <trkpt lat="47.30486" lon="-1.68988">
        <ele>126</ele>
        <time>2013-10-20T09:28:45.000Z</time>
      </trkpt>
      <trkpt lat="47.30473" lon="-1.68992">
        <ele>125</ele>
        <time>2013-10-20T09:28:49.000Z</time>
      </trkpt>
      <trkpt lat="47.3046" lon="-1.68994">
        <ele>125</ele>
        <time>2013-10-20T09:28:53.000Z</time>
      </trkpt>
      <trkpt lat="47.30448" lon="-1.68998">
        <ele>125</ele>
        <time>2013-10-20T09:28:57.000Z</time>
      </trkpt>
      <trkpt lat="47.30448" lon="-1.68998">
        <ele>125</ele>
        <time>2013-10-20T09:28:59.000Z</time>
      </trkpt>
      <trkpt lat="47.30448" lon="-1.68998">
        <ele>125</ele>
        <time>2013-10-20T09:29:01.000Z</time>
      </trkpt>
      <trkpt lat="47.30437" lon="-1.69002">
        <ele>124</ele>
        <time>2013-10-20T09:29:03.000Z</time>
      </trkpt>
      <trkpt lat="47.30437" lon="-1.69002">
        <ele>124</ele>
        <time>2013-10-20T09:29:07.000Z</time>
      </trkpt>
      <trkpt lat="47.30426" lon="-1.69007">
        <ele>124</ele>
        <time>2013-10-20T09:29:09.000Z</time>
      </trkpt>
      <trkpt lat="47.30418" lon="-1.68977">
        <ele>123</ele>
        <time>2013-10-20T09:29:11.000Z</time>
      </trkpt>
      <trkpt lat="47.30418" lon="-1.68977">
        <ele>123</ele>
        <time>2013-10-20T09:29:13.000Z</time>
      </trkpt>
      <trkpt lat="47.30418" lon="-1.68977">
        <ele>123</ele>
        <time>2013-10-20T09:29:15.000Z</time>
      </trkpt>
      <trkpt lat="47.30412" lon="-1.68964">
        <ele>123</ele>
        <time>2013-10-20T09:29:17.000Z</time>
      </trkpt>
      <trkpt lat="47.30412" lon="-1.68964">
        <ele>123</ele>
        <time>2013-10-20T09:29:19.000Z</time>
      </trkpt>
      <trkpt lat="47.30412" lon="-1.68964">
        <ele>123</ele>
        <time>2013-10-20T09:29:21.000Z</time>
      </trkpt>
      <trkpt lat="47.30412" lon="-1.68964">
        <ele>123</ele>
        <time>2013-10-20T09:29:23.000Z</time>
      </trkpt>
      <trkpt lat="47.30412" lon="-1.68964">
        <ele>123</ele>
        <time>2013-10-20T09:29:26.000Z</time>
      </trkpt>
      <trkpt lat="47.30412" lon="-1.68964">
        <ele>123</ele>
        <time>2013-10-20T09:29:29.000Z</time>
      </trkpt>
      <trkpt lat="47.30412" lon="-1.68964">
        <ele>123</ele>
        <time>2013-10-20T09:29:31.000Z</time>
      </trkpt>
      <trkpt lat="47.30415" lon="-1.68949">
        <ele>122</ele>
        <time>2013-10-20T09:29:33.000Z</time>
      </trkpt>
      <trkpt lat="47.30422" lon="-1.68941">
        <ele>122</ele>
        <time>2013-10-20T09:29:37.000Z</time>
      </trkpt>
      <trkpt lat="47.30431" lon="-1.68932">
        <ele>122</ele>
        <time>2013-10-20T09:29:41.000Z</time>
      </trkpt>
      <trkpt lat="47.30438" lon="-1.68923">
        <ele>121</ele>
        <time>2013-10-20T09:29:45.000Z</time>
      </trkpt>
      <trkpt lat="47.30447" lon="-1.68911">
        <ele>121</ele>
        <time>2013-10-20T09:29:50.000Z</time>
      </trkpt>
      <trkpt lat="47.30454" lon="-1.68898">
        <ele>121</ele>
        <time>2013-10-20T09:29:54.000Z</time>
      </trkpt>
      <trkpt lat="47.30463" lon="-1.68885">
        <ele>121</ele>
        <time>2013-10-20T09:29:58.000Z</time>
      </trkpt>
      <trkpt lat="47.30474" lon="-1.68868">
        <ele>121</ele>
        <time>2013-10-20T09:30:02.000Z</time>
      </trkpt>
      <trkpt lat="47.30483" lon="-1.68853">
        <ele>121</ele>
        <time>2013-10-20T09:30:06.000Z</time>
      </trkpt>
      <trkpt lat="47.30494" lon="-1.68838">
        <ele>121</ele>
        <time>2013-10-20T09:30:10.000Z</time>
      </trkpt>
      <trkpt lat="47.30509" lon="-1.68825">
        <ele>122</ele>
        <time>2013-10-20T09:30:14.000Z</time>
      </trkpt>
      <trkpt lat="47.30519" lon="-1.68818">
        <ele>122</ele>
        <time>2013-10-20T09:30:16.000Z</time>
      </trkpt>
      <trkpt lat="47.30527" lon="-1.68812">
        <ele>122</ele>
        <time>2013-10-20T09:30:18.000Z</time>
      </trkpt>
      <trkpt lat="47.30544" lon="-1.68801">
        <ele>122</ele>
        <time>2013-10-20T09:30:22.000Z</time>
      </trkpt>
      <trkpt lat="47.30558" lon="-1.6879">
        <ele>122</ele>
        <time>2013-10-20T09:30:26.000Z</time>
      </trkpt>
      <trkpt lat="47.30558" lon="-1.6879">
        <ele>122</ele>
        <time>2013-10-20T09:30:28.000Z</time>
      </trkpt>
      <trkpt lat="47.30573" lon="-1.6878">
        <ele>121</ele>
        <time>2013-10-20T09:30:30.000Z</time>
      </trkpt>
      <trkpt lat="47.30573" lon="-1.6878">
        <ele>121</ele>
        <time>2013-10-20T09:30:32.000Z</time>
      </trkpt>
      <trkpt lat="47.30589" lon="-1.68768">
        <ele>122</ele>
        <time>2013-10-20T09:30:34.000Z</time>
      </trkpt>
      <trkpt lat="47.30597" lon="-1.68762">
        <ele>122</ele>
        <time>2013-10-20T09:30:36.000Z</time>
      </trkpt>
      <trkpt lat="47.30606" lon="-1.68756">
        <ele>122</ele>
        <time>2013-10-20T09:30:38.000Z</time>
      </trkpt>
      <trkpt lat="47.30614" lon="-1.68751">
        <ele>122</ele>
        <time>2013-10-20T09:30:40.000Z</time>
      </trkpt>
      <trkpt lat="47.30622" lon="-1.68745">
        <ele>122</ele>
        <time>2013-10-20T09:30:42.000Z</time>
      </trkpt>
      <trkpt lat="47.30622" lon="-1.68745">
        <ele>122</ele>
        <time>2013-10-20T09:30:44.000Z</time>
      </trkpt>
      <trkpt lat="47.30629" lon="-1.6874">
        <ele>122</ele>
        <time>2013-10-20T09:30:46.000Z</time>
      </trkpt>
      <trkpt lat="47.30638" lon="-1.68734">
        <ele>122</ele>
        <time>2013-10-20T09:30:49.000Z</time>
      </trkpt>
      <trkpt lat="47.30645" lon="-1.68728">
        <ele>122</ele>
        <time>2013-10-20T09:30:51.000Z</time>
      </trkpt>
      <trkpt lat="47.30652" lon="-1.68723">
        <ele>122</ele>
        <time>2013-10-20T09:30:53.000Z</time>
      </trkpt>
      <trkpt lat="47.30659" lon="-1.68719">
        <ele>122</ele>
        <time>2013-10-20T09:30:55.000Z</time>
      </trkpt>
      <trkpt lat="47.30672" lon="-1.68709">
        <ele>122</ele>
        <time>2013-10-20T09:30:57.000Z</time>
      </trkpt>
      <trkpt lat="47.30672" lon="-1.68709">
        <ele>122</ele>
        <time>2013-10-20T09:30:59.000Z</time>
      </trkpt>
      <trkpt lat="47.30684" lon="-1.68701">
        <ele>123</ele>
        <time>2013-10-20T09:31:01.000Z</time>
      </trkpt>
      <trkpt lat="47.30697" lon="-1.68694">
        <ele>123</ele>
        <time>2013-10-20T09:31:05.000Z</time>
      </trkpt>
      <trkpt lat="47.3069" lon="-1.68666">
        <ele>123</ele>
        <time>2013-10-20T09:31:09.000Z</time>
      </trkpt>
      <trkpt lat="47.30684" lon="-1.68653">
        <ele>124</ele>
        <time>2013-10-20T09:31:11.000Z</time>
      </trkpt>
      <trkpt lat="47.30679" lon="-1.6864">
        <ele>125</ele>
        <time>2013-10-20T09:31:13.000Z</time>
      </trkpt>
      <trkpt lat="47.30673" lon="-1.68627">
        <ele>126</ele>
        <time>2013-10-20T09:31:15.000Z</time>
      </trkpt>
      <trkpt lat="47.30664" lon="-1.68608">
        <ele>126</ele>
        <time>2013-10-20T09:31:19.000Z</time>
      </trkpt>
      <trkpt lat="47.30661" lon="-1.68595">
        <ele>126</ele>
        <time>2013-10-20T09:31:21.000Z</time>
      </trkpt>
      <trkpt lat="47.3066" lon="-1.68569">
        <ele>128</ele>
        <time>2013-10-20T09:31:25.000Z</time>
      </trkpt>
      <trkpt lat="47.30664" lon="-1.68546">
        <ele>129</ele>
        <time>2013-10-20T09:31:29.000Z</time>
      </trkpt>
      <trkpt lat="47.3067" lon="-1.68531">
        <ele>130</ele>
        <time>2013-10-20T09:31:31.000Z</time>
      </trkpt>
      <trkpt lat="47.30676" lon="-1.68518">
        <ele>130</ele>
        <time>2013-10-20T09:31:33.000Z</time>
      </trkpt>
      <trkpt lat="47.30682" lon="-1.68507">
        <ele>130</ele>
        <time>2013-10-20T09:31:35.000Z</time>
      </trkpt>
      <trkpt lat="47.30689" lon="-1.68499">
        <ele>130</ele>
        <time>2013-10-20T09:31:37.000Z</time>
      </trkpt>
      <trkpt lat="47.30698" lon="-1.6849">
        <ele>130</ele>
        <time>2013-10-20T09:31:39.000Z</time>
      </trkpt>
      <trkpt lat="47.30706" lon="-1.68483">
        <ele>129</ele>
        <time>2013-10-20T09:31:41.000Z</time>
      </trkpt>
      <trkpt lat="47.30706" lon="-1.68483">
        <ele>129</ele>
        <time>2013-10-20T09:31:43.000Z</time>
      </trkpt>
      <trkpt lat="47.30719" lon="-1.68474">
        <ele>128</ele>
        <time>2013-10-20T09:31:45.000Z</time>
      </trkpt>
      <trkpt lat="47.30719" lon="-1.68474">
        <ele>128</ele>
        <time>2013-10-20T09:31:47.000Z</time>
      </trkpt>
      <trkpt lat="47.30731" lon="-1.68465">
        <ele>128</ele>
        <time>2013-10-20T09:31:49.000Z</time>
      </trkpt>
      <trkpt lat="47.30739" lon="-1.68459">
        <ele>128</ele>
        <time>2013-10-20T09:31:51.000Z</time>
      </trkpt>
      <trkpt lat="47.30748" lon="-1.68452">
        <ele>127</ele>
        <time>2013-10-20T09:31:53.000Z</time>
      </trkpt>
      <trkpt lat="47.30756" lon="-1.68446">
        <ele>127</ele>
        <time>2013-10-20T09:31:55.000Z</time>
      </trkpt>
      <trkpt lat="47.30771" lon="-1.68456">
        <ele>126</ele>
        <time>2013-10-20T09:31:57.000Z</time>
      </trkpt>
      <trkpt lat="47.3078" lon="-1.68451">
        <ele>126</ele>
        <time>2013-10-20T09:31:59.000Z</time>
      </trkpt>
      <trkpt lat="47.30798" lon="-1.68445">
        <ele>126</ele>
        <time>2013-10-20T09:32:03.000Z</time>
      </trkpt>
      <trkpt lat="47.30798" lon="-1.68445">
        <ele>126</ele>
        <time>2013-10-20T09:32:05.000Z</time>
      </trkpt>
      <trkpt lat="47.30814" lon="-1.68438">
        <ele>127</ele>
        <time>2013-10-20T09:32:07.000Z</time>
      </trkpt>
      <trkpt lat="47.30814" lon="-1.68438">
        <ele>127</ele>
        <time>2013-10-20T09:32:09.000Z</time>
      </trkpt>
      <trkpt lat="47.3083" lon="-1.68432">
        <ele>128</ele>
        <time>2013-10-20T09:32:11.000Z</time>
      </trkpt>
      <trkpt lat="47.3083" lon="-1.68432">
        <ele>128</ele>
        <time>2013-10-20T09:32:13.000Z</time>
      </trkpt>
      <trkpt lat="47.30845" lon="-1.68426">
        <ele>129</ele>
        <time>2013-10-20T09:32:15.000Z</time>
      </trkpt>
      <trkpt lat="47.30845" lon="-1.68426">
        <ele>129</ele>
        <time>2013-10-20T09:32:17.000Z</time>
      </trkpt>
      <trkpt lat="47.30861" lon="-1.6842">
        <ele>130</ele>
        <time>2013-10-20T09:32:19.000Z</time>
      </trkpt>
      <trkpt lat="47.30861" lon="-1.6842">
        <ele>130</ele>
        <time>2013-10-20T09:32:21.000Z</time>
      </trkpt>
      <trkpt lat="47.30876" lon="-1.68413">
        <ele>130</ele>
        <time>2013-10-20T09:32:23.000Z</time>
      </trkpt>
      <trkpt lat="47.30887" lon="-1.68423">
        <ele>130</ele>
        <time>2013-10-20T09:32:25.000Z</time>
      </trkpt>
      <trkpt lat="47.30904" lon="-1.68421">
        <ele>129</ele>
        <time>2013-10-20T09:32:29.000Z</time>
      </trkpt>
      <trkpt lat="47.30922" lon="-1.68419">
        <ele>129</ele>
        <time>2013-10-20T09:32:33.000Z</time>
      </trkpt>
      <trkpt lat="47.30938" lon="-1.68419">
        <ele>130</ele>
        <time>2013-10-20T09:32:37.000Z</time>
      </trkpt>
      <trkpt lat="47.30938" lon="-1.68419">
        <ele>130</ele>
        <time>2013-10-20T09:32:39.000Z</time>
      </trkpt>
      <trkpt lat="47.30938" lon="-1.68419">
        <ele>130</ele>
        <time>2013-10-20T09:32:41.000Z</time>
      </trkpt>
      <trkpt lat="47.30938" lon="-1.68419">
        <ele>130</ele>
        <time>2013-10-20T09:32:43.000Z</time>
      </trkpt>
      <trkpt lat="47.30982" lon="-1.68415">
        <ele>131</ele>
        <time>2013-10-20T09:32:47.000Z</time>
      </trkpt>
      <trkpt lat="47.30992" lon="-1.68415">
        <ele>131</ele>
        <time>2013-10-20T09:32:49.000Z</time>
      </trkpt>
      <trkpt lat="47.31002" lon="-1.68415">
        <ele>132</ele>
        <time>2013-10-20T09:32:51.000Z</time>
      </trkpt>
      <trkpt lat="47.31011" lon="-1.68415">
        <ele>132</ele>
        <time>2013-10-20T09:32:53.000Z</time>
      </trkpt>
      <trkpt lat="47.3103" lon="-1.68413">
        <ele>132</ele>
        <time>2013-10-20T09:32:57.000Z</time>
      </trkpt>
      <trkpt lat="47.31047" lon="-1.68413">
        <ele>132</ele>
        <time>2013-10-20T09:33:01.000Z</time>
      </trkpt>
      <trkpt lat="47.31047" lon="-1.68413">
        <ele>132</ele>
        <time>2013-10-20T09:33:03.000Z</time>
      </trkpt>
      <trkpt lat="47.31065" lon="-1.68413">
        <ele>132</ele>
        <time>2013-10-20T09:33:05.000Z</time>
      </trkpt>
      <trkpt lat="47.31065" lon="-1.68413">
        <ele>132</ele>
        <time>2013-10-20T09:33:07.000Z</time>
      </trkpt>
      <trkpt lat="47.31081" lon="-1.68413">
        <ele>132</ele>
        <time>2013-10-20T09:33:09.000Z</time>
      </trkpt>
      <trkpt lat="47.31081" lon="-1.68413">
        <ele>132</ele>
        <time>2013-10-20T09:33:11.000Z</time>
      </trkpt>
      <trkpt lat="47.31091" lon="-1.68413">
        <ele>132</ele>
        <time>2013-10-20T09:33:13.000Z</time>
      </trkpt>
      <trkpt lat="47.31091" lon="-1.68413">
        <ele>132</ele>
        <time>2013-10-20T09:33:15.000Z</time>
      </trkpt>
      <trkpt lat="47.31101" lon="-1.68413">
        <ele>132</ele>
        <time>2013-10-20T09:33:17.000Z</time>
      </trkpt>
      <trkpt lat="47.31114" lon="-1.68413">
        <ele>132</ele>
        <time>2013-10-20T09:33:21.000Z</time>
      </trkpt>
      <trkpt lat="47.31122" lon="-1.68423">
        <ele>132</ele>
        <time>2013-10-20T09:33:23.000Z</time>
      </trkpt>
      <trkpt lat="47.3113" lon="-1.68432">
        <ele>132</ele>
        <time>2013-10-20T09:33:25.000Z</time>
      </trkpt>
      <trkpt lat="47.31139" lon="-1.68441">
        <ele>131</ele>
        <time>2013-10-20T09:33:27.000Z</time>
      </trkpt>
      <trkpt lat="47.31155" lon="-1.68456">
        <ele>130</ele>
        <time>2013-10-20T09:33:31.000Z</time>
      </trkpt>
      <trkpt lat="47.31163" lon="-1.68462">
        <ele>130</ele>
        <time>2013-10-20T09:33:33.000Z</time>
      </trkpt>
      <trkpt lat="47.31172" lon="-1.68471">
        <ele>129</ele>
        <time>2013-10-20T09:33:35.000Z</time>
      </trkpt>
      <trkpt lat="47.3118" lon="-1.68477">
        <ele>129</ele>
        <time>2013-10-20T09:33:39.000Z</time>
      </trkpt>
      <trkpt lat="47.31188" lon="-1.68483">
        <ele>129</ele>
        <time>2013-10-20T09:33:41.000Z</time>
      </trkpt>
      <trkpt lat="47.31195" lon="-1.6849">
        <ele>129</ele>
        <time>2013-10-20T09:33:43.000Z</time>
      </trkpt>
      <trkpt lat="47.31203" lon="-1.68496">
        <ele>129</ele>
        <time>2013-10-20T09:33:45.000Z</time>
      </trkpt>
      <trkpt lat="47.3121" lon="-1.68502">
        <ele>129</ele>
        <time>2013-10-20T09:33:47.000Z</time>
      </trkpt>
      <trkpt lat="47.31223" lon="-1.68513">
        <ele>129</ele>
        <time>2013-10-20T09:33:49.000Z</time>
      </trkpt>
      <trkpt lat="47.31223" lon="-1.68513">
        <ele>129</ele>
        <time>2013-10-20T09:33:51.000Z</time>
      </trkpt>
      <trkpt lat="47.31223" lon="-1.68513">
        <ele>129</ele>
        <time>2013-10-20T09:34:11.000Z</time>
      </trkpt>
      <trkpt lat="47.31234" lon="-1.68524">
        <ele>130</ele>
        <time>2013-10-20T09:34:33.000Z</time>
      </trkpt>
      <trkpt lat="47.31243" lon="-1.68533">
        <ele>130</ele>
        <time>2013-10-20T09:34:36.000Z</time>
      </trkpt>
      <trkpt lat="47.31252" lon="-1.68541">
        <ele>129</ele>
        <time>2013-10-20T09:34:38.000Z</time>
      </trkpt>
      <trkpt lat="47.3126" lon="-1.68548">
        <ele>128</ele>
        <time>2013-10-20T09:34:40.000Z</time>
      </trkpt>
      <trkpt lat="47.31269" lon="-1.68554">
        <ele>126</ele>
        <time>2013-10-20T09:34:42.000Z</time>
      </trkpt>
      <trkpt lat="47.31277" lon="-1.68561">
        <ele>126</ele>
        <time>2013-10-20T09:34:44.000Z</time>
      </trkpt>
      <trkpt lat="47.31286" lon="-1.68567">
        <ele>125</ele>
        <time>2013-10-20T09:34:46.000Z</time>
      </trkpt>
      <trkpt lat="47.31294" lon="-1.68574">
        <ele>125</ele>
        <time>2013-10-20T09:34:48.000Z</time>
      </trkpt>
      <trkpt lat="47.31303" lon="-1.68582">
        <ele>125</ele>
        <time>2013-10-20T09:34:50.000Z</time>
      </trkpt>
      <trkpt lat="47.31311" lon="-1.68589">
        <ele>125</ele>
        <time>2013-10-20T09:34:52.000Z</time>
      </trkpt>
      <trkpt lat="47.3132" lon="-1.68595">
        <ele>125</ele>
        <time>2013-10-20T09:34:54.000Z</time>
      </trkpt>
      <trkpt lat="47.3133" lon="-1.68602">
        <ele>125</ele>
        <time>2013-10-20T09:34:56.000Z</time>
      </trkpt>
      <trkpt lat="47.31339" lon="-1.6861">
        <ele>126</ele>
        <time>2013-10-20T09:34:58.000Z</time>
      </trkpt>
      <trkpt lat="47.31347" lon="-1.68617">
        <ele>126</ele>
        <time>2013-10-20T09:35:00.000Z</time>
      </trkpt>
      <trkpt lat="47.31356" lon="-1.68623">
        <ele>127</ele>
        <time>2013-10-20T09:35:02.000Z</time>
      </trkpt>
      <trkpt lat="47.31365" lon="-1.68629">
        <ele>127</ele>
        <time>2013-10-20T09:35:04.000Z</time>
      </trkpt>
      <trkpt lat="47.31373" lon="-1.68638">
        <ele>127</ele>
        <time>2013-10-20T09:35:06.000Z</time>
      </trkpt>
      <trkpt lat="47.31381" lon="-1.68644">
        <ele>128</ele>
        <time>2013-10-20T09:35:08.000Z</time>
      </trkpt>
      <trkpt lat="47.3139" lon="-1.68651">
        <ele>128</ele>
        <time>2013-10-20T09:35:10.000Z</time>
      </trkpt>
      <trkpt lat="47.31398" lon="-1.68657">
        <ele>128</ele>
        <time>2013-10-20T09:35:12.000Z</time>
      </trkpt>
      <trkpt lat="47.31406" lon="-1.68663">
        <ele>129</ele>
        <time>2013-10-20T09:35:14.000Z</time>
      </trkpt>
      <trkpt lat="47.31413" lon="-1.68679">
        <ele>129</ele>
        <time>2013-10-20T09:35:16.000Z</time>
      </trkpt>
      <trkpt lat="47.3142" lon="-1.68687">
        <ele>129</ele>
        <time>2013-10-20T09:35:18.000Z</time>
      </trkpt>
      <trkpt lat="47.31427" lon="-1.68698">
        <ele>129</ele>
        <time>2013-10-20T09:35:20.000Z</time>
      </trkpt>
      <trkpt lat="47.31435" lon="-1.68709">
        <ele>128</ele>
        <time>2013-10-20T09:35:22.000Z</time>
      </trkpt>
      <trkpt lat="47.31442" lon="-1.6872">
        <ele>128</ele>
        <time>2013-10-20T09:35:24.000Z</time>
      </trkpt>
      <trkpt lat="47.3145" lon="-1.6873">
        <ele>129</ele>
        <time>2013-10-20T09:35:26.000Z</time>
      </trkpt>
      <trkpt lat="47.31458" lon="-1.68741">
        <ele>129</ele>
        <time>2013-10-20T09:35:28.000Z</time>
      </trkpt>
      <trkpt lat="47.31465" lon="-1.68752">
        <ele>129</ele>
        <time>2013-10-20T09:35:30.000Z</time>
      </trkpt>
      <trkpt lat="47.31474" lon="-1.68762">
        <ele>129</ele>
        <time>2013-10-20T09:35:32.000Z</time>
      </trkpt>
      <trkpt lat="47.31482" lon="-1.68775">
        <ele>130</ele>
        <time>2013-10-20T09:35:34.000Z</time>
      </trkpt>
      <trkpt lat="47.31491" lon="-1.68786">
        <ele>130</ele>
        <time>2013-10-20T09:35:36.000Z</time>
      </trkpt>
      <trkpt lat="47.31499" lon="-1.68797">
        <ele>131</ele>
        <time>2013-10-20T09:35:38.000Z</time>
      </trkpt>
      <trkpt lat="47.31509" lon="-1.6881">
        <ele>131</ele>
        <time>2013-10-20T09:35:40.000Z</time>
      </trkpt>
      <trkpt lat="47.31519" lon="-1.68825">
        <ele>132</ele>
        <time>2013-10-20T09:35:42.000Z</time>
      </trkpt>
      <trkpt lat="47.31528" lon="-1.68838">
        <ele>132</ele>
        <time>2013-10-20T09:35:44.000Z</time>
      </trkpt>
      <trkpt lat="47.31538" lon="-1.6885">
        <ele>132</ele>
        <time>2013-10-20T09:35:46.000Z</time>
      </trkpt>
      <trkpt lat="47.31548" lon="-1.68861">
        <ele>131</ele>
        <time>2013-10-20T09:35:48.000Z</time>
      </trkpt>
      <trkpt lat="47.31557" lon="-1.68874">
        <ele>131</ele>
        <time>2013-10-20T09:35:50.000Z</time>
      </trkpt>
      <trkpt lat="47.31566" lon="-1.68889">
        <ele>131</ele>
        <time>2013-10-20T09:35:52.000Z</time>
      </trkpt>
      <trkpt lat="47.31574" lon="-1.68902">
        <ele>131</ele>
        <time>2013-10-20T09:35:54.000Z</time>
      </trkpt>
      <trkpt lat="47.31583" lon="-1.68915">
        <ele>131</ele>
        <time>2013-10-20T09:35:56.000Z</time>
      </trkpt>
      <trkpt lat="47.31593" lon="-1.68928">
        <ele>131</ele>
        <time>2013-10-20T09:35:58.000Z</time>
      </trkpt>
      <trkpt lat="47.31602" lon="-1.68941">
        <ele>130</ele>
        <time>2013-10-20T09:36:00.000Z</time>
      </trkpt>
      <trkpt lat="47.31611" lon="-1.68956">
        <ele>130</ele>
        <time>2013-10-20T09:36:02.000Z</time>
      </trkpt>
      <trkpt lat="47.3162" lon="-1.68968">
        <ele>131</ele>
        <time>2013-10-20T09:36:04.000Z</time>
      </trkpt>
      <trkpt lat="47.31629" lon="-1.68981">
        <ele>131</ele>
        <time>2013-10-20T09:36:06.000Z</time>
      </trkpt>
      <trkpt lat="47.31638" lon="-1.68994">
        <ele>131</ele>
        <time>2013-10-20T09:36:08.000Z</time>
      </trkpt>
      <trkpt lat="47.31645" lon="-1.69007">
        <ele>131</ele>
        <time>2013-10-20T09:36:10.000Z</time>
      </trkpt>
      <trkpt lat="47.31654" lon="-1.6902">
        <ele>132</ele>
        <time>2013-10-20T09:36:12.000Z</time>
      </trkpt>
      <trkpt lat="47.31662" lon="-1.69033">
        <ele>131</ele>
        <time>2013-10-20T09:36:14.000Z</time>
      </trkpt>
      <trkpt lat="47.31672" lon="-1.69046">
        <ele>131</ele>
        <time>2013-10-20T09:36:16.000Z</time>
      </trkpt>
      <trkpt lat="47.31681" lon="-1.69059">
        <ele>130</ele>
        <time>2013-10-20T09:36:18.000Z</time>
      </trkpt>
      <trkpt lat="47.31689" lon="-1.69071">
        <ele>130</ele>
        <time>2013-10-20T09:36:20.000Z</time>
      </trkpt>
      <trkpt lat="47.31699" lon="-1.69082">
        <ele>130</ele>
        <time>2013-10-20T09:36:22.000Z</time>
      </trkpt>
      <trkpt lat="47.31709" lon="-1.69095">
        <ele>130</ele>
        <time>2013-10-20T09:36:24.000Z</time>
      </trkpt>
      <trkpt lat="47.31718" lon="-1.6911">
        <ele>130</ele>
        <time>2013-10-20T09:36:26.000Z</time>
      </trkpt>
      <trkpt lat="47.31728" lon="-1.69123">
        <ele>130</ele>
        <time>2013-10-20T09:36:28.000Z</time>
      </trkpt>
      <trkpt lat="47.31738" lon="-1.69136">
        <ele>129</ele>
        <time>2013-10-20T09:36:30.000Z</time>
      </trkpt>
      <trkpt lat="47.31756" lon="-1.69159">
        <ele>129</ele>
        <time>2013-10-20T09:36:34.000Z</time>
      </trkpt>
      <trkpt lat="47.31764" lon="-1.69172">
        <ele>129</ele>
        <time>2013-10-20T09:36:36.000Z</time>
      </trkpt>
      <trkpt lat="47.31772" lon="-1.69183">
        <ele>128</ele>
        <time>2013-10-20T09:36:38.000Z</time>
      </trkpt>
      <trkpt lat="47.3178" lon="-1.69196">
        <ele>128</ele>
        <time>2013-10-20T09:36:40.000Z</time>
      </trkpt>
      <trkpt lat="47.31788" lon="-1.69207">
        <ele>128</ele>
        <time>2013-10-20T09:36:42.000Z</time>
      </trkpt>
      <trkpt lat="47.31796" lon="-1.69217">
        <ele>127</ele>
        <time>2013-10-20T09:36:44.000Z</time>
      </trkpt>
      <trkpt lat="47.31803" lon="-1.69228">
        <ele>126</ele>
        <time>2013-10-20T09:36:46.000Z</time>
      </trkpt>
      <trkpt lat="47.3181" lon="-1.69239">
        <ele>125</ele>
        <time>2013-10-20T09:36:48.000Z</time>
      </trkpt>
      <trkpt lat="47.31817" lon="-1.69249">
        <ele>125</ele>
        <time>2013-10-20T09:36:50.000Z</time>
      </trkpt>
      <trkpt lat="47.31824" lon="-1.69258">
        <ele>124</ele>
        <time>2013-10-20T09:36:52.000Z</time>
      </trkpt>
      <trkpt lat="47.31824" lon="-1.69258">
        <ele>124</ele>
        <time>2013-10-20T09:36:54.000Z</time>
      </trkpt>
      <trkpt lat="47.31837" lon="-1.69276">
        <ele>124</ele>
        <time>2013-10-20T09:36:56.000Z</time>
      </trkpt>
      <trkpt lat="47.31844" lon="-1.69286">
        <ele>124</ele>
        <time>2013-10-20T09:36:58.000Z</time>
      </trkpt>
      <trkpt lat="47.31851" lon="-1.69297">
        <ele>124</ele>
        <time>2013-10-20T09:37:00.000Z</time>
      </trkpt>
      <trkpt lat="47.3186" lon="-1.69309">
        <ele>124</ele>
        <time>2013-10-20T09:37:02.000Z</time>
      </trkpt>
      <trkpt lat="47.31866" lon="-1.69322">
        <ele>124</ele>
        <time>2013-10-20T09:37:04.000Z</time>
      </trkpt>
      <trkpt lat="47.31875" lon="-1.69338">
        <ele>125</ele>
        <time>2013-10-20T09:37:06.000Z</time>
      </trkpt>
      <trkpt lat="47.31882" lon="-1.6935">
        <ele>126</ele>
        <time>2013-10-20T09:37:08.000Z</time>
      </trkpt>
      <trkpt lat="47.3189" lon="-1.69361">
        <ele>126</ele>
        <time>2013-10-20T09:37:10.000Z</time>
      </trkpt>
      <trkpt lat="47.31897" lon="-1.69374">
        <ele>126</ele>
        <time>2013-10-20T09:37:12.000Z</time>
      </trkpt>
      <trkpt lat="47.31905" lon="-1.69385">
        <ele>126</ele>
        <time>2013-10-20T09:37:14.000Z</time>
      </trkpt>
      <trkpt lat="47.31912" lon="-1.69395">
        <ele>126</ele>
        <time>2013-10-20T09:37:16.000Z</time>
      </trkpt>
      <trkpt lat="47.31921" lon="-1.69408">
        <ele>126</ele>
        <time>2013-10-20T09:37:18.000Z</time>
      </trkpt>
      <trkpt lat="47.31929" lon="-1.69419">
        <ele>127</ele>
        <time>2013-10-20T09:37:20.000Z</time>
      </trkpt>
      <trkpt lat="47.31937" lon="-1.69432">
        <ele>127</ele>
        <time>2013-10-20T09:37:22.000Z</time>
      </trkpt>
      <trkpt lat="47.31946" lon="-1.69445">
        <ele>128</ele>
        <time>2013-10-20T09:37:24.000Z</time>
      </trkpt>
      <trkpt lat="47.31955" lon="-1.69456">
        <ele>128</ele>
        <time>2013-10-20T09:37:26.000Z</time>
      </trkpt>
      <trkpt lat="47.31966" lon="-1.69466">
        <ele>128</ele>
        <time>2013-10-20T09:37:28.000Z</time>
      </trkpt>
      <trkpt lat="47.31978" lon="-1.69477">
        <ele>128</ele>
        <time>2013-10-20T09:37:30.000Z</time>
      </trkpt>
      <trkpt lat="47.31989" lon="-1.69486">
        <ele>127</ele>
        <time>2013-10-20T09:37:32.000Z</time>
      </trkpt>
      <trkpt lat="47.31999" lon="-1.69496">
        <ele>126</ele>
        <time>2013-10-20T09:37:34.000Z</time>
      </trkpt>
      <trkpt lat="47.32011" lon="-1.69505">
        <ele>126</ele>
        <time>2013-10-20T09:37:36.000Z</time>
      </trkpt>
      <trkpt lat="47.32022" lon="-1.69513">
        <ele>125</ele>
        <time>2013-10-20T09:37:38.000Z</time>
      </trkpt>
      <trkpt lat="47.32034" lon="-1.69522">
        <ele>125</ele>
        <time>2013-10-20T09:37:40.000Z</time>
      </trkpt>
      <trkpt lat="47.32047" lon="-1.69533">
        <ele>125</ele>
        <time>2013-10-20T09:37:42.000Z</time>
      </trkpt>
      <trkpt lat="47.3206" lon="-1.69541">
        <ele>125</ele>
        <time>2013-10-20T09:37:44.000Z</time>
      </trkpt>
      <trkpt lat="47.32073" lon="-1.6955">
        <ele>126</ele>
        <time>2013-10-20T09:37:46.000Z</time>
      </trkpt>
      <trkpt lat="47.32087" lon="-1.69561">
        <ele>126</ele>
        <time>2013-10-20T09:37:48.000Z</time>
      </trkpt>
      <trkpt lat="47.32101" lon="-1.69569">
        <ele>126</ele>
        <time>2013-10-20T09:37:50.000Z</time>
      </trkpt>
      <trkpt lat="47.32114" lon="-1.69578">
        <ele>126</ele>
        <time>2013-10-20T09:37:52.000Z</time>
      </trkpt>
      <trkpt lat="47.32127" lon="-1.69589">
        <ele>126</ele>
        <time>2013-10-20T09:37:54.000Z</time>
      </trkpt>
      <trkpt lat="47.32141" lon="-1.69597">
        <ele>126</ele>
        <time>2013-10-20T09:37:56.000Z</time>
      </trkpt>
      <trkpt lat="47.32154" lon="-1.6961">
        <ele>126</ele>
        <time>2013-10-20T09:37:58.000Z</time>
      </trkpt>
      <trkpt lat="47.32168" lon="-1.69621">
        <ele>126</ele>
        <time>2013-10-20T09:38:00.000Z</time>
      </trkpt>
      <trkpt lat="47.3218" lon="-1.69631">
        <ele>125</ele>
        <time>2013-10-20T09:38:02.000Z</time>
      </trkpt>
      <trkpt lat="47.32196" lon="-1.69642">
        <ele>125</ele>
        <time>2013-10-20T09:38:04.000Z</time>
      </trkpt>
      <trkpt lat="47.32209" lon="-1.69655">
        <ele>125</ele>
        <time>2013-10-20T09:38:06.000Z</time>
      </trkpt>
      <trkpt lat="47.32224" lon="-1.69664">
        <ele>125</ele>
        <time>2013-10-20T09:38:08.000Z</time>
      </trkpt>
      <trkpt lat="47.32238" lon="-1.69677">
        <ele>125</ele>
        <time>2013-10-20T09:38:10.000Z</time>
      </trkpt>
      <trkpt lat="47.32253" lon="-1.69687">
        <ele>125</ele>
        <time>2013-10-20T09:38:12.000Z</time>
      </trkpt>
      <trkpt lat="47.32269" lon="-1.697">
        <ele>125</ele>
        <time>2013-10-20T09:38:14.000Z</time>
      </trkpt>
      <trkpt lat="47.32283" lon="-1.69713">
        <ele>125</ele>
        <time>2013-10-20T09:38:16.000Z</time>
      </trkpt>
      <trkpt lat="47.32299" lon="-1.69724">
        <ele>124</ele>
        <time>2013-10-20T09:38:18.000Z</time>
      </trkpt>
      <trkpt lat="47.32315" lon="-1.69734">
        <ele>124</ele>
        <time>2013-10-20T09:38:20.000Z</time>
      </trkpt>
      <trkpt lat="47.3233" lon="-1.69745">
        <ele>123</ele>
        <time>2013-10-20T09:38:22.000Z</time>
      </trkpt>
      <trkpt lat="47.32347" lon="-1.69758">
        <ele>123</ele>
        <time>2013-10-20T09:38:24.000Z</time>
      </trkpt>
      <trkpt lat="47.32365" lon="-1.69771">
        <ele>123</ele>
        <time>2013-10-20T09:38:26.000Z</time>
      </trkpt>
      <trkpt lat="47.32384" lon="-1.69782">
        <ele>123</ele>
        <time>2013-10-20T09:38:28.000Z</time>
      </trkpt>
      <trkpt lat="47.32406" lon="-1.69792">
        <ele>123</ele>
        <time>2013-10-20T09:38:30.000Z</time>
      </trkpt>
      <trkpt lat="47.3243" lon="-1.69801">
        <ele>124</ele>
        <time>2013-10-20T09:38:32.000Z</time>
      </trkpt>
      <trkpt lat="47.32453" lon="-1.69812">
        <ele>123</ele>
        <time>2013-10-20T09:38:34.000Z</time>
      </trkpt>
      <trkpt lat="47.32476" lon="-1.69822">
        <ele>122</ele>
        <time>2013-10-20T09:38:36.000Z</time>
      </trkpt>
      <trkpt lat="47.32497" lon="-1.69831">
        <ele>120</ele>
        <time>2013-10-20T09:38:38.000Z</time>
      </trkpt>
      <trkpt lat="47.32521" lon="-1.69837">
        <ele>119</ele>
        <time>2013-10-20T09:38:40.000Z</time>
      </trkpt>
      <trkpt lat="47.32547" lon="-1.69842">
        <ele>118</ele>
        <time>2013-10-20T09:38:42.000Z</time>
      </trkpt>
      <trkpt lat="47.32571" lon="-1.69842">
        <ele>116</ele>
        <time>2013-10-20T09:38:44.000Z</time>
      </trkpt>
      <trkpt lat="47.32595" lon="-1.69842">
        <ele>115</ele>
        <time>2013-10-20T09:38:46.000Z</time>
      </trkpt>
      <trkpt lat="47.32617" lon="-1.69842">
        <ele>115</ele>
        <time>2013-10-20T09:38:48.000Z</time>
      </trkpt>
      <trkpt lat="47.32641" lon="-1.6984">
        <ele>114</ele>
        <time>2013-10-20T09:38:50.000Z</time>
      </trkpt>
      <trkpt lat="47.32661" lon="-1.69835">
        <ele>113</ele>
        <time>2013-10-20T09:38:52.000Z</time>
      </trkpt>
      <trkpt lat="47.32681" lon="-1.69833">
        <ele>113</ele>
        <time>2013-10-20T09:38:54.000Z</time>
      </trkpt>
      <trkpt lat="47.327" lon="-1.69827">
        <ele>112</ele>
        <time>2013-10-20T09:38:56.000Z</time>
      </trkpt>
      <trkpt lat="47.32718" lon="-1.69822">
        <ele>111</ele>
        <time>2013-10-20T09:38:58.000Z</time>
      </trkpt>
      <trkpt lat="47.32734" lon="-1.69816">
        <ele>111</ele>
        <time>2013-10-20T09:39:00.000Z</time>
      </trkpt>
      <trkpt lat="47.32748" lon="-1.69812">
        <ele>110</ele>
        <time>2013-10-20T09:39:02.000Z</time>
      </trkpt>
      <trkpt lat="47.32761" lon="-1.69807">
        <ele>109</ele>
        <time>2013-10-20T09:39:04.000Z</time>
      </trkpt>
      <trkpt lat="47.32774" lon="-1.69803">
        <ele>108</ele>
        <time>2013-10-20T09:39:06.000Z</time>
      </trkpt>
      <trkpt lat="47.32786" lon="-1.69799">
        <ele>107</ele>
        <time>2013-10-20T09:39:08.000Z</time>
      </trkpt>
      <trkpt lat="47.32796" lon="-1.69792">
        <ele>107</ele>
        <time>2013-10-20T09:39:10.000Z</time>
      </trkpt>
      <trkpt lat="47.32796" lon="-1.69792">
        <ele>107</ele>
        <time>2013-10-20T09:39:12.000Z</time>
      </trkpt>
      <trkpt lat="47.32813" lon="-1.69784">
        <ele>107</ele>
        <time>2013-10-20T09:39:14.000Z</time>
      </trkpt>
      <trkpt lat="47.32813" lon="-1.69784">
        <ele>107</ele>
        <time>2013-10-20T09:39:16.000Z</time>
      </trkpt>
      <trkpt lat="47.32825" lon="-1.69777">
        <ele>106</ele>
        <time>2013-10-20T09:39:18.000Z</time>
      </trkpt>
      <trkpt lat="47.32825" lon="-1.69777">
        <ele>106</ele>
        <time>2013-10-20T09:39:20.000Z</time>
      </trkpt>
      <trkpt lat="47.32838" lon="-1.6977">
        <ele>106</ele>
        <time>2013-10-20T09:39:22.000Z</time>
      </trkpt>
      <trkpt lat="47.32838" lon="-1.6977">
        <ele>106</ele>
        <time>2013-10-20T09:39:24.000Z</time>
      </trkpt>
      <trkpt lat="47.3285" lon="-1.69764">
        <ele>106</ele>
        <time>2013-10-20T09:39:26.000Z</time>
      </trkpt>
      <trkpt lat="47.3285" lon="-1.69764">
        <ele>106</ele>
        <time>2013-10-20T09:39:28.000Z</time>
      </trkpt>
      <trkpt lat="47.32861" lon="-1.69758">
        <ele>106</ele>
        <time>2013-10-20T09:39:30.000Z</time>
      </trkpt>
      <trkpt lat="47.32861" lon="-1.69758">
        <ele>106</ele>
        <time>2013-10-20T09:39:32.000Z</time>
      </trkpt>
      <trkpt lat="47.32872" lon="-1.69752">
        <ele>106</ele>
        <time>2013-10-20T09:39:34.000Z</time>
      </trkpt>
      <trkpt lat="47.32872" lon="-1.69752">
        <ele>106</ele>
        <time>2013-10-20T09:39:36.000Z</time>
      </trkpt>
      <trkpt lat="47.32883" lon="-1.69746">
        <ele>106</ele>
        <time>2013-10-20T09:39:38.000Z</time>
      </trkpt>
      <trkpt lat="47.32883" lon="-1.69746">
        <ele>106</ele>
        <time>2013-10-20T09:39:40.000Z</time>
      </trkpt>
      <trkpt lat="47.32895" lon="-1.6974">
        <ele>106</ele>
        <time>2013-10-20T09:39:42.000Z</time>
      </trkpt>
      <trkpt lat="47.32895" lon="-1.6974">
        <ele>106</ele>
        <time>2013-10-20T09:39:44.000Z</time>
      </trkpt>
      <trkpt lat="47.32904" lon="-1.69735">
        <ele>106</ele>
        <time>2013-10-20T09:39:46.000Z</time>
      </trkpt>
      <trkpt lat="47.32904" lon="-1.69735">
        <ele>106</ele>
        <time>2013-10-20T09:39:48.000Z</time>
      </trkpt>
      <trkpt lat="47.32913" lon="-1.6973">
        <ele>106</ele>
        <time>2013-10-20T09:39:50.000Z</time>
      </trkpt>
      <trkpt lat="47.32913" lon="-1.6973">
        <ele>106</ele>
        <time>2013-10-20T09:39:52.000Z</time>
      </trkpt>
      <trkpt lat="47.32922" lon="-1.69726">
        <ele>106</ele>
        <time>2013-10-20T09:39:54.000Z</time>
      </trkpt>
      <trkpt lat="47.32922" lon="-1.69726">
        <ele>106</ele>
        <time>2013-10-20T09:39:56.000Z</time>
      </trkpt>
      <trkpt lat="47.3293" lon="-1.69721">
        <ele>106</ele>
        <time>2013-10-20T09:39:58.000Z</time>
      </trkpt>
      <trkpt lat="47.3293" lon="-1.69721">
        <ele>106</ele>
        <time>2013-10-20T09:40:00.000Z</time>
      </trkpt>
      <trkpt lat="47.3294" lon="-1.69716">
        <ele>106</ele>
        <time>2013-10-20T09:40:02.000Z</time>
      </trkpt>
      <trkpt lat="47.3294" lon="-1.69716">
        <ele>106</ele>
        <time>2013-10-20T09:40:04.000Z</time>
      </trkpt>
      <trkpt lat="47.3294" lon="-1.69716">
        <ele>106</ele>
        <time>2013-10-20T09:40:08.000Z</time>
      </trkpt>
      <trkpt lat="47.32955" lon="-1.69708">
        <ele>106</ele>
        <time>2013-10-20T09:40:10.000Z</time>
      </trkpt>
      <trkpt lat="47.32955" lon="-1.69708">
        <ele>106</ele>
        <time>2013-10-20T09:40:14.000Z</time>
      </trkpt>
      <trkpt lat="47.32955" lon="-1.69708">
        <ele>106</ele>
        <time>2013-10-20T09:40:16.000Z</time>
      </trkpt>
      <trkpt lat="47.32979" lon="-1.697">
        <ele>106</ele>
        <time>2013-10-20T09:40:20.000Z</time>
      </trkpt>
      <trkpt lat="47.32979" lon="-1.697">
        <ele>106</ele>
        <time>2013-10-20T09:40:22.000Z</time>
      </trkpt>
      <trkpt lat="47.32979" lon="-1.697">
        <ele>106</ele>
        <time>2013-10-20T09:40:25.000Z</time>
      </trkpt>
      <trkpt lat="47.3303" lon="-1.69698">
        <ele>107</ele>
        <time>2013-10-20T09:40:42.000Z</time>
      </trkpt>
      <trkpt lat="47.33043" lon="-1.69696">
        <ele>107</ele>
        <time>2013-10-20T09:40:46.000Z</time>
      </trkpt>
      <trkpt lat="47.33049" lon="-1.69695">
        <ele>107</ele>
        <time>2013-10-20T09:40:50.000Z</time>
      </trkpt>
      <trkpt lat="47.33054" lon="-1.69694">
        <ele>107</ele>
        <time>2013-10-20T09:40:52.000Z</time>
      </trkpt>
      <trkpt lat="47.3306" lon="-1.69693">
        <ele>108</ele>
        <time>2013-10-20T09:40:55.000Z</time>
      </trkpt>
      <trkpt lat="47.3306" lon="-1.69693">
        <ele>108</ele>
        <time>2013-10-20T09:41:01.000Z</time>
      </trkpt>
      <trkpt lat="47.3308" lon="-1.69688">
        <ele>108</ele>
        <time>2013-10-20T09:41:12.000Z</time>
      </trkpt>
      <trkpt lat="47.33094" lon="-1.69685">
        <ele>108</ele>
        <time>2013-10-20T09:41:14.000Z</time>
      </trkpt>
      <trkpt lat="47.33103" lon="-1.69683">
        <ele>108</ele>
        <time>2013-10-20T09:41:16.000Z</time>
      </trkpt>
      <trkpt lat="47.33109" lon="-1.69681">
        <ele>109</ele>
        <time>2013-10-20T09:41:18.000Z</time>
      </trkpt>
      <trkpt lat="47.33115" lon="-1.69679">
        <ele>109</ele>
        <time>2013-10-20T09:41:20.000Z</time>
      </trkpt>
      <trkpt lat="47.33126" lon="-1.6967">
        <ele>109</ele>
        <time>2013-10-20T09:41:22.000Z</time>
      </trkpt>
      <trkpt lat="47.33136" lon="-1.69657">
        <ele>109</ele>
        <time>2013-10-20T09:41:26.000Z</time>
      </trkpt>
      <trkpt lat="47.33136" lon="-1.69657">
        <ele>109</ele>
        <time>2013-10-20T09:41:32.000Z</time>
      </trkpt>
      <trkpt lat="47.33144" lon="-1.69625">
        <ele>109</ele>
        <time>2013-10-20T09:41:36.000Z</time>
      </trkpt>
      <trkpt lat="47.33144" lon="-1.69625">
        <ele>109</ele>
        <time>2013-10-20T09:41:54.000Z</time>
      </trkpt>
      <trkpt lat="47.33144" lon="-1.69625">
        <ele>109</ele>
        <time>2013-10-20T09:42:19.000Z</time>
      </trkpt>
    </trkseg>
  </trk>
</gpx>